<?xml version='1.0' encoding='UTF-8'?><gpx version="1.1" creator="JPX - https://github.com/jenetics/jpx" xmlns="http://www.topografix.com/GPX/1/1"><trk><trkseg><trkpt lat="51.7742714" lon="-1.4924286"><ele>81.0</ele><time>2026-04-12T18:58:01.34Z</time></trkpt><trkpt lat="51.7743017" lon="-1.492334"><ele>81.0</ele><time>2026-04-12T18:58:03.339Z</time></trkpt><trkpt lat="51.7742288" lon="-1.4924039"><ele>81.0</ele><time>2026-04-12T18:58:18.34Z</time></trkpt><trkpt lat="51.774195" lon="-1.4925247"><ele>81.0</ele><time>2026-04-12T18:58:20.34Z</time></trkpt><trkpt lat="51.7742242" lon="-1.4927304"><ele>81.0</ele><time>2026-04-12T18:58:22.339Z</time></trkpt><trkpt lat="51.7742894" lon="-1.4927796"><ele>81.0</ele><time>2026-04-12T18:58:24.34Z</time></trkpt><trkpt lat="51.7743015" lon="-1.4928891"><ele>81.0</ele><time>2026-04-12T18:58:28.339Z</time></trkpt><trkpt lat="51.774198" lon="-1.492892"><ele>81.0</ele><time>2026-04-12T18:58:31.339Z</time></trkpt><trkpt lat="51.7741355" lon="-1.4928752"><ele>81.0</ele><time>2026-04-12T18:58:32.339Z</time></trkpt><trkpt lat="51.7740755" lon="-1.4928432"><ele>81.0</ele><time>2026-04-12T18:58:33.339Z</time></trkpt><trkpt lat="51.7739716" lon="-1.4927879"><ele>81.0</ele><time>2026-04-12T18:58:35.339Z</time></trkpt><trkpt lat="51.7738878" lon="-1.4927448"><ele>81.0</ele><time>2026-04-12T18:58:37.339Z</time></trkpt><trkpt lat="51.7738204" lon="-1.492663"><ele>81.0</ele><time>2026-04-12T18:58:39.34Z</time></trkpt><trkpt lat="51.7737741" lon="-1.4925369"><ele>81.0</ele><time>2026-04-12T18:58:41.34Z</time></trkpt><trkpt lat="51.7737637" lon="-1.4923902"><ele>81.0</ele><time>2026-04-12T18:58:43.34Z</time></trkpt><trkpt lat="51.7737759" lon="-1.4922826"><ele>81.0</ele><time>2026-04-12T18:58:50.339Z</time></trkpt><trkpt lat="51.7738446" lon="-1.4921883"><ele>81.0</ele><time>2026-04-12T18:58:58.339Z</time></trkpt><trkpt lat="51.7739059" lon="-1.4921354"><ele>81.0</ele><time>2026-04-12T18:58:59.34Z</time></trkpt><trkpt lat="51.7739816" lon="-1.4920969"><ele>81.0</ele><time>2026-04-12T18:59:00.339Z</time></trkpt><trkpt lat="51.77406" lon="-1.4920698"><ele>81.0</ele><time>2026-04-12T18:59:01.34Z</time></trkpt><trkpt lat="51.7741406" lon="-1.4920553"><ele>81.0</ele><time>2026-04-12T18:59:02.339Z</time></trkpt><trkpt lat="51.7742237" lon="-1.4920377"><ele>81.0</ele><time>2026-04-12T18:59:03.34Z</time></trkpt><trkpt lat="51.7743111" lon="-1.492027"><ele>81.0</ele><time>2026-04-12T18:59:04.339Z</time></trkpt><trkpt lat="51.7744022" lon="-1.4920205"><ele>81.0</ele><time>2026-04-12T18:59:05.34Z</time></trkpt><trkpt lat="51.7744986" lon="-1.4920196"><ele>81.4</ele><time>2026-04-12T18:59:06.34Z</time></trkpt><trkpt lat="51.7745982" lon="-1.4920269"><ele>81.8</ele><time>2026-04-12T18:59:07.34Z</time></trkpt><trkpt lat="51.7747012" lon="-1.4920371"><ele>82.2</ele><time>2026-04-12T18:59:08.339Z</time></trkpt><trkpt lat="51.7748013" lon="-1.492052"><ele>82.60000000000001</ele><time>2026-04-12T18:59:09.339Z</time></trkpt><trkpt lat="51.7748954" lon="-1.4920678"><ele>83.0</ele><time>2026-04-12T18:59:10.34Z</time></trkpt><trkpt lat="51.7749886" lon="-1.4920796"><ele>83.0</ele><time>2026-04-12T18:59:11.341Z</time></trkpt><trkpt lat="51.7750844" lon="-1.4920813"><ele>83.0</ele><time>2026-04-12T18:59:12.341Z</time></trkpt><trkpt lat="51.7751761" lon="-1.492085"><ele>83.0</ele><time>2026-04-12T18:59:13.341Z</time></trkpt><trkpt lat="51.7752657" lon="-1.4920873"><ele>83.0</ele><time>2026-04-12T18:59:14.341Z</time></trkpt><trkpt lat="51.7753492" lon="-1.4920846"><ele>83.0</ele><time>2026-04-12T18:59:15.34Z</time></trkpt><trkpt lat="51.7754428" lon="-1.4920789"><ele>83.0</ele><time>2026-04-12T18:59:16.341Z</time></trkpt><trkpt lat="51.7755222" lon="-1.4920975"><ele>83.0</ele><time>2026-04-12T18:59:17.34Z</time></trkpt><trkpt lat="51.7755881" lon="-1.4920294"><ele>83.0</ele><time>2026-04-12T18:59:22.34Z</time></trkpt><trkpt lat="51.7756027" lon="-1.4918965"><ele>83.0</ele><time>2026-04-12T18:59:23.34Z</time></trkpt><trkpt lat="51.7756109" lon="-1.4917235"><ele>83.0</ele><time>2026-04-12T18:59:24.34Z</time></trkpt><trkpt lat="51.7756088" lon="-1.4914968"><ele>82.66666666666667</ele><time>2026-04-12T18:59:25.341Z</time></trkpt><trkpt lat="51.7755984" lon="-1.4912286"><ele>82.33333333333333</ele><time>2026-04-12T18:59:26.34Z</time></trkpt><trkpt lat="51.7755893" lon="-1.4909368"><ele>82.0</ele><time>2026-04-12T18:59:27.34Z</time></trkpt><trkpt lat="51.7755828" lon="-1.4906517"><ele>81.66666666666666</ele><time>2026-04-12T18:59:28.341Z</time></trkpt><trkpt lat="51.7755724" lon="-1.4903921"><ele>81.33333333333333</ele><time>2026-04-12T18:59:29.341Z</time></trkpt><trkpt lat="51.7755585" lon="-1.4901459"><ele>81.0</ele><time>2026-04-12T18:59:30.34Z</time></trkpt><trkpt lat="51.775545" lon="-1.4899058"><ele>81.0</ele><time>2026-04-12T18:59:31.341Z</time></trkpt><trkpt lat="51.7755351" lon="-1.4896707"><ele>81.0</ele><time>2026-04-12T18:59:32.341Z</time></trkpt><trkpt lat="51.7755262" lon="-1.4894409"><ele>81.0</ele><time>2026-04-12T18:59:33.341Z</time></trkpt><trkpt lat="51.7755173" lon="-1.4892128"><ele>81.0</ele><time>2026-04-12T18:59:34.341Z</time></trkpt><trkpt lat="51.775506" lon="-1.4889832"><ele>80.75</ele><time>2026-04-12T18:59:35.341Z</time></trkpt><trkpt lat="51.775493" lon="-1.4887557"><ele>80.5</ele><time>2026-04-12T18:59:36.34Z</time></trkpt><trkpt lat="51.7754788" lon="-1.4885311"><ele>80.25</ele><time>2026-04-12T18:59:37.341Z</time></trkpt><trkpt lat="51.7754643" lon="-1.4883065"><ele>80.0</ele><time>2026-04-12T18:59:38.34Z</time></trkpt><trkpt lat="51.7754527" lon="-1.488083"><ele>80.0</ele><time>2026-04-12T18:59:39.341Z</time></trkpt><trkpt lat="51.7754395" lon="-1.4878611"><ele>80.0</ele><time>2026-04-12T18:59:40.341Z</time></trkpt><trkpt lat="51.7754291" lon="-1.4876369"><ele>80.0</ele><time>2026-04-12T18:59:41.34Z</time></trkpt><trkpt lat="51.7754193" lon="-1.4874102"><ele>80.0</ele><time>2026-04-12T18:59:42.341Z</time></trkpt><trkpt lat="51.7754106" lon="-1.4871815"><ele>80.0</ele><time>2026-04-12T18:59:43.341Z</time></trkpt><trkpt lat="51.7754018" lon="-1.4869477"><ele>80.0</ele><time>2026-04-12T18:59:44.341Z</time></trkpt><trkpt lat="51.7753927" lon="-1.4867118"><ele>80.0</ele><time>2026-04-12T18:59:45.341Z</time></trkpt><trkpt lat="51.7753814" lon="-1.4864679"><ele>80.0</ele><time>2026-04-12T18:59:46.34Z</time></trkpt><trkpt lat="51.7753696" lon="-1.4861949"><ele>80.33333333333334</ele><time>2026-04-12T18:59:47.341Z</time></trkpt><trkpt lat="51.7753581" lon="-1.4858908"><ele>80.66666666666667</ele><time>2026-04-12T18:59:48.34Z</time></trkpt><trkpt lat="51.775349" lon="-1.4855606"><ele>81.0</ele><time>2026-04-12T18:59:49.341Z</time></trkpt><trkpt lat="51.7753417" lon="-1.4852009"><ele>81.0</ele><time>2026-04-12T18:59:50.34Z</time></trkpt><trkpt lat="51.775336" lon="-1.4848165"><ele>81.0</ele><time>2026-04-12T18:59:51.341Z</time></trkpt><trkpt lat="51.7753301" lon="-1.4844185"><ele>80.5</ele><time>2026-04-12T18:59:52.341Z</time></trkpt><trkpt lat="51.7753259" lon="-1.4840004"><ele>80.0</ele><time>2026-04-12T18:59:53.34Z</time></trkpt><trkpt lat="51.7753214" lon="-1.4835652"><ele>79.5</ele><time>2026-04-12T18:59:54.341Z</time></trkpt><trkpt lat="51.7753198" lon="-1.4831366"><ele>79.0</ele><time>2026-04-12T18:59:55.341Z</time></trkpt><trkpt lat="51.7753219" lon="-1.4827071"><ele>79.0</ele><time>2026-04-12T18:59:56.34Z</time></trkpt><trkpt lat="51.7753323" lon="-1.4822951"><ele>79.0</ele><time>2026-04-12T18:59:57.341Z</time></trkpt><trkpt lat="51.775344" lon="-1.481918"><ele>79.0</ele><time>2026-04-12T18:59:58.34Z</time></trkpt><trkpt lat="51.7753591" lon="-1.4815674"><ele>79.0</ele><time>2026-04-12T18:59:59.341Z</time></trkpt><trkpt lat="51.7753729" lon="-1.4812373"><ele>79.0</ele><time>2026-04-12T19:00:00.341Z</time></trkpt><trkpt lat="51.7753897" lon="-1.4809289"><ele>79.0</ele><time>2026-04-12T19:00:01.341Z</time></trkpt><trkpt lat="51.7754058" lon="-1.48063"><ele>79.0</ele><time>2026-04-12T19:00:02.34Z</time></trkpt><trkpt lat="51.7754233" lon="-1.48033"><ele>79.0</ele><time>2026-04-12T19:00:03.341Z</time></trkpt><trkpt lat="51.7754374" lon="-1.4800525"><ele>79.0</ele><time>2026-04-12T19:00:04.34Z</time></trkpt><trkpt lat="51.7754639" lon="-1.4797679"><ele>79.0</ele><time>2026-04-12T19:00:05.341Z</time></trkpt><trkpt lat="51.775488" lon="-1.4794878"><ele>79.0</ele><time>2026-04-12T19:00:06.34Z</time></trkpt><trkpt lat="51.7755004" lon="-1.4792036"><ele>79.0</ele><time>2026-04-12T19:00:07.34Z</time></trkpt><trkpt lat="51.7755295" lon="-1.4789357"><ele>79.0</ele><time>2026-04-12T19:00:08.34Z</time></trkpt><trkpt lat="51.7755514" lon="-1.4786697"><ele>79.0</ele><time>2026-04-12T19:00:09.34Z</time></trkpt><trkpt lat="51.7755819" lon="-1.478405"><ele>79.0</ele><time>2026-04-12T19:00:10.34Z</time></trkpt><trkpt lat="51.7756053" lon="-1.4781327"><ele>79.0</ele><time>2026-04-12T19:00:11.34Z</time></trkpt><trkpt lat="51.7756306" lon="-1.4778715"><ele>79.0</ele><time>2026-04-12T19:00:12.341Z</time></trkpt><trkpt lat="51.7756552" lon="-1.4776004"><ele>79.33333333333333</ele><time>2026-04-12T19:00:13.341Z</time></trkpt><trkpt lat="51.7756802" lon="-1.4773301"><ele>79.66666666666667</ele><time>2026-04-12T19:00:14.341Z</time></trkpt><trkpt lat="51.7757131" lon="-1.4770717"><ele>80.0</ele><time>2026-04-12T19:00:15.341Z</time></trkpt><trkpt lat="51.7757495" lon="-1.4768077"><ele>80.0</ele><time>2026-04-12T19:00:16.34Z</time></trkpt><trkpt lat="51.7757858" lon="-1.4765383"><ele>80.0</ele><time>2026-04-12T19:00:17.341Z</time></trkpt><trkpt lat="51.7758187" lon="-1.4762712"><ele>80.0</ele><time>2026-04-12T19:00:18.341Z</time></trkpt><trkpt lat="51.7758564" lon="-1.4760051"><ele>80.0</ele><time>2026-04-12T19:00:19.34Z</time></trkpt><trkpt lat="51.7758967" lon="-1.47574"><ele>80.0</ele><time>2026-04-12T19:00:20.341Z</time></trkpt><trkpt lat="51.775934" lon="-1.4754706"><ele>80.0</ele><time>2026-04-12T19:00:21.341Z</time></trkpt><trkpt lat="51.775985" lon="-1.4751909"><ele>80.0</ele><time>2026-04-12T19:00:22.34Z</time></trkpt><trkpt lat="51.7760285" lon="-1.4749075"><ele>80.0</ele><time>2026-04-12T19:00:23.341Z</time></trkpt><trkpt lat="51.7760771" lon="-1.4746298"><ele>80.0</ele><time>2026-04-12T19:00:24.341Z</time></trkpt><trkpt lat="51.7761247" lon="-1.474345"><ele>80.33333333333334</ele><time>2026-04-12T19:00:25.341Z</time></trkpt><trkpt lat="51.77618" lon="-1.4740605"><ele>80.66666666666667</ele><time>2026-04-12T19:00:26.34Z</time></trkpt><trkpt lat="51.7762301" lon="-1.473783"><ele>81.0</ele><time>2026-04-12T19:00:27.34Z</time></trkpt><trkpt lat="51.7762857" lon="-1.4735045"><ele>81.0</ele><time>2026-04-12T19:00:28.341Z</time></trkpt><trkpt lat="51.7763482" lon="-1.4732257"><ele>81.0</ele><time>2026-04-12T19:00:29.34Z</time></trkpt><trkpt lat="51.7764051" lon="-1.4729477"><ele>81.0</ele><time>2026-04-12T19:00:30.34Z</time></trkpt><trkpt lat="51.776461" lon="-1.4726689"><ele>80.66666666666667</ele><time>2026-04-12T19:00:31.341Z</time></trkpt><trkpt lat="51.7765221" lon="-1.4723843"><ele>80.33333333333334</ele><time>2026-04-12T19:00:32.341Z</time></trkpt><trkpt lat="51.7765878" lon="-1.4721206"><ele>80.0</ele><time>2026-04-12T19:00:33.341Z</time></trkpt><trkpt lat="51.7766515" lon="-1.4718436"><ele>80.0</ele><time>2026-04-12T19:00:34.342Z</time></trkpt><trkpt lat="51.7767175" lon="-1.471581"><ele>80.0</ele><time>2026-04-12T19:00:35.341Z</time></trkpt><trkpt lat="51.7767824" lon="-1.4713068"><ele>80.0</ele><time>2026-04-12T19:00:36.342Z</time></trkpt><trkpt lat="51.7768455" lon="-1.4710359"><ele>80.0</ele><time>2026-04-12T19:00:37.341Z</time></trkpt><trkpt lat="51.7769168" lon="-1.4707786"><ele>80.0</ele><time>2026-04-12T19:00:38.342Z</time></trkpt><trkpt lat="51.7769872" lon="-1.4705071"><ele>80.0</ele><time>2026-04-12T19:00:39.342Z</time></trkpt><trkpt lat="51.7770566" lon="-1.4702506"><ele>80.33333333333334</ele><time>2026-04-12T19:00:40.342Z</time></trkpt><trkpt lat="51.7771252" lon="-1.4699917"><ele>80.66666666666667</ele><time>2026-04-12T19:00:41.342Z</time></trkpt><trkpt lat="51.7771978" lon="-1.4697313"><ele>81.0</ele><time>2026-04-12T19:00:42.341Z</time></trkpt><trkpt lat="51.7772695" lon="-1.4694721"><ele>82.0</ele><time>2026-04-12T19:00:43.342Z</time></trkpt><trkpt lat="51.7773409" lon="-1.4692096"><ele>83.0</ele><time>2026-04-12T19:00:44.341Z</time></trkpt><trkpt lat="51.7774209" lon="-1.4689574"><ele>84.0</ele><time>2026-04-12T19:00:45.342Z</time></trkpt><trkpt lat="51.7775004" lon="-1.4687035"><ele>84.0</ele><time>2026-04-12T19:00:46.342Z</time></trkpt><trkpt lat="51.7775745" lon="-1.4684414"><ele>84.0</ele><time>2026-04-12T19:00:47.341Z</time></trkpt><trkpt lat="51.7776555" lon="-1.4681964"><ele>84.0</ele><time>2026-04-12T19:00:48.342Z</time></trkpt><trkpt lat="51.7777341" lon="-1.4679443"><ele>84.66666666666667</ele><time>2026-04-12T19:00:49.341Z</time></trkpt><trkpt lat="51.7778156" lon="-1.4677001"><ele>85.33333333333334</ele><time>2026-04-12T19:00:50.342Z</time></trkpt><trkpt lat="51.7778997" lon="-1.4674655"><ele>86.0</ele><time>2026-04-12T19:00:51.342Z</time></trkpt><trkpt lat="51.7779775" lon="-1.467224"><ele>86.66666666666667</ele><time>2026-04-12T19:00:52.342Z</time></trkpt><trkpt lat="51.7780608" lon="-1.4669913"><ele>87.33333333333333</ele><time>2026-04-12T19:00:53.341Z</time></trkpt><trkpt lat="51.7781455" lon="-1.4667579"><ele>88.0</ele><time>2026-04-12T19:00:54.342Z</time></trkpt><trkpt lat="51.7782288" lon="-1.4665172"><ele>88.0</ele><time>2026-04-12T19:00:55.342Z</time></trkpt><trkpt lat="51.7783114" lon="-1.4662808"><ele>88.0</ele><time>2026-04-12T19:00:56.342Z</time></trkpt><trkpt lat="51.7784013" lon="-1.466054"><ele>88.0</ele><time>2026-04-12T19:00:57.342Z</time></trkpt><trkpt lat="51.7784926" lon="-1.4658277"><ele>88.0</ele><time>2026-04-12T19:00:58.342Z</time></trkpt><trkpt lat="51.7785899" lon="-1.4655822"><ele>88.0</ele><time>2026-04-12T19:00:59.342Z</time></trkpt><trkpt lat="51.7786851" lon="-1.4653359"><ele>88.0</ele><time>2026-04-12T19:01:00.342Z</time></trkpt><trkpt lat="51.7787819" lon="-1.4650981"><ele>88.0</ele><time>2026-04-12T19:01:01.342Z</time></trkpt><trkpt lat="51.7788785" lon="-1.4648585"><ele>88.0</ele><time>2026-04-12T19:01:02.341Z</time></trkpt><trkpt lat="51.7789801" lon="-1.464615"><ele>88.0</ele><time>2026-04-12T19:01:03.342Z</time></trkpt><trkpt lat="51.7790909" lon="-1.4643752"><ele>88.66666666666666</ele><time>2026-04-12T19:01:04.342Z</time></trkpt><trkpt lat="51.7791973" lon="-1.4641369"><ele>89.33333333333333</ele><time>2026-04-12T19:01:05.342Z</time></trkpt><trkpt lat="51.7793065" lon="-1.4638989"><ele>90.0</ele><time>2026-04-12T19:01:06.341Z</time></trkpt><trkpt lat="51.7794196" lon="-1.4636518"><ele>91.0</ele><time>2026-04-12T19:01:07.341Z</time></trkpt><trkpt lat="51.7795349" lon="-1.4634119"><ele>92.0</ele><time>2026-04-12T19:01:08.342Z</time></trkpt><trkpt lat="51.7796475" lon="-1.4631675"><ele>93.0</ele><time>2026-04-12T19:01:09.342Z</time></trkpt><trkpt lat="51.7797679" lon="-1.4629245"><ele>94.0</ele><time>2026-04-12T19:01:10.341Z</time></trkpt><trkpt lat="51.7798877" lon="-1.4626788"><ele>95.0</ele><time>2026-04-12T19:01:11.341Z</time></trkpt><trkpt lat="51.7800131" lon="-1.4624412"><ele>96.0</ele><time>2026-04-12T19:01:12.342Z</time></trkpt><trkpt lat="51.7801424" lon="-1.4621997"><ele>98.0</ele><time>2026-04-12T19:01:13.342Z</time></trkpt><trkpt lat="51.7802689" lon="-1.4619528"><ele>100.0</ele><time>2026-04-12T19:01:14.342Z</time></trkpt><trkpt lat="51.7803972" lon="-1.4617098"><ele>102.0</ele><time>2026-04-12T19:01:15.341Z</time></trkpt><trkpt lat="51.7805249" lon="-1.4614737"><ele>101.66666666666666</ele><time>2026-04-12T19:01:16.342Z</time></trkpt><trkpt lat="51.7806555" lon="-1.4612395"><ele>101.33333333333333</ele><time>2026-04-12T19:01:17.341Z</time></trkpt><trkpt lat="51.7807848" lon="-1.4610134"><ele>101.0</ele><time>2026-04-12T19:01:18.342Z</time></trkpt><trkpt lat="51.7809146" lon="-1.4607952"><ele>101.0</ele><time>2026-04-12T19:01:19.342Z</time></trkpt><trkpt lat="51.7810445" lon="-1.4605844"><ele>101.0</ele><time>2026-04-12T19:01:20.341Z</time></trkpt><trkpt lat="51.7811749" lon="-1.4603656"><ele>101.0</ele><time>2026-04-12T19:01:21.342Z</time></trkpt><trkpt lat="51.7813078" lon="-1.4601478"><ele>101.0</ele><time>2026-04-12T19:01:22.341Z</time></trkpt><trkpt lat="51.781446" lon="-1.4599214"><ele>101.0</ele><time>2026-04-12T19:01:23.341Z</time></trkpt><trkpt lat="51.7815796" lon="-1.459702"><ele>101.0</ele><time>2026-04-12T19:01:24.342Z</time></trkpt><trkpt lat="51.7817131" lon="-1.4594842"><ele>101.0</ele><time>2026-04-12T19:01:25.342Z</time></trkpt><trkpt lat="51.7818516" lon="-1.4592721"><ele>101.0</ele><time>2026-04-12T19:01:26.342Z</time></trkpt><trkpt lat="51.7819899" lon="-1.4590471"><ele>101.0</ele><time>2026-04-12T19:01:27.341Z</time></trkpt><trkpt lat="51.7821255" lon="-1.4588188"><ele>100.33333333333333</ele><time>2026-04-12T19:01:28.342Z</time></trkpt><trkpt lat="51.7822589" lon="-1.4585906"><ele>99.66666666666666</ele><time>2026-04-12T19:01:29.342Z</time></trkpt><trkpt lat="51.7823934" lon="-1.4583655"><ele>99.0</ele><time>2026-04-12T19:01:30.341Z</time></trkpt><trkpt lat="51.7825248" lon="-1.45813"><ele>98.33333333333334</ele><time>2026-04-12T19:01:31.342Z</time></trkpt><trkpt lat="51.7826578" lon="-1.4578958"><ele>97.66666666666667</ele><time>2026-04-12T19:01:32.341Z</time></trkpt><trkpt lat="51.7827908" lon="-1.4576722"><ele>97.0</ele><time>2026-04-12T19:01:33.342Z</time></trkpt><trkpt lat="51.7829206" lon="-1.4574461"><ele>96.66666666666667</ele><time>2026-04-12T19:01:34.341Z</time></trkpt><trkpt lat="51.783041" lon="-1.4572072"><ele>96.33333333333334</ele><time>2026-04-12T19:01:35.342Z</time></trkpt><trkpt lat="51.783166" lon="-1.4569683"><ele>96.0</ele><time>2026-04-12T19:01:36.341Z</time></trkpt><trkpt lat="51.783286" lon="-1.456734"><ele>96.0</ele><time>2026-04-12T19:01:37.341Z</time></trkpt><trkpt lat="51.7834059" lon="-1.4564997"><ele>96.0</ele><time>2026-04-12T19:01:38.342Z</time></trkpt><trkpt lat="51.7835194" lon="-1.4562556"><ele>96.0</ele><time>2026-04-12T19:01:39.342Z</time></trkpt><trkpt lat="51.7836375" lon="-1.4560042"><ele>97.33333333333334</ele><time>2026-04-12T19:01:40.342Z</time></trkpt><trkpt lat="51.7837537" lon="-1.4557628"><ele>98.66666666666667</ele><time>2026-04-12T19:01:41.342Z</time></trkpt><trkpt lat="51.7838763" lon="-1.4555145"><ele>100.0</ele><time>2026-04-12T19:01:42.341Z</time></trkpt><trkpt lat="51.7839999" lon="-1.455276"><ele>100.0</ele><time>2026-04-12T19:01:43.341Z</time></trkpt><trkpt lat="51.7841288" lon="-1.4550143"><ele>100.0</ele><time>2026-04-12T19:01:44.342Z</time></trkpt><trkpt lat="51.7842471" lon="-1.4547396"><ele>100.0</ele><time>2026-04-12T19:01:45.341Z</time></trkpt><trkpt lat="51.7843732" lon="-1.4544428"><ele>101.0</ele><time>2026-04-12T19:01:46.342Z</time></trkpt><trkpt lat="51.7845033" lon="-1.4541193"><ele>102.0</ele><time>2026-04-12T19:01:47.342Z</time></trkpt><trkpt lat="51.7846429" lon="-1.4537844"><ele>102.0</ele><time>2026-04-12T19:01:48.341Z</time></trkpt><trkpt lat="51.7847836" lon="-1.4534311"><ele>102.0</ele><time>2026-04-12T19:01:49.342Z</time></trkpt><trkpt lat="51.7849234" lon="-1.4530582"><ele>101.0</ele><time>2026-04-12T19:01:50.342Z</time></trkpt><trkpt lat="51.7850592" lon="-1.4526759"><ele>100.0</ele><time>2026-04-12T19:01:51.343Z</time></trkpt><trkpt lat="51.7851971" lon="-1.4523033"><ele>101.5</ele><time>2026-04-12T19:01:52.343Z</time></trkpt><trkpt lat="51.7853292" lon="-1.4519396"><ele>103.0</ele><time>2026-04-12T19:01:53.342Z</time></trkpt><trkpt lat="51.785446" lon="-1.4515896"><ele>101.5</ele><time>2026-04-12T19:01:54.342Z</time></trkpt><trkpt lat="51.7855582" lon="-1.4512439"><ele>100.0</ele><time>2026-04-12T19:01:55.343Z</time></trkpt><trkpt lat="51.785678" lon="-1.4508767"><ele>100.0</ele><time>2026-04-12T19:01:56.343Z</time></trkpt><trkpt lat="51.7857885" lon="-1.4505129"><ele>100.0</ele><time>2026-04-12T19:01:57.343Z</time></trkpt><trkpt lat="51.7859049" lon="-1.4501215"><ele>99.5</ele><time>2026-04-12T19:01:58.342Z</time></trkpt><trkpt lat="51.7860159" lon="-1.4497162"><ele>99.0</ele><time>2026-04-12T19:01:59.342Z</time></trkpt><trkpt lat="51.7861324" lon="-1.4493142"><ele>99.0</ele><time>2026-04-12T19:02:00.342Z</time></trkpt><trkpt lat="51.7862434" lon="-1.4489049"><ele>99.0</ele><time>2026-04-12T19:02:01.342Z</time></trkpt><trkpt lat="51.7863552" lon="-1.4485007"><ele>97.5</ele><time>2026-04-12T19:02:02.343Z</time></trkpt><trkpt lat="51.7864647" lon="-1.448084"><ele>96.0</ele><time>2026-04-12T19:02:03.343Z</time></trkpt><trkpt lat="51.786573" lon="-1.4476757"><ele>95.0</ele><time>2026-04-12T19:02:04.343Z</time></trkpt><trkpt lat="51.7866807" lon="-1.4472642"><ele>94.0</ele><time>2026-04-12T19:02:05.342Z</time></trkpt><trkpt lat="51.7868002" lon="-1.4468523"><ele>94.0</ele><time>2026-04-12T19:02:06.343Z</time></trkpt><trkpt lat="51.7869096" lon="-1.44647"><ele>94.0</ele><time>2026-04-12T19:02:07.343Z</time></trkpt><trkpt lat="51.7870132" lon="-1.4460896"><ele>94.0</ele><time>2026-04-12T19:02:08.343Z</time></trkpt><trkpt lat="51.7871141" lon="-1.4457207"><ele>94.0</ele><time>2026-04-12T19:02:09.343Z</time></trkpt><trkpt lat="51.7872074" lon="-1.4453436"><ele>94.0</ele><time>2026-04-12T19:02:10.343Z</time></trkpt><trkpt lat="51.7873077" lon="-1.4449678"><ele>94.0</ele><time>2026-04-12T19:02:11.343Z</time></trkpt><trkpt lat="51.7873992" lon="-1.4445884"><ele>94.0</ele><time>2026-04-12T19:02:12.342Z</time></trkpt><trkpt lat="51.7874838" lon="-1.444225"><ele>94.0</ele><time>2026-04-12T19:02:13.342Z</time></trkpt><trkpt lat="51.7875575" lon="-1.4438694"><ele>94.0</ele><time>2026-04-12T19:02:14.342Z</time></trkpt><trkpt lat="51.7876307" lon="-1.4435131"><ele>94.0</ele><time>2026-04-12T19:02:15.342Z</time></trkpt><trkpt lat="51.7877055" lon="-1.4431576"><ele>96.0</ele><time>2026-04-12T19:02:16.343Z</time></trkpt><trkpt lat="51.7877772" lon="-1.4427925"><ele>98.0</ele><time>2026-04-12T19:02:17.342Z</time></trkpt><trkpt lat="51.7878457" lon="-1.4424267"><ele>98.5</ele><time>2026-04-12T19:02:18.343Z</time></trkpt><trkpt lat="51.7879143" lon="-1.442042"><ele>99.0</ele><time>2026-04-12T19:02:19.343Z</time></trkpt><trkpt lat="51.7879804" lon="-1.4416541"><ele>99.0</ele><time>2026-04-12T19:02:20.343Z</time></trkpt><trkpt lat="51.788048" lon="-1.4412557"><ele>99.0</ele><time>2026-04-12T19:02:21.342Z</time></trkpt><trkpt lat="51.7881182" lon="-1.4408432"><ele>98.0</ele><time>2026-04-12T19:02:22.342Z</time></trkpt><trkpt lat="51.7881904" lon="-1.4404432"><ele>97.0</ele><time>2026-04-12T19:02:23.342Z</time></trkpt><trkpt lat="51.7882643" lon="-1.4400334"><ele>95.0</ele><time>2026-04-12T19:02:24.343Z</time></trkpt><trkpt lat="51.7883383" lon="-1.4396182"><ele>93.0</ele><time>2026-04-12T19:02:25.342Z</time></trkpt><trkpt lat="51.788406" lon="-1.4392"><ele>93.0</ele><time>2026-04-12T19:02:26.343Z</time></trkpt><trkpt lat="51.7884713" lon="-1.4388197"><ele>93.0</ele><time>2026-04-12T19:02:27.342Z</time></trkpt><trkpt lat="51.7885375" lon="-1.4384564"><ele>93.5</ele><time>2026-04-12T19:02:28.343Z</time></trkpt><trkpt lat="51.7885982" lon="-1.4380975"><ele>94.0</ele><time>2026-04-12T19:02:29.343Z</time></trkpt><trkpt lat="51.7886554" lon="-1.4377464"><ele>92.0</ele><time>2026-04-12T19:02:30.343Z</time></trkpt><trkpt lat="51.7887135" lon="-1.4373974"><ele>90.0</ele><time>2026-04-12T19:02:31.343Z</time></trkpt><trkpt lat="51.7887715" lon="-1.4370406"><ele>89.66666666666667</ele><time>2026-04-12T19:02:32.342Z</time></trkpt><trkpt lat="51.7888332" lon="-1.4366984"><ele>89.33333333333334</ele><time>2026-04-12T19:02:33.342Z</time></trkpt><trkpt lat="51.7888956" lon="-1.4363585"><ele>89.0</ele><time>2026-04-12T19:02:34.342Z</time></trkpt><trkpt lat="51.7889553" lon="-1.435999"><ele>88.0</ele><time>2026-04-12T19:02:35.342Z</time></trkpt><trkpt lat="51.7890129" lon="-1.4356535"><ele>87.0</ele><time>2026-04-12T19:02:36.343Z</time></trkpt><trkpt lat="51.7890706" lon="-1.4353013"><ele>86.0</ele><time>2026-04-12T19:02:37.342Z</time></trkpt><trkpt lat="51.7891255" lon="-1.43495"><ele>85.33333333333334</ele><time>2026-04-12T19:02:38.343Z</time></trkpt><trkpt lat="51.7891829" lon="-1.4346048"><ele>84.66666666666667</ele><time>2026-04-12T19:02:39.343Z</time></trkpt><trkpt lat="51.7892402" lon="-1.4342482"><ele>84.0</ele><time>2026-04-12T19:02:40.342Z</time></trkpt><trkpt lat="51.7893" lon="-1.4339043"><ele>84.33333333333333</ele><time>2026-04-12T19:02:41.343Z</time></trkpt><trkpt lat="51.7893663" lon="-1.4335587"><ele>84.66666666666666</ele><time>2026-04-12T19:02:42.343Z</time></trkpt><trkpt lat="51.7894334" lon="-1.4332165"><ele>85.0</ele><time>2026-04-12T19:02:43.343Z</time></trkpt><trkpt lat="51.7895078" lon="-1.4328693"><ele>85.0</ele><time>2026-04-12T19:02:44.343Z</time></trkpt><trkpt lat="51.7895817" lon="-1.432526"><ele>85.0</ele><time>2026-04-12T19:02:45.343Z</time></trkpt><trkpt lat="51.7896582" lon="-1.4321868"><ele>85.0</ele><time>2026-04-12T19:02:46.343Z</time></trkpt><trkpt lat="51.7897287" lon="-1.4318491"><ele>85.0</ele><time>2026-04-12T19:02:47.343Z</time></trkpt><trkpt lat="51.7898044" lon="-1.431506"><ele>85.0</ele><time>2026-04-12T19:02:48.343Z</time></trkpt><trkpt lat="51.7898766" lon="-1.4311631"><ele>85.0</ele><time>2026-04-12T19:02:49.343Z</time></trkpt><trkpt lat="51.7899468" lon="-1.4308133"><ele>84.0</ele><time>2026-04-12T19:02:50.342Z</time></trkpt><trkpt lat="51.7900112" lon="-1.4304677"><ele>83.0</ele><time>2026-04-12T19:02:51.343Z</time></trkpt><trkpt lat="51.7900777" lon="-1.4301163"><ele>83.0</ele><time>2026-04-12T19:02:52.342Z</time></trkpt><trkpt lat="51.7901413" lon="-1.4297722"><ele>83.0</ele><time>2026-04-12T19:02:53.343Z</time></trkpt><trkpt lat="51.7902092" lon="-1.4294259"><ele>83.0</ele><time>2026-04-12T19:02:54.343Z</time></trkpt><trkpt lat="51.7902734" lon="-1.4290768"><ele>84.0</ele><time>2026-04-12T19:02:55.343Z</time></trkpt><trkpt lat="51.7903366" lon="-1.4287262"><ele>85.0</ele><time>2026-04-12T19:02:56.343Z</time></trkpt><trkpt lat="51.7904016" lon="-1.4283689"><ele>85.0</ele><time>2026-04-12T19:02:57.343Z</time></trkpt><trkpt lat="51.7904598" lon="-1.4280244"><ele>85.0</ele><time>2026-04-12T19:02:58.343Z</time></trkpt><trkpt lat="51.7905162" lon="-1.4276694"><ele>85.0</ele><time>2026-04-12T19:02:59.343Z</time></trkpt><trkpt lat="51.7905721" lon="-1.4273186"><ele>84.33333333333333</ele><time>2026-04-12T19:03:00.342Z</time></trkpt><trkpt lat="51.7906201" lon="-1.4269633"><ele>83.66666666666667</ele><time>2026-04-12T19:03:01.343Z</time></trkpt><trkpt lat="51.7906699" lon="-1.426614"><ele>83.0</ele><time>2026-04-12T19:03:02.342Z</time></trkpt><trkpt lat="51.7907211" lon="-1.4262559"><ele>83.0</ele><time>2026-04-12T19:03:03.342Z</time></trkpt><trkpt lat="51.79076" lon="-1.4258994"><ele>83.0</ele><time>2026-04-12T19:03:04.342Z</time></trkpt><trkpt lat="51.7908072" lon="-1.4255386"><ele>83.0</ele><time>2026-04-12T19:03:05.342Z</time></trkpt><trkpt lat="51.7908509" lon="-1.4251891"><ele>83.0</ele><time>2026-04-12T19:03:06.342Z</time></trkpt><trkpt lat="51.7908896" lon="-1.4248278"><ele>83.0</ele><time>2026-04-12T19:03:07.344Z</time></trkpt><trkpt lat="51.7909277" lon="-1.4244728"><ele>82.5</ele><time>2026-04-12T19:03:08.343Z</time></trkpt><trkpt lat="51.7909639" lon="-1.4241125"><ele>82.0</ele><time>2026-04-12T19:03:09.344Z</time></trkpt><trkpt lat="51.7909979" lon="-1.4237547"><ele>82.66666666666666</ele><time>2026-04-12T19:03:10.344Z</time></trkpt><trkpt lat="51.7910294" lon="-1.4234012"><ele>83.33333333333333</ele><time>2026-04-12T19:03:11.343Z</time></trkpt><trkpt lat="51.7910616" lon="-1.4230399"><ele>84.0</ele><time>2026-04-12T19:03:12.343Z</time></trkpt><trkpt lat="51.7910896" lon="-1.4226809"><ele>84.0</ele><time>2026-04-12T19:03:13.344Z</time></trkpt><trkpt lat="51.7911155" lon="-1.4223156"><ele>84.0</ele><time>2026-04-12T19:03:14.344Z</time></trkpt><trkpt lat="51.7911371" lon="-1.4219566"><ele>84.5</ele><time>2026-04-12T19:03:15.344Z</time></trkpt><trkpt lat="51.7911566" lon="-1.4216"><ele>85.0</ele><time>2026-04-12T19:03:16.344Z</time></trkpt><trkpt lat="51.7911733" lon="-1.4212306"><ele>85.0</ele><time>2026-04-12T19:03:17.344Z</time></trkpt><trkpt lat="51.79119" lon="-1.4208749"><ele>85.0</ele><time>2026-04-12T19:03:18.344Z</time></trkpt><trkpt lat="51.791205" lon="-1.4205088"><ele>85.0</ele><time>2026-04-12T19:03:19.344Z</time></trkpt><trkpt lat="51.7912161" lon="-1.4201467"><ele>84.0</ele><time>2026-04-12T19:03:20.344Z</time></trkpt><trkpt lat="51.7912236" lon="-1.4197791"><ele>83.0</ele><time>2026-04-12T19:03:21.344Z</time></trkpt><trkpt lat="51.7912302" lon="-1.4194218"><ele>82.0</ele><time>2026-04-12T19:03:22.344Z</time></trkpt><trkpt lat="51.7912367" lon="-1.4190478"><ele>81.5</ele><time>2026-04-12T19:03:23.343Z</time></trkpt><trkpt lat="51.791241" lon="-1.4186799"><ele>81.0</ele><time>2026-04-12T19:03:24.344Z</time></trkpt><trkpt lat="51.7912439" lon="-1.4183109"><ele>80.5</ele><time>2026-04-12T19:03:25.343Z</time></trkpt><trkpt lat="51.7912406" lon="-1.4179384"><ele>80.0</ele><time>2026-04-12T19:03:26.344Z</time></trkpt><trkpt lat="51.7912389" lon="-1.4175645"><ele>80.0</ele><time>2026-04-12T19:03:27.343Z</time></trkpt><trkpt lat="51.7912392" lon="-1.4171917"><ele>80.0</ele><time>2026-04-12T19:03:28.343Z</time></trkpt><trkpt lat="51.7912249" lon="-1.4168285"><ele>79.5</ele><time>2026-04-12T19:03:29.344Z</time></trkpt><trkpt lat="51.7912099" lon="-1.4164596"><ele>79.0</ele><time>2026-04-12T19:03:30.344Z</time></trkpt><trkpt lat="51.7912008" lon="-1.4160958"><ele>79.0</ele><time>2026-04-12T19:03:31.344Z</time></trkpt><trkpt lat="51.7911861" lon="-1.4157286"><ele>79.0</ele><time>2026-04-12T19:03:32.344Z</time></trkpt><trkpt lat="51.7911735" lon="-1.4153599"><ele>79.0</ele><time>2026-04-12T19:03:33.344Z</time></trkpt><trkpt lat="51.7911594" lon="-1.4149896"><ele>79.0</ele><time>2026-04-12T19:03:34.343Z</time></trkpt><trkpt lat="51.7911376" lon="-1.4146188"><ele>80.0</ele><time>2026-04-12T19:03:35.344Z</time></trkpt><trkpt lat="51.7911126" lon="-1.4142478"><ele>81.0</ele><time>2026-04-12T19:03:36.343Z</time></trkpt><trkpt lat="51.7910848" lon="-1.4138802"><ele>82.0</ele><time>2026-04-12T19:03:37.344Z</time></trkpt><trkpt lat="51.791052" lon="-1.4135059"><ele>83.0</ele><time>2026-04-12T19:03:38.343Z</time></trkpt><trkpt lat="51.79102" lon="-1.4131408"><ele>83.5</ele><time>2026-04-12T19:03:39.343Z</time></trkpt><trkpt lat="51.7909908" lon="-1.4127721"><ele>84.0</ele><time>2026-04-12T19:03:40.343Z</time></trkpt><trkpt lat="51.7909588" lon="-1.4123983"><ele>85.0</ele><time>2026-04-12T19:03:41.344Z</time></trkpt><trkpt lat="51.7909191" lon="-1.412029"><ele>86.0</ele><time>2026-04-12T19:03:42.343Z</time></trkpt><trkpt lat="51.7908852" lon="-1.4116838"><ele>87.0</ele><time>2026-04-12T19:03:43.343Z</time></trkpt><trkpt lat="51.7908507" lon="-1.4113545"><ele>86.66666666666667</ele><time>2026-04-12T19:03:44.344Z</time></trkpt><trkpt lat="51.7908125" lon="-1.4110437"><ele>86.33333333333334</ele><time>2026-04-12T19:03:45.343Z</time></trkpt><trkpt lat="51.7907754" lon="-1.4107431"><ele>86.0</ele><time>2026-04-12T19:03:46.343Z</time></trkpt><trkpt lat="51.7907398" lon="-1.4104388"><ele>86.0</ele><time>2026-04-12T19:03:47.343Z</time></trkpt><trkpt lat="51.7907078" lon="-1.4101363"><ele>86.0</ele><time>2026-04-12T19:03:48.343Z</time></trkpt><trkpt lat="51.7906794" lon="-1.4098288"><ele>86.0</ele><time>2026-04-12T19:03:49.343Z</time></trkpt><trkpt lat="51.790645" lon="-1.4095016"><ele>85.0</ele><time>2026-04-12T19:03:50.343Z</time></trkpt><trkpt lat="51.790599" lon="-1.4091776"><ele>84.0</ele><time>2026-04-12T19:03:51.343Z</time></trkpt><trkpt lat="51.7905382" lon="-1.408845"><ele>83.0</ele><time>2026-04-12T19:03:52.343Z</time></trkpt><trkpt lat="51.7904795" lon="-1.4085056"><ele>81.33333333333334</ele><time>2026-04-12T19:03:53.344Z</time></trkpt><trkpt lat="51.7904164" lon="-1.4081749"><ele>79.66666666666667</ele><time>2026-04-12T19:03:54.344Z</time></trkpt><trkpt lat="51.7903586" lon="-1.4078338"><ele>78.0</ele><time>2026-04-12T19:03:55.344Z</time></trkpt><trkpt lat="51.7902933" lon="-1.4074815"><ele>76.0</ele><time>2026-04-12T19:03:56.343Z</time></trkpt><trkpt lat="51.7902251" lon="-1.4071301"><ele>74.0</ele><time>2026-04-12T19:03:57.343Z</time></trkpt><trkpt lat="51.7901491" lon="-1.4067789"><ele>74.0</ele><time>2026-04-12T19:03:58.344Z</time></trkpt><trkpt lat="51.7900728" lon="-1.4064311"><ele>74.0</ele><time>2026-04-12T19:03:59.343Z</time></trkpt><trkpt lat="51.7900004" lon="-1.4060897"><ele>73.0</ele><time>2026-04-12T19:04:00.343Z</time></trkpt><trkpt lat="51.7899233" lon="-1.4057419"><ele>72.0</ele><time>2026-04-12T19:04:01.344Z</time></trkpt><trkpt lat="51.7898448" lon="-1.4054029"><ele>70.5</ele><time>2026-04-12T19:04:02.343Z</time></trkpt><trkpt lat="51.7897711" lon="-1.405062"><ele>69.0</ele><time>2026-04-12T19:04:03.344Z</time></trkpt><trkpt lat="51.7896922" lon="-1.4047183"><ele>69.0</ele><time>2026-04-12T19:04:04.343Z</time></trkpt><trkpt lat="51.7896202" lon="-1.4043693"><ele>69.0</ele><time>2026-04-12T19:04:05.343Z</time></trkpt><trkpt lat="51.7895477" lon="-1.4040178"><ele>69.0</ele><time>2026-04-12T19:04:06.344Z</time></trkpt><trkpt lat="51.7894715" lon="-1.4036776"><ele>69.0</ele><time>2026-04-12T19:04:07.344Z</time></trkpt><trkpt lat="51.7893944" lon="-1.4033382"><ele>69.0</ele><time>2026-04-12T19:04:08.344Z</time></trkpt><trkpt lat="51.7893153" lon="-1.4029913"><ele>69.0</ele><time>2026-04-12T19:04:09.344Z</time></trkpt><trkpt lat="51.7892357" lon="-1.4026494"><ele>69.0</ele><time>2026-04-12T19:04:10.344Z</time></trkpt><trkpt lat="51.789158" lon="-1.4023066"><ele>69.0</ele><time>2026-04-12T19:04:11.344Z</time></trkpt><trkpt lat="51.7890788" lon="-1.401963"><ele>69.0</ele><time>2026-04-12T19:04:12.344Z</time></trkpt><trkpt lat="51.7890062" lon="-1.4016201"><ele>68.5</ele><time>2026-04-12T19:04:13.343Z</time></trkpt><trkpt lat="51.7889315" lon="-1.4012735"><ele>68.0</ele><time>2026-04-12T19:04:14.343Z</time></trkpt><trkpt lat="51.7888624" lon="-1.4009295"><ele>68.0</ele><time>2026-04-12T19:04:15.343Z</time></trkpt><trkpt lat="51.7888019" lon="-1.4005809"><ele>68.0</ele><time>2026-04-12T19:04:16.344Z</time></trkpt><trkpt lat="51.788742" lon="-1.4002287"><ele>68.0</ele><time>2026-04-12T19:04:17.343Z</time></trkpt><trkpt lat="51.788691" lon="-1.3998709"><ele>68.0</ele><time>2026-04-12T19:04:18.343Z</time></trkpt><trkpt lat="51.7886513" lon="-1.3995158"><ele>68.5</ele><time>2026-04-12T19:04:19.343Z</time></trkpt><trkpt lat="51.7886117" lon="-1.3991488"><ele>69.0</ele><time>2026-04-12T19:04:20.345Z</time></trkpt><trkpt lat="51.7885754" lon="-1.3987866"><ele>69.0</ele><time>2026-04-12T19:04:21.345Z</time></trkpt><trkpt lat="51.7885359" lon="-1.3984292"><ele>69.0</ele><time>2026-04-12T19:04:22.344Z</time></trkpt><trkpt lat="51.7884947" lon="-1.3980651"><ele>68.33333333333333</ele><time>2026-04-12T19:04:23.345Z</time></trkpt><trkpt lat="51.7884551" lon="-1.397705"><ele>67.66666666666666</ele><time>2026-04-12T19:04:24.344Z</time></trkpt><trkpt lat="51.7884142" lon="-1.3973503"><ele>67.0</ele><time>2026-04-12T19:04:25.345Z</time></trkpt><trkpt lat="51.7883653" lon="-1.3969901"><ele>67.0</ele><time>2026-04-12T19:04:26.345Z</time></trkpt><trkpt lat="51.7883166" lon="-1.3966403"><ele>67.0</ele><time>2026-04-12T19:04:27.345Z</time></trkpt><trkpt lat="51.7882487" lon="-1.3962932"><ele>67.0</ele><time>2026-04-12T19:04:28.345Z</time></trkpt><trkpt lat="51.788175" lon="-1.3959507"><ele>67.5</ele><time>2026-04-12T19:04:29.344Z</time></trkpt><trkpt lat="51.7881024" lon="-1.3956112"><ele>68.0</ele><time>2026-04-12T19:04:30.344Z</time></trkpt><trkpt lat="51.7880221" lon="-1.3952592"><ele>68.0</ele><time>2026-04-12T19:04:31.345Z</time></trkpt><trkpt lat="51.7879398" lon="-1.3949236"><ele>68.0</ele><time>2026-04-12T19:04:32.344Z</time></trkpt><trkpt lat="51.7878588" lon="-1.3945861"><ele>68.0</ele><time>2026-04-12T19:04:33.345Z</time></trkpt><trkpt lat="51.7877752" lon="-1.3942469"><ele>68.33333333333334</ele><time>2026-04-12T19:04:34.345Z</time></trkpt><trkpt lat="51.7876963" lon="-1.3939105"><ele>68.66666666666667</ele><time>2026-04-12T19:04:35.345Z</time></trkpt><trkpt lat="51.7876206" lon="-1.393567"><ele>69.0</ele><time>2026-04-12T19:04:36.345Z</time></trkpt><trkpt lat="51.7875514" lon="-1.393227"><ele>69.5</ele><time>2026-04-12T19:04:37.344Z</time></trkpt><trkpt lat="51.7874841" lon="-1.3928815"><ele>70.0</ele><time>2026-04-12T19:04:38.344Z</time></trkpt><trkpt lat="51.7874131" lon="-1.392526"><ele>70.0</ele><time>2026-04-12T19:04:39.344Z</time></trkpt><trkpt lat="51.7873543" lon="-1.392179"><ele>70.0</ele><time>2026-04-12T19:04:40.344Z</time></trkpt><trkpt lat="51.787305" lon="-1.3918209"><ele>70.0</ele><time>2026-04-12T19:04:41.344Z</time></trkpt><trkpt lat="51.787266" lon="-1.3914852"><ele>71.33333333333333</ele><time>2026-04-12T19:04:42.345Z</time></trkpt><trkpt lat="51.787229" lon="-1.3911615"><ele>72.66666666666667</ele><time>2026-04-12T19:04:43.344Z</time></trkpt><trkpt lat="51.7871966" lon="-1.3908352"><ele>74.0</ele><time>2026-04-12T19:04:44.345Z</time></trkpt><trkpt lat="51.7871713" lon="-1.3905244"><ele>74.33333333333334</ele><time>2026-04-12T19:04:45.345Z</time></trkpt><trkpt lat="51.7871559" lon="-1.3902268"><ele>74.66666666666667</ele><time>2026-04-12T19:04:46.344Z</time></trkpt><trkpt lat="51.787143" lon="-1.3899256"><ele>75.0</ele><time>2026-04-12T19:04:47.344Z</time></trkpt><trkpt lat="51.787133" lon="-1.3896409"><ele>75.33333333333333</ele><time>2026-04-12T19:04:48.344Z</time></trkpt><trkpt lat="51.7871291" lon="-1.3893497"><ele>75.66666666666666</ele><time>2026-04-12T19:04:49.345Z</time></trkpt><trkpt lat="51.7871213" lon="-1.3890678"><ele>76.0</ele><time>2026-04-12T19:04:50.345Z</time></trkpt><trkpt lat="51.7871119" lon="-1.3887755"><ele>76.0</ele><time>2026-04-12T19:04:51.344Z</time></trkpt><trkpt lat="51.7871034" lon="-1.388488"><ele>76.0</ele><time>2026-04-12T19:04:52.345Z</time></trkpt><trkpt lat="51.7870925" lon="-1.3882051"><ele>76.0</ele><time>2026-04-12T19:04:53.344Z</time></trkpt><trkpt lat="51.7870851" lon="-1.3879143"><ele>76.0</ele><time>2026-04-12T19:04:54.345Z</time></trkpt><trkpt lat="51.7870749" lon="-1.3876181"><ele>76.0</ele><time>2026-04-12T19:04:55.344Z</time></trkpt><trkpt lat="51.7870585" lon="-1.3873216"><ele>76.0</ele><time>2026-04-12T19:04:56.344Z</time></trkpt><trkpt lat="51.7870379" lon="-1.3870223"><ele>76.66666666666666</ele><time>2026-04-12T19:04:57.344Z</time></trkpt><trkpt lat="51.7870188" lon="-1.3867119"><ele>77.33333333333333</ele><time>2026-04-12T19:04:58.345Z</time></trkpt><trkpt lat="51.787" lon="-1.3864089"><ele>78.0</ele><time>2026-04-12T19:04:59.345Z</time></trkpt><trkpt lat="51.7869825" lon="-1.3860834"><ele>78.33333333333333</ele><time>2026-04-12T19:05:00.344Z</time></trkpt><trkpt lat="51.7869618" lon="-1.3857473"><ele>78.66666666666666</ele><time>2026-04-12T19:05:01.344Z</time></trkpt><trkpt lat="51.7869414" lon="-1.3854092"><ele>79.0</ele><time>2026-04-12T19:05:02.345Z</time></trkpt><trkpt lat="51.7869144" lon="-1.385073"><ele>79.0</ele><time>2026-04-12T19:05:03.345Z</time></trkpt><trkpt lat="51.7868953" lon="-1.384736"><ele>79.0</ele><time>2026-04-12T19:05:04.344Z</time></trkpt><trkpt lat="51.7868773" lon="-1.384415"><ele>79.0</ele><time>2026-04-12T19:05:05.344Z</time></trkpt><trkpt lat="51.7868643" lon="-1.3841177"><ele>78.33333333333333</ele><time>2026-04-12T19:05:06.345Z</time></trkpt><trkpt lat="51.7868585" lon="-1.3838396"><ele>77.66666666666667</ele><time>2026-04-12T19:05:07.345Z</time></trkpt><trkpt lat="51.7868542" lon="-1.3835734"><ele>77.0</ele><time>2026-04-12T19:05:08.344Z</time></trkpt><trkpt lat="51.7868522" lon="-1.3833249"><ele>77.0</ele><time>2026-04-12T19:05:09.345Z</time></trkpt><trkpt lat="51.7868461" lon="-1.3830761"><ele>77.0</ele><time>2026-04-12T19:05:10.345Z</time></trkpt><trkpt lat="51.7868418" lon="-1.3828331"><ele>77.0</ele><time>2026-04-12T19:05:11.345Z</time></trkpt><trkpt lat="51.7868408" lon="-1.382592"><ele>76.5</ele><time>2026-04-12T19:05:12.344Z</time></trkpt><trkpt lat="51.7868408" lon="-1.3823872"><ele>76.0</ele><time>2026-04-12T19:05:13.344Z</time></trkpt><trkpt lat="51.7868496" lon="-1.3821737"><ele>75.5</ele><time>2026-04-12T19:05:14.345Z</time></trkpt><trkpt lat="51.7868431" lon="-1.3819734"><ele>75.0</ele><time>2026-04-12T19:05:15.344Z</time></trkpt><trkpt lat="51.7868435" lon="-1.3817752"><ele>75.0</ele><time>2026-04-12T19:05:16.344Z</time></trkpt><trkpt lat="51.7868467" lon="-1.3815502"><ele>75.0</ele><time>2026-04-12T19:05:17.344Z</time></trkpt><trkpt lat="51.7868486" lon="-1.3813016"><ele>75.0</ele><time>2026-04-12T19:05:18.345Z</time></trkpt><trkpt lat="51.7868524" lon="-1.3810384"><ele>74.66666666666667</ele><time>2026-04-12T19:05:19.345Z</time></trkpt><trkpt lat="51.7868578" lon="-1.3807373"><ele>74.33333333333334</ele><time>2026-04-12T19:05:20.345Z</time></trkpt><trkpt lat="51.7868671" lon="-1.3804346"><ele>74.0</ele><time>2026-04-12T19:05:21.345Z</time></trkpt><trkpt lat="51.7868726" lon="-1.3801672"><ele>73.66666666666667</ele><time>2026-04-12T19:05:22.344Z</time></trkpt><trkpt lat="51.7868822" lon="-1.3799069"><ele>73.33333333333333</ele><time>2026-04-12T19:05:23.345Z</time></trkpt><trkpt lat="51.7868913" lon="-1.3796579"><ele>73.0</ele><time>2026-04-12T19:05:24.344Z</time></trkpt><trkpt lat="51.7869012" lon="-1.3794052"><ele>73.0</ele><time>2026-04-12T19:05:25.344Z</time></trkpt><trkpt lat="51.7869212" lon="-1.3791404"><ele>73.0</ele><time>2026-04-12T19:05:26.345Z</time></trkpt><trkpt lat="51.78694" lon="-1.3788682"><ele>73.0</ele><time>2026-04-12T19:05:27.345Z</time></trkpt><trkpt lat="51.7869624" lon="-1.3785817"><ele>73.0</ele><time>2026-04-12T19:05:28.345Z</time></trkpt><trkpt lat="51.7869796" lon="-1.3782947"><ele>73.0</ele><time>2026-04-12T19:05:29.345Z</time></trkpt><trkpt lat="51.786999" lon="-1.37801"><ele>73.0</ele><time>2026-04-12T19:05:30.344Z</time></trkpt><trkpt lat="51.787024" lon="-1.3777243"><ele>73.0</ele><time>2026-04-12T19:05:31.345Z</time></trkpt><trkpt lat="51.7870486" lon="-1.3774455"><ele>73.0</ele><time>2026-04-12T19:05:32.345Z</time></trkpt><trkpt lat="51.7870805" lon="-1.3771614"><ele>73.0</ele><time>2026-04-12T19:05:33.345Z</time></trkpt><trkpt lat="51.7871065" lon="-1.3768456"><ele>72.33333333333333</ele><time>2026-04-12T19:05:34.346Z</time></trkpt><trkpt lat="51.7871346" lon="-1.3765292"><ele>71.66666666666667</ele><time>2026-04-12T19:05:35.346Z</time></trkpt><trkpt lat="51.787162" lon="-1.3762016"><ele>71.0</ele><time>2026-04-12T19:05:36.345Z</time></trkpt><trkpt lat="51.7871988" lon="-1.3758875"><ele>70.0</ele><time>2026-04-12T19:05:37.346Z</time></trkpt><trkpt lat="51.7872392" lon="-1.3755515"><ele>69.0</ele><time>2026-04-12T19:05:38.346Z</time></trkpt><trkpt lat="51.7872767" lon="-1.3752119"><ele>68.0</ele><time>2026-04-12T19:05:39.346Z</time></trkpt><trkpt lat="51.7873217" lon="-1.3748456"><ele>67.5</ele><time>2026-04-12T19:05:40.345Z</time></trkpt><trkpt lat="51.7873674" lon="-1.3744449"><ele>67.0</ele><time>2026-04-12T19:05:41.346Z</time></trkpt><trkpt lat="51.7874305" lon="-1.3740332"><ele>67.0</ele><time>2026-04-12T19:05:42.346Z</time></trkpt><trkpt lat="51.7875004" lon="-1.3735905"><ele>67.0</ele><time>2026-04-12T19:05:43.345Z</time></trkpt><trkpt lat="51.7875691" lon="-1.3731523"><ele>67.0</ele><time>2026-04-12T19:05:44.346Z</time></trkpt><trkpt lat="51.7876209" lon="-1.3727212"><ele>67.0</ele><time>2026-04-12T19:05:45.346Z</time></trkpt><trkpt lat="51.7876791" lon="-1.3723031"><ele>65.5</ele><time>2026-04-12T19:05:46.346Z</time></trkpt><trkpt lat="51.7877338" lon="-1.3718886"><ele>64.0</ele><time>2026-04-12T19:05:47.345Z</time></trkpt><trkpt lat="51.7877906" lon="-1.3714793"><ele>64.5</ele><time>2026-04-12T19:05:48.346Z</time></trkpt><trkpt lat="51.787845" lon="-1.3710777"><ele>65.0</ele><time>2026-04-12T19:05:49.346Z</time></trkpt><trkpt lat="51.7878954" lon="-1.3706904"><ele>64.66666666666667</ele><time>2026-04-12T19:05:50.345Z</time></trkpt><trkpt lat="51.7879413" lon="-1.3703383"><ele>64.33333333333333</ele><time>2026-04-12T19:05:51.345Z</time></trkpt><trkpt lat="51.7879892" lon="-1.3700181"><ele>64.0</ele><time>2026-04-12T19:05:52.346Z</time></trkpt><trkpt lat="51.7880237" lon="-1.3697383"><ele>64.0</ele><time>2026-04-12T19:05:53.346Z</time></trkpt><trkpt lat="51.7880526" lon="-1.3694852"><ele>64.0</ele><time>2026-04-12T19:05:54.345Z</time></trkpt><trkpt lat="51.788078" lon="-1.3692684"><ele>64.0</ele><time>2026-04-12T19:05:55.345Z</time></trkpt><trkpt lat="51.7881056" lon="-1.3690865"><ele>64.0</ele><time>2026-04-12T19:05:56.346Z</time></trkpt><trkpt lat="51.7881475" lon="-1.3689283"><ele>63.800000000000004</ele><time>2026-04-12T19:05:57.345Z</time></trkpt><trkpt lat="51.7882126" lon="-1.3687829"><ele>63.60000000000001</ele><time>2026-04-12T19:05:58.346Z</time></trkpt><trkpt lat="51.788272" lon="-1.3686319"><ele>63.4</ele><time>2026-04-12T19:05:59.346Z</time></trkpt><trkpt lat="51.78831" lon="-1.3684756"><ele>63.2</ele><time>2026-04-12T19:06:00.346Z</time></trkpt><trkpt lat="51.7883219" lon="-1.3682798"><ele>63.0</ele><time>2026-04-12T19:06:01.346Z</time></trkpt><trkpt lat="51.7883037" lon="-1.3680542"><ele>63.0</ele><time>2026-04-12T19:06:02.345Z</time></trkpt><trkpt lat="51.7882818" lon="-1.36782"><ele>63.0</ele><time>2026-04-12T19:06:03.346Z</time></trkpt><trkpt lat="51.7882866" lon="-1.3675616"><ele>63.0</ele><time>2026-04-12T19:06:04.346Z</time></trkpt><trkpt lat="51.7883094" lon="-1.3672835"><ele>63.0</ele><time>2026-04-12T19:06:05.345Z</time></trkpt><trkpt lat="51.7883456" lon="-1.3669909"><ele>63.0</ele><time>2026-04-12T19:06:06.346Z</time></trkpt><trkpt lat="51.7883756" lon="-1.3667101"><ele>63.0</ele><time>2026-04-12T19:06:07.346Z</time></trkpt><trkpt lat="51.7884015" lon="-1.3664275"><ele>62.66666666666667</ele><time>2026-04-12T19:06:08.346Z</time></trkpt><trkpt lat="51.7884399" lon="-1.3661219"><ele>62.333333333333336</ele><time>2026-04-12T19:06:09.346Z</time></trkpt><trkpt lat="51.7884726" lon="-1.3658054"><ele>62.0</ele><time>2026-04-12T19:06:10.345Z</time></trkpt><trkpt lat="51.7885108" lon="-1.3654843"><ele>62.0</ele><time>2026-04-12T19:06:11.346Z</time></trkpt><trkpt lat="51.7885473" lon="-1.3651538"><ele>62.0</ele><time>2026-04-12T19:06:12.346Z</time></trkpt><trkpt lat="51.78858" lon="-1.3648158"><ele>62.0</ele><time>2026-04-12T19:06:13.346Z</time></trkpt><trkpt lat="51.788622" lon="-1.3644705"><ele>62.0</ele><time>2026-04-12T19:06:14.346Z</time></trkpt><trkpt lat="51.7886565" lon="-1.3641122"><ele>62.0</ele><time>2026-04-12T19:06:15.345Z</time></trkpt><trkpt lat="51.7886888" lon="-1.3637515"><ele>62.0</ele><time>2026-04-12T19:06:16.345Z</time></trkpt><trkpt lat="51.7887195" lon="-1.3633893"><ele>62.0</ele><time>2026-04-12T19:06:17.346Z</time></trkpt><trkpt lat="51.7887544" lon="-1.3630332"><ele>62.0</ele><time>2026-04-12T19:06:18.345Z</time></trkpt><trkpt lat="51.788789" lon="-1.3626721"><ele>62.5</ele><time>2026-04-12T19:06:19.345Z</time></trkpt><trkpt lat="51.7888268" lon="-1.3623135"><ele>63.0</ele><time>2026-04-12T19:06:20.345Z</time></trkpt><trkpt lat="51.7888606" lon="-1.3619406"><ele>63.0</ele><time>2026-04-12T19:06:21.346Z</time></trkpt><trkpt lat="51.7888961" lon="-1.3615785"><ele>63.0</ele><time>2026-04-12T19:06:22.345Z</time></trkpt><trkpt lat="51.7889229" lon="-1.3612115"><ele>63.0</ele><time>2026-04-12T19:06:23.346Z</time></trkpt><trkpt lat="51.7889586" lon="-1.3608556"><ele>63.0</ele><time>2026-04-12T19:06:24.345Z</time></trkpt><trkpt lat="51.7889922" lon="-1.3604881"><ele>63.0</ele><time>2026-04-12T19:06:25.346Z</time></trkpt><trkpt lat="51.7890183" lon="-1.3601249"><ele>63.0</ele><time>2026-04-12T19:06:26.346Z</time></trkpt><trkpt lat="51.7890455" lon="-1.3597673"><ele>63.0</ele><time>2026-04-12T19:06:27.346Z</time></trkpt><trkpt lat="51.7890753" lon="-1.3594033"><ele>63.0</ele><time>2026-04-12T19:06:28.346Z</time></trkpt><trkpt lat="51.7891057" lon="-1.3590463"><ele>63.0</ele><time>2026-04-12T19:06:29.346Z</time></trkpt><trkpt lat="51.7891356" lon="-1.3586717"><ele>63.0</ele><time>2026-04-12T19:06:30.345Z</time></trkpt><trkpt lat="51.789168" lon="-1.3583197"><ele>63.0</ele><time>2026-04-12T19:06:31.346Z</time></trkpt><trkpt lat="51.7891932" lon="-1.3579536"><ele>63.0</ele><time>2026-04-12T19:06:32.346Z</time></trkpt><trkpt lat="51.7892202" lon="-1.3575905"><ele>63.0</ele><time>2026-04-12T19:06:33.345Z</time></trkpt><trkpt lat="51.7892491" lon="-1.3572319"><ele>63.0</ele><time>2026-04-12T19:06:34.345Z</time></trkpt><trkpt lat="51.7892753" lon="-1.3568676"><ele>63.0</ele><time>2026-04-12T19:06:35.345Z</time></trkpt><trkpt lat="51.7892997" lon="-1.3565058"><ele>63.0</ele><time>2026-04-12T19:06:36.346Z</time></trkpt><trkpt lat="51.7893212" lon="-1.3561373"><ele>62.5</ele><time>2026-04-12T19:06:37.345Z</time></trkpt><trkpt lat="51.7893475" lon="-1.3557749"><ele>62.0</ele><time>2026-04-12T19:06:38.346Z</time></trkpt><trkpt lat="51.7893709" lon="-1.3554122"><ele>61.66666666666667</ele><time>2026-04-12T19:06:39.345Z</time></trkpt><trkpt lat="51.789394" lon="-1.3550528"><ele>61.33333333333333</ele><time>2026-04-12T19:06:40.345Z</time></trkpt><trkpt lat="51.7894159" lon="-1.35469"><ele>61.0</ele><time>2026-04-12T19:06:41.346Z</time></trkpt><trkpt lat="51.789437" lon="-1.354321"><ele>61.0</ele><time>2026-04-12T19:06:42.346Z</time></trkpt><trkpt lat="51.7894633" lon="-1.3539608"><ele>61.0</ele><time>2026-04-12T19:06:43.345Z</time></trkpt><trkpt lat="51.7894801" lon="-1.353597"><ele>62.0</ele><time>2026-04-12T19:06:44.346Z</time></trkpt><trkpt lat="51.7895029" lon="-1.353233"><ele>63.0</ele><time>2026-04-12T19:06:45.347Z</time></trkpt><trkpt lat="51.7895252" lon="-1.3528675"><ele>64.0</ele><time>2026-04-12T19:06:46.345Z</time></trkpt><trkpt lat="51.7895558" lon="-1.3525079"><ele>65.0</ele><time>2026-04-12T19:06:47.346Z</time></trkpt><trkpt lat="51.7895736" lon="-1.3521803"><ele>66.0</ele><time>2026-04-12T19:06:48.346Z</time></trkpt><trkpt lat="51.7895915" lon="-1.3518848"><ele>66.33333333333333</ele><time>2026-04-12T19:06:49.347Z</time></trkpt><trkpt lat="51.7896149" lon="-1.3516133"><ele>66.66666666666666</ele><time>2026-04-12T19:06:50.346Z</time></trkpt><trkpt lat="51.7896368" lon="-1.3513487"><ele>67.0</ele><time>2026-04-12T19:06:51.346Z</time></trkpt><trkpt lat="51.7896554" lon="-1.3511073"><ele>67.0</ele><time>2026-04-12T19:06:52.346Z</time></trkpt><trkpt lat="51.7896724" lon="-1.3508878"><ele>67.0</ele><time>2026-04-12T19:06:53.347Z</time></trkpt><trkpt lat="51.7896858" lon="-1.3506744"><ele>67.0</ele><time>2026-04-12T19:06:54.347Z</time></trkpt><trkpt lat="51.7896992" lon="-1.3504725"><ele>67.0</ele><time>2026-04-12T19:06:55.346Z</time></trkpt><trkpt lat="51.7897177" lon="-1.350261"><ele>66.75</ele><time>2026-04-12T19:06:56.346Z</time></trkpt><trkpt lat="51.7897379" lon="-1.3500588"><ele>66.5</ele><time>2026-04-12T19:06:57.347Z</time></trkpt><trkpt lat="51.789753" lon="-1.3498485"><ele>66.25</ele><time>2026-04-12T19:06:58.347Z</time></trkpt><trkpt lat="51.7897708" lon="-1.3496401"><ele>66.0</ele><time>2026-04-12T19:06:59.346Z</time></trkpt><trkpt lat="51.7897822" lon="-1.3494415"><ele>66.0</ele><time>2026-04-12T19:07:00.346Z</time></trkpt><trkpt lat="51.7897992" lon="-1.3492402"><ele>66.0</ele><time>2026-04-12T19:07:01.346Z</time></trkpt><trkpt lat="51.7898195" lon="-1.3490308"><ele>66.0</ele><time>2026-04-12T19:07:02.346Z</time></trkpt><trkpt lat="51.7898413" lon="-1.3488088"><ele>66.0</ele><time>2026-04-12T19:07:03.347Z</time></trkpt><trkpt lat="51.7898543" lon="-1.3486004"><ele>66.25</ele><time>2026-04-12T19:07:04.346Z</time></trkpt><trkpt lat="51.7898721" lon="-1.3483715"><ele>66.5</ele><time>2026-04-12T19:07:05.347Z</time></trkpt><trkpt lat="51.7898904" lon="-1.3481353"><ele>66.75</ele><time>2026-04-12T19:07:06.346Z</time></trkpt><trkpt lat="51.789912" lon="-1.3478814"><ele>67.0</ele><time>2026-04-12T19:07:07.347Z</time></trkpt><trkpt lat="51.7899307" lon="-1.3476296"><ele>67.0</ele><time>2026-04-12T19:07:08.346Z</time></trkpt><trkpt lat="51.7899496" lon="-1.3473575"><ele>67.0</ele><time>2026-04-12T19:07:09.346Z</time></trkpt><trkpt lat="51.7899773" lon="-1.3470697"><ele>67.0</ele><time>2026-04-12T19:07:10.346Z</time></trkpt><trkpt lat="51.789989" lon="-1.3467639"><ele>67.0</ele><time>2026-04-12T19:07:11.346Z</time></trkpt><trkpt lat="51.790012" lon="-1.3464815"><ele>67.0</ele><time>2026-04-12T19:07:12.347Z</time></trkpt><trkpt lat="51.7900397" lon="-1.3462264"><ele>67.0</ele><time>2026-04-12T19:07:13.347Z</time></trkpt><trkpt lat="51.790062" lon="-1.3459531"><ele>67.0</ele><time>2026-04-12T19:07:14.346Z</time></trkpt><trkpt lat="51.7900881" lon="-1.3456851"><ele>67.0</ele><time>2026-04-12T19:07:15.346Z</time></trkpt><trkpt lat="51.7901138" lon="-1.3454096"><ele>67.0</ele><time>2026-04-12T19:07:16.346Z</time></trkpt><trkpt lat="51.7901399" lon="-1.3451415"><ele>67.0</ele><time>2026-04-12T19:07:17.346Z</time></trkpt><trkpt lat="51.7901644" lon="-1.3448699"><ele>67.0</ele><time>2026-04-12T19:07:18.347Z</time></trkpt><trkpt lat="51.7901878" lon="-1.3445935"><ele>67.0</ele><time>2026-04-12T19:07:19.347Z</time></trkpt><trkpt lat="51.7902123" lon="-1.3443302"><ele>67.0</ele><time>2026-04-12T19:07:20.347Z</time></trkpt><trkpt lat="51.7902381" lon="-1.3440687"><ele>67.0</ele><time>2026-04-12T19:07:21.347Z</time></trkpt><trkpt lat="51.7902656" lon="-1.3437534"><ele>67.0</ele><time>2026-04-12T19:07:22.346Z</time></trkpt><trkpt lat="51.790301" lon="-1.343416"><ele>66.0</ele><time>2026-04-12T19:07:23.347Z</time></trkpt><trkpt lat="51.7903382" lon="-1.343048"><ele>65.0</ele><time>2026-04-12T19:07:24.346Z</time></trkpt><trkpt lat="51.7903738" lon="-1.3426599"><ele>65.0</ele><time>2026-04-12T19:07:25.346Z</time></trkpt><trkpt lat="51.7904161" lon="-1.3422487"><ele>65.0</ele><time>2026-04-12T19:07:26.347Z</time></trkpt><trkpt lat="51.7904582" lon="-1.3418204"><ele>65.0</ele><time>2026-04-12T19:07:27.347Z</time></trkpt><trkpt lat="51.7905063" lon="-1.3413855"><ele>65.0</ele><time>2026-04-12T19:07:28.347Z</time></trkpt><trkpt lat="51.7905549" lon="-1.3409221"><ele>64.0</ele><time>2026-04-12T19:07:29.346Z</time></trkpt><trkpt lat="51.7906007" lon="-1.3404403"><ele>63.0</ele><time>2026-04-12T19:07:30.347Z</time></trkpt><trkpt lat="51.7906609" lon="-1.3399596"><ele>62.0</ele><time>2026-04-12T19:07:31.347Z</time></trkpt><trkpt lat="51.7907205" lon="-1.3394956"><ele>61.0</ele><time>2026-04-12T19:07:32.347Z</time></trkpt><trkpt lat="51.7907764" lon="-1.3390599"><ele>61.0</ele><time>2026-04-12T19:07:33.347Z</time></trkpt><trkpt lat="51.7908236" lon="-1.3386354"><ele>61.0</ele><time>2026-04-12T19:07:34.347Z</time></trkpt><trkpt lat="51.7908668" lon="-1.3382196"><ele>61.5</ele><time>2026-04-12T19:07:35.347Z</time></trkpt><trkpt lat="51.7909124" lon="-1.3378143"><ele>62.0</ele><time>2026-04-12T19:07:36.347Z</time></trkpt><trkpt lat="51.7909561" lon="-1.3374329"><ele>62.0</ele><time>2026-04-12T19:07:37.346Z</time></trkpt><trkpt lat="51.7909936" lon="-1.3370578"><ele>62.0</ele><time>2026-04-12T19:07:38.347Z</time></trkpt><trkpt lat="51.7910381" lon="-1.3366912"><ele>62.0</ele><time>2026-04-12T19:07:39.347Z</time></trkpt><trkpt lat="51.7910723" lon="-1.3363274"><ele>62.0</ele><time>2026-04-12T19:07:40.347Z</time></trkpt><trkpt lat="51.7911055" lon="-1.3359722"><ele>62.0</ele><time>2026-04-12T19:07:41.347Z</time></trkpt><trkpt lat="51.791145" lon="-1.3356159"><ele>62.0</ele><time>2026-04-12T19:07:42.347Z</time></trkpt><trkpt lat="51.7911873" lon="-1.3352808"><ele>62.0</ele><time>2026-04-12T19:07:43.347Z</time></trkpt><trkpt lat="51.7912283" lon="-1.3349364"><ele>62.333333333333336</ele><time>2026-04-12T19:07:44.347Z</time></trkpt><trkpt lat="51.7912629" lon="-1.3345888"><ele>62.66666666666667</ele><time>2026-04-12T19:07:45.347Z</time></trkpt><trkpt lat="51.7913007" lon="-1.3342373"><ele>63.0</ele><time>2026-04-12T19:07:46.347Z</time></trkpt><trkpt lat="51.7913401" lon="-1.3338852"><ele>63.0</ele><time>2026-04-12T19:07:47.347Z</time></trkpt><trkpt lat="51.7913766" lon="-1.3335226"><ele>63.0</ele><time>2026-04-12T19:07:48.347Z</time></trkpt><trkpt lat="51.791414" lon="-1.3331555"><ele>62.5</ele><time>2026-04-12T19:07:49.346Z</time></trkpt><trkpt lat="51.7914523" lon="-1.3327919"><ele>62.0</ele><time>2026-04-12T19:07:50.347Z</time></trkpt><trkpt lat="51.7914953" lon="-1.3324347"><ele>62.0</ele><time>2026-04-12T19:07:51.347Z</time></trkpt><trkpt lat="51.7915309" lon="-1.3320852"><ele>62.0</ele><time>2026-04-12T19:07:52.347Z</time></trkpt><trkpt lat="51.7915665" lon="-1.3317243"><ele>62.0</ele><time>2026-04-12T19:07:53.346Z</time></trkpt><trkpt lat="51.7916057" lon="-1.3313675"><ele>62.0</ele><time>2026-04-12T19:07:54.347Z</time></trkpt><trkpt lat="51.791647" lon="-1.3310224"><ele>62.0</ele><time>2026-04-12T19:07:55.347Z</time></trkpt><trkpt lat="51.7916834" lon="-1.3306701"><ele>62.0</ele><time>2026-04-12T19:07:56.346Z</time></trkpt><trkpt lat="51.7917196" lon="-1.3303116"><ele>61.333333333333336</ele><time>2026-04-12T19:07:57.347Z</time></trkpt><trkpt lat="51.7917589" lon="-1.329962"><ele>60.66666666666667</ele><time>2026-04-12T19:07:58.347Z</time></trkpt><trkpt lat="51.7917987" lon="-1.3296103"><ele>60.0</ele><time>2026-04-12T19:07:59.348Z</time></trkpt><trkpt lat="51.7918341" lon="-1.3292518"><ele>60.0</ele><time>2026-04-12T19:08:00.348Z</time></trkpt><trkpt lat="51.7918689" lon="-1.3288926"><ele>60.0</ele><time>2026-04-12T19:08:01.347Z</time></trkpt><trkpt lat="51.7919031" lon="-1.3285354"><ele>60.0</ele><time>2026-04-12T19:08:02.348Z</time></trkpt><trkpt lat="51.7919365" lon="-1.3281819"><ele>60.0</ele><time>2026-04-12T19:08:03.348Z</time></trkpt><trkpt lat="51.7919659" lon="-1.3278246"><ele>60.0</ele><time>2026-04-12T19:08:04.348Z</time></trkpt><trkpt lat="51.7919983" lon="-1.327465"><ele>60.0</ele><time>2026-04-12T19:08:05.348Z</time></trkpt><trkpt lat="51.7920279" lon="-1.3271044"><ele>60.0</ele><time>2026-04-12T19:08:06.347Z</time></trkpt><trkpt lat="51.7920601" lon="-1.3267497"><ele>60.0</ele><time>2026-04-12T19:08:07.348Z</time></trkpt><trkpt lat="51.7920954" lon="-1.3263936"><ele>60.0</ele><time>2026-04-12T19:08:08.347Z</time></trkpt><trkpt lat="51.7921243" lon="-1.3260357"><ele>60.0</ele><time>2026-04-12T19:08:09.347Z</time></trkpt><trkpt lat="51.792157" lon="-1.3256799"><ele>60.0</ele><time>2026-04-12T19:08:10.348Z</time></trkpt><trkpt lat="51.792182" lon="-1.3253211"><ele>60.0</ele><time>2026-04-12T19:08:11.348Z</time></trkpt><trkpt lat="51.7922136" lon="-1.3249829"><ele>60.33333333333333</ele><time>2026-04-12T19:08:12.347Z</time></trkpt><trkpt lat="51.7922437" lon="-1.3246443"><ele>60.666666666666664</ele><time>2026-04-12T19:08:13.348Z</time></trkpt><trkpt lat="51.7922719" lon="-1.3243164"><ele>61.0</ele><time>2026-04-12T19:08:14.348Z</time></trkpt><trkpt lat="51.7922968" lon="-1.3239955"><ele>61.0</ele><time>2026-04-12T19:08:15.347Z</time></trkpt><trkpt lat="51.792321" lon="-1.3236811"><ele>61.0</ele><time>2026-04-12T19:08:16.348Z</time></trkpt><trkpt lat="51.7923491" lon="-1.323383"><ele>61.0</ele><time>2026-04-12T19:08:17.348Z</time></trkpt><trkpt lat="51.792373" lon="-1.3230853"><ele>60.666666666666664</ele><time>2026-04-12T19:08:18.348Z</time></trkpt><trkpt lat="51.7923927" lon="-1.3227766"><ele>60.33333333333333</ele><time>2026-04-12T19:08:19.347Z</time></trkpt><trkpt lat="51.7924182" lon="-1.322473"><ele>60.0</ele><time>2026-04-12T19:08:20.347Z</time></trkpt><trkpt lat="51.792439" lon="-1.3221737"><ele>60.0</ele><time>2026-04-12T19:08:21.348Z</time></trkpt><trkpt lat="51.7924592" lon="-1.3218823"><ele>60.0</ele><time>2026-04-12T19:08:22.347Z</time></trkpt><trkpt lat="51.7924816" lon="-1.3215837"><ele>60.0</ele><time>2026-04-12T19:08:23.348Z</time></trkpt><trkpt lat="51.7925009" lon="-1.3212854"><ele>60.33333333333333</ele><time>2026-04-12T19:08:24.348Z</time></trkpt><trkpt lat="51.792525" lon="-1.3209799"><ele>60.666666666666664</ele><time>2026-04-12T19:08:25.348Z</time></trkpt><trkpt lat="51.7925475" lon="-1.3206904"><ele>61.0</ele><time>2026-04-12T19:08:26.347Z</time></trkpt><trkpt lat="51.7925706" lon="-1.3203844"><ele>61.0</ele><time>2026-04-12T19:08:27.347Z</time></trkpt><trkpt lat="51.7925883" lon="-1.3200771"><ele>61.0</ele><time>2026-04-12T19:08:28.347Z</time></trkpt><trkpt lat="51.7926153" lon="-1.3197776"><ele>61.0</ele><time>2026-04-12T19:08:29.348Z</time></trkpt><trkpt lat="51.7926351" lon="-1.3194878"><ele>61.0</ele><time>2026-04-12T19:08:30.348Z</time></trkpt><trkpt lat="51.7926481" lon="-1.319191"><ele>61.0</ele><time>2026-04-12T19:08:31.348Z</time></trkpt><trkpt lat="51.7926703" lon="-1.3188924"><ele>61.0</ele><time>2026-04-12T19:08:32.347Z</time></trkpt><trkpt lat="51.7926914" lon="-1.318596"><ele>60.33333333333333</ele><time>2026-04-12T19:08:33.348Z</time></trkpt><trkpt lat="51.79271" lon="-1.3182973"><ele>59.66666666666667</ele><time>2026-04-12T19:08:34.347Z</time></trkpt><trkpt lat="51.7927298" lon="-1.3179864"><ele>59.0</ele><time>2026-04-12T19:08:35.348Z</time></trkpt><trkpt lat="51.7927478" lon="-1.3176789"><ele>59.0</ele><time>2026-04-12T19:08:36.348Z</time></trkpt><trkpt lat="51.7927652" lon="-1.3173805"><ele>59.0</ele><time>2026-04-12T19:08:37.347Z</time></trkpt><trkpt lat="51.7927817" lon="-1.3170728"><ele>59.0</ele><time>2026-04-12T19:08:38.347Z</time></trkpt><trkpt lat="51.7927977" lon="-1.3167626"><ele>59.0</ele><time>2026-04-12T19:08:39.348Z</time></trkpt><trkpt lat="51.7928125" lon="-1.316441"><ele>59.0</ele><time>2026-04-12T19:08:40.348Z</time></trkpt><trkpt lat="51.7928337" lon="-1.3160949"><ele>59.0</ele><time>2026-04-12T19:08:41.347Z</time></trkpt><trkpt lat="51.7928426" lon="-1.3157279"><ele>58.5</ele><time>2026-04-12T19:08:42.348Z</time></trkpt><trkpt lat="51.7928621" lon="-1.3153401"><ele>58.0</ele><time>2026-04-12T19:08:43.347Z</time></trkpt><trkpt lat="51.7928951" lon="-1.3149327"><ele>57.5</ele><time>2026-04-12T19:08:44.347Z</time></trkpt><trkpt lat="51.7929217" lon="-1.3145133"><ele>57.0</ele><time>2026-04-12T19:08:45.348Z</time></trkpt><trkpt lat="51.7929437" lon="-1.3140916"><ele>57.5</ele><time>2026-04-12T19:08:46.348Z</time></trkpt><trkpt lat="51.7929576" lon="-1.3136786"><ele>58.0</ele><time>2026-04-12T19:08:47.347Z</time></trkpt><trkpt lat="51.7929729" lon="-1.3132787"><ele>59.5</ele><time>2026-04-12T19:08:48.347Z</time></trkpt><trkpt lat="51.7929855" lon="-1.3128821"><ele>61.0</ele><time>2026-04-12T19:08:49.347Z</time></trkpt><trkpt lat="51.7929998" lon="-1.3124909"><ele>60.5</ele><time>2026-04-12T19:08:50.348Z</time></trkpt><trkpt lat="51.7930169" lon="-1.3121069"><ele>60.0</ele><time>2026-04-12T19:08:51.348Z</time></trkpt><trkpt lat="51.7930273" lon="-1.3117307"><ele>58.5</ele><time>2026-04-12T19:08:52.347Z</time></trkpt><trkpt lat="51.7930332" lon="-1.3113631"><ele>57.0</ele><time>2026-04-12T19:08:53.348Z</time></trkpt><trkpt lat="51.7930442" lon="-1.3109951"><ele>57.0</ele><time>2026-04-12T19:08:54.348Z</time></trkpt><trkpt lat="51.7930546" lon="-1.310641"><ele>57.0</ele><time>2026-04-12T19:08:55.347Z</time></trkpt><trkpt lat="51.7930657" lon="-1.3102834"><ele>57.0</ele><time>2026-04-12T19:08:56.347Z</time></trkpt><trkpt lat="51.7930713" lon="-1.3099252"><ele>57.66666666666667</ele><time>2026-04-12T19:08:57.347Z</time></trkpt><trkpt lat="51.793082" lon="-1.3095684"><ele>58.333333333333336</ele><time>2026-04-12T19:08:58.348Z</time></trkpt><trkpt lat="51.7930893" lon="-1.3092073"><ele>59.0</ele><time>2026-04-12T19:08:59.348Z</time></trkpt><trkpt lat="51.7930956" lon="-1.3088491"><ele>59.0</ele><time>2026-04-12T19:09:00.347Z</time></trkpt><trkpt lat="51.7931009" lon="-1.3084836"><ele>59.0</ele><time>2026-04-12T19:09:01.348Z</time></trkpt><trkpt lat="51.7931026" lon="-1.3081151"><ele>59.0</ele><time>2026-04-12T19:09:02.348Z</time></trkpt><trkpt lat="51.7931053" lon="-1.3077456"><ele>59.0</ele><time>2026-04-12T19:09:03.347Z</time></trkpt><trkpt lat="51.7931183" lon="-1.3073722"><ele>59.0</ele><time>2026-04-12T19:09:04.347Z</time></trkpt><trkpt lat="51.7931208" lon="-1.3070054"><ele>59.0</ele><time>2026-04-12T19:09:05.347Z</time></trkpt><trkpt lat="51.7931179" lon="-1.3066376"><ele>59.0</ele><time>2026-04-12T19:09:06.347Z</time></trkpt><trkpt lat="51.7931061" lon="-1.3062646"><ele>59.0</ele><time>2026-04-12T19:09:07.348Z</time></trkpt><trkpt lat="51.7930875" lon="-1.3058989"><ele>59.5</ele><time>2026-04-12T19:09:08.347Z</time></trkpt><trkpt lat="51.7930658" lon="-1.3055309"><ele>60.0</ele><time>2026-04-12T19:09:09.348Z</time></trkpt><trkpt lat="51.7930415" lon="-1.3051627"><ele>60.0</ele><time>2026-04-12T19:09:10.348Z</time></trkpt><trkpt lat="51.7930123" lon="-1.3048007"><ele>60.0</ele><time>2026-04-12T19:09:11.349Z</time></trkpt><trkpt lat="51.7929772" lon="-1.3044374"><ele>59.5</ele><time>2026-04-12T19:09:12.349Z</time></trkpt><trkpt lat="51.7929351" lon="-1.3040707"><ele>59.0</ele><time>2026-04-12T19:09:13.348Z</time></trkpt><trkpt lat="51.7928887" lon="-1.3037063"><ele>59.0</ele><time>2026-04-12T19:09:14.349Z</time></trkpt><trkpt lat="51.7928383" lon="-1.3033455"><ele>59.0</ele><time>2026-04-12T19:09:15.349Z</time></trkpt><trkpt lat="51.7927815" lon="-1.302993"><ele>58.5</ele><time>2026-04-12T19:09:16.349Z</time></trkpt><trkpt lat="51.7927285" lon="-1.3026304"><ele>58.0</ele><time>2026-04-12T19:09:17.349Z</time></trkpt><trkpt lat="51.7926675" lon="-1.3022761"><ele>59.5</ele><time>2026-04-12T19:09:18.349Z</time></trkpt><trkpt lat="51.7926096" lon="-1.3019243"><ele>61.0</ele><time>2026-04-12T19:09:19.349Z</time></trkpt><trkpt lat="51.792552" lon="-1.3015702"><ele>60.5</ele><time>2026-04-12T19:09:20.349Z</time></trkpt><trkpt lat="51.7924908" lon="-1.3012123"><ele>60.0</ele><time>2026-04-12T19:09:21.349Z</time></trkpt><trkpt lat="51.7924367" lon="-1.3008574"><ele>60.0</ele><time>2026-04-12T19:09:22.349Z</time></trkpt><trkpt lat="51.7923803" lon="-1.3005056"><ele>60.0</ele><time>2026-04-12T19:09:23.348Z</time></trkpt><trkpt lat="51.7923279" lon="-1.3001825"><ele>60.0</ele><time>2026-04-12T19:09:24.349Z</time></trkpt><trkpt lat="51.7922758" lon="-1.2998757"><ele>60.0</ele><time>2026-04-12T19:09:25.349Z</time></trkpt><trkpt lat="51.7922221" lon="-1.2995871"><ele>60.0</ele><time>2026-04-12T19:09:26.349Z</time></trkpt><trkpt lat="51.7921763" lon="-1.2993123"><ele>60.0</ele><time>2026-04-12T19:09:27.349Z</time></trkpt><trkpt lat="51.7921357" lon="-1.2990404"><ele>60.33333333333333</ele><time>2026-04-12T19:09:28.349Z</time></trkpt><trkpt lat="51.7920978" lon="-1.2987949"><ele>60.666666666666664</ele><time>2026-04-12T19:09:29.349Z</time></trkpt><trkpt lat="51.7920584" lon="-1.2985609"><ele>61.0</ele><time>2026-04-12T19:09:30.349Z</time></trkpt><trkpt lat="51.7920192" lon="-1.2983306"><ele>61.0</ele><time>2026-04-12T19:09:31.348Z</time></trkpt><trkpt lat="51.7919845" lon="-1.2981232"><ele>61.0</ele><time>2026-04-12T19:09:32.349Z</time></trkpt><trkpt lat="51.7919476" lon="-1.2979182"><ele>61.0</ele><time>2026-04-12T19:09:33.349Z</time></trkpt><trkpt lat="51.7919156" lon="-1.2977357"><ele>61.0</ele><time>2026-04-12T19:09:34.348Z</time></trkpt><trkpt lat="51.7918861" lon="-1.2975359"><ele>60.75</ele><time>2026-04-12T19:09:35.349Z</time></trkpt><trkpt lat="51.7918517" lon="-1.2973141"><ele>60.5</ele><time>2026-04-12T19:09:36.349Z</time></trkpt><trkpt lat="51.7918122" lon="-1.2970867"><ele>60.25</ele><time>2026-04-12T19:09:37.349Z</time></trkpt><trkpt lat="51.7917716" lon="-1.2968559"><ele>60.0</ele><time>2026-04-12T19:09:38.348Z</time></trkpt><trkpt lat="51.7917345" lon="-1.2966119"><ele>60.66666666666667</ele><time>2026-04-12T19:09:39.349Z</time></trkpt><trkpt lat="51.7916938" lon="-1.2963809"><ele>61.333333333333336</ele><time>2026-04-12T19:09:40.349Z</time></trkpt><trkpt lat="51.791656" lon="-1.2961397"><ele>62.0</ele><time>2026-04-12T19:09:41.348Z</time></trkpt><trkpt lat="51.7916204" lon="-1.2958992"><ele>62.0</ele><time>2026-04-12T19:09:42.348Z</time></trkpt><trkpt lat="51.7915817" lon="-1.2956677"><ele>62.0</ele><time>2026-04-12T19:09:43.348Z</time></trkpt><trkpt lat="51.79154" lon="-1.295424"><ele>62.0</ele><time>2026-04-12T19:09:44.349Z</time></trkpt><trkpt lat="51.7915019" lon="-1.295185"><ele>61.66666666666667</ele><time>2026-04-12T19:09:45.349Z</time></trkpt><trkpt lat="51.7914629" lon="-1.294949"><ele>61.33333333333333</ele><time>2026-04-12T19:09:46.349Z</time></trkpt><trkpt lat="51.7914226" lon="-1.2947068"><ele>61.0</ele><time>2026-04-12T19:09:47.348Z</time></trkpt><trkpt lat="51.7913849" lon="-1.2944641"><ele>61.0</ele><time>2026-04-12T19:09:48.349Z</time></trkpt><trkpt lat="51.7913494" lon="-1.2942258"><ele>61.0</ele><time>2026-04-12T19:09:49.349Z</time></trkpt><trkpt lat="51.7913134" lon="-1.2939925"><ele>61.0</ele><time>2026-04-12T19:09:50.348Z</time></trkpt><trkpt lat="51.7912791" lon="-1.2937499"><ele>61.33333333333333</ele><time>2026-04-12T19:09:51.349Z</time></trkpt><trkpt lat="51.7912327" lon="-1.2935109"><ele>61.66666666666667</ele><time>2026-04-12T19:09:52.349Z</time></trkpt><trkpt lat="51.7911921" lon="-1.2932719"><ele>62.0</ele><time>2026-04-12T19:09:53.349Z</time></trkpt><trkpt lat="51.7911539" lon="-1.2930246"><ele>62.0</ele><time>2026-04-12T19:09:54.348Z</time></trkpt><trkpt lat="51.7911084" lon="-1.2927777"><ele>62.0</ele><time>2026-04-12T19:09:55.349Z</time></trkpt><trkpt lat="51.7910664" lon="-1.2925362"><ele>62.0</ele><time>2026-04-12T19:09:56.348Z</time></trkpt><trkpt lat="51.7910163" lon="-1.2923073"><ele>62.0</ele><time>2026-04-12T19:09:57.349Z</time></trkpt><trkpt lat="51.7909631" lon="-1.2920696"><ele>62.0</ele><time>2026-04-12T19:09:58.349Z</time></trkpt><trkpt lat="51.7909129" lon="-1.2918333"><ele>62.0</ele><time>2026-04-12T19:09:59.349Z</time></trkpt><trkpt lat="51.7908608" lon="-1.2916043"><ele>62.333333333333336</ele><time>2026-04-12T19:10:00.349Z</time></trkpt><trkpt lat="51.7908041" lon="-1.2913728"><ele>62.66666666666667</ele><time>2026-04-12T19:10:01.349Z</time></trkpt><trkpt lat="51.7907464" lon="-1.2911449"><ele>63.0</ele><time>2026-04-12T19:10:02.349Z</time></trkpt><trkpt lat="51.7906887" lon="-1.2909168"><ele>63.0</ele><time>2026-04-12T19:10:03.349Z</time></trkpt><trkpt lat="51.7906292" lon="-1.2906888"><ele>63.0</ele><time>2026-04-12T19:10:04.348Z</time></trkpt><trkpt lat="51.7905704" lon="-1.2904596"><ele>63.0</ele><time>2026-04-12T19:10:05.348Z</time></trkpt><trkpt lat="51.7905126" lon="-1.2902308"><ele>64.33333333333333</ele><time>2026-04-12T19:10:06.349Z</time></trkpt><trkpt lat="51.7904561" lon="-1.2900061"><ele>65.66666666666666</ele><time>2026-04-12T19:10:07.349Z</time></trkpt><trkpt lat="51.7903954" lon="-1.2897691"><ele>67.0</ele><time>2026-04-12T19:10:08.349Z</time></trkpt><trkpt lat="51.7903301" lon="-1.2895347"><ele>67.33333333333333</ele><time>2026-04-12T19:10:09.349Z</time></trkpt><trkpt lat="51.790267" lon="-1.2893108"><ele>67.66666666666667</ele><time>2026-04-12T19:10:10.348Z</time></trkpt><trkpt lat="51.7902049" lon="-1.2890907"><ele>68.0</ele><time>2026-04-12T19:10:11.349Z</time></trkpt><trkpt lat="51.7901436" lon="-1.2888679"><ele>68.25</ele><time>2026-04-12T19:10:12.349Z</time></trkpt><trkpt lat="51.7900885" lon="-1.2886558"><ele>68.5</ele><time>2026-04-12T19:10:13.348Z</time></trkpt><trkpt lat="51.7900365" lon="-1.2884576"><ele>68.75</ele><time>2026-04-12T19:10:14.349Z</time></trkpt><trkpt lat="51.7899809" lon="-1.2882661"><ele>69.0</ele><time>2026-04-12T19:10:15.349Z</time></trkpt><trkpt lat="51.7899254" lon="-1.2880772"><ele>69.0</ele><time>2026-04-12T19:10:16.349Z</time></trkpt><trkpt lat="51.7898698" lon="-1.2878915"><ele>69.0</ele><time>2026-04-12T19:10:17.349Z</time></trkpt><trkpt lat="51.7898115" lon="-1.2877057"><ele>69.0</ele><time>2026-04-12T19:10:18.348Z</time></trkpt><trkpt lat="51.7897477" lon="-1.2875192"><ele>69.0</ele><time>2026-04-12T19:10:19.349Z</time></trkpt><trkpt lat="51.7896786" lon="-1.2873294"><ele>69.0</ele><time>2026-04-12T19:10:20.348Z</time></trkpt><trkpt lat="51.7896085" lon="-1.287135"><ele>69.0</ele><time>2026-04-12T19:10:21.349Z</time></trkpt><trkpt lat="51.7895375" lon="-1.2869436"><ele>69.0</ele><time>2026-04-12T19:10:22.349Z</time></trkpt><trkpt lat="51.7894688" lon="-1.2867513"><ele>69.0</ele><time>2026-04-12T19:10:23.348Z</time></trkpt><trkpt lat="51.7894005" lon="-1.2865601"><ele>68.75</ele><time>2026-04-12T19:10:24.348Z</time></trkpt><trkpt lat="51.7893315" lon="-1.2863695"><ele>68.5</ele><time>2026-04-12T19:10:25.349Z</time></trkpt><trkpt lat="51.7892638" lon="-1.2861768"><ele>68.25</ele><time>2026-04-12T19:10:26.349Z</time></trkpt><trkpt lat="51.7891984" lon="-1.2859807"><ele>68.0</ele><time>2026-04-12T19:10:27.35Z</time></trkpt><trkpt lat="51.789134" lon="-1.2857817"><ele>68.25</ele><time>2026-04-12T19:10:28.35Z</time></trkpt><trkpt lat="51.7890708" lon="-1.2855782"><ele>68.5</ele><time>2026-04-12T19:10:29.35Z</time></trkpt><trkpt lat="51.7890103" lon="-1.2853701"><ele>68.75</ele><time>2026-04-12T19:10:30.349Z</time></trkpt><trkpt lat="51.7889515" lon="-1.2851593"><ele>69.0</ele><time>2026-04-12T19:10:31.349Z</time></trkpt><trkpt lat="51.7888931" lon="-1.2849441"><ele>68.66666666666667</ele><time>2026-04-12T19:10:32.35Z</time></trkpt><trkpt lat="51.7888354" lon="-1.2847242"><ele>68.33333333333334</ele><time>2026-04-12T19:10:33.35Z</time></trkpt><trkpt lat="51.7887787" lon="-1.2844974"><ele>68.0</ele><time>2026-04-12T19:10:34.35Z</time></trkpt><trkpt lat="51.7887239" lon="-1.2842686"><ele>68.0</ele><time>2026-04-12T19:10:35.35Z</time></trkpt><trkpt lat="51.7886716" lon="-1.2840398"><ele>68.0</ele><time>2026-04-12T19:10:36.35Z</time></trkpt><trkpt lat="51.7886207" lon="-1.2838168"><ele>68.0</ele><time>2026-04-12T19:10:37.349Z</time></trkpt><trkpt lat="51.7885745" lon="-1.2835923"><ele>68.0</ele><time>2026-04-12T19:10:38.349Z</time></trkpt><trkpt lat="51.7885304" lon="-1.283372"><ele>68.5</ele><time>2026-04-12T19:10:39.349Z</time></trkpt><trkpt lat="51.7884911" lon="-1.2831584"><ele>69.0</ele><time>2026-04-12T19:10:40.349Z</time></trkpt><trkpt lat="51.7884568" lon="-1.2829499"><ele>69.5</ele><time>2026-04-12T19:10:41.35Z</time></trkpt><trkpt lat="51.7884274" lon="-1.2827586"><ele>70.0</ele><time>2026-04-12T19:10:42.35Z</time></trkpt><trkpt lat="51.7883994" lon="-1.2825829"><ele>70.16666666666666</ele><time>2026-04-12T19:10:43.35Z</time></trkpt><trkpt lat="51.788375" lon="-1.2824181"><ele>70.33333333333333</ele><time>2026-04-12T19:10:44.349Z</time></trkpt><trkpt lat="51.7883536" lon="-1.2822688"><ele>70.5</ele><time>2026-04-12T19:10:45.35Z</time></trkpt><trkpt lat="51.7883365" lon="-1.2821361"><ele>70.66666666666667</ele><time>2026-04-12T19:10:46.349Z</time></trkpt><trkpt lat="51.788321" lon="-1.2820168"><ele>70.83333333333334</ele><time>2026-04-12T19:10:47.349Z</time></trkpt><trkpt lat="51.7883073" lon="-1.2819095"><ele>71.0</ele><time>2026-04-12T19:10:48.349Z</time></trkpt><trkpt lat="51.7882934" lon="-1.2818096"><ele>71.39999999999999</ele><time>2026-04-12T19:10:49.35Z</time></trkpt><trkpt lat="51.7882659" lon="-1.2816292"><ele>71.8</ele><time>2026-04-12T19:10:51.35Z</time></trkpt><trkpt lat="51.788246" lon="-1.2814816"><ele>72.19999999999999</ele><time>2026-04-12T19:10:53.349Z</time></trkpt><trkpt lat="51.7882335" lon="-1.2813742"><ele>72.6</ele><time>2026-04-12T19:10:55.35Z</time></trkpt><trkpt lat="51.7882281" lon="-1.2812485"><ele>73.0</ele><time>2026-04-12T19:11:31.35Z</time></trkpt><trkpt lat="51.7882601" lon="-1.2810804"><ele>73.0</ele><time>2026-04-12T19:11:33.349Z</time></trkpt><trkpt lat="51.788297" lon="-1.2809515"><ele>73.0</ele><time>2026-04-12T19:11:35.35Z</time></trkpt><trkpt lat="51.7883349" lon="-1.2808104"><ele>73.0</ele><time>2026-04-12T19:11:37.35Z</time></trkpt><trkpt lat="51.788349" lon="-1.2806257"><ele>73.0</ele><time>2026-04-12T19:11:39.35Z</time></trkpt><trkpt lat="51.7883342" lon="-1.2805137"><ele>73.0</ele><time>2026-04-12T19:11:40.35Z</time></trkpt><trkpt lat="51.788306" lon="-1.2803946"><ele>73.0</ele><time>2026-04-12T19:11:41.351Z</time></trkpt><trkpt lat="51.7882659" lon="-1.280274"><ele>73.0</ele><time>2026-04-12T19:11:42.351Z</time></trkpt><trkpt lat="51.7882134" lon="-1.2801458"><ele>73.0</ele><time>2026-04-12T19:11:43.351Z</time></trkpt><trkpt lat="51.7881567" lon="-1.2800024"><ele>73.0</ele><time>2026-04-12T19:11:44.35Z</time></trkpt><trkpt lat="51.7881167" lon="-1.2798322"><ele>73.0</ele><time>2026-04-12T19:11:45.351Z</time></trkpt><trkpt lat="51.788098" lon="-1.279635"><ele>73.0</ele><time>2026-04-12T19:11:46.351Z</time></trkpt><trkpt lat="51.7880924" lon="-1.2794056"><ele>73.25</ele><time>2026-04-12T19:11:47.351Z</time></trkpt><trkpt lat="51.7880901" lon="-1.279175"><ele>73.5</ele><time>2026-04-12T19:11:48.351Z</time></trkpt><trkpt lat="51.7880891" lon="-1.2789605"><ele>73.75</ele><time>2026-04-12T19:11:49.351Z</time></trkpt><trkpt lat="51.7880875" lon="-1.2787609"><ele>74.0</ele><time>2026-04-12T19:11:50.351Z</time></trkpt><trkpt lat="51.7880877" lon="-1.2785738"><ele>74.0</ele><time>2026-04-12T19:11:51.351Z</time></trkpt><trkpt lat="51.7880893" lon="-1.2783951"><ele>74.0</ele><time>2026-04-12T19:11:52.35Z</time></trkpt><trkpt lat="51.7880897" lon="-1.278216"><ele>74.0</ele><time>2026-04-12T19:11:53.35Z</time></trkpt><trkpt lat="51.7880906" lon="-1.278035"><ele>74.0</ele><time>2026-04-12T19:11:54.351Z</time></trkpt><trkpt lat="51.7880942" lon="-1.2778535"><ele>74.0</ele><time>2026-04-12T19:11:55.35Z</time></trkpt><trkpt lat="51.7881" lon="-1.2776713"><ele>74.0</ele><time>2026-04-12T19:11:56.351Z</time></trkpt><trkpt lat="51.7881069" lon="-1.2774878"><ele>74.0</ele><time>2026-04-12T19:11:57.351Z</time></trkpt><trkpt lat="51.7881123" lon="-1.2773116"><ele>74.0</ele><time>2026-04-12T19:11:58.35Z</time></trkpt><trkpt lat="51.7881202" lon="-1.2771372"><ele>74.0</ele><time>2026-04-12T19:11:59.35Z</time></trkpt><trkpt lat="51.7881298" lon="-1.2769621"><ele>74.0</ele><time>2026-04-12T19:12:00.35Z</time></trkpt><trkpt lat="51.788141" lon="-1.2767865"><ele>74.0</ele><time>2026-04-12T19:12:01.35Z</time></trkpt><trkpt lat="51.7881527" lon="-1.2766162"><ele>74.0</ele><time>2026-04-12T19:12:02.351Z</time></trkpt><trkpt lat="51.7881654" lon="-1.2764378"><ele>74.0</ele><time>2026-04-12T19:12:03.351Z</time></trkpt><trkpt lat="51.7881788" lon="-1.2762526"><ele>74.0</ele><time>2026-04-12T19:12:04.351Z</time></trkpt><trkpt lat="51.7881944" lon="-1.276072"><ele>74.0</ele><time>2026-04-12T19:12:05.35Z</time></trkpt><trkpt lat="51.7882055" lon="-1.2758907"><ele>73.75</ele><time>2026-04-12T19:12:06.35Z</time></trkpt><trkpt lat="51.7882148" lon="-1.2757105"><ele>73.5</ele><time>2026-04-12T19:12:07.351Z</time></trkpt><trkpt lat="51.7882244" lon="-1.2755298"><ele>73.25</ele><time>2026-04-12T19:12:08.35Z</time></trkpt><trkpt lat="51.7882329" lon="-1.275346"><ele>73.0</ele><time>2026-04-12T19:12:09.351Z</time></trkpt><trkpt lat="51.7882418" lon="-1.2751599"><ele>73.0</ele><time>2026-04-12T19:12:10.35Z</time></trkpt><trkpt lat="51.7882492" lon="-1.2749714"><ele>73.0</ele><time>2026-04-12T19:12:11.351Z</time></trkpt><trkpt lat="51.7882565" lon="-1.2747833"><ele>73.0</ele><time>2026-04-12T19:12:12.35Z</time></trkpt><trkpt lat="51.7882589" lon="-1.2745842"><ele>73.0</ele><time>2026-04-12T19:12:13.351Z</time></trkpt><trkpt lat="51.7882631" lon="-1.2743823"><ele>73.0</ele><time>2026-04-12T19:12:14.351Z</time></trkpt><trkpt lat="51.7882679" lon="-1.2741835"><ele>73.0</ele><time>2026-04-12T19:12:15.35Z</time></trkpt><trkpt lat="51.7882711" lon="-1.2739835"><ele>73.0</ele><time>2026-04-12T19:12:16.35Z</time></trkpt><trkpt lat="51.7882718" lon="-1.2737837"><ele>73.0</ele><time>2026-04-12T19:12:17.351Z</time></trkpt><trkpt lat="51.7882726" lon="-1.2735856"><ele>72.75</ele><time>2026-04-12T19:12:18.351Z</time></trkpt><trkpt lat="51.7882723" lon="-1.273386"><ele>72.5</ele><time>2026-04-12T19:12:19.351Z</time></trkpt><trkpt lat="51.7882728" lon="-1.2731852"><ele>72.25</ele><time>2026-04-12T19:12:20.35Z</time></trkpt><trkpt lat="51.7882721" lon="-1.2729856"><ele>72.0</ele><time>2026-04-12T19:12:21.351Z</time></trkpt><trkpt lat="51.7882711" lon="-1.2727876"><ele>72.0</ele><time>2026-04-12T19:12:22.351Z</time></trkpt><trkpt lat="51.78827" lon="-1.2725891"><ele>72.0</ele><time>2026-04-12T19:12:23.35Z</time></trkpt><trkpt lat="51.7882698" lon="-1.2723911"><ele>72.0</ele><time>2026-04-12T19:12:24.35Z</time></trkpt><trkpt lat="51.7882698" lon="-1.2722"><ele>72.0</ele><time>2026-04-12T19:12:25.35Z</time></trkpt><trkpt lat="51.7882691" lon="-1.2720218"><ele>72.0</ele><time>2026-04-12T19:12:26.35Z</time></trkpt><trkpt lat="51.788267" lon="-1.2718543"><ele>72.0</ele><time>2026-04-12T19:12:27.351Z</time></trkpt><trkpt lat="51.7882658" lon="-1.2717015"><ele>72.0</ele><time>2026-04-12T19:12:28.351Z</time></trkpt><trkpt lat="51.7882651" lon="-1.271573"><ele>72.0</ele><time>2026-04-12T19:12:29.351Z</time></trkpt><trkpt lat="51.788265" lon="-1.2714684"><ele>72.0</ele><time>2026-04-12T19:12:30.35Z</time></trkpt><trkpt lat="51.788263" lon="-1.271287"><ele>71.8</ele><time>2026-04-12T19:12:32.351Z</time></trkpt><trkpt lat="51.7882606" lon="-1.2711183"><ele>71.6</ele><time>2026-04-12T19:12:34.351Z</time></trkpt><trkpt lat="51.7882653" lon="-1.2709677"><ele>71.39999999999999</ele><time>2026-04-12T19:12:36.35Z</time></trkpt><trkpt lat="51.7882898" lon="-1.2708218"><ele>71.2</ele><time>2026-04-12T19:12:38.351Z</time></trkpt><trkpt lat="51.7883399" lon="-1.2706438"><ele>71.0</ele><time>2026-04-12T19:12:40.351Z</time></trkpt><trkpt lat="51.7883606" lon="-1.2705351"><ele>71.0</ele><time>2026-04-12T19:12:41.351Z</time></trkpt><trkpt lat="51.7883529" lon="-1.2703784"><ele>71.0</ele><time>2026-04-12T19:12:42.351Z</time></trkpt><trkpt lat="51.7883182" lon="-1.2702151"><ele>71.0</ele><time>2026-04-12T19:12:43.351Z</time></trkpt><trkpt lat="51.7882844" lon="-1.2700532"><ele>71.0</ele><time>2026-04-12T19:12:44.35Z</time></trkpt><trkpt lat="51.7882619" lon="-1.2698784"><ele>71.0</ele><time>2026-04-12T19:12:45.35Z</time></trkpt><trkpt lat="51.788253" lon="-1.2696893"><ele>71.0</ele><time>2026-04-12T19:12:46.35Z</time></trkpt><trkpt lat="51.7882496" lon="-1.269494"><ele>71.0</ele><time>2026-04-12T19:12:47.351Z</time></trkpt><trkpt lat="51.7882465" lon="-1.2692969"><ele>71.0</ele><time>2026-04-12T19:12:48.35Z</time></trkpt><trkpt lat="51.7882434" lon="-1.269099"><ele>71.0</ele><time>2026-04-12T19:12:49.351Z</time></trkpt><trkpt lat="51.7882412" lon="-1.2688985"><ele>71.0</ele><time>2026-04-12T19:12:50.35Z</time></trkpt><trkpt lat="51.7882378" lon="-1.2686934"><ele>71.0</ele><time>2026-04-12T19:12:51.35Z</time></trkpt><trkpt lat="51.7882331" lon="-1.2684864"><ele>71.0</ele><time>2026-04-12T19:12:52.35Z</time></trkpt><trkpt lat="51.7882291" lon="-1.268279"><ele>71.0</ele><time>2026-04-12T19:12:53.351Z</time></trkpt><trkpt lat="51.788225" lon="-1.2680721"><ele>70.75</ele><time>2026-04-12T19:12:54.35Z</time></trkpt><trkpt lat="51.7882207" lon="-1.2678667"><ele>70.5</ele><time>2026-04-12T19:12:55.351Z</time></trkpt><trkpt lat="51.7882159" lon="-1.267661"><ele>70.25</ele><time>2026-04-12T19:12:56.35Z</time></trkpt><trkpt lat="51.788211" lon="-1.2674559"><ele>70.0</ele><time>2026-04-12T19:12:57.351Z</time></trkpt><trkpt lat="51.7882067" lon="-1.2672504"><ele>70.0</ele><time>2026-04-12T19:12:58.352Z</time></trkpt><trkpt lat="51.7882044" lon="-1.2670455"><ele>70.0</ele><time>2026-04-12T19:12:59.352Z</time></trkpt><trkpt lat="51.7882018" lon="-1.2668405"><ele>70.0</ele><time>2026-04-12T19:13:00.352Z</time></trkpt><trkpt lat="51.7881988" lon="-1.2666354"><ele>70.0</ele><time>2026-04-12T19:13:01.351Z</time></trkpt><trkpt lat="51.7881948" lon="-1.2664301"><ele>69.75</ele><time>2026-04-12T19:13:02.352Z</time></trkpt><trkpt lat="51.7881902" lon="-1.2662242"><ele>69.5</ele><time>2026-04-12T19:13:03.351Z</time></trkpt><trkpt lat="51.788187" lon="-1.2660191"><ele>69.25</ele><time>2026-04-12T19:13:04.351Z</time></trkpt><trkpt lat="51.7881839" lon="-1.2658135"><ele>69.0</ele><time>2026-04-12T19:13:05.352Z</time></trkpt><trkpt lat="51.7881808" lon="-1.2656082"><ele>69.0</ele><time>2026-04-12T19:13:06.352Z</time></trkpt><trkpt lat="51.7881774" lon="-1.2654025"><ele>69.0</ele><time>2026-04-12T19:13:07.352Z</time></trkpt><trkpt lat="51.7881735" lon="-1.2651976"><ele>69.0</ele><time>2026-04-12T19:13:08.352Z</time></trkpt><trkpt lat="51.7881691" lon="-1.2649925"><ele>69.0</ele><time>2026-04-12T19:13:09.351Z</time></trkpt><trkpt lat="51.7881646" lon="-1.2647871"><ele>69.0</ele><time>2026-04-12T19:13:10.352Z</time></trkpt><trkpt lat="51.788161" lon="-1.264578"><ele>69.0</ele><time>2026-04-12T19:13:11.352Z</time></trkpt><trkpt lat="51.7881585" lon="-1.2643665"><ele>69.0</ele><time>2026-04-12T19:13:12.352Z</time></trkpt><trkpt lat="51.7881584" lon="-1.2641419"><ele>69.0</ele><time>2026-04-12T19:13:13.352Z</time></trkpt><trkpt lat="51.788157" lon="-1.2638846"><ele>68.66666666666667</ele><time>2026-04-12T19:13:14.351Z</time></trkpt><trkpt lat="51.7881536" lon="-1.2636209"><ele>68.33333333333334</ele><time>2026-04-12T19:13:15.352Z</time></trkpt><trkpt lat="51.7881506" lon="-1.2633519"><ele>68.0</ele><time>2026-04-12T19:13:16.352Z</time></trkpt><trkpt lat="51.7881466" lon="-1.2630657"><ele>67.66666666666667</ele><time>2026-04-12T19:13:17.352Z</time></trkpt><trkpt lat="51.7881424" lon="-1.2627771"><ele>67.33333333333333</ele><time>2026-04-12T19:13:18.352Z</time></trkpt><trkpt lat="51.7881378" lon="-1.2624989"><ele>67.0</ele><time>2026-04-12T19:13:19.351Z</time></trkpt><trkpt lat="51.7881326" lon="-1.2622281"><ele>66.66666666666666</ele><time>2026-04-12T19:13:20.352Z</time></trkpt><trkpt lat="51.788124" lon="-1.2619579"><ele>66.33333333333333</ele><time>2026-04-12T19:13:21.352Z</time></trkpt><trkpt lat="51.7881098" lon="-1.2616847"><ele>66.0</ele><time>2026-04-12T19:13:22.352Z</time></trkpt><trkpt lat="51.7880929" lon="-1.2614063"><ele>66.0</ele><time>2026-04-12T19:13:23.352Z</time></trkpt><trkpt lat="51.7880732" lon="-1.261122"><ele>66.0</ele><time>2026-04-12T19:13:24.351Z</time></trkpt><trkpt lat="51.7880501" lon="-1.2608323"><ele>66.0</ele><time>2026-04-12T19:13:25.352Z</time></trkpt><trkpt lat="51.7880241" lon="-1.2605487"><ele>65.33333333333333</ele><time>2026-04-12T19:13:26.351Z</time></trkpt><trkpt lat="51.7879993" lon="-1.2602559"><ele>64.66666666666666</ele><time>2026-04-12T19:13:27.352Z</time></trkpt><trkpt lat="51.787965" lon="-1.2599586"><ele>64.0</ele><time>2026-04-12T19:13:28.351Z</time></trkpt><trkpt lat="51.7879202" lon="-1.2596576"><ele>63.666666666666664</ele><time>2026-04-12T19:13:29.352Z</time></trkpt><trkpt lat="51.7878799" lon="-1.259366"><ele>63.33333333333333</ele><time>2026-04-12T19:13:30.351Z</time></trkpt><trkpt lat="51.7878256" lon="-1.2590824"><ele>63.0</ele><time>2026-04-12T19:13:31.351Z</time></trkpt><trkpt lat="51.7877728" lon="-1.2587959"><ele>62.66666666666667</ele><time>2026-04-12T19:13:32.352Z</time></trkpt><trkpt lat="51.7877147" lon="-1.2585087"><ele>62.333333333333336</ele><time>2026-04-12T19:13:33.351Z</time></trkpt><trkpt lat="51.7876499" lon="-1.2582258"><ele>62.0</ele><time>2026-04-12T19:13:34.352Z</time></trkpt><trkpt lat="51.7875774" lon="-1.2579381"><ele>61.333333333333336</ele><time>2026-04-12T19:13:35.352Z</time></trkpt><trkpt lat="51.7874996" lon="-1.2576427"><ele>60.66666666666667</ele><time>2026-04-12T19:13:36.352Z</time></trkpt><trkpt lat="51.7874111" lon="-1.2573348"><ele>60.0</ele><time>2026-04-12T19:13:37.352Z</time></trkpt><trkpt lat="51.7873172" lon="-1.2570207"><ele>59.5</ele><time>2026-04-12T19:13:38.351Z</time></trkpt><trkpt lat="51.7872086" lon="-1.2566947"><ele>59.0</ele><time>2026-04-12T19:13:39.352Z</time></trkpt><trkpt lat="51.7870894" lon="-1.256362"><ele>58.5</ele><time>2026-04-12T19:13:40.351Z</time></trkpt><trkpt lat="51.7869578" lon="-1.2560197"><ele>58.0</ele><time>2026-04-12T19:13:41.352Z</time></trkpt><trkpt lat="51.78682" lon="-1.2556736"><ele>58.5</ele><time>2026-04-12T19:13:42.352Z</time></trkpt><trkpt lat="51.7866696" lon="-1.2553314"><ele>59.0</ele><time>2026-04-12T19:13:43.352Z</time></trkpt><trkpt lat="51.7865201" lon="-1.2549824"><ele>58.5</ele><time>2026-04-12T19:13:44.352Z</time></trkpt><trkpt lat="51.7863651" lon="-1.2546315"><ele>58.0</ele><time>2026-04-12T19:13:45.351Z</time></trkpt><trkpt lat="51.7862102" lon="-1.2542794"><ele>58.0</ele><time>2026-04-12T19:13:46.351Z</time></trkpt><trkpt lat="51.7860553" lon="-1.2539217"><ele>58.0</ele><time>2026-04-12T19:13:47.351Z</time></trkpt><trkpt lat="51.7858961" lon="-1.2535648"><ele>59.0</ele><time>2026-04-12T19:13:48.352Z</time></trkpt><trkpt lat="51.7857388" lon="-1.2532106"><ele>60.0</ele><time>2026-04-12T19:13:49.352Z</time></trkpt><trkpt lat="51.7855766" lon="-1.2528598"><ele>60.0</ele><time>2026-04-12T19:13:50.352Z</time></trkpt><trkpt lat="51.7854142" lon="-1.2524999"><ele>60.0</ele><time>2026-04-12T19:13:51.352Z</time></trkpt><trkpt lat="51.7852497" lon="-1.2521457"><ele>60.5</ele><time>2026-04-12T19:13:52.352Z</time></trkpt><trkpt lat="51.7850849" lon="-1.2517974"><ele>61.0</ele><time>2026-04-12T19:13:53.352Z</time></trkpt><trkpt lat="51.7849237" lon="-1.2514464"><ele>61.5</ele><time>2026-04-12T19:13:54.352Z</time></trkpt><trkpt lat="51.7847652" lon="-1.2510966"><ele>62.0</ele><time>2026-04-12T19:13:55.352Z</time></trkpt><trkpt lat="51.7846102" lon="-1.2507474"><ele>63.0</ele><time>2026-04-12T19:13:56.352Z</time></trkpt><trkpt lat="51.7844511" lon="-1.2503899"><ele>64.0</ele><time>2026-04-12T19:13:57.352Z</time></trkpt><trkpt lat="51.7842915" lon="-1.2500399"><ele>64.5</ele><time>2026-04-12T19:13:58.352Z</time></trkpt><trkpt lat="51.7841297" lon="-1.2496926"><ele>65.0</ele><time>2026-04-12T19:13:59.351Z</time></trkpt><trkpt lat="51.7839663" lon="-1.2493379"><ele>65.0</ele><time>2026-04-12T19:14:00.352Z</time></trkpt><trkpt lat="51.7838061" lon="-1.2489835"><ele>65.0</ele><time>2026-04-12T19:14:01.352Z</time></trkpt><trkpt lat="51.7836484" lon="-1.248636"><ele>65.0</ele><time>2026-04-12T19:14:02.352Z</time></trkpt><trkpt lat="51.7834942" lon="-1.2482772"><ele>65.0</ele><time>2026-04-12T19:14:03.352Z</time></trkpt><trkpt lat="51.7833347" lon="-1.2479199"><ele>65.5</ele><time>2026-04-12T19:14:04.351Z</time></trkpt><trkpt lat="51.7831767" lon="-1.247562"><ele>66.0</ele><time>2026-04-12T19:14:05.352Z</time></trkpt><trkpt lat="51.7830181" lon="-1.2472053"><ele>66.5</ele><time>2026-04-12T19:14:06.352Z</time></trkpt><trkpt lat="51.7828625" lon="-1.2468465"><ele>67.0</ele><time>2026-04-12T19:14:07.352Z</time></trkpt><trkpt lat="51.7827084" lon="-1.2464827"><ele>67.0</ele><time>2026-04-12T19:14:08.351Z</time></trkpt><trkpt lat="51.782554" lon="-1.24612"><ele>67.0</ele><time>2026-04-12T19:14:09.352Z</time></trkpt><trkpt lat="51.7824071" lon="-1.2457563"><ele>67.0</ele><time>2026-04-12T19:14:10.352Z</time></trkpt><trkpt lat="51.7822518" lon="-1.2453971"><ele>67.0</ele><time>2026-04-12T19:14:11.351Z</time></trkpt><trkpt lat="51.7821005" lon="-1.2450324"><ele>67.0</ele><time>2026-04-12T19:14:12.352Z</time></trkpt><trkpt lat="51.781953" lon="-1.244671"><ele>67.0</ele><time>2026-04-12T19:14:13.352Z</time></trkpt><trkpt lat="51.7818014" lon="-1.2443044"><ele>66.5</ele><time>2026-04-12T19:14:14.352Z</time></trkpt><trkpt lat="51.7816531" lon="-1.2439425"><ele>66.0</ele><time>2026-04-12T19:14:15.352Z</time></trkpt><trkpt lat="51.7815054" lon="-1.2435717"><ele>66.0</ele><time>2026-04-12T19:14:16.353Z</time></trkpt><trkpt lat="51.7813613" lon="-1.2432015"><ele>66.0</ele><time>2026-04-12T19:14:17.353Z</time></trkpt><trkpt lat="51.7812122" lon="-1.24283"><ele>66.5</ele><time>2026-04-12T19:14:18.353Z</time></trkpt><trkpt lat="51.7810641" lon="-1.2424629"><ele>67.0</ele><time>2026-04-12T19:14:19.353Z</time></trkpt><trkpt lat="51.780914" lon="-1.2420935"><ele>67.0</ele><time>2026-04-12T19:14:20.353Z</time></trkpt><trkpt lat="51.7807657" lon="-1.2417348"><ele>67.0</ele><time>2026-04-12T19:14:21.352Z</time></trkpt><trkpt lat="51.7806202" lon="-1.2413591"><ele>67.0</ele><time>2026-04-12T19:14:22.352Z</time></trkpt><trkpt lat="51.7804777" lon="-1.2409878"><ele>67.0</ele><time>2026-04-12T19:14:23.352Z</time></trkpt><trkpt lat="51.7803296" lon="-1.2406217"><ele>67.0</ele><time>2026-04-12T19:14:24.353Z</time></trkpt><trkpt lat="51.7801815" lon="-1.24025"><ele>67.0</ele><time>2026-04-12T19:14:25.353Z</time></trkpt><trkpt lat="51.7800409" lon="-1.2398932"><ele>66.5</ele><time>2026-04-12T19:14:26.352Z</time></trkpt><trkpt lat="51.7799043" lon="-1.2395572"><ele>66.0</ele><time>2026-04-12T19:14:27.352Z</time></trkpt><trkpt lat="51.7797749" lon="-1.2392343"><ele>65.5</ele><time>2026-04-12T19:14:28.353Z</time></trkpt><trkpt lat="51.7796485" lon="-1.2389243"><ele>65.0</ele><time>2026-04-12T19:14:29.352Z</time></trkpt><trkpt lat="51.7795223" lon="-1.2386163"><ele>65.0</ele><time>2026-04-12T19:14:30.352Z</time></trkpt><trkpt lat="51.7794015" lon="-1.2383049"><ele>65.0</ele><time>2026-04-12T19:14:31.353Z</time></trkpt><trkpt lat="51.7792739" lon="-1.2379862"><ele>65.0</ele><time>2026-04-12T19:14:32.353Z</time></trkpt><trkpt lat="51.7791447" lon="-1.2376738"><ele>65.0</ele><time>2026-04-12T19:14:33.353Z</time></trkpt><trkpt lat="51.7790095" lon="-1.2373572"><ele>64.5</ele><time>2026-04-12T19:14:34.352Z</time></trkpt><trkpt lat="51.7788738" lon="-1.2370307"><ele>64.0</ele><time>2026-04-12T19:14:35.352Z</time></trkpt><trkpt lat="51.7787405" lon="-1.2366991"><ele>64.0</ele><time>2026-04-12T19:14:36.353Z</time></trkpt><trkpt lat="51.7786077" lon="-1.2363674"><ele>64.0</ele><time>2026-04-12T19:14:37.353Z</time></trkpt><trkpt lat="51.7784723" lon="-1.2360407"><ele>64.0</ele><time>2026-04-12T19:14:38.353Z</time></trkpt><trkpt lat="51.7783341" lon="-1.2357089"><ele>64.0</ele><time>2026-04-12T19:14:39.352Z</time></trkpt><trkpt lat="51.7781995" lon="-1.2353769"><ele>63.5</ele><time>2026-04-12T19:14:40.352Z</time></trkpt><trkpt lat="51.7780605" lon="-1.2350425"><ele>63.0</ele><time>2026-04-12T19:14:41.353Z</time></trkpt><trkpt lat="51.7779202" lon="-1.2347065"><ele>62.5</ele><time>2026-04-12T19:14:42.352Z</time></trkpt><trkpt lat="51.777772" lon="-1.234358"><ele>62.0</ele><time>2026-04-12T19:14:43.352Z</time></trkpt><trkpt lat="51.7776279" lon="-1.2340035"><ele>62.5</ele><time>2026-04-12T19:14:44.353Z</time></trkpt><trkpt lat="51.7774763" lon="-1.2336512"><ele>63.0</ele><time>2026-04-12T19:14:45.352Z</time></trkpt><trkpt lat="51.7773293" lon="-1.2332969"><ele>62.5</ele><time>2026-04-12T19:14:46.353Z</time></trkpt><trkpt lat="51.7771742" lon="-1.2329427"><ele>62.0</ele><time>2026-04-12T19:14:47.353Z</time></trkpt><trkpt lat="51.7770205" lon="-1.2325894"><ele>62.0</ele><time>2026-04-12T19:14:48.353Z</time></trkpt><trkpt lat="51.7768713" lon="-1.2322342"><ele>62.0</ele><time>2026-04-12T19:14:49.352Z</time></trkpt><trkpt lat="51.7767223" lon="-1.2318832"><ele>62.0</ele><time>2026-04-12T19:14:50.353Z</time></trkpt><trkpt lat="51.7765717" lon="-1.231537"><ele>62.0</ele><time>2026-04-12T19:14:51.352Z</time></trkpt><trkpt lat="51.7764245" lon="-1.2311776"><ele>61.5</ele><time>2026-04-12T19:14:52.353Z</time></trkpt><trkpt lat="51.7762745" lon="-1.2308324"><ele>61.0</ele><time>2026-04-12T19:14:53.352Z</time></trkpt><trkpt lat="51.7761276" lon="-1.2304779"><ele>61.5</ele><time>2026-04-12T19:14:54.352Z</time></trkpt><trkpt lat="51.7759781" lon="-1.2301273"><ele>62.0</ele><time>2026-04-12T19:14:55.353Z</time></trkpt><trkpt lat="51.7758283" lon="-1.2297764"><ele>62.5</ele><time>2026-04-12T19:14:56.353Z</time></trkpt><trkpt lat="51.7756706" lon="-1.2294287"><ele>63.0</ele><time>2026-04-12T19:14:57.353Z</time></trkpt><trkpt lat="51.7755296" lon="-1.2290915"><ele>63.5</ele><time>2026-04-12T19:14:58.352Z</time></trkpt><trkpt lat="51.775398" lon="-1.2287764"><ele>64.0</ele><time>2026-04-12T19:14:59.352Z</time></trkpt><trkpt lat="51.7752654" lon="-1.2284745"><ele>64.0</ele><time>2026-04-12T19:15:00.353Z</time></trkpt><trkpt lat="51.7751452" lon="-1.2281898"><ele>64.0</ele><time>2026-04-12T19:15:01.353Z</time></trkpt><trkpt lat="51.775035" lon="-1.227918"><ele>64.0</ele><time>2026-04-12T19:15:02.353Z</time></trkpt><trkpt lat="51.7749269" lon="-1.2276648"><ele>64.0</ele><time>2026-04-12T19:15:03.353Z</time></trkpt><trkpt lat="51.7748247" lon="-1.2274282"><ele>64.0</ele><time>2026-04-12T19:15:04.353Z</time></trkpt><trkpt lat="51.7747256" lon="-1.2271999"><ele>64.0</ele><time>2026-04-12T19:15:05.352Z</time></trkpt><trkpt lat="51.7746246" lon="-1.2269692"><ele>64.0</ele><time>2026-04-12T19:15:06.353Z</time></trkpt><trkpt lat="51.7745264" lon="-1.2267277"><ele>64.0</ele><time>2026-04-12T19:15:07.352Z</time></trkpt><trkpt lat="51.7744268" lon="-1.2264892"><ele>64.0</ele><time>2026-04-12T19:15:08.352Z</time></trkpt><trkpt lat="51.774328" lon="-1.2262488"><ele>64.0</ele><time>2026-04-12T19:15:09.353Z</time></trkpt><trkpt lat="51.7742245" lon="-1.2260091"><ele>64.0</ele><time>2026-04-12T19:15:10.352Z</time></trkpt><trkpt lat="51.7741181" lon="-1.2257663"><ele>64.0</ele><time>2026-04-12T19:15:11.353Z</time></trkpt><trkpt lat="51.7740141" lon="-1.2255128"><ele>63.666666666666664</ele><time>2026-04-12T19:15:12.352Z</time></trkpt><trkpt lat="51.7739092" lon="-1.2252645"><ele>63.33333333333333</ele><time>2026-04-12T19:15:13.353Z</time></trkpt><trkpt lat="51.7738024" lon="-1.2250166"><ele>63.0</ele><time>2026-04-12T19:15:14.352Z</time></trkpt><trkpt lat="51.7736978" lon="-1.2247685"><ele>62.66666666666667</ele><time>2026-04-12T19:15:15.353Z</time></trkpt><trkpt lat="51.7735939" lon="-1.2245218"><ele>62.333333333333336</ele><time>2026-04-12T19:15:16.353Z</time></trkpt><trkpt lat="51.7734873" lon="-1.2242729"><ele>62.0</ele><time>2026-04-12T19:15:17.352Z</time></trkpt><trkpt lat="51.7733833" lon="-1.2240204"><ele>62.333333333333336</ele><time>2026-04-12T19:15:18.353Z</time></trkpt><trkpt lat="51.7732762" lon="-1.2237667"><ele>62.66666666666667</ele><time>2026-04-12T19:15:19.353Z</time></trkpt><trkpt lat="51.7731707" lon="-1.2235073"><ele>63.0</ele><time>2026-04-12T19:15:20.352Z</time></trkpt><trkpt lat="51.7730639" lon="-1.2232535"><ele>62.66666666666667</ele><time>2026-04-12T19:15:21.352Z</time></trkpt><trkpt lat="51.7729607" lon="-1.2230022"><ele>62.333333333333336</ele><time>2026-04-12T19:15:22.353Z</time></trkpt><trkpt lat="51.7728537" lon="-1.2227451"><ele>62.0</ele><time>2026-04-12T19:15:23.352Z</time></trkpt><trkpt lat="51.7727486" lon="-1.2224881"><ele>62.66666666666667</ele><time>2026-04-12T19:15:24.352Z</time></trkpt><trkpt lat="51.7726445" lon="-1.2222313"><ele>63.33333333333333</ele><time>2026-04-12T19:15:25.353Z</time></trkpt><trkpt lat="51.7725436" lon="-1.2219747"><ele>64.0</ele><time>2026-04-12T19:15:26.353Z</time></trkpt><trkpt lat="51.7724365" lon="-1.2217205"><ele>63.666666666666664</ele><time>2026-04-12T19:15:27.353Z</time></trkpt><trkpt lat="51.7723338" lon="-1.2214676"><ele>63.33333333333333</ele><time>2026-04-12T19:15:28.352Z</time></trkpt><trkpt lat="51.7722272" lon="-1.2212149"><ele>63.0</ele><time>2026-04-12T19:15:29.353Z</time></trkpt><trkpt lat="51.7721247" lon="-1.220958"><ele>63.0</ele><time>2026-04-12T19:15:30.353Z</time></trkpt><trkpt lat="51.7720176" lon="-1.2207061"><ele>63.0</ele><time>2026-04-12T19:15:31.353Z</time></trkpt><trkpt lat="51.771915" lon="-1.2204514"><ele>63.0</ele><time>2026-04-12T19:15:32.353Z</time></trkpt><trkpt lat="51.7718118" lon="-1.2201874"><ele>63.33333333333333</ele><time>2026-04-12T19:15:33.353Z</time></trkpt><trkpt lat="51.771708" lon="-1.2199268"><ele>63.666666666666664</ele><time>2026-04-12T19:15:34.354Z</time></trkpt><trkpt lat="51.7716037" lon="-1.2196715"><ele>64.0</ele><time>2026-04-12T19:15:35.354Z</time></trkpt><trkpt lat="51.7714953" lon="-1.2194197"><ele>64.0</ele><time>2026-04-12T19:15:36.354Z</time></trkpt><trkpt lat="51.7713912" lon="-1.2191674"><ele>64.0</ele><time>2026-04-12T19:15:37.354Z</time></trkpt><trkpt lat="51.7712892" lon="-1.2189131"><ele>64.0</ele><time>2026-04-12T19:15:38.354Z</time></trkpt><trkpt lat="51.7711882" lon="-1.2186546"><ele>64.0</ele><time>2026-04-12T19:15:39.354Z</time></trkpt><trkpt lat="51.7710873" lon="-1.218405"><ele>64.0</ele><time>2026-04-12T19:15:40.353Z</time></trkpt><trkpt lat="51.7709825" lon="-1.2181435"><ele>64.0</ele><time>2026-04-12T19:15:41.354Z</time></trkpt><trkpt lat="51.7708753" lon="-1.2178872"><ele>64.66666666666666</ele><time>2026-04-12T19:15:42.353Z</time></trkpt><trkpt lat="51.7707703" lon="-1.217639"><ele>65.33333333333333</ele><time>2026-04-12T19:15:43.354Z</time></trkpt><trkpt lat="51.7706629" lon="-1.2173757"><ele>66.0</ele><time>2026-04-12T19:15:44.353Z</time></trkpt><trkpt lat="51.770557" lon="-1.2171286"><ele>66.0</ele><time>2026-04-12T19:15:45.354Z</time></trkpt><trkpt lat="51.7704683" lon="-1.2168905"><ele>66.0</ele><time>2026-04-12T19:15:46.354Z</time></trkpt><trkpt lat="51.7703744" lon="-1.2166569"><ele>66.0</ele><time>2026-04-12T19:15:47.354Z</time></trkpt><trkpt lat="51.7702774" lon="-1.2164178"><ele>67.33333333333333</ele><time>2026-04-12T19:15:48.354Z</time></trkpt><trkpt lat="51.7701835" lon="-1.2161837"><ele>68.66666666666666</ele><time>2026-04-12T19:15:49.354Z</time></trkpt><trkpt lat="51.7700819" lon="-1.2159422"><ele>70.0</ele><time>2026-04-12T19:15:50.353Z</time></trkpt><trkpt lat="51.769991" lon="-1.2157063"><ele>69.66666666666666</ele><time>2026-04-12T19:15:51.354Z</time></trkpt><trkpt lat="51.7698965" lon="-1.2154639"><ele>69.33333333333333</ele><time>2026-04-12T19:15:52.353Z</time></trkpt><trkpt lat="51.7697976" lon="-1.2152231"><ele>69.0</ele><time>2026-04-12T19:15:53.353Z</time></trkpt><trkpt lat="51.7696969" lon="-1.2149775"><ele>69.0</ele><time>2026-04-12T19:15:54.354Z</time></trkpt><trkpt lat="51.7696013" lon="-1.2147299"><ele>69.0</ele><time>2026-04-12T19:15:55.353Z</time></trkpt><trkpt lat="51.7695048" lon="-1.2144818"><ele>69.0</ele><time>2026-04-12T19:15:56.354Z</time></trkpt><trkpt lat="51.769405" lon="-1.2142439"><ele>70.0</ele><time>2026-04-12T19:15:57.353Z</time></trkpt><trkpt lat="51.7693085" lon="-1.2139979"><ele>71.0</ele><time>2026-04-12T19:15:58.354Z</time></trkpt><trkpt lat="51.7692058" lon="-1.2137549"><ele>72.0</ele><time>2026-04-12T19:15:59.354Z</time></trkpt><trkpt lat="51.7691048" lon="-1.2134945"><ele>72.0</ele><time>2026-04-12T19:16:00.354Z</time></trkpt><trkpt lat="51.7690051" lon="-1.2132314"><ele>72.0</ele><time>2026-04-12T19:16:01.353Z</time></trkpt><trkpt lat="51.7689031" lon="-1.2129752"><ele>72.0</ele><time>2026-04-12T19:16:02.354Z</time></trkpt><trkpt lat="51.768795" lon="-1.2127154"><ele>72.33333333333333</ele><time>2026-04-12T19:16:03.353Z</time></trkpt><trkpt lat="51.7686897" lon="-1.2124612"><ele>72.66666666666666</ele><time>2026-04-12T19:16:04.353Z</time></trkpt><trkpt lat="51.7685896" lon="-1.2122004"><ele>73.0</ele><time>2026-04-12T19:16:05.353Z</time></trkpt><trkpt lat="51.7684882" lon="-1.2119436"><ele>73.66666666666666</ele><time>2026-04-12T19:16:06.354Z</time></trkpt><trkpt lat="51.7683862" lon="-1.2116856"><ele>74.33333333333333</ele><time>2026-04-12T19:16:07.353Z</time></trkpt><trkpt lat="51.7682874" lon="-1.2114277"><ele>75.0</ele><time>2026-04-12T19:16:08.354Z</time></trkpt><trkpt lat="51.7681868" lon="-1.2111669"><ele>75.0</ele><time>2026-04-12T19:16:09.354Z</time></trkpt><trkpt lat="51.7680826" lon="-1.2109122"><ele>75.0</ele><time>2026-04-12T19:16:10.353Z</time></trkpt><trkpt lat="51.7679732" lon="-1.2106539"><ele>75.0</ele><time>2026-04-12T19:16:11.353Z</time></trkpt><trkpt lat="51.7678689" lon="-1.2103889"><ele>74.66666666666667</ele><time>2026-04-12T19:16:12.354Z</time></trkpt><trkpt lat="51.7677674" lon="-1.2101359"><ele>74.33333333333334</ele><time>2026-04-12T19:16:13.354Z</time></trkpt><trkpt lat="51.7676658" lon="-1.2098731"><ele>74.0</ele><time>2026-04-12T19:16:14.354Z</time></trkpt><trkpt lat="51.7675629" lon="-1.2096114"><ele>76.66666666666667</ele><time>2026-04-12T19:16:15.354Z</time></trkpt><trkpt lat="51.767466" lon="-1.2093532"><ele>79.33333333333333</ele><time>2026-04-12T19:16:16.353Z</time></trkpt><trkpt lat="51.7673699" lon="-1.209091"><ele>82.0</ele><time>2026-04-12T19:16:17.354Z</time></trkpt><trkpt lat="51.7672748" lon="-1.2088218"><ele>82.33333333333333</ele><time>2026-04-12T19:16:18.353Z</time></trkpt><trkpt lat="51.7671812" lon="-1.2085532"><ele>82.66666666666667</ele><time>2026-04-12T19:16:19.353Z</time></trkpt><trkpt lat="51.7670854" lon="-1.2082862"><ele>83.0</ele><time>2026-04-12T19:16:20.354Z</time></trkpt><trkpt lat="51.7669905" lon="-1.2080221"><ele>83.33333333333334</ele><time>2026-04-12T19:16:21.354Z</time></trkpt><trkpt lat="51.7668934" lon="-1.2077465"><ele>83.66666666666667</ele><time>2026-04-12T19:16:22.354Z</time></trkpt><trkpt lat="51.7668037" lon="-1.207471"><ele>84.0</ele><time>2026-04-12T19:16:23.354Z</time></trkpt><trkpt lat="51.7667262" lon="-1.2071927"><ele>85.66666666666667</ele><time>2026-04-12T19:16:24.353Z</time></trkpt><trkpt lat="51.7666462" lon="-1.2069136"><ele>87.33333333333334</ele><time>2026-04-12T19:16:25.354Z</time></trkpt><trkpt lat="51.7665684" lon="-1.2066336"><ele>89.0</ele><time>2026-04-12T19:16:26.353Z</time></trkpt><trkpt lat="51.7664974" lon="-1.2063492"><ele>89.0</ele><time>2026-04-12T19:16:27.353Z</time></trkpt><trkpt lat="51.7664282" lon="-1.2060555"><ele>89.0</ele><time>2026-04-12T19:16:28.354Z</time></trkpt><trkpt lat="51.7663605" lon="-1.2057656"><ele>89.0</ele><time>2026-04-12T19:16:29.354Z</time></trkpt><trkpt lat="51.7662991" lon="-1.2054697"><ele>89.0</ele><time>2026-04-12T19:16:30.354Z</time></trkpt><trkpt lat="51.7662495" lon="-1.2051787"><ele>89.0</ele><time>2026-04-12T19:16:31.354Z</time></trkpt><trkpt lat="51.7661979" lon="-1.2048812"><ele>89.0</ele><time>2026-04-12T19:16:32.353Z</time></trkpt><trkpt lat="51.7661514" lon="-1.2045811"><ele>89.0</ele><time>2026-04-12T19:16:33.354Z</time></trkpt><trkpt lat="51.7661131" lon="-1.2042786"><ele>89.0</ele><time>2026-04-12T19:16:34.354Z</time></trkpt><trkpt lat="51.7660759" lon="-1.2039732"><ele>89.0</ele><time>2026-04-12T19:16:35.353Z</time></trkpt><trkpt lat="51.7660403" lon="-1.2036711"><ele>92.0</ele><time>2026-04-12T19:16:36.353Z</time></trkpt><trkpt lat="51.7659982" lon="-1.2033637"><ele>95.0</ele><time>2026-04-12T19:16:37.353Z</time></trkpt><trkpt lat="51.7659585" lon="-1.2030628"><ele>98.0</ele><time>2026-04-12T19:16:38.354Z</time></trkpt><trkpt lat="51.7659215" lon="-1.2027529"><ele>98.0</ele><time>2026-04-12T19:16:39.353Z</time></trkpt><trkpt lat="51.7658843" lon="-1.202459"><ele>98.0</ele><time>2026-04-12T19:16:40.354Z</time></trkpt><trkpt lat="51.7658381" lon="-1.2021548"><ele>98.0</ele><time>2026-04-12T19:16:41.354Z</time></trkpt><trkpt lat="51.7657913" lon="-1.2018567"><ele>98.0</ele><time>2026-04-12T19:16:42.354Z</time></trkpt><trkpt lat="51.765739" lon="-1.2015598"><ele>98.0</ele><time>2026-04-12T19:16:43.353Z</time></trkpt><trkpt lat="51.7656729" lon="-1.2012678"><ele>98.0</ele><time>2026-04-12T19:16:44.354Z</time></trkpt><trkpt lat="51.7656092" lon="-1.2009845"><ele>97.33333333333333</ele><time>2026-04-12T19:16:45.354Z</time></trkpt><trkpt lat="51.7655317" lon="-1.2007024"><ele>96.66666666666666</ele><time>2026-04-12T19:16:46.354Z</time></trkpt><trkpt lat="51.7654519" lon="-1.2004241"><ele>96.0</ele><time>2026-04-12T19:16:47.354Z</time></trkpt><trkpt lat="51.765373" lon="-1.2001521"><ele>96.0</ele><time>2026-04-12T19:16:48.354Z</time></trkpt><trkpt lat="51.765284" lon="-1.1998865"><ele>96.0</ele><time>2026-04-12T19:16:49.353Z</time></trkpt><trkpt lat="51.7651869" lon="-1.1996163"><ele>96.0</ele><time>2026-04-12T19:16:50.353Z</time></trkpt><trkpt lat="51.7650736" lon="-1.1993619"><ele>97.66666666666666</ele><time>2026-04-12T19:16:51.355Z</time></trkpt><trkpt lat="51.7649588" lon="-1.1991185"><ele>99.33333333333333</ele><time>2026-04-12T19:16:52.354Z</time></trkpt><trkpt lat="51.7648511" lon="-1.1988878"><ele>101.0</ele><time>2026-04-12T19:16:53.354Z</time></trkpt><trkpt lat="51.7647477" lon="-1.198679"><ele>101.0</ele><time>2026-04-12T19:16:54.355Z</time></trkpt><trkpt lat="51.7646428" lon="-1.1984853"><ele>101.0</ele><time>2026-04-12T19:16:55.355Z</time></trkpt><trkpt lat="51.7645445" lon="-1.1983044"><ele>101.0</ele><time>2026-04-12T19:16:56.354Z</time></trkpt><trkpt lat="51.7644424" lon="-1.1981304"><ele>101.75</ele><time>2026-04-12T19:16:57.355Z</time></trkpt><trkpt lat="51.7643301" lon="-1.1979742"><ele>102.5</ele><time>2026-04-12T19:16:58.354Z</time></trkpt><trkpt lat="51.7642175" lon="-1.1978255"><ele>103.25</ele><time>2026-04-12T19:16:59.355Z</time></trkpt><trkpt lat="51.7641137" lon="-1.1976804"><ele>104.0</ele><time>2026-04-12T19:17:00.355Z</time></trkpt><trkpt lat="51.7640104" lon="-1.1975452"><ele>104.0</ele><time>2026-04-12T19:17:01.355Z</time></trkpt><trkpt lat="51.7639038" lon="-1.1974356"><ele>104.0</ele><time>2026-04-12T19:17:02.354Z</time></trkpt><trkpt lat="51.7638149" lon="-1.1973451"><ele>104.0</ele><time>2026-04-12T19:17:03.354Z</time></trkpt><trkpt lat="51.7637132" lon="-1.1972788"><ele>104.0</ele><time>2026-04-12T19:17:04.355Z</time></trkpt><trkpt lat="51.763627" lon="-1.1972226"><ele>104.0</ele><time>2026-04-12T19:17:05.355Z</time></trkpt><trkpt lat="51.7635488" lon="-1.1971689"><ele>104.33333333333333</ele><time>2026-04-12T19:17:06.355Z</time></trkpt><trkpt lat="51.763484" lon="-1.1971171"><ele>104.66666666666666</ele><time>2026-04-12T19:17:07.354Z</time></trkpt><trkpt lat="51.7634031" lon="-1.1970071"><ele>105.0</ele><time>2026-04-12T19:17:09.355Z</time></trkpt><trkpt lat="51.7633259" lon="-1.1968726"><ele>105.33333333333334</ele><time>2026-04-12T19:17:50.355Z</time></trkpt><trkpt lat="51.7632917" lon="-1.1967777"><ele>105.66666666666667</ele><time>2026-04-12T19:17:51.354Z</time></trkpt><trkpt lat="51.7632533" lon="-1.1966657"><ele>106.0</ele><time>2026-04-12T19:17:52.354Z</time></trkpt><trkpt lat="51.7632002" lon="-1.1965204"><ele>106.0</ele><time>2026-04-12T19:17:53.354Z</time></trkpt><trkpt lat="51.7631363" lon="-1.1963537"><ele>106.0</ele><time>2026-04-12T19:17:54.355Z</time></trkpt><trkpt lat="51.7630735" lon="-1.1961889"><ele>106.0</ele><time>2026-04-12T19:17:55.355Z</time></trkpt><trkpt lat="51.7630119" lon="-1.1960153"><ele>106.0</ele><time>2026-04-12T19:17:56.355Z</time></trkpt><trkpt lat="51.7629803" lon="-1.195828"><ele>105.75</ele><time>2026-04-12T19:17:57.355Z</time></trkpt><trkpt lat="51.762957" lon="-1.1956263"><ele>105.5</ele><time>2026-04-12T19:17:58.355Z</time></trkpt><trkpt lat="51.7629426" lon="-1.1954225"><ele>105.25</ele><time>2026-04-12T19:17:59.355Z</time></trkpt><trkpt lat="51.7629288" lon="-1.1952134"><ele>105.0</ele><time>2026-04-12T19:18:00.354Z</time></trkpt><trkpt lat="51.7629152" lon="-1.1950047"><ele>105.0</ele><time>2026-04-12T19:18:01.354Z</time></trkpt><trkpt lat="51.7629004" lon="-1.194793"><ele>105.0</ele><time>2026-04-12T19:18:02.355Z</time></trkpt><trkpt lat="51.7628858" lon="-1.1945893"><ele>105.0</ele><time>2026-04-12T19:18:03.354Z</time></trkpt><trkpt lat="51.7628701" lon="-1.194392"><ele>105.0</ele><time>2026-04-12T19:18:04.354Z</time></trkpt><trkpt lat="51.7628518" lon="-1.1941939"><ele>104.75</ele><time>2026-04-12T19:18:05.354Z</time></trkpt><trkpt lat="51.7628343" lon="-1.1940013"><ele>104.5</ele><time>2026-04-12T19:18:06.355Z</time></trkpt><trkpt lat="51.7628156" lon="-1.1938071"><ele>104.25</ele><time>2026-04-12T19:18:07.355Z</time></trkpt><trkpt lat="51.7627931" lon="-1.1936096"><ele>104.0</ele><time>2026-04-12T19:18:08.356Z</time></trkpt><trkpt lat="51.7627698" lon="-1.1934118"><ele>104.0</ele><time>2026-04-12T19:18:09.355Z</time></trkpt><trkpt lat="51.7627433" lon="-1.1932182"><ele>104.0</ele><time>2026-04-12T19:18:10.356Z</time></trkpt><trkpt lat="51.7627153" lon="-1.1930271"><ele>104.0</ele><time>2026-04-12T19:18:11.356Z</time></trkpt><trkpt lat="51.7626892" lon="-1.1928376"><ele>104.0</ele><time>2026-04-12T19:18:12.356Z</time></trkpt><trkpt lat="51.7626629" lon="-1.1926474"><ele>103.25</ele><time>2026-04-12T19:18:13.356Z</time></trkpt><trkpt lat="51.7626355" lon="-1.192456"><ele>102.5</ele><time>2026-04-12T19:18:14.355Z</time></trkpt><trkpt lat="51.7626085" lon="-1.1922589"><ele>101.75</ele><time>2026-04-12T19:18:15.355Z</time></trkpt><trkpt lat="51.7625813" lon="-1.1920545"><ele>101.0</ele><time>2026-04-12T19:18:16.356Z</time></trkpt><trkpt lat="51.7625556" lon="-1.1918521"><ele>101.0</ele><time>2026-04-12T19:18:17.355Z</time></trkpt><trkpt lat="51.762531" lon="-1.1916477"><ele>101.0</ele><time>2026-04-12T19:18:18.356Z</time></trkpt><trkpt lat="51.762506" lon="-1.1914396"><ele>101.0</ele><time>2026-04-12T19:18:19.356Z</time></trkpt><trkpt lat="51.7624822" lon="-1.1912223"><ele>101.0</ele><time>2026-04-12T19:18:20.355Z</time></trkpt><trkpt lat="51.7624607" lon="-1.1909952"><ele>101.0</ele><time>2026-04-12T19:18:21.355Z</time></trkpt><trkpt lat="51.7624404" lon="-1.1907675"><ele>101.0</ele><time>2026-04-12T19:18:22.355Z</time></trkpt><trkpt lat="51.76242" lon="-1.1905283"><ele>101.0</ele><time>2026-04-12T19:18:23.355Z</time></trkpt><trkpt lat="51.7623966" lon="-1.1902612"><ele>101.33333333333333</ele><time>2026-04-12T19:18:24.356Z</time></trkpt><trkpt lat="51.7623741" lon="-1.189972"><ele>101.66666666666666</ele><time>2026-04-12T19:18:25.356Z</time></trkpt><trkpt lat="51.7623554" lon="-1.1896632"><ele>102.0</ele><time>2026-04-12T19:18:26.356Z</time></trkpt><trkpt lat="51.7623402" lon="-1.1893534"><ele>102.33333333333334</ele><time>2026-04-12T19:18:27.355Z</time></trkpt><trkpt lat="51.7623267" lon="-1.1890496"><ele>102.66666666666667</ele><time>2026-04-12T19:18:28.356Z</time></trkpt><trkpt lat="51.7623158" lon="-1.188748"><ele>103.0</ele><time>2026-04-12T19:18:29.356Z</time></trkpt><trkpt lat="51.7623047" lon="-1.1884575"><ele>103.66666666666667</ele><time>2026-04-12T19:18:30.355Z</time></trkpt><trkpt lat="51.762297" lon="-1.1881572"><ele>104.33333333333334</ele><time>2026-04-12T19:18:31.356Z</time></trkpt><trkpt lat="51.7622912" lon="-1.1878583"><ele>105.0</ele><time>2026-04-12T19:18:32.356Z</time></trkpt><trkpt lat="51.7622905" lon="-1.1875525"><ele>105.0</ele><time>2026-04-12T19:18:33.356Z</time></trkpt><trkpt lat="51.7622948" lon="-1.1872458"><ele>105.0</ele><time>2026-04-12T19:18:34.355Z</time></trkpt><trkpt lat="51.7623046" lon="-1.1869326"><ele>105.0</ele><time>2026-04-12T19:18:35.355Z</time></trkpt><trkpt lat="51.762316" lon="-1.186616"><ele>105.0</ele><time>2026-04-12T19:18:36.356Z</time></trkpt><trkpt lat="51.7623339" lon="-1.1863035"><ele>105.0</ele><time>2026-04-12T19:18:37.355Z</time></trkpt><trkpt lat="51.7623497" lon="-1.1859772"><ele>105.0</ele><time>2026-04-12T19:18:38.355Z</time></trkpt><trkpt lat="51.7623669" lon="-1.1856556"><ele>105.33333333333334</ele><time>2026-04-12T19:18:39.356Z</time></trkpt><trkpt lat="51.7623939" lon="-1.1853382"><ele>105.66666666666667</ele><time>2026-04-12T19:18:40.356Z</time></trkpt><trkpt lat="51.7624278" lon="-1.1850183"><ele>106.0</ele><time>2026-04-12T19:18:41.356Z</time></trkpt><trkpt lat="51.7624587" lon="-1.1847063"><ele>106.0</ele><time>2026-04-12T19:18:42.356Z</time></trkpt><trkpt lat="51.7624947" lon="-1.1843852"><ele>106.0</ele><time>2026-04-12T19:18:43.355Z</time></trkpt><trkpt lat="51.7625315" lon="-1.1840743"><ele>106.0</ele><time>2026-04-12T19:18:44.356Z</time></trkpt><trkpt lat="51.7625744" lon="-1.1837637"><ele>105.66666666666667</ele><time>2026-04-12T19:18:45.356Z</time></trkpt><trkpt lat="51.762619" lon="-1.1834512"><ele>105.33333333333334</ele><time>2026-04-12T19:18:46.355Z</time></trkpt><trkpt lat="51.7626678" lon="-1.1831442"><ele>105.0</ele><time>2026-04-12T19:18:47.356Z</time></trkpt><trkpt lat="51.7627126" lon="-1.1828247"><ele>103.33333333333334</ele><time>2026-04-12T19:18:48.356Z</time></trkpt><trkpt lat="51.7627542" lon="-1.1825181"><ele>101.66666666666667</ele><time>2026-04-12T19:18:49.356Z</time></trkpt><trkpt lat="51.7628073" lon="-1.1822093"><ele>100.0</ele><time>2026-04-12T19:18:50.356Z</time></trkpt><trkpt lat="51.7628537" lon="-1.1819043"><ele>100.0</ele><time>2026-04-12T19:18:51.356Z</time></trkpt><trkpt lat="51.7629014" lon="-1.1815877"><ele>100.0</ele><time>2026-04-12T19:18:52.356Z</time></trkpt><trkpt lat="51.7629464" lon="-1.1812708"><ele>100.0</ele><time>2026-04-12T19:18:53.355Z</time></trkpt><trkpt lat="51.7629918" lon="-1.1809666"><ele>100.33333333333334</ele><time>2026-04-12T19:18:54.356Z</time></trkpt><trkpt lat="51.7630412" lon="-1.1806581"><ele>100.66666666666666</ele><time>2026-04-12T19:18:55.355Z</time></trkpt><trkpt lat="51.7630876" lon="-1.180347"><ele>101.0</ele><time>2026-04-12T19:18:56.356Z</time></trkpt><trkpt lat="51.7631271" lon="-1.1800326"><ele>100.33333333333333</ele><time>2026-04-12T19:18:57.355Z</time></trkpt><trkpt lat="51.7631626" lon="-1.1797103"><ele>99.66666666666666</ele><time>2026-04-12T19:18:58.356Z</time></trkpt><trkpt lat="51.7632048" lon="-1.1793954"><ele>99.0</ele><time>2026-04-12T19:18:59.356Z</time></trkpt><trkpt lat="51.7632416" lon="-1.1790781"><ele>99.0</ele><time>2026-04-12T19:19:00.355Z</time></trkpt><trkpt lat="51.7632788" lon="-1.178768"><ele>99.0</ele><time>2026-04-12T19:19:01.356Z</time></trkpt><trkpt lat="51.7633134" lon="-1.1784607"><ele>99.0</ele><time>2026-04-12T19:19:02.355Z</time></trkpt><trkpt lat="51.763347" lon="-1.1781421"><ele>99.0</ele><time>2026-04-12T19:19:03.356Z</time></trkpt><trkpt lat="51.7633783" lon="-1.1778259"><ele>99.0</ele><time>2026-04-12T19:19:04.356Z</time></trkpt><trkpt lat="51.7634069" lon="-1.1775084"><ele>99.0</ele><time>2026-04-12T19:19:05.356Z</time></trkpt><trkpt lat="51.7634319" lon="-1.1771792"><ele>99.0</ele><time>2026-04-12T19:19:06.356Z</time></trkpt><trkpt lat="51.7634562" lon="-1.1768363"><ele>99.0</ele><time>2026-04-12T19:19:07.356Z</time></trkpt><trkpt lat="51.7634813" lon="-1.1764777"><ele>99.0</ele><time>2026-04-12T19:19:08.355Z</time></trkpt><trkpt lat="51.7635059" lon="-1.1761004"><ele>99.0</ele><time>2026-04-12T19:19:09.355Z</time></trkpt><trkpt lat="51.7635298" lon="-1.1757086"><ele>99.0</ele><time>2026-04-12T19:19:10.356Z</time></trkpt><trkpt lat="51.7635493" lon="-1.1753052"><ele>96.0</ele><time>2026-04-12T19:19:11.356Z</time></trkpt><trkpt lat="51.7635599" lon="-1.1748864"><ele>93.0</ele><time>2026-04-12T19:19:12.356Z</time></trkpt><trkpt lat="51.7635648" lon="-1.1744575"><ele>92.0</ele><time>2026-04-12T19:19:13.356Z</time></trkpt><trkpt lat="51.7635669" lon="-1.174034"><ele>91.0</ele><time>2026-04-12T19:19:14.355Z</time></trkpt><trkpt lat="51.7635665" lon="-1.173604"><ele>90.5</ele><time>2026-04-12T19:19:15.356Z</time></trkpt><trkpt lat="51.7635619" lon="-1.173171"><ele>90.0</ele><time>2026-04-12T19:19:16.356Z</time></trkpt><trkpt lat="51.7635526" lon="-1.1727412"><ele>90.0</ele><time>2026-04-12T19:19:17.356Z</time></trkpt><trkpt lat="51.7635401" lon="-1.172324"><ele>90.0</ele><time>2026-04-12T19:19:18.355Z</time></trkpt><trkpt lat="51.763524" lon="-1.1718921"><ele>90.5</ele><time>2026-04-12T19:19:19.356Z</time></trkpt><trkpt lat="51.7635051" lon="-1.1714709"><ele>91.0</ele><time>2026-04-12T19:19:20.355Z</time></trkpt><trkpt lat="51.7634838" lon="-1.1710484"><ele>90.5</ele><time>2026-04-12T19:19:21.356Z</time></trkpt><trkpt lat="51.7634625" lon="-1.1706287"><ele>90.0</ele><time>2026-04-12T19:19:22.356Z</time></trkpt><trkpt lat="51.7634477" lon="-1.170202"><ele>89.5</ele><time>2026-04-12T19:19:23.356Z</time></trkpt><trkpt lat="51.763428" lon="-1.1697774"><ele>89.0</ele><time>2026-04-12T19:19:24.356Z</time></trkpt><trkpt lat="51.7634043" lon="-1.1693578"><ele>89.0</ele><time>2026-04-12T19:19:25.356Z</time></trkpt><trkpt lat="51.7633802" lon="-1.1689321"><ele>89.0</ele><time>2026-04-12T19:19:26.357Z</time></trkpt><trkpt lat="51.76335" lon="-1.1685137"><ele>90.0</ele><time>2026-04-12T19:19:27.357Z</time></trkpt><trkpt lat="51.7633093" lon="-1.1680911"><ele>91.0</ele><time>2026-04-12T19:19:28.357Z</time></trkpt><trkpt lat="51.763254" lon="-1.1676829"><ele>91.5</ele><time>2026-04-12T19:19:29.357Z</time></trkpt><trkpt lat="51.7631922" lon="-1.1672779"><ele>92.0</ele><time>2026-04-12T19:19:30.356Z</time></trkpt><trkpt lat="51.7631173" lon="-1.166864"><ele>91.0</ele><time>2026-04-12T19:19:31.357Z</time></trkpt><trkpt lat="51.7630381" lon="-1.1664583"><ele>90.0</ele><time>2026-04-12T19:19:32.356Z</time></trkpt><trkpt lat="51.7629418" lon="-1.1660613"><ele>90.0</ele><time>2026-04-12T19:19:33.356Z</time></trkpt><trkpt lat="51.7628387" lon="-1.1656728"><ele>90.0</ele><time>2026-04-12T19:19:34.357Z</time></trkpt><trkpt lat="51.7627269" lon="-1.1652909"><ele>91.5</ele><time>2026-04-12T19:19:35.356Z</time></trkpt><trkpt lat="51.7626097" lon="-1.1649136"><ele>93.0</ele><time>2026-04-12T19:19:36.356Z</time></trkpt><trkpt lat="51.7624774" lon="-1.1645386"><ele>93.0</ele><time>2026-04-12T19:19:37.357Z</time></trkpt><trkpt lat="51.7623395" lon="-1.164174"><ele>93.0</ele><time>2026-04-12T19:19:38.357Z</time></trkpt><trkpt lat="51.7622019" lon="-1.1638091"><ele>92.5</ele><time>2026-04-12T19:19:39.357Z</time></trkpt><trkpt lat="51.7620628" lon="-1.1634414"><ele>92.0</ele><time>2026-04-12T19:19:40.356Z</time></trkpt><trkpt lat="51.7619316" lon="-1.1630702"><ele>91.5</ele><time>2026-04-12T19:19:41.357Z</time></trkpt><trkpt lat="51.7618095" lon="-1.162697"><ele>91.0</ele><time>2026-04-12T19:19:42.356Z</time></trkpt><trkpt lat="51.7616944" lon="-1.162317"><ele>91.0</ele><time>2026-04-12T19:19:43.357Z</time></trkpt><trkpt lat="51.7615813" lon="-1.1619351"><ele>91.0</ele><time>2026-04-12T19:19:44.357Z</time></trkpt><trkpt lat="51.7614688" lon="-1.1615573"><ele>91.5</ele><time>2026-04-12T19:19:45.357Z</time></trkpt><trkpt lat="51.7613527" lon="-1.1611766"><ele>92.0</ele><time>2026-04-12T19:19:46.357Z</time></trkpt><trkpt lat="51.7612363" lon="-1.1607964"><ele>92.5</ele><time>2026-04-12T19:19:47.357Z</time></trkpt><trkpt lat="51.7611162" lon="-1.1604149"><ele>93.0</ele><time>2026-04-12T19:19:48.357Z</time></trkpt><trkpt lat="51.7610007" lon="-1.1600245"><ele>93.5</ele><time>2026-04-12T19:19:49.357Z</time></trkpt><trkpt lat="51.7608885" lon="-1.1596435"><ele>94.0</ele><time>2026-04-12T19:19:50.356Z</time></trkpt><trkpt lat="51.7607717" lon="-1.1592569"><ele>94.5</ele><time>2026-04-12T19:19:51.356Z</time></trkpt><trkpt lat="51.7606531" lon="-1.1588756"><ele>95.0</ele><time>2026-04-12T19:19:52.357Z</time></trkpt><trkpt lat="51.7605365" lon="-1.1584978"><ele>95.0</ele><time>2026-04-12T19:19:53.357Z</time></trkpt><trkpt lat="51.7604233" lon="-1.1581139"><ele>95.0</ele><time>2026-04-12T19:19:54.357Z</time></trkpt><trkpt lat="51.7603081" lon="-1.1577351"><ele>96.5</ele><time>2026-04-12T19:19:55.357Z</time></trkpt><trkpt lat="51.7601909" lon="-1.157351"><ele>98.0</ele><time>2026-04-12T19:19:56.356Z</time></trkpt><trkpt lat="51.7600769" lon="-1.1569678"><ele>98.0</ele><time>2026-04-12T19:19:57.356Z</time></trkpt><trkpt lat="51.7599548" lon="-1.156583"><ele>98.0</ele><time>2026-04-12T19:19:58.356Z</time></trkpt><trkpt lat="51.7598391" lon="-1.1561977"><ele>98.0</ele><time>2026-04-12T19:19:59.356Z</time></trkpt><trkpt lat="51.7597264" lon="-1.1558025"><ele>98.0</ele><time>2026-04-12T19:20:00.356Z</time></trkpt><trkpt lat="51.7596086" lon="-1.1554078"><ele>98.0</ele><time>2026-04-12T19:20:01.357Z</time></trkpt><trkpt lat="51.7594924" lon="-1.1550167"><ele>98.0</ele><time>2026-04-12T19:20:02.357Z</time></trkpt><trkpt lat="51.7593718" lon="-1.1546267"><ele>99.0</ele><time>2026-04-12T19:20:03.356Z</time></trkpt><trkpt lat="51.7592544" lon="-1.1542393"><ele>100.0</ele><time>2026-04-12T19:20:04.357Z</time></trkpt><trkpt lat="51.759135" lon="-1.1538421"><ele>100.0</ele><time>2026-04-12T19:20:05.357Z</time></trkpt><trkpt lat="51.7590158" lon="-1.153452"><ele>100.0</ele><time>2026-04-12T19:20:06.357Z</time></trkpt><trkpt lat="51.7588916" lon="-1.1530627"><ele>99.5</ele><time>2026-04-12T19:20:07.356Z</time></trkpt><trkpt lat="51.758776" lon="-1.1526777"><ele>99.0</ele><time>2026-04-12T19:20:08.357Z</time></trkpt><trkpt lat="51.7586567" lon="-1.1522825"><ele>98.5</ele><time>2026-04-12T19:20:09.356Z</time></trkpt><trkpt lat="51.7585412" lon="-1.1518941"><ele>98.0</ele><time>2026-04-12T19:20:10.357Z</time></trkpt><trkpt lat="51.7584297" lon="-1.1515028"><ele>98.0</ele><time>2026-04-12T19:20:11.357Z</time></trkpt><trkpt lat="51.7583088" lon="-1.1511173"><ele>98.0</ele><time>2026-04-12T19:20:12.356Z</time></trkpt><trkpt lat="51.7581881" lon="-1.1507268"><ele>98.0</ele><time>2026-04-12T19:20:13.357Z</time></trkpt><trkpt lat="51.7580685" lon="-1.1503305"><ele>98.0</ele><time>2026-04-12T19:20:14.357Z</time></trkpt><trkpt lat="51.7579497" lon="-1.1499395"><ele>97.5</ele><time>2026-04-12T19:20:15.356Z</time></trkpt><trkpt lat="51.7578279" lon="-1.1495522"><ele>97.0</ele><time>2026-04-12T19:20:16.356Z</time></trkpt><trkpt lat="51.7577022" lon="-1.1491676"><ele>94.0</ele><time>2026-04-12T19:20:17.357Z</time></trkpt><trkpt lat="51.7575651" lon="-1.1487887"><ele>91.0</ele><time>2026-04-12T19:20:18.356Z</time></trkpt><trkpt lat="51.757429" lon="-1.148408"><ele>90.5</ele><time>2026-04-12T19:20:19.357Z</time></trkpt><trkpt lat="51.7572944" lon="-1.1480416"><ele>90.0</ele><time>2026-04-12T19:20:20.356Z</time></trkpt><trkpt lat="51.757156" lon="-1.1476709"><ele>89.5</ele><time>2026-04-12T19:20:21.356Z</time></trkpt><trkpt lat="51.7570183" lon="-1.1472942"><ele>89.0</ele><time>2026-04-12T19:20:22.357Z</time></trkpt><trkpt lat="51.7568715" lon="-1.1469384"><ele>91.0</ele><time>2026-04-12T19:20:23.357Z</time></trkpt><trkpt lat="51.7567176" lon="-1.1465824"><ele>93.0</ele><time>2026-04-12T19:20:24.357Z</time></trkpt><trkpt lat="51.7565608" lon="-1.1462332"><ele>94.5</ele><time>2026-04-12T19:20:25.357Z</time></trkpt><trkpt lat="51.7564087" lon="-1.1458902"><ele>96.0</ele><time>2026-04-12T19:20:26.357Z</time></trkpt><trkpt lat="51.7562411" lon="-1.1455555"><ele>96.0</ele><time>2026-04-12T19:20:27.356Z</time></trkpt><trkpt lat="51.7560731" lon="-1.1452278"><ele>96.0</ele><time>2026-04-12T19:20:28.357Z</time></trkpt><trkpt lat="51.7558964" lon="-1.1448974"><ele>97.0</ele><time>2026-04-12T19:20:29.357Z</time></trkpt><trkpt lat="51.7557168" lon="-1.1445848"><ele>98.0</ele><time>2026-04-12T19:20:30.356Z</time></trkpt><trkpt lat="51.7555338" lon="-1.1442717"><ele>98.5</ele><time>2026-04-12T19:20:31.357Z</time></trkpt><trkpt lat="51.755333" lon="-1.1439781"><ele>99.0</ele><time>2026-04-12T19:20:32.356Z</time></trkpt><trkpt lat="51.7551332" lon="-1.1436785"><ele>98.5</ele><time>2026-04-12T19:20:33.356Z</time></trkpt><trkpt lat="51.754943" lon="-1.1434055"><ele>98.0</ele><time>2026-04-12T19:20:34.357Z</time></trkpt><trkpt lat="51.754755" lon="-1.1431492"><ele>98.0</ele><time>2026-04-12T19:20:35.357Z</time></trkpt><trkpt lat="51.7545719" lon="-1.1429094"><ele>98.0</ele><time>2026-04-12T19:20:36.356Z</time></trkpt><trkpt lat="51.7543867" lon="-1.142677"><ele>97.0</ele><time>2026-04-12T19:20:37.357Z</time></trkpt><trkpt lat="51.7541996" lon="-1.1424627"><ele>96.0</ele><time>2026-04-12T19:20:38.358Z</time></trkpt><trkpt lat="51.7540017" lon="-1.1422486"><ele>96.0</ele><time>2026-04-12T19:20:39.357Z</time></trkpt><trkpt lat="51.7537984" lon="-1.1420377"><ele>96.0</ele><time>2026-04-12T19:20:40.358Z</time></trkpt><trkpt lat="51.7535989" lon="-1.1418356"><ele>96.0</ele><time>2026-04-12T19:20:41.358Z</time></trkpt><trkpt lat="51.7533991" lon="-1.1416293"><ele>96.0</ele><time>2026-04-12T19:20:42.358Z</time></trkpt><trkpt lat="51.7531943" lon="-1.1414284"><ele>96.0</ele><time>2026-04-12T19:20:43.358Z</time></trkpt><trkpt lat="51.7529896" lon="-1.141221"><ele>96.0</ele><time>2026-04-12T19:20:44.357Z</time></trkpt><trkpt lat="51.7527854" lon="-1.1410075"><ele>95.0</ele><time>2026-04-12T19:20:45.358Z</time></trkpt><trkpt lat="51.7525791" lon="-1.1407795"><ele>94.0</ele><time>2026-04-12T19:20:46.358Z</time></trkpt><trkpt lat="51.7523679" lon="-1.1405576"><ele>94.0</ele><time>2026-04-12T19:20:47.358Z</time></trkpt><trkpt lat="51.7521634" lon="-1.1403108"><ele>94.0</ele><time>2026-04-12T19:20:48.358Z</time></trkpt><trkpt lat="51.7519564" lon="-1.1400685"><ele>94.5</ele><time>2026-04-12T19:20:49.358Z</time></trkpt><trkpt lat="51.7517616" lon="-1.1398207"><ele>95.0</ele><time>2026-04-12T19:20:50.357Z</time></trkpt><trkpt lat="51.7515695" lon="-1.139559"><ele>95.0</ele><time>2026-04-12T19:20:51.358Z</time></trkpt><trkpt lat="51.7513767" lon="-1.1392872"><ele>95.0</ele><time>2026-04-12T19:20:52.357Z</time></trkpt><trkpt lat="51.75119" lon="-1.1390025"><ele>95.0</ele><time>2026-04-12T19:20:53.357Z</time></trkpt><trkpt lat="51.7510012" lon="-1.1387099"><ele>95.0</ele><time>2026-04-12T19:20:54.358Z</time></trkpt><trkpt lat="51.7508144" lon="-1.1384034"><ele>95.5</ele><time>2026-04-12T19:20:55.358Z</time></trkpt><trkpt lat="51.7506329" lon="-1.1380825"><ele>96.0</ele><time>2026-04-12T19:20:56.358Z</time></trkpt><trkpt lat="51.7504474" lon="-1.137748"><ele>96.0</ele><time>2026-04-12T19:20:57.357Z</time></trkpt><trkpt lat="51.7502785" lon="-1.1374028"><ele>96.0</ele><time>2026-04-12T19:20:58.357Z</time></trkpt><trkpt lat="51.7501075" lon="-1.1370541"><ele>94.5</ele><time>2026-04-12T19:20:59.358Z</time></trkpt><trkpt lat="51.7499423" lon="-1.1367013"><ele>93.0</ele><time>2026-04-12T19:21:00.358Z</time></trkpt><trkpt lat="51.7497849" lon="-1.1363473"><ele>92.5</ele><time>2026-04-12T19:21:01.358Z</time></trkpt><trkpt lat="51.7496353" lon="-1.1359792"><ele>92.0</ele><time>2026-04-12T19:21:02.357Z</time></trkpt><trkpt lat="51.7494907" lon="-1.1356077"><ele>90.0</ele><time>2026-04-12T19:21:03.358Z</time></trkpt><trkpt lat="51.7493581" lon="-1.135226"><ele>88.0</ele><time>2026-04-12T19:21:04.358Z</time></trkpt><trkpt lat="51.749229" lon="-1.1348391"><ele>87.5</ele><time>2026-04-12T19:21:05.358Z</time></trkpt><trkpt lat="51.7491042" lon="-1.1344523"><ele>87.0</ele><time>2026-04-12T19:21:06.358Z</time></trkpt><trkpt lat="51.748979" lon="-1.1340574"><ele>86.0</ele><time>2026-04-12T19:21:07.357Z</time></trkpt><trkpt lat="51.7488616" lon="-1.133657"><ele>85.0</ele><time>2026-04-12T19:21:08.358Z</time></trkpt><trkpt lat="51.748753" lon="-1.1332504"><ele>83.5</ele><time>2026-04-12T19:21:09.358Z</time></trkpt><trkpt lat="51.748658" lon="-1.1328371"><ele>82.0</ele><time>2026-04-12T19:21:10.357Z</time></trkpt><trkpt lat="51.7485716" lon="-1.1324287"><ele>80.0</ele><time>2026-04-12T19:21:11.358Z</time></trkpt><trkpt lat="51.7484892" lon="-1.132013"><ele>78.0</ele><time>2026-04-12T19:21:12.358Z</time></trkpt><trkpt lat="51.7484083" lon="-1.1315949"><ele>77.0</ele><time>2026-04-12T19:21:13.357Z</time></trkpt><trkpt lat="51.7483357" lon="-1.1311778"><ele>76.0</ele><time>2026-04-12T19:21:14.357Z</time></trkpt><trkpt lat="51.7482747" lon="-1.1307501"><ele>75.5</ele><time>2026-04-12T19:21:15.357Z</time></trkpt><trkpt lat="51.748213" lon="-1.1303195"><ele>75.0</ele><time>2026-04-12T19:21:16.357Z</time></trkpt><trkpt lat="51.7481609" lon="-1.12988"><ele>76.0</ele><time>2026-04-12T19:21:17.358Z</time></trkpt><trkpt lat="51.7481111" lon="-1.1294493"><ele>77.0</ele><time>2026-04-12T19:21:18.358Z</time></trkpt><trkpt lat="51.7480618" lon="-1.1290202"><ele>77.0</ele><time>2026-04-12T19:21:19.358Z</time></trkpt><trkpt lat="51.7480135" lon="-1.1285879"><ele>77.0</ele><time>2026-04-12T19:21:20.357Z</time></trkpt><trkpt lat="51.7479641" lon="-1.1281608"><ele>76.0</ele><time>2026-04-12T19:21:21.358Z</time></trkpt><trkpt lat="51.74792" lon="-1.1277488"><ele>75.0</ele><time>2026-04-12T19:21:22.358Z</time></trkpt><trkpt lat="51.7478782" lon="-1.1273566"><ele>74.5</ele><time>2026-04-12T19:21:23.358Z</time></trkpt><trkpt lat="51.7478368" lon="-1.1269673"><ele>74.0</ele><time>2026-04-12T19:21:24.358Z</time></trkpt><trkpt lat="51.7477946" lon="-1.1265656"><ele>74.0</ele><time>2026-04-12T19:21:25.358Z</time></trkpt><trkpt lat="51.7477455" lon="-1.1261539"><ele>74.0</ele><time>2026-04-12T19:21:26.358Z</time></trkpt><trkpt lat="51.7476985" lon="-1.1257226"><ele>72.5</ele><time>2026-04-12T19:21:27.358Z</time></trkpt><trkpt lat="51.7476409" lon="-1.1253048"><ele>71.0</ele><time>2026-04-12T19:21:28.357Z</time></trkpt><trkpt lat="51.7475786" lon="-1.1248748"><ele>71.0</ele><time>2026-04-12T19:21:29.357Z</time></trkpt><trkpt lat="51.7475119" lon="-1.1244433"><ele>71.0</ele><time>2026-04-12T19:21:30.357Z</time></trkpt><trkpt lat="51.7474412" lon="-1.1240112"><ele>71.0</ele><time>2026-04-12T19:21:31.358Z</time></trkpt><trkpt lat="51.7473707" lon="-1.123593"><ele>71.0</ele><time>2026-04-12T19:21:32.358Z</time></trkpt><trkpt lat="51.7473001" lon="-1.1231634"><ele>71.0</ele><time>2026-04-12T19:21:33.358Z</time></trkpt><trkpt lat="51.7472193" lon="-1.1227468"><ele>71.0</ele><time>2026-04-12T19:21:34.358Z</time></trkpt><trkpt lat="51.7471379" lon="-1.1223354"><ele>71.0</ele><time>2026-04-12T19:21:35.357Z</time></trkpt><trkpt lat="51.7470513" lon="-1.1219146"><ele>71.0</ele><time>2026-04-12T19:21:36.357Z</time></trkpt><trkpt lat="51.7469608" lon="-1.1214977"><ele>70.0</ele><time>2026-04-12T19:21:37.357Z</time></trkpt><trkpt lat="51.7468642" lon="-1.1210864"><ele>69.0</ele><time>2026-04-12T19:21:38.357Z</time></trkpt><trkpt lat="51.7467613" lon="-1.1206702"><ele>69.0</ele><time>2026-04-12T19:21:39.358Z</time></trkpt><trkpt lat="51.7466566" lon="-1.1202614"><ele>69.0</ele><time>2026-04-12T19:21:40.358Z</time></trkpt><trkpt lat="51.7465483" lon="-1.1198562"><ele>68.0</ele><time>2026-04-12T19:21:41.358Z</time></trkpt><trkpt lat="51.7464355" lon="-1.1194545"><ele>67.0</ele><time>2026-04-12T19:21:42.358Z</time></trkpt><trkpt lat="51.7463206" lon="-1.1190523"><ele>66.5</ele><time>2026-04-12T19:21:43.357Z</time></trkpt><trkpt lat="51.7462006" lon="-1.1186539"><ele>66.0</ele><time>2026-04-12T19:21:44.358Z</time></trkpt><trkpt lat="51.7460833" lon="-1.1182581"><ele>64.5</ele><time>2026-04-12T19:21:45.358Z</time></trkpt><trkpt lat="51.7459604" lon="-1.1178699"><ele>63.0</ele><time>2026-04-12T19:21:46.358Z</time></trkpt><trkpt lat="51.7458314" lon="-1.1174839"><ele>61.5</ele><time>2026-04-12T19:21:47.357Z</time></trkpt><trkpt lat="51.7456964" lon="-1.1170969"><ele>60.0</ele><time>2026-04-12T19:21:48.358Z</time></trkpt><trkpt lat="51.7455637" lon="-1.1167187"><ele>59.5</ele><time>2026-04-12T19:21:49.357Z</time></trkpt><trkpt lat="51.7454266" lon="-1.1163418"><ele>59.0</ele><time>2026-04-12T19:21:50.358Z</time></trkpt><trkpt lat="51.7452762" lon="-1.1159659"><ele>58.5</ele><time>2026-04-12T19:21:51.358Z</time></trkpt><trkpt lat="51.7451307" lon="-1.1155895"><ele>58.0</ele><time>2026-04-12T19:21:52.357Z</time></trkpt><trkpt lat="51.7449789" lon="-1.1152249"><ele>58.0</ele><time>2026-04-12T19:21:53.358Z</time></trkpt><trkpt lat="51.7448236" lon="-1.1148619"><ele>58.0</ele><time>2026-04-12T19:21:54.359Z</time></trkpt><trkpt lat="51.744667" lon="-1.1145058"><ele>58.0</ele><time>2026-04-12T19:21:55.359Z</time></trkpt><trkpt lat="51.7445061" lon="-1.1141518"><ele>58.0</ele><time>2026-04-12T19:21:56.358Z</time></trkpt><trkpt lat="51.7443398" lon="-1.1138064"><ele>58.0</ele><time>2026-04-12T19:21:57.359Z</time></trkpt><trkpt lat="51.7441707" lon="-1.1134629"><ele>58.0</ele><time>2026-04-12T19:21:58.358Z</time></trkpt><trkpt lat="51.7439997" lon="-1.1131235"><ele>57.0</ele><time>2026-04-12T19:21:59.359Z</time></trkpt><trkpt lat="51.7438259" lon="-1.1127762"><ele>56.0</ele><time>2026-04-12T19:22:00.359Z</time></trkpt><trkpt lat="51.7436532" lon="-1.1124371"><ele>57.0</ele><time>2026-04-12T19:22:01.359Z</time></trkpt><trkpt lat="51.7434709" lon="-1.1121108"><ele>58.0</ele><time>2026-04-12T19:22:02.359Z</time></trkpt><trkpt lat="51.7432877" lon="-1.1117876"><ele>57.0</ele><time>2026-04-12T19:22:03.359Z</time></trkpt><trkpt lat="51.7431068" lon="-1.1114636"><ele>56.0</ele><time>2026-04-12T19:22:04.358Z</time></trkpt><trkpt lat="51.7429286" lon="-1.1111306"><ele>56.0</ele><time>2026-04-12T19:22:05.359Z</time></trkpt><trkpt lat="51.7427498" lon="-1.110797"><ele>56.0</ele><time>2026-04-12T19:22:06.359Z</time></trkpt><trkpt lat="51.7425683" lon="-1.1104718"><ele>56.5</ele><time>2026-04-12T19:22:07.358Z</time></trkpt><trkpt lat="51.7423856" lon="-1.1101458"><ele>57.0</ele><time>2026-04-12T19:22:08.359Z</time></trkpt><trkpt lat="51.7421942" lon="-1.1098221"><ele>57.0</ele><time>2026-04-12T19:22:09.359Z</time></trkpt><trkpt lat="51.7420073" lon="-1.1094822"><ele>57.0</ele><time>2026-04-12T19:22:10.358Z</time></trkpt><trkpt lat="51.7418232" lon="-1.1091478"><ele>58.5</ele><time>2026-04-12T19:22:11.358Z</time></trkpt><trkpt lat="51.7416354" lon="-1.1088089"><ele>60.0</ele><time>2026-04-12T19:22:12.359Z</time></trkpt><trkpt lat="51.7414436" lon="-1.1084597"><ele>59.5</ele><time>2026-04-12T19:22:13.359Z</time></trkpt><trkpt lat="51.7412525" lon="-1.1081257"><ele>59.0</ele><time>2026-04-12T19:22:14.359Z</time></trkpt><trkpt lat="51.7410619" lon="-1.1077837"><ele>60.5</ele><time>2026-04-12T19:22:15.359Z</time></trkpt><trkpt lat="51.7408736" lon="-1.1074397"><ele>62.0</ele><time>2026-04-12T19:22:16.359Z</time></trkpt><trkpt lat="51.7406864" lon="-1.1070976"><ele>62.0</ele><time>2026-04-12T19:22:17.358Z</time></trkpt><trkpt lat="51.7404996" lon="-1.106761"><ele>62.0</ele><time>2026-04-12T19:22:18.359Z</time></trkpt><trkpt lat="51.7403108" lon="-1.1064244"><ele>62.0</ele><time>2026-04-12T19:22:19.358Z</time></trkpt><trkpt lat="51.7401228" lon="-1.1060796"><ele>62.0</ele><time>2026-04-12T19:22:20.359Z</time></trkpt><trkpt lat="51.7399347" lon="-1.1057355"><ele>62.0</ele><time>2026-04-12T19:22:21.358Z</time></trkpt><trkpt lat="51.7397481" lon="-1.1053989"><ele>62.0</ele><time>2026-04-12T19:22:22.358Z</time></trkpt><trkpt lat="51.7395607" lon="-1.1050597"><ele>62.5</ele><time>2026-04-12T19:22:23.358Z</time></trkpt><trkpt lat="51.7393711" lon="-1.1047167"><ele>63.0</ele><time>2026-04-12T19:22:24.358Z</time></trkpt><trkpt lat="51.7391851" lon="-1.1043791"><ele>63.0</ele><time>2026-04-12T19:22:25.358Z</time></trkpt><trkpt lat="51.7390029" lon="-1.1040237"><ele>63.0</ele><time>2026-04-12T19:22:26.358Z</time></trkpt><trkpt lat="51.7388238" lon="-1.1036753"><ele>63.0</ele><time>2026-04-12T19:22:27.359Z</time></trkpt><trkpt lat="51.7386437" lon="-1.1033249"><ele>63.0</ele><time>2026-04-12T19:22:28.359Z</time></trkpt><trkpt lat="51.7384686" lon="-1.1029682"><ele>62.5</ele><time>2026-04-12T19:22:29.359Z</time></trkpt><trkpt lat="51.7382945" lon="-1.1026142"><ele>62.0</ele><time>2026-04-12T19:22:30.358Z</time></trkpt><trkpt lat="51.7381238" lon="-1.1022472"><ele>63.0</ele><time>2026-04-12T19:22:31.358Z</time></trkpt><trkpt lat="51.7379584" lon="-1.1018821"><ele>64.0</ele><time>2026-04-12T19:22:32.359Z</time></trkpt><trkpt lat="51.7378016" lon="-1.1014991"><ele>64.0</ele><time>2026-04-12T19:22:33.359Z</time></trkpt><trkpt lat="51.7376469" lon="-1.1011226"><ele>64.0</ele><time>2026-04-12T19:22:34.359Z</time></trkpt><trkpt lat="51.7374958" lon="-1.1007339"><ele>65.0</ele><time>2026-04-12T19:22:35.359Z</time></trkpt><trkpt lat="51.7373499" lon="-1.1003489"><ele>66.0</ele><time>2026-04-12T19:22:36.359Z</time></trkpt><trkpt lat="51.7372077" lon="-1.0999597"><ele>67.0</ele><time>2026-04-12T19:22:37.359Z</time></trkpt><trkpt lat="51.7370671" lon="-1.0995631"><ele>68.0</ele><time>2026-04-12T19:22:38.359Z</time></trkpt><trkpt lat="51.7369314" lon="-1.0991675"><ele>69.0</ele><time>2026-04-12T19:22:39.358Z</time></trkpt><trkpt lat="51.7367998" lon="-1.0987586"><ele>70.0</ele><time>2026-04-12T19:22:40.359Z</time></trkpt><trkpt lat="51.7366761" lon="-1.0983504"><ele>70.5</ele><time>2026-04-12T19:22:41.359Z</time></trkpt><trkpt lat="51.7365421" lon="-1.0979455"><ele>71.0</ele><time>2026-04-12T19:22:42.359Z</time></trkpt><trkpt lat="51.7364145" lon="-1.0975309"><ele>71.5</ele><time>2026-04-12T19:22:43.359Z</time></trkpt><trkpt lat="51.7362931" lon="-1.0971251"><ele>72.0</ele><time>2026-04-12T19:22:44.358Z</time></trkpt><trkpt lat="51.7361709" lon="-1.0967093"><ele>72.5</ele><time>2026-04-12T19:22:45.359Z</time></trkpt><trkpt lat="51.7360525" lon="-1.0962997"><ele>73.0</ele><time>2026-04-12T19:22:46.359Z</time></trkpt><trkpt lat="51.7359357" lon="-1.0958908"><ele>73.5</ele><time>2026-04-12T19:22:47.359Z</time></trkpt><trkpt lat="51.7358202" lon="-1.0954743"><ele>74.0</ele><time>2026-04-12T19:22:48.359Z</time></trkpt><trkpt lat="51.7357066" lon="-1.0950521"><ele>74.5</ele><time>2026-04-12T19:22:49.359Z</time></trkpt><trkpt lat="51.7355989" lon="-1.0946313"><ele>75.0</ele><time>2026-04-12T19:22:50.358Z</time></trkpt><trkpt lat="51.7354913" lon="-1.0942114"><ele>75.5</ele><time>2026-04-12T19:22:51.358Z</time></trkpt><trkpt lat="51.735379" lon="-1.0937857"><ele>76.0</ele><time>2026-04-12T19:22:52.359Z</time></trkpt><trkpt lat="51.7352696" lon="-1.0933724"><ele>76.5</ele><time>2026-04-12T19:22:53.359Z</time></trkpt><trkpt lat="51.735166" lon="-1.0929463"><ele>77.0</ele><time>2026-04-12T19:22:54.358Z</time></trkpt><trkpt lat="51.7350648" lon="-1.0925179"><ele>77.5</ele><time>2026-04-12T19:22:55.359Z</time></trkpt><trkpt lat="51.7349634" lon="-1.092095"><ele>78.0</ele><time>2026-04-12T19:22:56.359Z</time></trkpt><trkpt lat="51.7348618" lon="-1.0916686"><ele>77.5</ele><time>2026-04-12T19:22:57.359Z</time></trkpt><trkpt lat="51.7347687" lon="-1.091239"><ele>77.0</ele><time>2026-04-12T19:22:58.358Z</time></trkpt><trkpt lat="51.7346746" lon="-1.090811"><ele>77.5</ele><time>2026-04-12T19:22:59.359Z</time></trkpt><trkpt lat="51.7345831" lon="-1.0903764"><ele>78.0</ele><time>2026-04-12T19:23:00.359Z</time></trkpt><trkpt lat="51.7344939" lon="-1.0899495"><ele>78.5</ele><time>2026-04-12T19:23:01.359Z</time></trkpt><trkpt lat="51.73441" lon="-1.0895159"><ele>79.0</ele><time>2026-04-12T19:23:02.358Z</time></trkpt><trkpt lat="51.7343194" lon="-1.0890862"><ele>80.0</ele><time>2026-04-12T19:23:03.358Z</time></trkpt><trkpt lat="51.7342311" lon="-1.0886531"><ele>81.0</ele><time>2026-04-12T19:23:04.358Z</time></trkpt><trkpt lat="51.7341475" lon="-1.0882228"><ele>83.0</ele><time>2026-04-12T19:23:05.358Z</time></trkpt><trkpt lat="51.734067" lon="-1.0877802"><ele>85.0</ele><time>2026-04-12T19:23:06.36Z</time></trkpt><trkpt lat="51.7339894" lon="-1.0873457"><ele>86.0</ele><time>2026-04-12T19:23:07.36Z</time></trkpt><trkpt lat="51.7339167" lon="-1.0869105"><ele>87.0</ele><time>2026-04-12T19:23:08.359Z</time></trkpt><trkpt lat="51.7338552" lon="-1.0864716"><ele>87.5</ele><time>2026-04-12T19:23:09.36Z</time></trkpt><trkpt lat="51.7338026" lon="-1.0860262"><ele>88.0</ele><time>2026-04-12T19:23:10.359Z</time></trkpt><trkpt lat="51.733765" lon="-1.0855767"><ele>88.0</ele><time>2026-04-12T19:23:11.36Z</time></trkpt><trkpt lat="51.7337467" lon="-1.0851251"><ele>88.0</ele><time>2026-04-12T19:23:12.36Z</time></trkpt><trkpt lat="51.7337352" lon="-1.084666"><ele>88.5</ele><time>2026-04-12T19:23:13.359Z</time></trkpt><trkpt lat="51.7337439" lon="-1.0842052"><ele>89.0</ele><time>2026-04-12T19:23:14.36Z</time></trkpt><trkpt lat="51.7337637" lon="-1.0837291"><ele>91.0</ele><time>2026-04-12T19:23:15.359Z</time></trkpt><trkpt lat="51.7338033" lon="-1.0832405"><ele>93.0</ele><time>2026-04-12T19:23:16.36Z</time></trkpt><trkpt lat="51.7338363" lon="-1.0827515"><ele>93.5</ele><time>2026-04-12T19:23:17.359Z</time></trkpt><trkpt lat="51.7338662" lon="-1.0822595"><ele>94.0</ele><time>2026-04-12T19:23:18.359Z</time></trkpt><trkpt lat="51.7338893" lon="-1.0817801"><ele>94.0</ele><time>2026-04-12T19:23:19.36Z</time></trkpt><trkpt lat="51.7338963" lon="-1.0812822"><ele>94.0</ele><time>2026-04-12T19:23:20.36Z</time></trkpt><trkpt lat="51.7338861" lon="-1.0807869"><ele>94.0</ele><time>2026-04-12T19:23:21.36Z</time></trkpt><trkpt lat="51.7338554" lon="-1.0802793"><ele>94.0</ele><time>2026-04-12T19:23:22.36Z</time></trkpt><trkpt lat="51.7338006" lon="-1.0797748"><ele>94.0</ele><time>2026-04-12T19:23:23.36Z</time></trkpt><trkpt lat="51.7337277" lon="-1.0792659"><ele>94.0</ele><time>2026-04-12T19:23:24.36Z</time></trkpt><trkpt lat="51.7336333" lon="-1.0787785"><ele>96.5</ele><time>2026-04-12T19:23:25.36Z</time></trkpt><trkpt lat="51.7335094" lon="-1.0783116"><ele>99.0</ele><time>2026-04-12T19:23:26.359Z</time></trkpt><trkpt lat="51.733378" lon="-1.0778534"><ele>98.5</ele><time>2026-04-12T19:23:27.36Z</time></trkpt><trkpt lat="51.7332288" lon="-1.0774214"><ele>98.0</ele><time>2026-04-12T19:23:28.36Z</time></trkpt><trkpt lat="51.7330522" lon="-1.0770163"><ele>98.0</ele><time>2026-04-12T19:23:29.359Z</time></trkpt><trkpt lat="51.732877" lon="-1.0766421"><ele>98.0</ele><time>2026-04-12T19:23:30.359Z</time></trkpt><trkpt lat="51.7327083" lon="-1.0762862"><ele>99.5</ele><time>2026-04-12T19:23:31.36Z</time></trkpt><trkpt lat="51.7325329" lon="-1.0759318"><ele>101.0</ele><time>2026-04-12T19:23:32.36Z</time></trkpt><trkpt lat="51.7323572" lon="-1.0755807"><ele>101.0</ele><time>2026-04-12T19:23:33.36Z</time></trkpt><trkpt lat="51.7321941" lon="-1.0752353"><ele>101.0</ele><time>2026-04-12T19:23:34.359Z</time></trkpt><trkpt lat="51.732033" lon="-1.0748734"><ele>100.5</ele><time>2026-04-12T19:23:35.359Z</time></trkpt><trkpt lat="51.7318891" lon="-1.0745146"><ele>100.0</ele><time>2026-04-12T19:23:36.36Z</time></trkpt><trkpt lat="51.7317597" lon="-1.0741893"><ele>100.5</ele><time>2026-04-12T19:23:37.36Z</time></trkpt><trkpt lat="51.7316389" lon="-1.0738678"><ele>101.0</ele><time>2026-04-12T19:23:38.359Z</time></trkpt><trkpt lat="51.7315076" lon="-1.073552"><ele>100.5</ele><time>2026-04-12T19:23:39.36Z</time></trkpt><trkpt lat="51.7313774" lon="-1.0732149"><ele>100.0</ele><time>2026-04-12T19:23:40.36Z</time></trkpt><trkpt lat="51.7312401" lon="-1.0728676"><ele>100.0</ele><time>2026-04-12T19:23:41.36Z</time></trkpt><trkpt lat="51.7310942" lon="-1.0725078"><ele>100.0</ele><time>2026-04-12T19:23:42.36Z</time></trkpt><trkpt lat="51.7309464" lon="-1.0721606"><ele>100.0</ele><time>2026-04-12T19:23:43.36Z</time></trkpt><trkpt lat="51.7307987" lon="-1.0718053"><ele>100.0</ele><time>2026-04-12T19:23:44.36Z</time></trkpt><trkpt lat="51.7306529" lon="-1.0714533"><ele>100.0</ele><time>2026-04-12T19:23:45.36Z</time></trkpt><trkpt lat="51.7304985" lon="-1.0710941"><ele>100.0</ele><time>2026-04-12T19:23:46.359Z</time></trkpt><trkpt lat="51.7303467" lon="-1.0707447"><ele>100.5</ele><time>2026-04-12T19:23:47.36Z</time></trkpt><trkpt lat="51.7301915" lon="-1.0703918"><ele>101.0</ele><time>2026-04-12T19:23:48.36Z</time></trkpt><trkpt lat="51.7300337" lon="-1.0700468"><ele>101.5</ele><time>2026-04-12T19:23:49.359Z</time></trkpt><trkpt lat="51.7298764" lon="-1.0697003"><ele>102.0</ele><time>2026-04-12T19:23:50.36Z</time></trkpt><trkpt lat="51.7297249" lon="-1.0693449"><ele>101.5</ele><time>2026-04-12T19:23:51.36Z</time></trkpt><trkpt lat="51.7295692" lon="-1.0689994"><ele>101.0</ele><time>2026-04-12T19:23:52.359Z</time></trkpt><trkpt lat="51.7294126" lon="-1.0686514"><ele>101.5</ele><time>2026-04-12T19:23:53.36Z</time></trkpt><trkpt lat="51.7292492" lon="-1.0682993"><ele>102.0</ele><time>2026-04-12T19:23:54.359Z</time></trkpt><trkpt lat="51.729071" lon="-1.0679348"><ele>102.0</ele><time>2026-04-12T19:23:55.359Z</time></trkpt><trkpt lat="51.728903" lon="-1.0675611"><ele>102.0</ele><time>2026-04-12T19:23:56.359Z</time></trkpt><trkpt lat="51.7287406" lon="-1.0671875"><ele>102.0</ele><time>2026-04-12T19:23:57.36Z</time></trkpt><trkpt lat="51.7285812" lon="-1.0668261"><ele>102.0</ele><time>2026-04-12T19:23:58.36Z</time></trkpt><trkpt lat="51.7284246" lon="-1.0664598"><ele>102.0</ele><time>2026-04-12T19:23:59.36Z</time></trkpt><trkpt lat="51.7282681" lon="-1.0661009"><ele>102.0</ele><time>2026-04-12T19:24:00.36Z</time></trkpt><trkpt lat="51.7281063" lon="-1.065728"><ele>102.5</ele><time>2026-04-12T19:24:01.359Z</time></trkpt><trkpt lat="51.7279409" lon="-1.0653574"><ele>103.0</ele><time>2026-04-12T19:24:02.359Z</time></trkpt><trkpt lat="51.7277773" lon="-1.0649842"><ele>103.0</ele><time>2026-04-12T19:24:03.359Z</time></trkpt><trkpt lat="51.7276109" lon="-1.064611"><ele>103.0</ele><time>2026-04-12T19:24:04.359Z</time></trkpt><trkpt lat="51.7274477" lon="-1.0642389"><ele>103.0</ele><time>2026-04-12T19:24:05.359Z</time></trkpt><trkpt lat="51.7272885" lon="-1.0638608"><ele>103.0</ele><time>2026-04-12T19:24:06.36Z</time></trkpt><trkpt lat="51.7271213" lon="-1.063489"><ele>103.0</ele><time>2026-04-12T19:24:07.359Z</time></trkpt><trkpt lat="51.7269576" lon="-1.0631103"><ele>103.0</ele><time>2026-04-12T19:24:08.359Z</time></trkpt><trkpt lat="51.7268006" lon="-1.0627332"><ele>102.5</ele><time>2026-04-12T19:24:09.359Z</time></trkpt><trkpt lat="51.7266367" lon="-1.0623593"><ele>102.0</ele><time>2026-04-12T19:24:10.36Z</time></trkpt><trkpt lat="51.7264712" lon="-1.0619821"><ele>101.5</ele><time>2026-04-12T19:24:11.36Z</time></trkpt><trkpt lat="51.7263058" lon="-1.0616136"><ele>101.0</ele><time>2026-04-12T19:24:12.36Z</time></trkpt><trkpt lat="51.7261419" lon="-1.0612449"><ele>101.0</ele><time>2026-04-12T19:24:13.36Z</time></trkpt><trkpt lat="51.7259782" lon="-1.0608765"><ele>101.0</ele><time>2026-04-12T19:24:14.36Z</time></trkpt><trkpt lat="51.7258154" lon="-1.0604992"><ele>101.0</ele><time>2026-04-12T19:24:15.36Z</time></trkpt><trkpt lat="51.7256556" lon="-1.0601277"><ele>101.0</ele><time>2026-04-12T19:24:16.36Z</time></trkpt><trkpt lat="51.7254967" lon="-1.0597527"><ele>101.0</ele><time>2026-04-12T19:24:17.36Z</time></trkpt><trkpt lat="51.7253448" lon="-1.0593681"><ele>101.0</ele><time>2026-04-12T19:24:18.359Z</time></trkpt><trkpt lat="51.7251926" lon="-1.0589862"><ele>101.5</ele><time>2026-04-12T19:24:19.36Z</time></trkpt><trkpt lat="51.7250442" lon="-1.058596"><ele>102.0</ele><time>2026-04-12T19:24:20.36Z</time></trkpt><trkpt lat="51.7248989" lon="-1.0582001"><ele>103.0</ele><time>2026-04-12T19:24:21.36Z</time></trkpt><trkpt lat="51.7247504" lon="-1.0578114"><ele>104.0</ele><time>2026-04-12T19:24:22.36Z</time></trkpt><trkpt lat="51.7246004" lon="-1.0574126"><ele>104.0</ele><time>2026-04-12T19:24:23.36Z</time></trkpt><trkpt lat="51.7244525" lon="-1.057024"><ele>104.0</ele><time>2026-04-12T19:24:24.36Z</time></trkpt><trkpt lat="51.7243198" lon="-1.0566244"><ele>103.0</ele><time>2026-04-12T19:24:25.36Z</time></trkpt><trkpt lat="51.7241889" lon="-1.056216"><ele>102.0</ele><time>2026-04-12T19:24:26.36Z</time></trkpt><trkpt lat="51.7240622" lon="-1.055809"><ele>102.0</ele><time>2026-04-12T19:24:27.36Z</time></trkpt><trkpt lat="51.7239401" lon="-1.0553997"><ele>102.0</ele><time>2026-04-12T19:24:28.361Z</time></trkpt><trkpt lat="51.7238111" lon="-1.0550013"><ele>102.5</ele><time>2026-04-12T19:24:29.36Z</time></trkpt><trkpt lat="51.7236954" lon="-1.0545921"><ele>103.0</ele><time>2026-04-12T19:24:30.36Z</time></trkpt><trkpt lat="51.7235779" lon="-1.0541734"><ele>103.0</ele><time>2026-04-12T19:24:31.361Z</time></trkpt><trkpt lat="51.7234536" lon="-1.0537652"><ele>103.0</ele><time>2026-04-12T19:24:32.361Z</time></trkpt><trkpt lat="51.7233399" lon="-1.0533426"><ele>103.5</ele><time>2026-04-12T19:24:33.361Z</time></trkpt><trkpt lat="51.7232274" lon="-1.0529197"><ele>104.0</ele><time>2026-04-12T19:24:34.361Z</time></trkpt><trkpt lat="51.7231208" lon="-1.0524935"><ele>103.0</ele><time>2026-04-12T19:24:35.36Z</time></trkpt><trkpt lat="51.7230151" lon="-1.0520648"><ele>102.0</ele><time>2026-04-12T19:24:36.361Z</time></trkpt><trkpt lat="51.7229161" lon="-1.0516337"><ele>102.0</ele><time>2026-04-12T19:24:37.361Z</time></trkpt><trkpt lat="51.7228148" lon="-1.0512145"><ele>102.0</ele><time>2026-04-12T19:24:38.36Z</time></trkpt><trkpt lat="51.7227253" lon="-1.0507751"><ele>102.0</ele><time>2026-04-12T19:24:39.361Z</time></trkpt><trkpt lat="51.7226281" lon="-1.0503413"><ele>102.0</ele><time>2026-04-12T19:24:40.36Z</time></trkpt><trkpt lat="51.7225344" lon="-1.0499193"><ele>101.0</ele><time>2026-04-12T19:24:41.36Z</time></trkpt><trkpt lat="51.7224492" lon="-1.0494782"><ele>100.0</ele><time>2026-04-12T19:24:42.36Z</time></trkpt><trkpt lat="51.7223659" lon="-1.0490416"><ele>100.0</ele><time>2026-04-12T19:24:43.361Z</time></trkpt><trkpt lat="51.7222867" lon="-1.0486036"><ele>100.0</ele><time>2026-04-12T19:24:44.36Z</time></trkpt><trkpt lat="51.7222139" lon="-1.0481622"><ele>100.0</ele><time>2026-04-12T19:24:45.361Z</time></trkpt><trkpt lat="51.7221388" lon="-1.0477259"><ele>100.0</ele><time>2026-04-12T19:24:46.361Z</time></trkpt><trkpt lat="51.7220672" lon="-1.0472767"><ele>100.0</ele><time>2026-04-12T19:24:47.361Z</time></trkpt><trkpt lat="51.7219958" lon="-1.0468372"><ele>100.0</ele><time>2026-04-12T19:24:48.361Z</time></trkpt><trkpt lat="51.7219318" lon="-1.0463941"><ele>99.0</ele><time>2026-04-12T19:24:49.36Z</time></trkpt><trkpt lat="51.7218678" lon="-1.0459477"><ele>98.0</ele><time>2026-04-12T19:24:50.361Z</time></trkpt><trkpt lat="51.7218056" lon="-1.045496"><ele>97.5</ele><time>2026-04-12T19:24:51.36Z</time></trkpt><trkpt lat="51.7217462" lon="-1.0450433"><ele>97.0</ele><time>2026-04-12T19:24:52.36Z</time></trkpt><trkpt lat="51.7216922" lon="-1.0445961"><ele>95.5</ele><time>2026-04-12T19:24:53.361Z</time></trkpt><trkpt lat="51.7216343" lon="-1.044152"><ele>94.0</ele><time>2026-04-12T19:24:54.36Z</time></trkpt><trkpt lat="51.72158" lon="-1.0436982"><ele>90.5</ele><time>2026-04-12T19:24:55.36Z</time></trkpt><trkpt lat="51.7215167" lon="-1.0432521"><ele>87.0</ele><time>2026-04-12T19:24:56.361Z</time></trkpt><trkpt lat="51.721453" lon="-1.0428066"><ele>86.0</ele><time>2026-04-12T19:24:57.36Z</time></trkpt><trkpt lat="51.7213861" lon="-1.0423636"><ele>85.0</ele><time>2026-04-12T19:24:58.36Z</time></trkpt><trkpt lat="51.7213186" lon="-1.0419228"><ele>84.0</ele><time>2026-04-12T19:24:59.36Z</time></trkpt><trkpt lat="51.721252" lon="-1.0414786"><ele>83.0</ele><time>2026-04-12T19:25:00.361Z</time></trkpt><trkpt lat="51.7211821" lon="-1.0410393"><ele>82.0</ele><time>2026-04-12T19:25:01.36Z</time></trkpt><trkpt lat="51.7211041" lon="-1.0405988"><ele>81.0</ele><time>2026-04-12T19:25:02.361Z</time></trkpt><trkpt lat="51.7210288" lon="-1.0401548"><ele>80.5</ele><time>2026-04-12T19:25:03.361Z</time></trkpt><trkpt lat="51.7209475" lon="-1.0397227"><ele>80.0</ele><time>2026-04-12T19:25:04.361Z</time></trkpt><trkpt lat="51.7208685" lon="-1.0392929"><ele>80.0</ele><time>2026-04-12T19:25:05.36Z</time></trkpt><trkpt lat="51.7207834" lon="-1.0388593"><ele>80.0</ele><time>2026-04-12T19:25:06.361Z</time></trkpt><trkpt lat="51.7206967" lon="-1.0384263"><ele>78.5</ele><time>2026-04-12T19:25:07.361Z</time></trkpt><trkpt lat="51.7206065" lon="-1.0379841"><ele>77.0</ele><time>2026-04-12T19:25:08.361Z</time></trkpt><trkpt lat="51.7205137" lon="-1.0375452"><ele>76.0</ele><time>2026-04-12T19:25:09.361Z</time></trkpt><trkpt lat="51.7204152" lon="-1.037119"><ele>75.0</ele><time>2026-04-12T19:25:10.361Z</time></trkpt><trkpt lat="51.7203206" lon="-1.0366896"><ele>75.5</ele><time>2026-04-12T19:25:11.36Z</time></trkpt><trkpt lat="51.7202204" lon="-1.0362589"><ele>76.0</ele><time>2026-04-12T19:25:12.361Z</time></trkpt><trkpt lat="51.7201184" lon="-1.0358334"><ele>75.5</ele><time>2026-04-12T19:25:13.361Z</time></trkpt><trkpt lat="51.720014" lon="-1.035413"><ele>75.0</ele><time>2026-04-12T19:25:14.36Z</time></trkpt><trkpt lat="51.7199102" lon="-1.0349909"><ele>75.0</ele><time>2026-04-12T19:25:15.361Z</time></trkpt><trkpt lat="51.7198026" lon="-1.034569"><ele>75.0</ele><time>2026-04-12T19:25:16.361Z</time></trkpt><trkpt lat="51.7196863" lon="-1.0341551"><ele>74.5</ele><time>2026-04-12T19:25:17.361Z</time></trkpt><trkpt lat="51.7195731" lon="-1.0337358"><ele>74.0</ele><time>2026-04-12T19:25:18.361Z</time></trkpt><trkpt lat="51.7194589" lon="-1.0333198"><ele>74.0</ele><time>2026-04-12T19:25:19.361Z</time></trkpt><trkpt lat="51.7193384" lon="-1.0329013"><ele>74.0</ele><time>2026-04-12T19:25:20.36Z</time></trkpt><trkpt lat="51.7192164" lon="-1.0324877"><ele>73.5</ele><time>2026-04-12T19:25:21.361Z</time></trkpt><trkpt lat="51.719094" lon="-1.0320764"><ele>73.0</ele><time>2026-04-12T19:25:22.361Z</time></trkpt><trkpt lat="51.7189759" lon="-1.0316671"><ele>73.5</ele><time>2026-04-12T19:25:23.361Z</time></trkpt><trkpt lat="51.7188537" lon="-1.0312604"><ele>74.0</ele><time>2026-04-12T19:25:24.361Z</time></trkpt><trkpt lat="51.7187238" lon="-1.0308564"><ele>74.0</ele><time>2026-04-12T19:25:25.36Z</time></trkpt><trkpt lat="51.7185911" lon="-1.030458"><ele>74.0</ele><time>2026-04-12T19:25:26.36Z</time></trkpt><trkpt lat="51.7184553" lon="-1.0300581"><ele>73.5</ele><time>2026-04-12T19:25:27.361Z</time></trkpt><trkpt lat="51.7183203" lon="-1.0296568"><ele>73.0</ele><time>2026-04-12T19:25:28.361Z</time></trkpt><trkpt lat="51.7181822" lon="-1.0292519"><ele>73.0</ele><time>2026-04-12T19:25:29.361Z</time></trkpt><trkpt lat="51.7180422" lon="-1.0288617"><ele>73.0</ele><time>2026-04-12T19:25:30.36Z</time></trkpt><trkpt lat="51.7178998" lon="-1.0284671"><ele>74.0</ele><time>2026-04-12T19:25:31.36Z</time></trkpt><trkpt lat="51.7177529" lon="-1.0280754"><ele>75.0</ele><time>2026-04-12T19:25:32.361Z</time></trkpt><trkpt lat="51.7176055" lon="-1.0276821"><ele>75.5</ele><time>2026-04-12T19:25:33.361Z</time></trkpt><trkpt lat="51.717462" lon="-1.0272923"><ele>76.0</ele><time>2026-04-12T19:25:34.361Z</time></trkpt><trkpt lat="51.7173144" lon="-1.0269199"><ele>76.5</ele><time>2026-04-12T19:25:35.361Z</time></trkpt><trkpt lat="51.7171615" lon="-1.0265383"><ele>77.0</ele><time>2026-04-12T19:25:36.361Z</time></trkpt><trkpt lat="51.7170076" lon="-1.0261586"><ele>77.0</ele><time>2026-04-12T19:25:37.361Z</time></trkpt><trkpt lat="51.7168505" lon="-1.0257776"><ele>77.0</ele><time>2026-04-12T19:25:38.36Z</time></trkpt><trkpt lat="51.7166952" lon="-1.0254073"><ele>77.0</ele><time>2026-04-12T19:25:39.36Z</time></trkpt><trkpt lat="51.7165379" lon="-1.0250381"><ele>77.0</ele><time>2026-04-12T19:25:40.36Z</time></trkpt><trkpt lat="51.7163753" lon="-1.024669"><ele>76.5</ele><time>2026-04-12T19:25:41.361Z</time></trkpt><trkpt lat="51.7162058" lon="-1.0242991"><ele>76.0</ele><time>2026-04-12T19:25:42.362Z</time></trkpt><trkpt lat="51.716036" lon="-1.0239355"><ele>77.0</ele><time>2026-04-12T19:25:43.362Z</time></trkpt><trkpt lat="51.7158684" lon="-1.0235737"><ele>78.0</ele><time>2026-04-12T19:25:44.362Z</time></trkpt><trkpt lat="51.7156952" lon="-1.0232164"><ele>78.5</ele><time>2026-04-12T19:25:45.362Z</time></trkpt><trkpt lat="51.7155234" lon="-1.0228543"><ele>79.0</ele><time>2026-04-12T19:25:46.362Z</time></trkpt><trkpt lat="51.7153521" lon="-1.0224993"><ele>80.0</ele><time>2026-04-12T19:25:47.361Z</time></trkpt><trkpt lat="51.7151746" lon="-1.0221465"><ele>81.0</ele><time>2026-04-12T19:25:48.361Z</time></trkpt><trkpt lat="51.714995" lon="-1.0217929"><ele>81.5</ele><time>2026-04-12T19:25:49.361Z</time></trkpt><trkpt lat="51.7148143" lon="-1.021443"><ele>82.0</ele><time>2026-04-12T19:25:50.362Z</time></trkpt><trkpt lat="51.7146259" lon="-1.0210974"><ele>82.5</ele><time>2026-04-12T19:25:51.362Z</time></trkpt><trkpt lat="51.7144427" lon="-1.0207544"><ele>83.0</ele><time>2026-04-12T19:25:52.361Z</time></trkpt><trkpt lat="51.7142616" lon="-1.020415"><ele>84.0</ele><time>2026-04-12T19:25:53.361Z</time></trkpt><trkpt lat="51.7140751" lon="-1.020069"><ele>85.0</ele><time>2026-04-12T19:25:54.361Z</time></trkpt><trkpt lat="51.713884" lon="-1.0197321"><ele>85.5</ele><time>2026-04-12T19:25:55.362Z</time></trkpt><trkpt lat="51.7136883" lon="-1.0193985"><ele>86.0</ele><time>2026-04-12T19:25:56.362Z</time></trkpt><trkpt lat="51.7134941" lon="-1.0190675"><ele>87.0</ele><time>2026-04-12T19:25:57.362Z</time></trkpt><trkpt lat="51.7132972" lon="-1.0187371"><ele>88.0</ele><time>2026-04-12T19:25:58.362Z</time></trkpt><trkpt lat="51.7130969" lon="-1.0184211"><ele>88.0</ele><time>2026-04-12T19:25:59.362Z</time></trkpt><trkpt lat="51.712898" lon="-1.0181016"><ele>88.0</ele><time>2026-04-12T19:26:00.361Z</time></trkpt><trkpt lat="51.7127011" lon="-1.017787"><ele>90.0</ele><time>2026-04-12T19:26:01.362Z</time></trkpt><trkpt lat="51.7125013" lon="-1.0174688"><ele>92.0</ele><time>2026-04-12T19:26:02.362Z</time></trkpt><trkpt lat="51.7122968" lon="-1.0171552"><ele>92.0</ele><time>2026-04-12T19:26:03.361Z</time></trkpt><trkpt lat="51.7120858" lon="-1.0168474"><ele>92.0</ele><time>2026-04-12T19:26:04.362Z</time></trkpt><trkpt lat="51.7118733" lon="-1.0165403"><ele>94.5</ele><time>2026-04-12T19:26:05.362Z</time></trkpt><trkpt lat="51.7116648" lon="-1.016227"><ele>97.0</ele><time>2026-04-12T19:26:06.362Z</time></trkpt><trkpt lat="51.7114612" lon="-1.0159148"><ele>97.5</ele><time>2026-04-12T19:26:07.362Z</time></trkpt><trkpt lat="51.7112608" lon="-1.015596"><ele>98.0</ele><time>2026-04-12T19:26:08.362Z</time></trkpt><trkpt lat="51.711055" lon="-1.0152779"><ele>99.0</ele><time>2026-04-12T19:26:09.361Z</time></trkpt><trkpt lat="51.7108491" lon="-1.0149567"><ele>100.0</ele><time>2026-04-12T19:26:10.361Z</time></trkpt><trkpt lat="51.7106454" lon="-1.0146412"><ele>100.0</ele><time>2026-04-12T19:26:11.361Z</time></trkpt><trkpt lat="51.7104482" lon="-1.0143141"><ele>100.0</ele><time>2026-04-12T19:26:12.361Z</time></trkpt><trkpt lat="51.7102523" lon="-1.0139886"><ele>99.5</ele><time>2026-04-12T19:26:13.362Z</time></trkpt><trkpt lat="51.7100585" lon="-1.0136517"><ele>99.0</ele><time>2026-04-12T19:26:14.362Z</time></trkpt><trkpt lat="51.7098657" lon="-1.0133185"><ele>98.0</ele><time>2026-04-12T19:26:15.362Z</time></trkpt><trkpt lat="51.709682" lon="-1.0129748"><ele>97.0</ele><time>2026-04-12T19:26:16.361Z</time></trkpt><trkpt lat="51.7095" lon="-1.0126366"><ele>97.0</ele><time>2026-04-12T19:26:17.361Z</time></trkpt><trkpt lat="51.7093144" lon="-1.0122884"><ele>97.0</ele><time>2026-04-12T19:26:18.362Z</time></trkpt><trkpt lat="51.7091358" lon="-1.0119299"><ele>96.5</ele><time>2026-04-12T19:26:19.362Z</time></trkpt><trkpt lat="51.708953" lon="-1.0115817"><ele>96.0</ele><time>2026-04-12T19:26:20.362Z</time></trkpt><trkpt lat="51.7087776" lon="-1.0112301"><ele>96.0</ele><time>2026-04-12T19:26:21.362Z</time></trkpt><trkpt lat="51.7086107" lon="-1.010888"><ele>96.0</ele><time>2026-04-12T19:26:22.361Z</time></trkpt><trkpt lat="51.7084521" lon="-1.010563"><ele>96.5</ele><time>2026-04-12T19:26:23.361Z</time></trkpt><trkpt lat="51.7083067" lon="-1.0102434"><ele>97.0</ele><time>2026-04-12T19:26:24.362Z</time></trkpt><trkpt lat="51.7081612" lon="-1.0099327"><ele>98.0</ele><time>2026-04-12T19:26:25.362Z</time></trkpt><trkpt lat="51.7080107" lon="-1.0096165"><ele>99.0</ele><time>2026-04-12T19:26:26.362Z</time></trkpt><trkpt lat="51.7078658" lon="-1.0092804"><ele>97.5</ele><time>2026-04-12T19:26:27.362Z</time></trkpt><trkpt lat="51.7077153" lon="-1.0089374"><ele>96.0</ele><time>2026-04-12T19:26:28.362Z</time></trkpt><trkpt lat="51.7075664" lon="-1.0085805"><ele>96.0</ele><time>2026-04-12T19:26:29.362Z</time></trkpt><trkpt lat="51.7074243" lon="-1.0082189"><ele>96.0</ele><time>2026-04-12T19:26:30.361Z</time></trkpt><trkpt lat="51.7072816" lon="-1.007863"><ele>96.0</ele><time>2026-04-12T19:26:31.362Z</time></trkpt><trkpt lat="51.7071477" lon="-1.0075129"><ele>96.0</ele><time>2026-04-12T19:26:32.362Z</time></trkpt><trkpt lat="51.7070182" lon="-1.0071658"><ele>94.0</ele><time>2026-04-12T19:26:33.362Z</time></trkpt><trkpt lat="51.7068889" lon="-1.0068228"><ele>92.0</ele><time>2026-04-12T19:26:34.362Z</time></trkpt><trkpt lat="51.7067549" lon="-1.0064795"><ele>91.5</ele><time>2026-04-12T19:26:35.362Z</time></trkpt><trkpt lat="51.7066263" lon="-1.0061374"><ele>91.0</ele><time>2026-04-12T19:26:36.362Z</time></trkpt><trkpt lat="51.7064979" lon="-1.0057953"><ele>90.5</ele><time>2026-04-12T19:26:37.362Z</time></trkpt><trkpt lat="51.7063641" lon="-1.0054427"><ele>90.0</ele><time>2026-04-12T19:26:38.361Z</time></trkpt><trkpt lat="51.7062316" lon="-1.0050846"><ele>89.5</ele><time>2026-04-12T19:26:39.362Z</time></trkpt><trkpt lat="51.706101" lon="-1.0047396"><ele>89.0</ele><time>2026-04-12T19:26:40.362Z</time></trkpt><trkpt lat="51.7059668" lon="-1.0044014"><ele>88.0</ele><time>2026-04-12T19:26:41.362Z</time></trkpt><trkpt lat="51.7058314" lon="-1.0040616"><ele>87.0</ele><time>2026-04-12T19:26:42.362Z</time></trkpt><trkpt lat="51.7057" lon="-1.0037025"><ele>87.0</ele><time>2026-04-12T19:26:43.362Z</time></trkpt><trkpt lat="51.7055682" lon="-1.0033436"><ele>87.0</ele><time>2026-04-12T19:26:44.362Z</time></trkpt><trkpt lat="51.7054307" lon="-1.0029915"><ele>87.0</ele><time>2026-04-12T19:26:45.361Z</time></trkpt><trkpt lat="51.7052923" lon="-1.0026479"><ele>87.0</ele><time>2026-04-12T19:26:46.361Z</time></trkpt><trkpt lat="51.7051516" lon="-1.0022936"><ele>87.0</ele><time>2026-04-12T19:26:47.362Z</time></trkpt><trkpt lat="51.7050082" lon="-1.001939"><ele>87.0</ele><time>2026-04-12T19:26:48.362Z</time></trkpt><trkpt lat="51.704861" lon="-1.0015895"><ele>88.0</ele><time>2026-04-12T19:26:49.361Z</time></trkpt><trkpt lat="51.7047131" lon="-1.0012224"><ele>89.0</ele><time>2026-04-12T19:26:50.362Z</time></trkpt><trkpt lat="51.7045625" lon="-1.0008697"><ele>88.5</ele><time>2026-04-12T19:26:51.362Z</time></trkpt><trkpt lat="51.7044115" lon="-1.0005164"><ele>88.0</ele><time>2026-04-12T19:26:52.362Z</time></trkpt><trkpt lat="51.7042579" lon="-1.0001491"><ele>88.0</ele><time>2026-04-12T19:26:53.361Z</time></trkpt><trkpt lat="51.7040979" lon="-0.9997947"><ele>88.0</ele><time>2026-04-12T19:26:54.362Z</time></trkpt><trkpt lat="51.7039352" lon="-0.9994374"><ele>88.5</ele><time>2026-04-12T19:26:55.361Z</time></trkpt><trkpt lat="51.7037719" lon="-0.9990613"><ele>89.0</ele><time>2026-04-12T19:26:56.361Z</time></trkpt><trkpt lat="51.7035983" lon="-0.9986962"><ele>88.0</ele><time>2026-04-12T19:26:57.361Z</time></trkpt><trkpt lat="51.7034304" lon="-0.9983412"><ele>87.0</ele><time>2026-04-12T19:26:58.363Z</time></trkpt><trkpt lat="51.7032639" lon="-0.9979813"><ele>87.0</ele><time>2026-04-12T19:26:59.363Z</time></trkpt><trkpt lat="51.7030898" lon="-0.997623"><ele>87.0</ele><time>2026-04-12T19:27:00.363Z</time></trkpt><trkpt lat="51.7029235" lon="-0.997271"><ele>87.5</ele><time>2026-04-12T19:27:01.363Z</time></trkpt><trkpt lat="51.7027533" lon="-0.9969127"><ele>88.0</ele><time>2026-04-12T19:27:02.362Z</time></trkpt><trkpt lat="51.7025741" lon="-0.9965579"><ele>87.0</ele><time>2026-04-12T19:27:03.362Z</time></trkpt><trkpt lat="51.7023948" lon="-0.9962115"><ele>86.0</ele><time>2026-04-12T19:27:04.363Z</time></trkpt><trkpt lat="51.7022179" lon="-0.9958622"><ele>86.0</ele><time>2026-04-12T19:27:05.362Z</time></trkpt><trkpt lat="51.7020404" lon="-0.9955179"><ele>86.0</ele><time>2026-04-12T19:27:06.362Z</time></trkpt><trkpt lat="51.7018599" lon="-0.9951773"><ele>88.0</ele><time>2026-04-12T19:27:07.362Z</time></trkpt><trkpt lat="51.7016759" lon="-0.9948417"><ele>90.0</ele><time>2026-04-12T19:27:08.362Z</time></trkpt><trkpt lat="51.7014973" lon="-0.9944966"><ele>92.0</ele><time>2026-04-12T19:27:09.362Z</time></trkpt><trkpt lat="51.7013056" lon="-0.9941591"><ele>94.0</ele><time>2026-04-12T19:27:10.363Z</time></trkpt><trkpt lat="51.7011185" lon="-0.9938252"><ele>94.0</ele><time>2026-04-12T19:27:11.363Z</time></trkpt><trkpt lat="51.7009304" lon="-0.9934955"><ele>94.0</ele><time>2026-04-12T19:27:12.363Z</time></trkpt><trkpt lat="51.7007461" lon="-0.9931653"><ele>96.0</ele><time>2026-04-12T19:27:13.363Z</time></trkpt><trkpt lat="51.7005616" lon="-0.9928446"><ele>98.0</ele><time>2026-04-12T19:27:14.363Z</time></trkpt><trkpt lat="51.7003735" lon="-0.9925259"><ele>98.5</ele><time>2026-04-12T19:27:15.362Z</time></trkpt><trkpt lat="51.7001907" lon="-0.9922113"><ele>99.0</ele><time>2026-04-12T19:27:16.362Z</time></trkpt><trkpt lat="51.7000066" lon="-0.9918969"><ele>101.0</ele><time>2026-04-12T19:27:17.362Z</time></trkpt><trkpt lat="51.6998172" lon="-0.9915883"><ele>103.0</ele><time>2026-04-12T19:27:18.362Z</time></trkpt><trkpt lat="51.6996226" lon="-0.9912783"><ele>103.0</ele><time>2026-04-12T19:27:19.363Z</time></trkpt><trkpt lat="51.6994292" lon="-0.9909657"><ele>103.0</ele><time>2026-04-12T19:27:20.363Z</time></trkpt><trkpt lat="51.6992373" lon="-0.9906605"><ele>103.5</ele><time>2026-04-12T19:27:21.363Z</time></trkpt><trkpt lat="51.6990398" lon="-0.990353"><ele>104.0</ele><time>2026-04-12T19:27:22.363Z</time></trkpt><trkpt lat="51.6988452" lon="-0.9900416"><ele>104.5</ele><time>2026-04-12T19:27:23.362Z</time></trkpt><trkpt lat="51.6986416" lon="-0.9897335"><ele>105.0</ele><time>2026-04-12T19:27:24.362Z</time></trkpt><trkpt lat="51.6984396" lon="-0.9894153"><ele>107.0</ele><time>2026-04-12T19:27:25.363Z</time></trkpt><trkpt lat="51.698234" lon="-0.98911"><ele>109.0</ele><time>2026-04-12T19:27:26.362Z</time></trkpt><trkpt lat="51.6980248" lon="-0.9887961"><ele>109.0</ele><time>2026-04-12T19:27:27.363Z</time></trkpt><trkpt lat="51.6978181" lon="-0.9884891"><ele>109.0</ele><time>2026-04-12T19:27:28.362Z</time></trkpt><trkpt lat="51.6976094" lon="-0.9881944"><ele>108.5</ele><time>2026-04-12T19:27:29.363Z</time></trkpt><trkpt lat="51.6973989" lon="-0.9878986"><ele>108.0</ele><time>2026-04-12T19:27:30.362Z</time></trkpt><trkpt lat="51.6971811" lon="-0.9876031"><ele>109.5</ele><time>2026-04-12T19:27:31.363Z</time></trkpt><trkpt lat="51.6969671" lon="-0.9873026"><ele>111.0</ele><time>2026-04-12T19:27:32.362Z</time></trkpt><trkpt lat="51.6967546" lon="-0.9870012"><ele>111.0</ele><time>2026-04-12T19:27:33.362Z</time></trkpt><trkpt lat="51.6965378" lon="-0.9867158"><ele>111.0</ele><time>2026-04-12T19:27:34.363Z</time></trkpt><trkpt lat="51.6963196" lon="-0.9864319"><ele>110.5</ele><time>2026-04-12T19:27:35.363Z</time></trkpt><trkpt lat="51.6961044" lon="-0.9861498"><ele>110.0</ele><time>2026-04-12T19:27:36.363Z</time></trkpt><trkpt lat="51.6958889" lon="-0.9858717"><ele>110.5</ele><time>2026-04-12T19:27:37.362Z</time></trkpt><trkpt lat="51.6956651" lon="-0.9855888"><ele>111.0</ele><time>2026-04-12T19:27:38.362Z</time></trkpt><trkpt lat="51.6954443" lon="-0.985303"><ele>110.5</ele><time>2026-04-12T19:27:39.363Z</time></trkpt><trkpt lat="51.6952234" lon="-0.9850215"><ele>110.0</ele><time>2026-04-12T19:27:40.362Z</time></trkpt><trkpt lat="51.6947687" lon="-0.9844725"><ele>110.0</ele><time>2026-04-12T19:27:42.363Z</time></trkpt><trkpt lat="51.6945469" lon="-0.9842037"><ele>110.0</ele><time>2026-04-12T19:27:43.362Z</time></trkpt><trkpt lat="51.6943175" lon="-0.9839366"><ele>109.5</ele><time>2026-04-12T19:27:44.363Z</time></trkpt><trkpt lat="51.6940889" lon="-0.9836638"><ele>109.0</ele><time>2026-04-12T19:27:45.363Z</time></trkpt><trkpt lat="51.6938586" lon="-0.9834045"><ele>109.0</ele><time>2026-04-12T19:27:46.362Z</time></trkpt><trkpt lat="51.6936323" lon="-0.9831433"><ele>109.0</ele><time>2026-04-12T19:27:47.363Z</time></trkpt><trkpt lat="51.6933998" lon="-0.9828913"><ele>109.0</ele><time>2026-04-12T19:27:48.363Z</time></trkpt><trkpt lat="51.6931637" lon="-0.9826388"><ele>109.0</ele><time>2026-04-12T19:27:49.363Z</time></trkpt><trkpt lat="51.6929296" lon="-0.9823924"><ele>109.5</ele><time>2026-04-12T19:27:50.362Z</time></trkpt><trkpt lat="51.6926997" lon="-0.9821432"><ele>110.0</ele><time>2026-04-12T19:27:51.363Z</time></trkpt><trkpt lat="51.6924621" lon="-0.9818958"><ele>109.5</ele><time>2026-04-12T19:27:52.363Z</time></trkpt><trkpt lat="51.6922281" lon="-0.9816493"><ele>109.0</ele><time>2026-04-12T19:27:53.362Z</time></trkpt><trkpt lat="51.6919928" lon="-0.9814087"><ele>109.0</ele><time>2026-04-12T19:27:54.362Z</time></trkpt><trkpt lat="51.6917554" lon="-0.9811765"><ele>109.0</ele><time>2026-04-12T19:27:55.363Z</time></trkpt><trkpt lat="51.6915166" lon="-0.980934"><ele>109.0</ele><time>2026-04-12T19:27:56.363Z</time></trkpt><trkpt lat="51.6912775" lon="-0.9806971"><ele>109.0</ele><time>2026-04-12T19:27:57.363Z</time></trkpt><trkpt lat="51.6910401" lon="-0.980466"><ele>109.5</ele><time>2026-04-12T19:27:58.363Z</time></trkpt><trkpt lat="51.6907976" lon="-0.980237"><ele>110.0</ele><time>2026-04-12T19:27:59.362Z</time></trkpt><trkpt lat="51.6905512" lon="-0.9800113"><ele>110.0</ele><time>2026-04-12T19:28:00.363Z</time></trkpt><trkpt lat="51.6903044" lon="-0.9797886"><ele>110.0</ele><time>2026-04-12T19:28:01.363Z</time></trkpt><trkpt lat="51.6900595" lon="-0.9795653"><ele>111.0</ele><time>2026-04-12T19:28:02.363Z</time></trkpt><trkpt lat="51.6898167" lon="-0.9793433"><ele>112.0</ele><time>2026-04-12T19:28:03.363Z</time></trkpt><trkpt lat="51.6895738" lon="-0.9791208"><ele>114.0</ele><time>2026-04-12T19:28:04.363Z</time></trkpt><trkpt lat="51.6893271" lon="-0.9789051"><ele>116.0</ele><time>2026-04-12T19:28:05.363Z</time></trkpt><trkpt lat="51.6890764" lon="-0.9786921"><ele>116.0</ele><time>2026-04-12T19:28:06.362Z</time></trkpt><trkpt lat="51.6888321" lon="-0.978481"><ele>116.0</ele><time>2026-04-12T19:28:07.362Z</time></trkpt><trkpt lat="51.6885828" lon="-0.9782735"><ele>117.0</ele><time>2026-04-12T19:28:08.363Z</time></trkpt><trkpt lat="51.6883321" lon="-0.9780584"><ele>118.0</ele><time>2026-04-12T19:28:09.363Z</time></trkpt><trkpt lat="51.6880864" lon="-0.9778419"><ele>118.0</ele><time>2026-04-12T19:28:10.362Z</time></trkpt><trkpt lat="51.6878358" lon="-0.9776196"><ele>118.0</ele><time>2026-04-12T19:28:11.362Z</time></trkpt><trkpt lat="51.6875943" lon="-0.9773934"><ele>119.5</ele><time>2026-04-12T19:28:12.363Z</time></trkpt><trkpt lat="51.6873536" lon="-0.9771601"><ele>121.0</ele><time>2026-04-12T19:28:13.362Z</time></trkpt><trkpt lat="51.6871155" lon="-0.9769315"><ele>121.0</ele><time>2026-04-12T19:28:14.364Z</time></trkpt><trkpt lat="51.6868737" lon="-0.9766945"><ele>121.0</ele><time>2026-04-12T19:28:15.364Z</time></trkpt><trkpt lat="51.6866302" lon="-0.9764587"><ele>121.0</ele><time>2026-04-12T19:28:16.363Z</time></trkpt><trkpt lat="51.6863901" lon="-0.9762233"><ele>121.0</ele><time>2026-04-12T19:28:17.364Z</time></trkpt><trkpt lat="51.6861552" lon="-0.9759842"><ele>122.0</ele><time>2026-04-12T19:28:18.363Z</time></trkpt><trkpt lat="51.6859201" lon="-0.9757328"><ele>123.0</ele><time>2026-04-12T19:28:19.364Z</time></trkpt><trkpt lat="51.6856858" lon="-0.9754778"><ele>123.0</ele><time>2026-04-12T19:28:20.363Z</time></trkpt><trkpt lat="51.6854582" lon="-0.975227"><ele>123.0</ele><time>2026-04-12T19:28:21.363Z</time></trkpt><trkpt lat="51.6852255" lon="-0.9749665"><ele>122.0</ele><time>2026-04-12T19:28:22.364Z</time></trkpt><trkpt lat="51.6849947" lon="-0.9747038"><ele>121.0</ele><time>2026-04-12T19:28:23.363Z</time></trkpt><trkpt lat="51.6847667" lon="-0.9744378"><ele>121.0</ele><time>2026-04-12T19:28:24.364Z</time></trkpt><trkpt lat="51.6845431" lon="-0.9741666"><ele>121.0</ele><time>2026-04-12T19:28:25.363Z</time></trkpt><trkpt lat="51.6843161" lon="-0.9738983"><ele>121.0</ele><time>2026-04-12T19:28:26.363Z</time></trkpt><trkpt lat="51.6840955" lon="-0.9736244"><ele>121.0</ele><time>2026-04-12T19:28:27.364Z</time></trkpt><trkpt lat="51.6838764" lon="-0.9733371"><ele>121.0</ele><time>2026-04-12T19:28:28.363Z</time></trkpt><trkpt lat="51.6836658" lon="-0.9730616"><ele>121.0</ele><time>2026-04-12T19:28:29.363Z</time></trkpt><trkpt lat="51.6834703" lon="-0.972814"><ele>119.5</ele><time>2026-04-12T19:28:30.364Z</time></trkpt><trkpt lat="51.6832874" lon="-0.972571"><ele>118.0</ele><time>2026-04-12T19:28:31.364Z</time></trkpt><trkpt lat="51.6831102" lon="-0.9723354"><ele>118.0</ele><time>2026-04-12T19:28:32.364Z</time></trkpt><trkpt lat="51.6829266" lon="-0.9720839"><ele>118.0</ele><time>2026-04-12T19:28:33.364Z</time></trkpt><trkpt lat="51.6827486" lon="-0.971836"><ele>118.0</ele><time>2026-04-12T19:28:34.364Z</time></trkpt><trkpt lat="51.6825626" lon="-0.9715883"><ele>118.0</ele><time>2026-04-12T19:28:35.364Z</time></trkpt><trkpt lat="51.6823852" lon="-0.9713301"><ele>118.0</ele><time>2026-04-12T19:28:36.363Z</time></trkpt><trkpt lat="51.682211" lon="-0.9710818"><ele>118.0</ele><time>2026-04-12T19:28:37.363Z</time></trkpt><trkpt lat="51.6820394" lon="-0.970831"><ele>117.5</ele><time>2026-04-12T19:28:38.363Z</time></trkpt><trkpt lat="51.681868" lon="-0.9705708"><ele>117.0</ele><time>2026-04-12T19:28:39.363Z</time></trkpt><trkpt lat="51.6816923" lon="-0.9703082"><ele>117.0</ele><time>2026-04-12T19:28:40.363Z</time></trkpt><trkpt lat="51.6815129" lon="-0.9700457"><ele>117.0</ele><time>2026-04-12T19:28:41.363Z</time></trkpt><trkpt lat="51.681329" lon="-0.9697832"><ele>116.5</ele><time>2026-04-12T19:28:42.364Z</time></trkpt><trkpt lat="51.6811544" lon="-0.9695258"><ele>116.0</ele><time>2026-04-12T19:28:43.364Z</time></trkpt><trkpt lat="51.6809774" lon="-0.9692694"><ele>118.0</ele><time>2026-04-12T19:28:44.364Z</time></trkpt><trkpt lat="51.6807972" lon="-0.9690144"><ele>120.0</ele><time>2026-04-12T19:28:45.364Z</time></trkpt><trkpt lat="51.6806196" lon="-0.9687635"><ele>120.0</ele><time>2026-04-12T19:28:46.363Z</time></trkpt><trkpt lat="51.6804457" lon="-0.9685015"><ele>120.0</ele><time>2026-04-12T19:28:47.363Z</time></trkpt><trkpt lat="51.680264" lon="-0.9682281"><ele>118.0</ele><time>2026-04-12T19:28:48.364Z</time></trkpt><trkpt lat="51.6800736" lon="-0.9679577"><ele>116.0</ele><time>2026-04-12T19:28:49.364Z</time></trkpt><trkpt lat="51.6798921" lon="-0.967685"><ele>115.5</ele><time>2026-04-12T19:28:50.364Z</time></trkpt><trkpt lat="51.6797094" lon="-0.9674256"><ele>115.0</ele><time>2026-04-12T19:28:51.364Z</time></trkpt><trkpt lat="51.6795294" lon="-0.9671598"><ele>115.0</ele><time>2026-04-12T19:28:52.364Z</time></trkpt><trkpt lat="51.679343" lon="-0.9669036"><ele>115.0</ele><time>2026-04-12T19:28:53.364Z</time></trkpt><trkpt lat="51.6791555" lon="-0.9666414"><ele>115.0</ele><time>2026-04-12T19:28:54.363Z</time></trkpt><trkpt lat="51.678964" lon="-0.9663882"><ele>115.0</ele><time>2026-04-12T19:28:55.364Z</time></trkpt><trkpt lat="51.6787705" lon="-0.9661287"><ele>114.5</ele><time>2026-04-12T19:28:56.363Z</time></trkpt><trkpt lat="51.6785769" lon="-0.9658889"><ele>114.0</ele><time>2026-04-12T19:28:57.364Z</time></trkpt><trkpt lat="51.678383" lon="-0.9656443"><ele>115.0</ele><time>2026-04-12T19:28:58.364Z</time></trkpt><trkpt lat="51.6781905" lon="-0.9654062"><ele>116.0</ele><time>2026-04-12T19:28:59.363Z</time></trkpt><trkpt lat="51.6779876" lon="-0.9651791"><ele>116.5</ele><time>2026-04-12T19:29:00.364Z</time></trkpt><trkpt lat="51.6777859" lon="-0.9649397"><ele>117.0</ele><time>2026-04-12T19:29:01.364Z</time></trkpt><trkpt lat="51.6775867" lon="-0.9647189"><ele>117.5</ele><time>2026-04-12T19:29:02.363Z</time></trkpt><trkpt lat="51.6773822" lon="-0.9644955"><ele>118.0</ele><time>2026-04-12T19:29:03.363Z</time></trkpt><trkpt lat="51.6771805" lon="-0.964273"><ele>118.0</ele><time>2026-04-12T19:29:04.364Z</time></trkpt><trkpt lat="51.6769698" lon="-0.9640568"><ele>118.0</ele><time>2026-04-12T19:29:05.364Z</time></trkpt><trkpt lat="51.6767566" lon="-0.9638427"><ele>118.5</ele><time>2026-04-12T19:29:06.364Z</time></trkpt><trkpt lat="51.6765416" lon="-0.9636366"><ele>119.0</ele><time>2026-04-12T19:29:07.364Z</time></trkpt><trkpt lat="51.6763301" lon="-0.9634475"><ele>119.5</ele><time>2026-04-12T19:29:08.364Z</time></trkpt><trkpt lat="51.67612" lon="-0.9632523"><ele>120.0</ele><time>2026-04-12T19:29:09.364Z</time></trkpt><trkpt lat="51.6759087" lon="-0.9630646"><ele>121.0</ele><time>2026-04-12T19:29:10.363Z</time></trkpt><trkpt lat="51.6757023" lon="-0.9628807"><ele>122.0</ele><time>2026-04-12T19:29:11.364Z</time></trkpt><trkpt lat="51.6754937" lon="-0.9627011"><ele>122.0</ele><time>2026-04-12T19:29:12.363Z</time></trkpt><trkpt lat="51.6752781" lon="-0.9625313"><ele>122.0</ele><time>2026-04-12T19:29:13.364Z</time></trkpt><trkpt lat="51.6750688" lon="-0.9623643"><ele>123.5</ele><time>2026-04-12T19:29:14.364Z</time></trkpt><trkpt lat="51.6748464" lon="-0.9622058"><ele>125.0</ele><time>2026-04-12T19:29:15.364Z</time></trkpt><trkpt lat="51.6746271" lon="-0.9620444"><ele>126.0</ele><time>2026-04-12T19:29:16.364Z</time></trkpt><trkpt lat="51.6744014" lon="-0.9618809"><ele>127.0</ele><time>2026-04-12T19:29:17.363Z</time></trkpt><trkpt lat="51.6741663" lon="-0.961724"><ele>129.0</ele><time>2026-04-12T19:29:18.364Z</time></trkpt><trkpt lat="51.6739315" lon="-0.9615751"><ele>131.0</ele><time>2026-04-12T19:29:19.364Z</time></trkpt><trkpt lat="51.673702" lon="-0.9614282"><ele>132.5</ele><time>2026-04-12T19:29:20.364Z</time></trkpt><trkpt lat="51.6734757" lon="-0.9612746"><ele>134.0</ele><time>2026-04-12T19:29:21.363Z</time></trkpt><trkpt lat="51.6732372" lon="-0.9611329"><ele>134.0</ele><time>2026-04-12T19:29:22.363Z</time></trkpt><trkpt lat="51.6729988" lon="-0.9609961"><ele>134.0</ele><time>2026-04-12T19:29:23.364Z</time></trkpt><trkpt lat="51.6727515" lon="-0.9608548"><ele>135.5</ele><time>2026-04-12T19:29:24.364Z</time></trkpt><trkpt lat="51.6725" lon="-0.9607089"><ele>137.0</ele><time>2026-04-12T19:29:25.364Z</time></trkpt><trkpt lat="51.6722601" lon="-0.9605598"><ele>137.0</ele><time>2026-04-12T19:29:26.364Z</time></trkpt><trkpt lat="51.6720128" lon="-0.9604075"><ele>137.0</ele><time>2026-04-12T19:29:27.364Z</time></trkpt><trkpt lat="51.6717746" lon="-0.9602484"><ele>140.0</ele><time>2026-04-12T19:29:28.364Z</time></trkpt><trkpt lat="51.6715362" lon="-0.9600918"><ele>143.0</ele><time>2026-04-12T19:29:29.365Z</time></trkpt><trkpt lat="51.6712953" lon="-0.9599274"><ele>144.0</ele><time>2026-04-12T19:29:30.365Z</time></trkpt><trkpt lat="51.6710464" lon="-0.9597523"><ele>145.0</ele><time>2026-04-12T19:29:31.365Z</time></trkpt><trkpt lat="51.6708061" lon="-0.9595653"><ele>145.0</ele><time>2026-04-12T19:29:32.365Z</time></trkpt><trkpt lat="51.6705698" lon="-0.9593912"><ele>145.0</ele><time>2026-04-12T19:29:33.365Z</time></trkpt><trkpt lat="51.6703362" lon="-0.9591965"><ele>147.0</ele><time>2026-04-12T19:29:34.364Z</time></trkpt><trkpt lat="51.6701038" lon="-0.9589974"><ele>149.0</ele><time>2026-04-12T19:29:35.365Z</time></trkpt><trkpt lat="51.6698735" lon="-0.9587873"><ele>149.0</ele><time>2026-04-12T19:29:36.365Z</time></trkpt><trkpt lat="51.6696581" lon="-0.9585832"><ele>149.0</ele><time>2026-04-12T19:29:37.365Z</time></trkpt><trkpt lat="51.6694364" lon="-0.9583782"><ele>151.5</ele><time>2026-04-12T19:29:38.365Z</time></trkpt><trkpt lat="51.6692142" lon="-0.9581601"><ele>154.0</ele><time>2026-04-12T19:29:39.365Z</time></trkpt><trkpt lat="51.6690004" lon="-0.9579371"><ele>154.0</ele><time>2026-04-12T19:29:40.365Z</time></trkpt><trkpt lat="51.6687887" lon="-0.9577081"><ele>154.0</ele><time>2026-04-12T19:29:41.364Z</time></trkpt><trkpt lat="51.6685746" lon="-0.9574799"><ele>156.0</ele><time>2026-04-12T19:29:42.365Z</time></trkpt><trkpt lat="51.6683713" lon="-0.9572539"><ele>158.0</ele><time>2026-04-12T19:29:43.365Z</time></trkpt><trkpt lat="51.6681826" lon="-0.957022"><ele>158.0</ele><time>2026-04-12T19:29:44.364Z</time></trkpt><trkpt lat="51.6679877" lon="-0.9567905"><ele>158.0</ele><time>2026-04-12T19:29:45.365Z</time></trkpt><trkpt lat="51.6677967" lon="-0.956557"><ele>158.5</ele><time>2026-04-12T19:29:46.365Z</time></trkpt><trkpt lat="51.6676009" lon="-0.9563034"><ele>159.0</ele><time>2026-04-12T19:29:47.365Z</time></trkpt><trkpt lat="51.6674119" lon="-0.9560468"><ele>160.5</ele><time>2026-04-12T19:29:48.364Z</time></trkpt><trkpt lat="51.6672335" lon="-0.9557955"><ele>162.0</ele><time>2026-04-12T19:29:49.364Z</time></trkpt><trkpt lat="51.6670603" lon="-0.955546"><ele>163.0</ele><time>2026-04-12T19:29:50.365Z</time></trkpt><trkpt lat="51.6668861" lon="-0.9552932"><ele>164.0</ele><time>2026-04-12T19:29:51.364Z</time></trkpt><trkpt lat="51.6667115" lon="-0.9550281"><ele>166.5</ele><time>2026-04-12T19:29:52.364Z</time></trkpt><trkpt lat="51.6665418" lon="-0.9547602"><ele>169.0</ele><time>2026-04-12T19:29:53.365Z</time></trkpt><trkpt lat="51.6663605" lon="-0.9544722"><ele>171.0</ele><time>2026-04-12T19:29:54.365Z</time></trkpt><trkpt lat="51.666186" lon="-0.9541881"><ele>173.0</ele><time>2026-04-12T19:29:55.364Z</time></trkpt><trkpt lat="51.6660189" lon="-0.9539012"><ele>173.0</ele><time>2026-04-12T19:29:56.365Z</time></trkpt><trkpt lat="51.6658457" lon="-0.9535925"><ele>173.0</ele><time>2026-04-12T19:29:57.364Z</time></trkpt><trkpt lat="51.6656768" lon="-0.9532857"><ele>175.0</ele><time>2026-04-12T19:29:58.365Z</time></trkpt><trkpt lat="51.6655137" lon="-0.9529715"><ele>177.0</ele><time>2026-04-12T19:29:59.365Z</time></trkpt><trkpt lat="51.6653544" lon="-0.9526635"><ele>178.5</ele><time>2026-04-12T19:30:00.365Z</time></trkpt><trkpt lat="51.6651999" lon="-0.9523455"><ele>180.0</ele><time>2026-04-12T19:30:01.365Z</time></trkpt><trkpt lat="51.6650413" lon="-0.9520245"><ele>181.5</ele><time>2026-04-12T19:30:02.364Z</time></trkpt><trkpt lat="51.6648941" lon="-0.951697"><ele>183.0</ele><time>2026-04-12T19:30:03.365Z</time></trkpt><trkpt lat="51.6647496" lon="-0.9513795"><ele>183.0</ele><time>2026-04-12T19:30:04.365Z</time></trkpt><trkpt lat="51.6646065" lon="-0.9510557"><ele>183.0</ele><time>2026-04-12T19:30:05.365Z</time></trkpt><trkpt lat="51.6644667" lon="-0.9507336"><ele>184.0</ele><time>2026-04-12T19:30:06.364Z</time></trkpt><trkpt lat="51.6643257" lon="-0.950399"><ele>185.0</ele><time>2026-04-12T19:30:07.365Z</time></trkpt><trkpt lat="51.6641923" lon="-0.9500555"><ele>186.5</ele><time>2026-04-12T19:30:08.364Z</time></trkpt><trkpt lat="51.6640608" lon="-0.9497027"><ele>188.0</ele><time>2026-04-12T19:30:09.364Z</time></trkpt><trkpt lat="51.6639262" lon="-0.9493389"><ele>189.5</ele><time>2026-04-12T19:30:10.365Z</time></trkpt><trkpt lat="51.6637979" lon="-0.9489833"><ele>191.0</ele><time>2026-04-12T19:30:11.364Z</time></trkpt><trkpt lat="51.6636813" lon="-0.9486188"><ele>194.0</ele><time>2026-04-12T19:30:12.364Z</time></trkpt><trkpt lat="51.6635634" lon="-0.9482673"><ele>197.0</ele><time>2026-04-12T19:30:13.365Z</time></trkpt><trkpt lat="51.6634511" lon="-0.9479107"><ele>197.0</ele><time>2026-04-12T19:30:14.365Z</time></trkpt><trkpt lat="51.6633426" lon="-0.9475542"><ele>197.0</ele><time>2026-04-12T19:30:15.365Z</time></trkpt><trkpt lat="51.6632363" lon="-0.947183"><ele>199.0</ele><time>2026-04-12T19:30:16.365Z</time></trkpt><trkpt lat="51.6631335" lon="-0.946816"><ele>201.0</ele><time>2026-04-12T19:30:17.365Z</time></trkpt><trkpt lat="51.6630327" lon="-0.9464374"><ele>203.5</ele><time>2026-04-12T19:30:18.365Z</time></trkpt><trkpt lat="51.6629391" lon="-0.9460591"><ele>206.0</ele><time>2026-04-12T19:30:19.364Z</time></trkpt><trkpt lat="51.6628425" lon="-0.9456745"><ele>215.0</ele><time>2026-04-12T19:30:20.365Z</time></trkpt><trkpt lat="51.6627558" lon="-0.9452701"><ele>224.0</ele><time>2026-04-12T19:30:21.364Z</time></trkpt><trkpt lat="51.662665" lon="-0.9448643"><ele>224.0</ele><time>2026-04-12T19:30:22.365Z</time></trkpt><trkpt lat="51.6625836" lon="-0.9444574"><ele>224.0</ele><time>2026-04-12T19:30:23.365Z</time></trkpt><trkpt lat="51.6625067" lon="-0.9440624"><ele>226.0</ele><time>2026-04-12T19:30:24.365Z</time></trkpt><trkpt lat="51.6624311" lon="-0.9436827"><ele>228.0</ele><time>2026-04-12T19:30:25.365Z</time></trkpt><trkpt lat="51.6623665" lon="-0.9432925"><ele>230.0</ele><time>2026-04-12T19:30:26.365Z</time></trkpt><trkpt lat="51.6623003" lon="-0.9428913"><ele>232.0</ele><time>2026-04-12T19:30:27.364Z</time></trkpt><trkpt lat="51.6622343" lon="-0.9424869"><ele>232.5</ele><time>2026-04-12T19:30:28.365Z</time></trkpt><trkpt lat="51.6621715" lon="-0.942082"><ele>233.0</ele><time>2026-04-12T19:30:29.365Z</time></trkpt><trkpt lat="51.6621192" lon="-0.9416828"><ele>236.0</ele><time>2026-04-12T19:30:30.365Z</time></trkpt><trkpt lat="51.66208" lon="-0.9412849"><ele>239.0</ele><time>2026-04-12T19:30:31.364Z</time></trkpt><trkpt lat="51.6620407" lon="-0.9408871"><ele>241.0</ele><time>2026-04-12T19:30:32.364Z</time></trkpt><trkpt lat="51.6620041" lon="-0.9404834"><ele>243.0</ele><time>2026-04-12T19:30:33.365Z</time></trkpt><trkpt lat="51.6619656" lon="-0.9400777"><ele>241.0</ele><time>2026-04-12T19:30:34.364Z</time></trkpt><trkpt lat="51.6619285" lon="-0.9396482"><ele>239.0</ele><time>2026-04-12T19:30:35.364Z</time></trkpt><trkpt lat="51.6618968" lon="-0.9392268"><ele>239.0</ele><time>2026-04-12T19:30:36.365Z</time></trkpt><trkpt lat="51.6618693" lon="-0.9388121"><ele>239.0</ele><time>2026-04-12T19:30:37.365Z</time></trkpt><trkpt lat="51.6618528" lon="-0.9383972"><ele>238.0</ele><time>2026-04-12T19:30:38.364Z</time></trkpt><trkpt lat="51.6618328" lon="-0.9379887"><ele>237.0</ele><time>2026-04-12T19:30:39.365Z</time></trkpt><trkpt lat="51.661819" lon="-0.9375856"><ele>235.5</ele><time>2026-04-12T19:30:40.365Z</time></trkpt><trkpt lat="51.66182" lon="-0.9371719"><ele>234.0</ele><time>2026-04-12T19:30:41.365Z</time></trkpt><trkpt lat="51.6618177" lon="-0.936767"><ele>235.0</ele><time>2026-04-12T19:30:42.365Z</time></trkpt><trkpt lat="51.6618194" lon="-0.9363569"><ele>236.0</ele><time>2026-04-12T19:30:43.365Z</time></trkpt><trkpt lat="51.6618163" lon="-0.9359159"><ele>237.5</ele><time>2026-04-12T19:30:44.366Z</time></trkpt><trkpt lat="51.6618265" lon="-0.9354853"><ele>239.0</ele><time>2026-04-12T19:30:45.366Z</time></trkpt><trkpt lat="51.6618375" lon="-0.9350884"><ele>238.0</ele><time>2026-04-12T19:30:46.366Z</time></trkpt><trkpt lat="51.6618577" lon="-0.9347087"><ele>237.0</ele><time>2026-04-12T19:30:47.365Z</time></trkpt><trkpt lat="51.6618809" lon="-0.9343305"><ele>237.5</ele><time>2026-04-12T19:30:48.366Z</time></trkpt><trkpt lat="51.6619048" lon="-0.9339415"><ele>238.0</ele><time>2026-04-12T19:30:49.365Z</time></trkpt><trkpt lat="51.6619329" lon="-0.9335461"><ele>243.0</ele><time>2026-04-12T19:30:50.365Z</time></trkpt><trkpt lat="51.6619634" lon="-0.9331468"><ele>248.0</ele><time>2026-04-12T19:30:51.365Z</time></trkpt><trkpt lat="51.6619966" lon="-0.9327498"><ele>247.0</ele><time>2026-04-12T19:30:52.365Z</time></trkpt><trkpt lat="51.66203" lon="-0.932371"><ele>246.0</ele><time>2026-04-12T19:30:53.366Z</time></trkpt><trkpt lat="51.6620711" lon="-0.9319935"><ele>245.66666666666669</ele><time>2026-04-12T19:30:54.366Z</time></trkpt><trkpt lat="51.6621137" lon="-0.9316319"><ele>245.33333333333334</ele><time>2026-04-12T19:30:55.366Z</time></trkpt><trkpt lat="51.6621565" lon="-0.9312903"><ele>245.0</ele><time>2026-04-12T19:30:56.366Z</time></trkpt><trkpt lat="51.6622025" lon="-0.9309272"><ele>243.5</ele><time>2026-04-12T19:30:57.365Z</time></trkpt><trkpt lat="51.66225" lon="-0.9305618"><ele>242.0</ele><time>2026-04-12T19:30:58.365Z</time></trkpt><trkpt lat="51.6622925" lon="-0.9302044"><ele>239.5</ele><time>2026-04-12T19:30:59.366Z</time></trkpt><trkpt lat="51.6623415" lon="-0.9298435"><ele>237.0</ele><time>2026-04-12T19:31:00.366Z</time></trkpt><trkpt lat="51.6623826" lon="-0.9294846"><ele>234.0</ele><time>2026-04-12T19:31:01.366Z</time></trkpt><trkpt lat="51.6624311" lon="-0.9291134"><ele>231.0</ele><time>2026-04-12T19:31:02.365Z</time></trkpt><trkpt lat="51.6624712" lon="-0.9287486"><ele>230.0</ele><time>2026-04-12T19:31:03.366Z</time></trkpt><trkpt lat="51.6625167" lon="-0.928389"><ele>229.0</ele><time>2026-04-12T19:31:04.366Z</time></trkpt><trkpt lat="51.6625578" lon="-0.9280186"><ele>229.0</ele><time>2026-04-12T19:31:05.366Z</time></trkpt><trkpt lat="51.6625968" lon="-0.9276509"><ele>229.0</ele><time>2026-04-12T19:31:06.365Z</time></trkpt><trkpt lat="51.6626302" lon="-0.9272715"><ele>230.0</ele><time>2026-04-12T19:31:07.365Z</time></trkpt><trkpt lat="51.6626535" lon="-0.9268781"><ele>231.0</ele><time>2026-04-12T19:31:08.365Z</time></trkpt><trkpt lat="51.6626768" lon="-0.9264915"><ele>232.0</ele><time>2026-04-12T19:31:09.366Z</time></trkpt><trkpt lat="51.662694" lon="-0.926099"><ele>233.0</ele><time>2026-04-12T19:31:10.366Z</time></trkpt><trkpt lat="51.6627101" lon="-0.9256971"><ele>234.5</ele><time>2026-04-12T19:31:11.365Z</time></trkpt><trkpt lat="51.6627169" lon="-0.9253166"><ele>236.0</ele><time>2026-04-12T19:31:12.366Z</time></trkpt><trkpt lat="51.6627237" lon="-0.9249132"><ele>236.5</ele><time>2026-04-12T19:31:13.365Z</time></trkpt><trkpt lat="51.6627183" lon="-0.924516"><ele>237.0</ele><time>2026-04-12T19:31:14.366Z</time></trkpt><trkpt lat="51.6627138" lon="-0.9241045"><ele>237.0</ele><time>2026-04-12T19:31:15.366Z</time></trkpt><trkpt lat="51.6627006" lon="-0.9237071"><ele>237.0</ele><time>2026-04-12T19:31:16.365Z</time></trkpt><trkpt lat="51.6626871" lon="-0.9233057"><ele>237.0</ele><time>2026-04-12T19:31:17.366Z</time></trkpt><trkpt lat="51.662669" lon="-0.9228942"><ele>237.0</ele><time>2026-04-12T19:31:18.366Z</time></trkpt><trkpt lat="51.662648" lon="-0.9224922"><ele>237.0</ele><time>2026-04-12T19:31:19.366Z</time></trkpt><trkpt lat="51.662615" lon="-0.9220923"><ele>237.0</ele><time>2026-04-12T19:31:20.366Z</time></trkpt><trkpt lat="51.6625787" lon="-0.9216954"><ele>237.0</ele><time>2026-04-12T19:31:21.365Z</time></trkpt><trkpt lat="51.6625413" lon="-0.9212945"><ele>237.0</ele><time>2026-04-12T19:31:22.366Z</time></trkpt><trkpt lat="51.6624957" lon="-0.9208891"><ele>236.5</ele><time>2026-04-12T19:31:23.366Z</time></trkpt><trkpt lat="51.6624471" lon="-0.9204702"><ele>236.0</ele><time>2026-04-12T19:31:24.366Z</time></trkpt><trkpt lat="51.6623894" lon="-0.9200582"><ele>235.0</ele><time>2026-04-12T19:31:25.366Z</time></trkpt><trkpt lat="51.662326" lon="-0.9196396"><ele>234.0</ele><time>2026-04-12T19:31:26.366Z</time></trkpt><trkpt lat="51.6622496" lon="-0.9192252"><ele>233.5</ele><time>2026-04-12T19:31:27.366Z</time></trkpt><trkpt lat="51.6621782" lon="-0.9188182"><ele>233.0</ele><time>2026-04-12T19:31:28.366Z</time></trkpt><trkpt lat="51.6620951" lon="-0.9184024"><ele>233.0</ele><time>2026-04-12T19:31:29.365Z</time></trkpt><trkpt lat="51.6620109" lon="-0.9179953"><ele>233.0</ele><time>2026-04-12T19:31:30.366Z</time></trkpt><trkpt lat="51.6619294" lon="-0.917596"><ele>233.5</ele><time>2026-04-12T19:31:31.366Z</time></trkpt><trkpt lat="51.6618351" lon="-0.9171991"><ele>234.0</ele><time>2026-04-12T19:31:32.366Z</time></trkpt><trkpt lat="51.6617357" lon="-0.9167943"><ele>233.5</ele><time>2026-04-12T19:31:33.366Z</time></trkpt><trkpt lat="51.6616326" lon="-0.9163988"><ele>233.0</ele><time>2026-04-12T19:31:34.365Z</time></trkpt><trkpt lat="51.6615278" lon="-0.9159952"><ele>232.0</ele><time>2026-04-12T19:31:35.366Z</time></trkpt><trkpt lat="51.6614156" lon="-0.915598"><ele>231.0</ele><time>2026-04-12T19:31:36.365Z</time></trkpt><trkpt lat="51.6612988" lon="-0.9151807"><ele>231.0</ele><time>2026-04-12T19:31:37.366Z</time></trkpt><trkpt lat="51.6611809" lon="-0.9147692"><ele>231.0</ele><time>2026-04-12T19:31:38.365Z</time></trkpt><trkpt lat="51.6610603" lon="-0.9143558"><ele>231.5</ele><time>2026-04-12T19:31:39.366Z</time></trkpt><trkpt lat="51.6609461" lon="-0.9139431"><ele>232.0</ele><time>2026-04-12T19:31:40.365Z</time></trkpt><trkpt lat="51.6608249" lon="-0.9135304"><ele>231.5</ele><time>2026-04-12T19:31:41.366Z</time></trkpt><trkpt lat="51.6607064" lon="-0.913108"><ele>231.0</ele><time>2026-04-12T19:31:42.366Z</time></trkpt><trkpt lat="51.6605863" lon="-0.9126806"><ele>231.0</ele><time>2026-04-12T19:31:43.366Z</time></trkpt><trkpt lat="51.6604666" lon="-0.912261"><ele>231.0</ele><time>2026-04-12T19:31:44.366Z</time></trkpt><trkpt lat="51.6603458" lon="-0.9118539"><ele>231.0</ele><time>2026-04-12T19:31:45.366Z</time></trkpt><trkpt lat="51.660235" lon="-0.9114394"><ele>231.0</ele><time>2026-04-12T19:31:46.365Z</time></trkpt><trkpt lat="51.6601217" lon="-0.9110317"><ele>230.0</ele><time>2026-04-12T19:31:47.366Z</time></trkpt><trkpt lat="51.6600013" lon="-0.9106214"><ele>229.0</ele><time>2026-04-12T19:31:48.366Z</time></trkpt><trkpt lat="51.6598858" lon="-0.9102167"><ele>228.5</ele><time>2026-04-12T19:31:49.366Z</time></trkpt><trkpt lat="51.6597649" lon="-0.9098067"><ele>228.0</ele><time>2026-04-12T19:31:50.366Z</time></trkpt><trkpt lat="51.6596468" lon="-0.9093957"><ele>228.0</ele><time>2026-04-12T19:31:51.366Z</time></trkpt><trkpt lat="51.6595279" lon="-0.908985"><ele>228.0</ele><time>2026-04-12T19:31:52.366Z</time></trkpt><trkpt lat="51.6594086" lon="-0.9085733"><ele>227.5</ele><time>2026-04-12T19:31:53.366Z</time></trkpt><trkpt lat="51.6592888" lon="-0.9081459"><ele>227.0</ele><time>2026-04-12T19:31:54.365Z</time></trkpt><trkpt lat="51.6591719" lon="-0.9077295"><ele>226.5</ele><time>2026-04-12T19:31:55.365Z</time></trkpt><trkpt lat="51.6590624" lon="-0.9073166"><ele>226.0</ele><time>2026-04-12T19:31:56.366Z</time></trkpt><trkpt lat="51.6589449" lon="-0.9069118"><ele>225.5</ele><time>2026-04-12T19:31:57.367Z</time></trkpt><trkpt lat="51.6588282" lon="-0.9065012"><ele>225.0</ele><time>2026-04-12T19:31:58.367Z</time></trkpt><trkpt lat="51.6587174" lon="-0.9061023"><ele>225.0</ele><time>2026-04-12T19:31:59.366Z</time></trkpt><trkpt lat="51.6585998" lon="-0.9057124"><ele>225.0</ele><time>2026-04-12T19:32:00.367Z</time></trkpt><trkpt lat="51.6584831" lon="-0.9053234"><ele>224.5</ele><time>2026-04-12T19:32:01.367Z</time></trkpt><trkpt lat="51.6583646" lon="-0.9049312"><ele>224.0</ele><time>2026-04-12T19:32:02.367Z</time></trkpt><trkpt lat="51.6582407" lon="-0.9045464"><ele>222.5</ele><time>2026-04-12T19:32:03.366Z</time></trkpt><trkpt lat="51.6581136" lon="-0.9041622"><ele>221.0</ele><time>2026-04-12T19:32:04.366Z</time></trkpt><trkpt lat="51.6579809" lon="-0.9037888"><ele>221.0</ele><time>2026-04-12T19:32:05.367Z</time></trkpt><trkpt lat="51.6578424" lon="-0.9034146"><ele>221.0</ele><time>2026-04-12T19:32:06.366Z</time></trkpt><trkpt lat="51.6577092" lon="-0.9030495"><ele>220.5</ele><time>2026-04-12T19:32:07.367Z</time></trkpt><trkpt lat="51.6575734" lon="-0.9027101"><ele>220.0</ele><time>2026-04-12T19:32:08.366Z</time></trkpt><trkpt lat="51.6574409" lon="-0.9023769"><ele>220.0</ele><time>2026-04-12T19:32:09.366Z</time></trkpt><trkpt lat="51.6573058" lon="-0.902045"><ele>220.0</ele><time>2026-04-12T19:32:10.367Z</time></trkpt><trkpt lat="51.6571619" lon="-0.9017139"><ele>221.0</ele><time>2026-04-12T19:32:11.366Z</time></trkpt><trkpt lat="51.6570149" lon="-0.9013806"><ele>222.0</ele><time>2026-04-12T19:32:12.366Z</time></trkpt><trkpt lat="51.6568583" lon="-0.9010493"><ele>220.5</ele><time>2026-04-12T19:32:13.366Z</time></trkpt><trkpt lat="51.6566944" lon="-0.9007075"><ele>219.0</ele><time>2026-04-12T19:32:14.367Z</time></trkpt><trkpt lat="51.6565242" lon="-0.9003579"><ele>220.0</ele><time>2026-04-12T19:32:15.366Z</time></trkpt><trkpt lat="51.6563553" lon="-0.9000309"><ele>221.0</ele><time>2026-04-12T19:32:16.367Z</time></trkpt><trkpt lat="51.6561781" lon="-0.8997002"><ele>221.5</ele><time>2026-04-12T19:32:17.366Z</time></trkpt><trkpt lat="51.6560062" lon="-0.8993796"><ele>222.0</ele><time>2026-04-12T19:32:18.366Z</time></trkpt><trkpt lat="51.6558231" lon="-0.8990591"><ele>222.0</ele><time>2026-04-12T19:32:19.366Z</time></trkpt><trkpt lat="51.6556364" lon="-0.8987342"><ele>222.0</ele><time>2026-04-12T19:32:20.366Z</time></trkpt><trkpt lat="51.65544" lon="-0.8984217"><ele>221.5</ele><time>2026-04-12T19:32:21.366Z</time></trkpt><trkpt lat="51.6552456" lon="-0.8981233"><ele>221.0</ele><time>2026-04-12T19:32:22.367Z</time></trkpt><trkpt lat="51.6550491" lon="-0.8978285"><ele>222.0</ele><time>2026-04-12T19:32:23.367Z</time></trkpt><trkpt lat="51.6548498" lon="-0.8975291"><ele>223.0</ele><time>2026-04-12T19:32:24.366Z</time></trkpt><trkpt lat="51.6546441" lon="-0.8972368"><ele>222.5</ele><time>2026-04-12T19:32:25.366Z</time></trkpt><trkpt lat="51.654431" lon="-0.8969477"><ele>222.0</ele><time>2026-04-12T19:32:26.367Z</time></trkpt><trkpt lat="51.654221" lon="-0.896662"><ele>221.5</ele><time>2026-04-12T19:32:27.367Z</time></trkpt><trkpt lat="51.6540069" lon="-0.8963835"><ele>221.0</ele><time>2026-04-12T19:32:28.366Z</time></trkpt><trkpt lat="51.6537885" lon="-0.8961106"><ele>220.5</ele><time>2026-04-12T19:32:29.367Z</time></trkpt><trkpt lat="51.653564" lon="-0.895841"><ele>220.0</ele><time>2026-04-12T19:32:30.366Z</time></trkpt><trkpt lat="51.6533338" lon="-0.8955782"><ele>220.0</ele><time>2026-04-12T19:32:31.367Z</time></trkpt><trkpt lat="51.6530986" lon="-0.8953206"><ele>220.0</ele><time>2026-04-12T19:32:32.366Z</time></trkpt><trkpt lat="51.6528655" lon="-0.8950825"><ele>220.0</ele><time>2026-04-12T19:32:33.367Z</time></trkpt><trkpt lat="51.6526461" lon="-0.8948605"><ele>220.0</ele><time>2026-04-12T19:32:34.367Z</time></trkpt><trkpt lat="51.6524187" lon="-0.8946297"><ele>220.0</ele><time>2026-04-12T19:32:35.367Z</time></trkpt><trkpt lat="51.6521834" lon="-0.8944049"><ele>220.0</ele><time>2026-04-12T19:32:36.367Z</time></trkpt><trkpt lat="51.6519488" lon="-0.8942024"><ele>220.0</ele><time>2026-04-12T19:32:37.367Z</time></trkpt><trkpt lat="51.6517157" lon="-0.8939903"><ele>220.0</ele><time>2026-04-12T19:32:38.367Z</time></trkpt><trkpt lat="51.6514749" lon="-0.8937755"><ele>220.0</ele><time>2026-04-12T19:32:39.367Z</time></trkpt><trkpt lat="51.6512222" lon="-0.8935788"><ele>220.0</ele><time>2026-04-12T19:32:40.366Z</time></trkpt><trkpt lat="51.650973" lon="-0.893387"><ele>219.5</ele><time>2026-04-12T19:32:41.366Z</time></trkpt><trkpt lat="51.6507332" lon="-0.893202"><ele>219.0</ele><time>2026-04-12T19:32:42.367Z</time></trkpt><trkpt lat="51.6504903" lon="-0.8930277"><ele>218.5</ele><time>2026-04-12T19:32:43.367Z</time></trkpt><trkpt lat="51.6502468" lon="-0.8928652"><ele>218.0</ele><time>2026-04-12T19:32:44.366Z</time></trkpt><trkpt lat="51.6500002" lon="-0.8927181"><ele>218.0</ele><time>2026-04-12T19:32:45.366Z</time></trkpt><trkpt lat="51.6497566" lon="-0.8925772"><ele>218.0</ele><time>2026-04-12T19:32:46.366Z</time></trkpt><trkpt lat="51.6495064" lon="-0.8924252"><ele>218.5</ele><time>2026-04-12T19:32:47.367Z</time></trkpt><trkpt lat="51.6492496" lon="-0.8922728"><ele>219.0</ele><time>2026-04-12T19:32:48.366Z</time></trkpt><trkpt lat="51.648999" lon="-0.8921316"><ele>219.0</ele><time>2026-04-12T19:32:49.367Z</time></trkpt><trkpt lat="51.6487439" lon="-0.8919831"><ele>219.0</ele><time>2026-04-12T19:32:50.366Z</time></trkpt><trkpt lat="51.6484887" lon="-0.8918193"><ele>220.0</ele><time>2026-04-12T19:32:51.367Z</time></trkpt><trkpt lat="51.6482311" lon="-0.8916691"><ele>221.0</ele><time>2026-04-12T19:32:52.366Z</time></trkpt><trkpt lat="51.6479651" lon="-0.891513"><ele>219.5</ele><time>2026-04-12T19:32:53.366Z</time></trkpt><trkpt lat="51.6476934" lon="-0.8913493"><ele>218.0</ele><time>2026-04-12T19:32:54.366Z</time></trkpt><trkpt lat="51.6474193" lon="-0.8911882"><ele>218.0</ele><time>2026-04-12T19:32:55.366Z</time></trkpt><trkpt lat="51.6471623" lon="-0.891009"><ele>218.0</ele><time>2026-04-12T19:32:56.366Z</time></trkpt><trkpt lat="51.6468884" lon="-0.8908544"><ele>216.0</ele><time>2026-04-12T19:32:57.366Z</time></trkpt><trkpt lat="51.6466137" lon="-0.8906766"><ele>214.0</ele><time>2026-04-12T19:32:58.366Z</time></trkpt><trkpt lat="51.646343" lon="-0.8905034"><ele>214.0</ele><time>2026-04-12T19:32:59.367Z</time></trkpt><trkpt lat="51.6460737" lon="-0.8903113"><ele>214.0</ele><time>2026-04-12T19:33:00.367Z</time></trkpt><trkpt lat="51.6458088" lon="-0.8901332"><ele>213.5</ele><time>2026-04-12T19:33:01.366Z</time></trkpt><trkpt lat="51.6455428" lon="-0.8899537"><ele>213.0</ele><time>2026-04-12T19:33:02.367Z</time></trkpt><trkpt lat="51.6452739" lon="-0.8897841"><ele>212.5</ele><time>2026-04-12T19:33:03.367Z</time></trkpt><trkpt lat="51.6450104" lon="-0.8895938"><ele>212.0</ele><time>2026-04-12T19:33:04.366Z</time></trkpt><trkpt lat="51.6447485" lon="-0.889425"><ele>211.5</ele><time>2026-04-12T19:33:05.367Z</time></trkpt><trkpt lat="51.644495" lon="-0.8892422"><ele>211.0</ele><time>2026-04-12T19:33:06.366Z</time></trkpt><trkpt lat="51.6442482" lon="-0.8890642"><ele>211.0</ele><time>2026-04-12T19:33:07.367Z</time></trkpt><trkpt lat="51.6439891" lon="-0.8888886"><ele>211.0</ele><time>2026-04-12T19:33:08.367Z</time></trkpt><trkpt lat="51.6437388" lon="-0.8887033"><ele>211.0</ele><time>2026-04-12T19:33:09.366Z</time></trkpt><trkpt lat="51.6434952" lon="-0.8885186"><ele>211.0</ele><time>2026-04-12T19:33:10.367Z</time></trkpt><trkpt lat="51.6432396" lon="-0.8883387"><ele>210.0</ele><time>2026-04-12T19:33:11.367Z</time></trkpt><trkpt lat="51.6429987" lon="-0.888146"><ele>209.0</ele><time>2026-04-12T19:33:12.368Z</time></trkpt><trkpt lat="51.6427426" lon="-0.8879606"><ele>208.5</ele><time>2026-04-12T19:33:13.367Z</time></trkpt><trkpt lat="51.6424966" lon="-0.8877682"><ele>208.0</ele><time>2026-04-12T19:33:14.367Z</time></trkpt><trkpt lat="51.6422572" lon="-0.8875782"><ele>207.5</ele><time>2026-04-12T19:33:15.368Z</time></trkpt><trkpt lat="51.6420131" lon="-0.8873884"><ele>207.0</ele><time>2026-04-12T19:33:16.368Z</time></trkpt><trkpt lat="51.6417563" lon="-0.8871903"><ele>207.0</ele><time>2026-04-12T19:33:17.368Z</time></trkpt><trkpt lat="51.6415011" lon="-0.8869797"><ele>207.0</ele><time>2026-04-12T19:33:18.368Z</time></trkpt><trkpt lat="51.6412398" lon="-0.8867796"><ele>205.5</ele><time>2026-04-12T19:33:19.368Z</time></trkpt><trkpt lat="51.6409886" lon="-0.8865734"><ele>204.0</ele><time>2026-04-12T19:33:20.367Z</time></trkpt><trkpt lat="51.6407393" lon="-0.8863651"><ele>204.0</ele><time>2026-04-12T19:33:21.367Z</time></trkpt><trkpt lat="51.6404873" lon="-0.8861519"><ele>204.0</ele><time>2026-04-12T19:33:22.367Z</time></trkpt><trkpt lat="51.6402292" lon="-0.8859276"><ele>203.5</ele><time>2026-04-12T19:33:23.367Z</time></trkpt><trkpt lat="51.6399618" lon="-0.8857147"><ele>203.0</ele><time>2026-04-12T19:33:24.367Z</time></trkpt><trkpt lat="51.6397005" lon="-0.8854926"><ele>201.5</ele><time>2026-04-12T19:33:25.367Z</time></trkpt><trkpt lat="51.6394329" lon="-0.8852643"><ele>200.0</ele><time>2026-04-12T19:33:26.367Z</time></trkpt><trkpt lat="51.6391696" lon="-0.8850364"><ele>200.0</ele><time>2026-04-12T19:33:27.368Z</time></trkpt><trkpt lat="51.6389213" lon="-0.8847841"><ele>200.0</ele><time>2026-04-12T19:33:28.368Z</time></trkpt><trkpt lat="51.6386691" lon="-0.8845363"><ele>197.5</ele><time>2026-04-12T19:33:29.367Z</time></trkpt><trkpt lat="51.6384233" lon="-0.8842859"><ele>195.0</ele><time>2026-04-12T19:33:30.368Z</time></trkpt><trkpt lat="51.6381712" lon="-0.8840409"><ele>195.0</ele><time>2026-04-12T19:33:31.368Z</time></trkpt><trkpt lat="51.6379314" lon="-0.8837991"><ele>195.0</ele><time>2026-04-12T19:33:32.367Z</time></trkpt><trkpt lat="51.6377001" lon="-0.8835509"><ele>193.0</ele><time>2026-04-12T19:33:33.368Z</time></trkpt><trkpt lat="51.6374739" lon="-0.8833095"><ele>191.0</ele><time>2026-04-12T19:33:34.367Z</time></trkpt><trkpt lat="51.6372473" lon="-0.8830622"><ele>191.0</ele><time>2026-04-12T19:33:35.368Z</time></trkpt><trkpt lat="51.6370157" lon="-0.8828099"><ele>191.0</ele><time>2026-04-12T19:33:36.367Z</time></trkpt><trkpt lat="51.6367868" lon="-0.8825495"><ele>190.0</ele><time>2026-04-12T19:33:37.368Z</time></trkpt><trkpt lat="51.6365582" lon="-0.8822788"><ele>189.0</ele><time>2026-04-12T19:33:38.367Z</time></trkpt><trkpt lat="51.6363391" lon="-0.8820085"><ele>188.5</ele><time>2026-04-12T19:33:39.367Z</time></trkpt><trkpt lat="51.636112" lon="-0.8817422"><ele>188.0</ele><time>2026-04-12T19:33:40.368Z</time></trkpt><trkpt lat="51.6358922" lon="-0.8814721"><ele>188.0</ele><time>2026-04-12T19:33:41.368Z</time></trkpt><trkpt lat="51.6356783" lon="-0.881196"><ele>188.0</ele><time>2026-04-12T19:33:42.368Z</time></trkpt><trkpt lat="51.6354574" lon="-0.8809072"><ele>187.5</ele><time>2026-04-12T19:33:43.367Z</time></trkpt><trkpt lat="51.6352393" lon="-0.8806166"><ele>187.0</ele><time>2026-04-12T19:33:44.368Z</time></trkpt><trkpt lat="51.6350231" lon="-0.880329"><ele>186.0</ele><time>2026-04-12T19:33:45.368Z</time></trkpt><trkpt lat="51.634803" lon="-0.8800486"><ele>185.0</ele><time>2026-04-12T19:33:46.368Z</time></trkpt><trkpt lat="51.6345968" lon="-0.8797364"><ele>184.0</ele><time>2026-04-12T19:33:47.368Z</time></trkpt><trkpt lat="51.6343936" lon="-0.8794295"><ele>183.0</ele><time>2026-04-12T19:33:48.367Z</time></trkpt><trkpt lat="51.6341912" lon="-0.8791291"><ele>183.0</ele><time>2026-04-12T19:33:49.368Z</time></trkpt><trkpt lat="51.6339897" lon="-0.8788236"><ele>183.0</ele><time>2026-04-12T19:33:50.368Z</time></trkpt><trkpt lat="51.6337859" lon="-0.8785086"><ele>183.5</ele><time>2026-04-12T19:33:51.368Z</time></trkpt><trkpt lat="51.6335832" lon="-0.8781912"><ele>184.0</ele><time>2026-04-12T19:33:52.368Z</time></trkpt><trkpt lat="51.6333846" lon="-0.8778657"><ele>180.0</ele><time>2026-04-12T19:33:53.367Z</time></trkpt><trkpt lat="51.6331792" lon="-0.8775448"><ele>176.0</ele><time>2026-04-12T19:33:54.367Z</time></trkpt><trkpt lat="51.6329803" lon="-0.8772104"><ele>178.5</ele><time>2026-04-12T19:33:55.368Z</time></trkpt><trkpt lat="51.6327881" lon="-0.8768752"><ele>181.0</ele><time>2026-04-12T19:33:56.367Z</time></trkpt><trkpt lat="51.6325941" lon="-0.8765382"><ele>181.0</ele><time>2026-04-12T19:33:57.367Z</time></trkpt><trkpt lat="51.6324072" lon="-0.8761869"><ele>181.0</ele><time>2026-04-12T19:33:58.367Z</time></trkpt><trkpt lat="51.6322144" lon="-0.8758308"><ele>180.5</ele><time>2026-04-12T19:33:59.367Z</time></trkpt><trkpt lat="51.6320318" lon="-0.8754787"><ele>180.0</ele><time>2026-04-12T19:34:00.368Z</time></trkpt><trkpt lat="51.6318405" lon="-0.8751254"><ele>180.5</ele><time>2026-04-12T19:34:01.368Z</time></trkpt><trkpt lat="51.6316497" lon="-0.874755"><ele>181.0</ele><time>2026-04-12T19:34:02.368Z</time></trkpt><trkpt lat="51.6314585" lon="-0.8743917"><ele>183.0</ele><time>2026-04-12T19:34:03.368Z</time></trkpt><trkpt lat="51.631283" lon="-0.8740152"><ele>185.0</ele><time>2026-04-12T19:34:04.367Z</time></trkpt><trkpt lat="51.6311059" lon="-0.8736475"><ele>181.0</ele><time>2026-04-12T19:34:05.368Z</time></trkpt><trkpt lat="51.6309356" lon="-0.8732668"><ele>177.0</ele><time>2026-04-12T19:34:06.367Z</time></trkpt><trkpt lat="51.6307597" lon="-0.8728794"><ele>174.0</ele><time>2026-04-12T19:34:07.368Z</time></trkpt><trkpt lat="51.6305857" lon="-0.8724984"><ele>171.0</ele><time>2026-04-12T19:34:08.368Z</time></trkpt><trkpt lat="51.6304191" lon="-0.8721202"><ele>175.5</ele><time>2026-04-12T19:34:09.368Z</time></trkpt><trkpt lat="51.630254" lon="-0.8717558"><ele>180.0</ele><time>2026-04-12T19:34:10.367Z</time></trkpt><trkpt lat="51.6300982" lon="-0.8713797"><ele>180.0</ele><time>2026-04-12T19:34:11.368Z</time></trkpt><trkpt lat="51.6299476" lon="-0.870996"><ele>180.0</ele><time>2026-04-12T19:34:12.368Z</time></trkpt><trkpt lat="51.6297917" lon="-0.8706131"><ele>180.5</ele><time>2026-04-12T19:34:13.368Z</time></trkpt><trkpt lat="51.6296476" lon="-0.8702251"><ele>181.0</ele><time>2026-04-12T19:34:14.368Z</time></trkpt><trkpt lat="51.6295037" lon="-0.8698314"><ele>182.0</ele><time>2026-04-12T19:34:15.368Z</time></trkpt><trkpt lat="51.6293521" lon="-0.8694309"><ele>183.0</ele><time>2026-04-12T19:34:16.367Z</time></trkpt><trkpt lat="51.6292074" lon="-0.8690474"><ele>183.0</ele><time>2026-04-12T19:34:17.367Z</time></trkpt><trkpt lat="51.6290765" lon="-0.8686686"><ele>183.0</ele><time>2026-04-12T19:34:18.367Z</time></trkpt><trkpt lat="51.6289381" lon="-0.8682909"><ele>182.0</ele><time>2026-04-12T19:34:19.368Z</time></trkpt><trkpt lat="51.6288009" lon="-0.8679031"><ele>181.0</ele><time>2026-04-12T19:34:20.368Z</time></trkpt><trkpt lat="51.6286747" lon="-0.8675207"><ele>181.0</ele><time>2026-04-12T19:34:21.368Z</time></trkpt><trkpt lat="51.6285517" lon="-0.8671275"><ele>181.0</ele><time>2026-04-12T19:34:22.368Z</time></trkpt><trkpt lat="51.6284357" lon="-0.866725"><ele>179.0</ele><time>2026-04-12T19:34:23.367Z</time></trkpt><trkpt lat="51.6283173" lon="-0.8663381"><ele>177.0</ele><time>2026-04-12T19:34:24.368Z</time></trkpt><trkpt lat="51.6281998" lon="-0.865947"><ele>175.0</ele><time>2026-04-12T19:34:25.367Z</time></trkpt><trkpt lat="51.6280896" lon="-0.8655568"><ele>173.0</ele><time>2026-04-12T19:34:26.368Z</time></trkpt><trkpt lat="51.6279782" lon="-0.8651566"><ele>172.5</ele><time>2026-04-12T19:34:27.369Z</time></trkpt><trkpt lat="51.6278761" lon="-0.864761"><ele>172.0</ele><time>2026-04-12T19:34:28.369Z</time></trkpt><trkpt lat="51.6277809" lon="-0.8643628"><ele>175.0</ele><time>2026-04-12T19:34:29.368Z</time></trkpt><trkpt lat="51.6276873" lon="-0.8639529"><ele>178.0</ele><time>2026-04-12T19:34:30.369Z</time></trkpt><trkpt lat="51.6276057" lon="-0.8635451"><ele>179.5</ele><time>2026-04-12T19:34:31.368Z</time></trkpt><trkpt lat="51.6275298" lon="-0.8631502"><ele>181.0</ele><time>2026-04-12T19:34:32.369Z</time></trkpt><trkpt lat="51.6274606" lon="-0.8627451"><ele>181.5</ele><time>2026-04-12T19:34:33.369Z</time></trkpt><trkpt lat="51.6273886" lon="-0.8623478"><ele>182.0</ele><time>2026-04-12T19:34:34.369Z</time></trkpt><trkpt lat="51.627315" lon="-0.8619354"><ele>182.5</ele><time>2026-04-12T19:34:35.368Z</time></trkpt><trkpt lat="51.6272551" lon="-0.8615305"><ele>183.0</ele><time>2026-04-12T19:34:36.369Z</time></trkpt><trkpt lat="51.6272035" lon="-0.8611246"><ele>183.5</ele><time>2026-04-12T19:34:37.369Z</time></trkpt><trkpt lat="51.6271536" lon="-0.8607139"><ele>184.0</ele><time>2026-04-12T19:34:38.369Z</time></trkpt><trkpt lat="51.6271077" lon="-0.8602973"><ele>185.0</ele><time>2026-04-12T19:34:39.368Z</time></trkpt><trkpt lat="51.6270661" lon="-0.8598929"><ele>186.0</ele><time>2026-04-12T19:34:40.369Z</time></trkpt><trkpt lat="51.6270314" lon="-0.8594782"><ele>186.5</ele><time>2026-04-12T19:34:41.369Z</time></trkpt><trkpt lat="51.6270071" lon="-0.859061"><ele>187.0</ele><time>2026-04-12T19:34:42.369Z</time></trkpt><trkpt lat="51.6269808" lon="-0.8586521"><ele>187.0</ele><time>2026-04-12T19:34:43.368Z</time></trkpt><trkpt lat="51.6269626" lon="-0.8582491"><ele>187.0</ele><time>2026-04-12T19:34:44.368Z</time></trkpt><trkpt lat="51.6269429" lon="-0.857833"><ele>188.0</ele><time>2026-04-12T19:34:45.368Z</time></trkpt><trkpt lat="51.6269356" lon="-0.8574078"><ele>189.0</ele><time>2026-04-12T19:34:46.368Z</time></trkpt><trkpt lat="51.626929" lon="-0.8569983"><ele>190.5</ele><time>2026-04-12T19:34:47.369Z</time></trkpt><trkpt lat="51.626933" lon="-0.8565749"><ele>192.0</ele><time>2026-04-12T19:34:48.369Z</time></trkpt><trkpt lat="51.6269363" lon="-0.8561568"><ele>193.0</ele><time>2026-04-12T19:34:49.369Z</time></trkpt><trkpt lat="51.626952" lon="-0.8557178"><ele>194.0</ele><time>2026-04-12T19:34:50.369Z</time></trkpt><trkpt lat="51.6269635" lon="-0.8552591"><ele>195.5</ele><time>2026-04-12T19:34:51.368Z</time></trkpt><trkpt lat="51.6269815" lon="-0.8547965"><ele>197.0</ele><time>2026-04-12T19:34:52.368Z</time></trkpt><trkpt lat="51.6270095" lon="-0.8543487"><ele>196.5</ele><time>2026-04-12T19:34:53.369Z</time></trkpt><trkpt lat="51.6270403" lon="-0.8538887"><ele>196.0</ele><time>2026-04-12T19:34:54.368Z</time></trkpt><trkpt lat="51.6270726" lon="-0.8534234"><ele>195.5</ele><time>2026-04-12T19:34:55.369Z</time></trkpt><trkpt lat="51.6271025" lon="-0.8529555"><ele>195.0</ele><time>2026-04-12T19:34:56.368Z</time></trkpt><trkpt lat="51.6271361" lon="-0.8524771"><ele>194.0</ele><time>2026-04-12T19:34:57.368Z</time></trkpt><trkpt lat="51.6271653" lon="-0.8520191"><ele>193.0</ele><time>2026-04-12T19:34:58.368Z</time></trkpt><trkpt lat="51.6271836" lon="-0.8515546"><ele>192.0</ele><time>2026-04-12T19:34:59.368Z</time></trkpt><trkpt lat="51.6272019" lon="-0.8510905"><ele>191.0</ele><time>2026-04-12T19:35:00.369Z</time></trkpt><trkpt lat="51.6272005" lon="-0.8506278"><ele>190.0</ele><time>2026-04-12T19:35:01.369Z</time></trkpt><trkpt lat="51.6271911" lon="-0.8501755"><ele>189.0</ele><time>2026-04-12T19:35:02.368Z</time></trkpt><trkpt lat="51.627175" lon="-0.8497236"><ele>186.0</ele><time>2026-04-12T19:35:03.369Z</time></trkpt><trkpt lat="51.6271479" lon="-0.849273"><ele>183.0</ele><time>2026-04-12T19:35:04.369Z</time></trkpt><trkpt lat="51.6271168" lon="-0.8488217"><ele>182.0</ele><time>2026-04-12T19:35:05.368Z</time></trkpt><trkpt lat="51.6270773" lon="-0.8483785"><ele>181.0</ele><time>2026-04-12T19:35:06.369Z</time></trkpt><trkpt lat="51.6270238" lon="-0.8479334"><ele>183.0</ele><time>2026-04-12T19:35:07.369Z</time></trkpt><trkpt lat="51.6269575" lon="-0.8474899"><ele>185.0</ele><time>2026-04-12T19:35:08.369Z</time></trkpt><trkpt lat="51.626888" lon="-0.8470454"><ele>184.0</ele><time>2026-04-12T19:35:09.369Z</time></trkpt><trkpt lat="51.6268055" lon="-0.8465979"><ele>183.0</ele><time>2026-04-12T19:35:10.368Z</time></trkpt><trkpt lat="51.626712" lon="-0.8461675"><ele>181.5</ele><time>2026-04-12T19:35:11.369Z</time></trkpt><trkpt lat="51.6266134" lon="-0.8457348"><ele>180.0</ele><time>2026-04-12T19:35:12.369Z</time></trkpt><trkpt lat="51.6265105" lon="-0.8452981"><ele>180.0</ele><time>2026-04-12T19:35:13.369Z</time></trkpt><trkpt lat="51.626393" lon="-0.8448857"><ele>180.0</ele><time>2026-04-12T19:35:14.368Z</time></trkpt><trkpt lat="51.6262737" lon="-0.8444574"><ele>179.5</ele><time>2026-04-12T19:35:15.369Z</time></trkpt><trkpt lat="51.6261538" lon="-0.8440362"><ele>179.0</ele><time>2026-04-12T19:35:16.369Z</time></trkpt><trkpt lat="51.6260298" lon="-0.8436124"><ele>179.0</ele><time>2026-04-12T19:35:17.368Z</time></trkpt><trkpt lat="51.6259088" lon="-0.8431893"><ele>179.0</ele><time>2026-04-12T19:35:18.368Z</time></trkpt><trkpt lat="51.6257913" lon="-0.8427652"><ele>178.0</ele><time>2026-04-12T19:35:19.369Z</time></trkpt><trkpt lat="51.6256814" lon="-0.8423208"><ele>177.0</ele><time>2026-04-12T19:35:20.368Z</time></trkpt><trkpt lat="51.6255758" lon="-0.8418685"><ele>176.5</ele><time>2026-04-12T19:35:21.369Z</time></trkpt><trkpt lat="51.6254841" lon="-0.8414044"><ele>176.0</ele><time>2026-04-12T19:35:22.368Z</time></trkpt><trkpt lat="51.6253972" lon="-0.8409294"><ele>175.0</ele><time>2026-04-12T19:35:23.368Z</time></trkpt><trkpt lat="51.6253172" lon="-0.8404438"><ele>174.0</ele><time>2026-04-12T19:35:24.369Z</time></trkpt><trkpt lat="51.6252468" lon="-0.8399518"><ele>172.0</ele><time>2026-04-12T19:35:25.369Z</time></trkpt><trkpt lat="51.6251961" lon="-0.8394481"><ele>170.0</ele><time>2026-04-12T19:35:26.368Z</time></trkpt><trkpt lat="51.6251548" lon="-0.8389455"><ele>168.5</ele><time>2026-04-12T19:35:27.369Z</time></trkpt><trkpt lat="51.6251192" lon="-0.8384427"><ele>167.0</ele><time>2026-04-12T19:35:28.368Z</time></trkpt><trkpt lat="51.6250925" lon="-0.8379336"><ele>165.0</ele><time>2026-04-12T19:35:29.368Z</time></trkpt><trkpt lat="51.6250732" lon="-0.8374267"><ele>163.0</ele><time>2026-04-12T19:35:30.369Z</time></trkpt><trkpt lat="51.6250686" lon="-0.8369135"><ele>162.5</ele><time>2026-04-12T19:35:31.369Z</time></trkpt><trkpt lat="51.6250789" lon="-0.8364208"><ele>162.0</ele><time>2026-04-12T19:35:32.369Z</time></trkpt><trkpt lat="51.6251055" lon="-0.8359469"><ele>162.0</ele><time>2026-04-12T19:35:33.369Z</time></trkpt><trkpt lat="51.6251352" lon="-0.8354709"><ele>162.0</ele><time>2026-04-12T19:35:34.369Z</time></trkpt><trkpt lat="51.6251724" lon="-0.8349913"><ele>160.0</ele><time>2026-04-12T19:35:35.368Z</time></trkpt><trkpt lat="51.6252115" lon="-0.8345175"><ele>158.0</ele><time>2026-04-12T19:35:36.369Z</time></trkpt><trkpt lat="51.6252488" lon="-0.8340384"><ele>156.5</ele><time>2026-04-12T19:35:37.369Z</time></trkpt><trkpt lat="51.625282" lon="-0.8335603"><ele>155.0</ele><time>2026-04-12T19:35:38.369Z</time></trkpt><trkpt lat="51.6253167" lon="-0.8330836"><ele>157.0</ele><time>2026-04-12T19:35:39.37Z</time></trkpt><trkpt lat="51.6253439" lon="-0.8325992"><ele>159.0</ele><time>2026-04-12T19:35:40.369Z</time></trkpt><trkpt lat="51.6253628" lon="-0.8321329"><ele>156.5</ele><time>2026-04-12T19:35:41.37Z</time></trkpt><trkpt lat="51.6253671" lon="-0.8316407"><ele>154.0</ele><time>2026-04-12T19:35:42.369Z</time></trkpt><trkpt lat="51.6253689" lon="-0.8311445"><ele>152.5</ele><time>2026-04-12T19:35:43.37Z</time></trkpt><trkpt lat="51.6253549" lon="-0.8306427"><ele>151.0</ele><time>2026-04-12T19:35:44.37Z</time></trkpt><trkpt lat="51.6253302" lon="-0.8301465"><ele>152.0</ele><time>2026-04-12T19:35:45.37Z</time></trkpt><trkpt lat="51.6253002" lon="-0.8296679"><ele>153.0</ele><time>2026-04-12T19:35:46.369Z</time></trkpt><trkpt lat="51.6252554" lon="-0.8291968"><ele>153.0</ele><time>2026-04-12T19:35:47.37Z</time></trkpt><trkpt lat="51.6252065" lon="-0.8287326"><ele>153.0</ele><time>2026-04-12T19:35:48.37Z</time></trkpt><trkpt lat="51.6251467" lon="-0.828269"><ele>153.0</ele><time>2026-04-12T19:35:49.369Z</time></trkpt><trkpt lat="51.6250791" lon="-0.8278023"><ele>153.0</ele><time>2026-04-12T19:35:50.37Z</time></trkpt><trkpt lat="51.624996" lon="-0.8273399"><ele>153.0</ele><time>2026-04-12T19:35:51.369Z</time></trkpt><trkpt lat="51.6249044" lon="-0.8268958"><ele>153.0</ele><time>2026-04-12T19:35:52.37Z</time></trkpt><trkpt lat="51.6248055" lon="-0.8264739"><ele>153.0</ele><time>2026-04-12T19:35:53.37Z</time></trkpt><trkpt lat="51.6247065" lon="-0.8260468"><ele>153.0</ele><time>2026-04-12T19:35:54.369Z</time></trkpt><trkpt lat="51.6245959" lon="-0.8256209"><ele>155.0</ele><time>2026-04-12T19:35:55.37Z</time></trkpt><trkpt lat="51.6244704" lon="-0.8251965"><ele>157.0</ele><time>2026-04-12T19:35:56.369Z</time></trkpt><trkpt lat="51.6243393" lon="-0.8247779"><ele>159.0</ele><time>2026-04-12T19:35:57.369Z</time></trkpt><trkpt lat="51.6242058" lon="-0.8243739"><ele>161.0</ele><time>2026-04-12T19:35:58.369Z</time></trkpt><trkpt lat="51.6240625" lon="-0.8239757"><ele>162.0</ele><time>2026-04-12T19:35:59.369Z</time></trkpt><trkpt lat="51.6239099" lon="-0.823574"><ele>163.0</ele><time>2026-04-12T19:36:00.37Z</time></trkpt><trkpt lat="51.6237479" lon="-0.8231809"><ele>166.0</ele><time>2026-04-12T19:36:01.37Z</time></trkpt><trkpt lat="51.6235813" lon="-0.822803"><ele>169.0</ele><time>2026-04-12T19:36:02.37Z</time></trkpt><trkpt lat="51.6234186" lon="-0.8224112"><ele>169.0</ele><time>2026-04-12T19:36:03.37Z</time></trkpt><trkpt lat="51.6232596" lon="-0.822031"><ele>169.0</ele><time>2026-04-12T19:36:04.369Z</time></trkpt><trkpt lat="51.6231" lon="-0.8216583"><ele>168.0</ele><time>2026-04-12T19:36:05.37Z</time></trkpt><trkpt lat="51.6229441" lon="-0.821283"><ele>167.0</ele><time>2026-04-12T19:36:06.37Z</time></trkpt><trkpt lat="51.622784" lon="-0.8209068"><ele>169.0</ele><time>2026-04-12T19:36:07.37Z</time></trkpt><trkpt lat="51.6226201" lon="-0.820551"><ele>171.0</ele><time>2026-04-12T19:36:08.369Z</time></trkpt><trkpt lat="51.6224615" lon="-0.8201982"><ele>169.0</ele><time>2026-04-12T19:36:09.37Z</time></trkpt><trkpt lat="51.6223064" lon="-0.8198261"><ele>167.0</ele><time>2026-04-12T19:36:10.369Z</time></trkpt><trkpt lat="51.6221488" lon="-0.8194605"><ele>167.5</ele><time>2026-04-12T19:36:11.37Z</time></trkpt><trkpt lat="51.6219971" lon="-0.8191027"><ele>168.0</ele><time>2026-04-12T19:36:12.37Z</time></trkpt><trkpt lat="51.6218438" lon="-0.8187305"><ele>169.0</ele><time>2026-04-12T19:36:13.37Z</time></trkpt><trkpt lat="51.6216873" lon="-0.8183752"><ele>170.0</ele><time>2026-04-12T19:36:14.369Z</time></trkpt><trkpt lat="51.6215293" lon="-0.8180093"><ele>170.5</ele><time>2026-04-12T19:36:15.37Z</time></trkpt><trkpt lat="51.6213672" lon="-0.8176486"><ele>171.0</ele><time>2026-04-12T19:36:16.369Z</time></trkpt><trkpt lat="51.6212051" lon="-0.8172739"><ele>170.5</ele><time>2026-04-12T19:36:17.37Z</time></trkpt><trkpt lat="51.6210465" lon="-0.8168987"><ele>170.0</ele><time>2026-04-12T19:36:18.37Z</time></trkpt><trkpt lat="51.6208873" lon="-0.816522"><ele>170.0</ele><time>2026-04-12T19:36:19.369Z</time></trkpt><trkpt lat="51.6207312" lon="-0.8161511"><ele>170.0</ele><time>2026-04-12T19:36:20.37Z</time></trkpt><trkpt lat="51.6205731" lon="-0.8157779"><ele>168.5</ele><time>2026-04-12T19:36:21.369Z</time></trkpt><trkpt lat="51.620418" lon="-0.8154059"><ele>167.0</ele><time>2026-04-12T19:36:22.369Z</time></trkpt><trkpt lat="51.6202595" lon="-0.8150335"><ele>166.0</ele><time>2026-04-12T19:36:23.369Z</time></trkpt><trkpt lat="51.6201031" lon="-0.814663"><ele>165.0</ele><time>2026-04-12T19:36:24.37Z</time></trkpt><trkpt lat="51.619938" lon="-0.814297"><ele>164.0</ele><time>2026-04-12T19:36:25.369Z</time></trkpt><trkpt lat="51.6197809" lon="-0.8139238"><ele>163.0</ele><time>2026-04-12T19:36:26.37Z</time></trkpt><trkpt lat="51.6196284" lon="-0.8135472"><ele>164.5</ele><time>2026-04-12T19:36:27.37Z</time></trkpt><trkpt lat="51.619472" lon="-0.8131906"><ele>166.0</ele><time>2026-04-12T19:36:28.369Z</time></trkpt><trkpt lat="51.619319" lon="-0.8128374"><ele>165.0</ele><time>2026-04-12T19:36:29.37Z</time></trkpt><trkpt lat="51.6191627" lon="-0.8124714"><ele>164.0</ele><time>2026-04-12T19:36:30.37Z</time></trkpt><trkpt lat="51.6190017" lon="-0.8121007"><ele>163.0</ele><time>2026-04-12T19:36:31.371Z</time></trkpt><trkpt lat="51.6188489" lon="-0.8117437"><ele>162.0</ele><time>2026-04-12T19:36:32.369Z</time></trkpt><trkpt lat="51.6186944" lon="-0.8113915"><ele>162.0</ele><time>2026-04-12T19:36:33.371Z</time></trkpt><trkpt lat="51.6185401" lon="-0.8110322"><ele>162.0</ele><time>2026-04-12T19:36:34.37Z</time></trkpt><trkpt lat="51.6183855" lon="-0.8106634"><ele>162.0</ele><time>2026-04-12T19:36:35.37Z</time></trkpt><trkpt lat="51.6182306" lon="-0.8103071"><ele>162.0</ele><time>2026-04-12T19:36:36.371Z</time></trkpt><trkpt lat="51.6180792" lon="-0.8099534"><ele>161.5</ele><time>2026-04-12T19:36:37.369Z</time></trkpt><trkpt lat="51.6179176" lon="-0.8095862"><ele>161.0</ele><time>2026-04-12T19:36:38.371Z</time></trkpt><trkpt lat="51.6177699" lon="-0.8092294"><ele>160.5</ele><time>2026-04-12T19:36:39.37Z</time></trkpt><trkpt lat="51.6176167" lon="-0.8088628"><ele>160.0</ele><time>2026-04-12T19:36:40.37Z</time></trkpt><trkpt lat="51.6174571" lon="-0.8084871"><ele>159.5</ele><time>2026-04-12T19:36:41.371Z</time></trkpt><trkpt lat="51.6172935" lon="-0.8081235"><ele>159.0</ele><time>2026-04-12T19:36:42.371Z</time></trkpt><trkpt lat="51.6171332" lon="-0.8077392"><ele>157.5</ele><time>2026-04-12T19:36:43.371Z</time></trkpt><trkpt lat="51.6169695" lon="-0.8073539"><ele>156.0</ele><time>2026-04-12T19:36:44.371Z</time></trkpt><trkpt lat="51.6168079" lon="-0.8069842"><ele>155.5</ele><time>2026-04-12T19:36:45.37Z</time></trkpt><trkpt lat="51.6166519" lon="-0.806611"><ele>155.0</ele><time>2026-04-12T19:36:46.371Z</time></trkpt><trkpt lat="51.6164932" lon="-0.8062396"><ele>154.5</ele><time>2026-04-12T19:36:47.371Z</time></trkpt><trkpt lat="51.6163342" lon="-0.8058665"><ele>154.0</ele><time>2026-04-12T19:36:48.371Z</time></trkpt><trkpt lat="51.6161771" lon="-0.8055081"><ele>154.5</ele><time>2026-04-12T19:36:49.371Z</time></trkpt><trkpt lat="51.6160143" lon="-0.8051475"><ele>155.0</ele><time>2026-04-12T19:36:50.371Z</time></trkpt><trkpt lat="51.6158619" lon="-0.8047829"><ele>155.0</ele><time>2026-04-12T19:36:51.37Z</time></trkpt><trkpt lat="51.6157107" lon="-0.8044282"><ele>155.0</ele><time>2026-04-12T19:36:52.37Z</time></trkpt><trkpt lat="51.6155596" lon="-0.8040763"><ele>155.0</ele><time>2026-04-12T19:36:53.371Z</time></trkpt><trkpt lat="51.6154049" lon="-0.8037211"><ele>155.0</ele><time>2026-04-12T19:36:54.37Z</time></trkpt><trkpt lat="51.6152478" lon="-0.8033665"><ele>155.0</ele><time>2026-04-12T19:36:55.37Z</time></trkpt><trkpt lat="51.6150913" lon="-0.8030066"><ele>155.0</ele><time>2026-04-12T19:36:56.371Z</time></trkpt><trkpt lat="51.6149348" lon="-0.80264"><ele>154.5</ele><time>2026-04-12T19:36:57.371Z</time></trkpt><trkpt lat="51.6147832" lon="-0.8022695"><ele>154.0</ele><time>2026-04-12T19:36:58.371Z</time></trkpt><trkpt lat="51.6146309" lon="-0.8019026"><ele>154.5</ele><time>2026-04-12T19:36:59.371Z</time></trkpt><trkpt lat="51.6144694" lon="-0.8015366"><ele>155.0</ele><time>2026-04-12T19:37:00.371Z</time></trkpt><trkpt lat="51.6143048" lon="-0.8011562"><ele>153.5</ele><time>2026-04-12T19:37:01.37Z</time></trkpt><trkpt lat="51.6141449" lon="-0.8007916"><ele>152.0</ele><time>2026-04-12T19:37:02.371Z</time></trkpt><trkpt lat="51.6139905" lon="-0.8004299"><ele>152.5</ele><time>2026-04-12T19:37:03.371Z</time></trkpt><trkpt lat="51.613828" lon="-0.8000717"><ele>153.0</ele><time>2026-04-12T19:37:04.371Z</time></trkpt><trkpt lat="51.6136671" lon="-0.7996949"><ele>152.0</ele><time>2026-04-12T19:37:05.37Z</time></trkpt><trkpt lat="51.6135056" lon="-0.7993024"><ele>151.0</ele><time>2026-04-12T19:37:06.371Z</time></trkpt><trkpt lat="51.6133448" lon="-0.7989186"><ele>151.0</ele><time>2026-04-12T19:37:07.37Z</time></trkpt><trkpt lat="51.6131767" lon="-0.7985381"><ele>151.0</ele><time>2026-04-12T19:37:08.371Z</time></trkpt><trkpt lat="51.6130191" lon="-0.7981511"><ele>150.5</ele><time>2026-04-12T19:37:09.371Z</time></trkpt><trkpt lat="51.6128549" lon="-0.7977674"><ele>150.0</ele><time>2026-04-12T19:37:10.37Z</time></trkpt><trkpt lat="51.6126858" lon="-0.7973855"><ele>149.0</ele><time>2026-04-12T19:37:11.37Z</time></trkpt><trkpt lat="51.6125224" lon="-0.7969927"><ele>148.0</ele><time>2026-04-12T19:37:12.371Z</time></trkpt><trkpt lat="51.6123541" lon="-0.796599"><ele>146.5</ele><time>2026-04-12T19:37:13.37Z</time></trkpt><trkpt lat="51.6121834" lon="-0.7962059"><ele>145.0</ele><time>2026-04-12T19:37:14.371Z</time></trkpt><trkpt lat="51.6120165" lon="-0.7958078"><ele>144.5</ele><time>2026-04-12T19:37:15.371Z</time></trkpt><trkpt lat="51.6118575" lon="-0.7954067"><ele>144.0</ele><time>2026-04-12T19:37:16.371Z</time></trkpt><trkpt lat="51.6117091" lon="-0.7950009"><ele>142.5</ele><time>2026-04-12T19:37:17.371Z</time></trkpt><trkpt lat="51.6115627" lon="-0.79459"><ele>141.0</ele><time>2026-04-12T19:37:18.37Z</time></trkpt><trkpt lat="51.6114238" lon="-0.7941769"><ele>140.0</ele><time>2026-04-12T19:37:19.371Z</time></trkpt><trkpt lat="51.6112927" lon="-0.7937679"><ele>139.0</ele><time>2026-04-12T19:37:20.371Z</time></trkpt><trkpt lat="51.6111688" lon="-0.7933452"><ele>138.5</ele><time>2026-04-12T19:37:21.371Z</time></trkpt><trkpt lat="51.6110497" lon="-0.7929113"><ele>138.0</ele><time>2026-04-12T19:37:22.371Z</time></trkpt><trkpt lat="51.610931" lon="-0.7924809"><ele>136.5</ele><time>2026-04-12T19:37:23.37Z</time></trkpt><trkpt lat="51.6108296" lon="-0.7920485"><ele>135.0</ele><time>2026-04-12T19:37:24.371Z</time></trkpt><trkpt lat="51.610731" lon="-0.7916096"><ele>134.5</ele><time>2026-04-12T19:37:25.37Z</time></trkpt><trkpt lat="51.6106417" lon="-0.7911742"><ele>134.0</ele><time>2026-04-12T19:37:26.371Z</time></trkpt><trkpt lat="51.6105571" lon="-0.7907384"><ele>134.0</ele><time>2026-04-12T19:37:27.371Z</time></trkpt><trkpt lat="51.6104789" lon="-0.7903083"><ele>134.0</ele><time>2026-04-12T19:37:28.37Z</time></trkpt><trkpt lat="51.6104048" lon="-0.7898653"><ele>134.5</ele><time>2026-04-12T19:37:29.37Z</time></trkpt><trkpt lat="51.6103388" lon="-0.7894275"><ele>135.0</ele><time>2026-04-12T19:37:30.37Z</time></trkpt><trkpt lat="51.6102841" lon="-0.7889941"><ele>131.5</ele><time>2026-04-12T19:37:31.37Z</time></trkpt><trkpt lat="51.6102323" lon="-0.7885614"><ele>128.0</ele><time>2026-04-12T19:37:32.37Z</time></trkpt><trkpt lat="51.6101896" lon="-0.7881256"><ele>127.5</ele><time>2026-04-12T19:37:33.372Z</time></trkpt><trkpt lat="51.6101553" lon="-0.7877104"><ele>127.0</ele><time>2026-04-12T19:37:34.371Z</time></trkpt><trkpt lat="51.6101257" lon="-0.7873046"><ele>126.5</ele><time>2026-04-12T19:37:35.37Z</time></trkpt><trkpt lat="51.6101056" lon="-0.7869053"><ele>126.0</ele><time>2026-04-12T19:37:36.371Z</time></trkpt><trkpt lat="51.6100861" lon="-0.7865176"><ele>126.0</ele><time>2026-04-12T19:37:37.371Z</time></trkpt><trkpt lat="51.6100691" lon="-0.7861322"><ele>126.0</ele><time>2026-04-12T19:37:38.371Z</time></trkpt><trkpt lat="51.6100601" lon="-0.7857443"><ele>126.5</ele><time>2026-04-12T19:37:39.371Z</time></trkpt><trkpt lat="51.6100557" lon="-0.7853572"><ele>127.0</ele><time>2026-04-12T19:37:40.371Z</time></trkpt><trkpt lat="51.6100564" lon="-0.7849691"><ele>127.5</ele><time>2026-04-12T19:37:41.372Z</time></trkpt><trkpt lat="51.6100594" lon="-0.7845912"><ele>128.0</ele><time>2026-04-12T19:37:42.372Z</time></trkpt><trkpt lat="51.6100712" lon="-0.7842004"><ele>128.5</ele><time>2026-04-12T19:37:43.371Z</time></trkpt><trkpt lat="51.6100891" lon="-0.7837929"><ele>129.0</ele><time>2026-04-12T19:37:44.371Z</time></trkpt><trkpt lat="51.6101133" lon="-0.7833683"><ele>130.0</ele><time>2026-04-12T19:37:45.371Z</time></trkpt><trkpt lat="51.6101409" lon="-0.7829387"><ele>131.0</ele><time>2026-04-12T19:37:46.371Z</time></trkpt><trkpt lat="51.6101762" lon="-0.7824995"><ele>131.5</ele><time>2026-04-12T19:37:47.372Z</time></trkpt><trkpt lat="51.6102205" lon="-0.7820575"><ele>132.0</ele><time>2026-04-12T19:37:48.372Z</time></trkpt><trkpt lat="51.6102657" lon="-0.7816385"><ele>132.0</ele><time>2026-04-12T19:37:49.372Z</time></trkpt><trkpt lat="51.61032" lon="-0.7812242"><ele>132.0</ele><time>2026-04-12T19:37:50.372Z</time></trkpt><trkpt lat="51.6103716" lon="-0.7808154"><ele>132.5</ele><time>2026-04-12T19:37:51.372Z</time></trkpt><trkpt lat="51.6104267" lon="-0.7804285"><ele>133.0</ele><time>2026-04-12T19:37:52.372Z</time></trkpt><trkpt lat="51.6104843" lon="-0.780056"><ele>133.0</ele><time>2026-04-12T19:37:53.371Z</time></trkpt><trkpt lat="51.6105422" lon="-0.7797047"><ele>133.0</ele><time>2026-04-12T19:37:54.372Z</time></trkpt><trkpt lat="51.6106042" lon="-0.7793399"><ele>133.0</ele><time>2026-04-12T19:37:55.372Z</time></trkpt><trkpt lat="51.6106578" lon="-0.778978"><ele>133.0</ele><time>2026-04-12T19:37:56.372Z</time></trkpt><trkpt lat="51.6107128" lon="-0.7785987"><ele>133.0</ele><time>2026-04-12T19:37:57.372Z</time></trkpt><trkpt lat="51.610772" lon="-0.7782051"><ele>133.0</ele><time>2026-04-12T19:37:58.371Z</time></trkpt><trkpt lat="51.6108374" lon="-0.7778314"><ele>134.0</ele><time>2026-04-12T19:37:59.372Z</time></trkpt><trkpt lat="51.6108909" lon="-0.777488"><ele>135.0</ele><time>2026-04-12T19:38:00.373Z</time></trkpt><trkpt lat="51.6109421" lon="-0.7771584"><ele>136.0</ele><time>2026-04-12T19:38:01.371Z</time></trkpt><trkpt lat="51.6109931" lon="-0.7768442"><ele>136.66666666666669</ele><time>2026-04-12T19:38:02.371Z</time></trkpt><trkpt lat="51.6110357" lon="-0.7765402"><ele>137.33333333333334</ele><time>2026-04-12T19:38:03.372Z</time></trkpt><trkpt lat="51.6110855" lon="-0.7762438"><ele>138.0</ele><time>2026-04-12T19:38:04.371Z</time></trkpt><trkpt lat="51.6111338" lon="-0.7759254"><ele>138.33333333333334</ele><time>2026-04-12T19:38:05.372Z</time></trkpt><trkpt lat="51.6111819" lon="-0.7755969"><ele>138.66666666666669</ele><time>2026-04-12T19:38:06.372Z</time></trkpt><trkpt lat="51.6112381" lon="-0.7752666"><ele>139.0</ele><time>2026-04-12T19:38:07.372Z</time></trkpt><trkpt lat="51.6112902" lon="-0.774925"><ele>139.33333333333334</ele><time>2026-04-12T19:38:08.371Z</time></trkpt><trkpt lat="51.6113507" lon="-0.7745855"><ele>139.66666666666666</ele><time>2026-04-12T19:38:09.372Z</time></trkpt><trkpt lat="51.6114054" lon="-0.7742303"><ele>140.0</ele><time>2026-04-12T19:38:10.372Z</time></trkpt><trkpt lat="51.6114605" lon="-0.7738762"><ele>141.5</ele><time>2026-04-12T19:38:11.372Z</time></trkpt><trkpt lat="51.6115135" lon="-0.7735193"><ele>143.0</ele><time>2026-04-12T19:38:12.372Z</time></trkpt><trkpt lat="51.6115731" lon="-0.7731657"><ele>143.0</ele><time>2026-04-12T19:38:13.372Z</time></trkpt><trkpt lat="51.6116264" lon="-0.7728016"><ele>143.0</ele><time>2026-04-12T19:38:14.372Z</time></trkpt><trkpt lat="51.6116879" lon="-0.7724308"><ele>143.5</ele><time>2026-04-12T19:38:15.372Z</time></trkpt><trkpt lat="51.611752" lon="-0.772056"><ele>144.0</ele><time>2026-04-12T19:38:16.372Z</time></trkpt><trkpt lat="51.6118098" lon="-0.7716782"><ele>144.5</ele><time>2026-04-12T19:38:17.371Z</time></trkpt><trkpt lat="51.6118717" lon="-0.7712949"><ele>145.0</ele><time>2026-04-12T19:38:18.372Z</time></trkpt><trkpt lat="51.61193" lon="-0.7709125"><ele>146.5</ele><time>2026-04-12T19:38:19.372Z</time></trkpt><trkpt lat="51.6119875" lon="-0.7705387"><ele>148.0</ele><time>2026-04-12T19:38:20.371Z</time></trkpt><trkpt lat="51.6120465" lon="-0.7701843"><ele>149.0</ele><time>2026-04-12T19:38:21.371Z</time></trkpt><trkpt lat="51.6120947" lon="-0.769831"><ele>150.0</ele><time>2026-04-12T19:38:22.371Z</time></trkpt><trkpt lat="51.6121443" lon="-0.7694985"><ele>151.0</ele><time>2026-04-12T19:38:23.372Z</time></trkpt><trkpt lat="51.6122085" lon="-0.769178"><ele>151.0</ele><time>2026-04-12T19:38:24.372Z</time></trkpt><trkpt lat="51.6122536" lon="-0.7688527"><ele>151.0</ele><time>2026-04-12T19:38:25.371Z</time></trkpt><trkpt lat="51.612303" lon="-0.7685345"><ele>151.0</ele><time>2026-04-12T19:38:26.372Z</time></trkpt><trkpt lat="51.6123506" lon="-0.7682259"><ele>151.0</ele><time>2026-04-12T19:38:27.371Z</time></trkpt><trkpt lat="51.6124033" lon="-0.7679257"><ele>151.0</ele><time>2026-04-12T19:38:28.372Z</time></trkpt><trkpt lat="51.6124493" lon="-0.7676089"><ele>151.0</ele><time>2026-04-12T19:38:29.371Z</time></trkpt><trkpt lat="51.6124942" lon="-0.7673047"><ele>150.0</ele><time>2026-04-12T19:38:30.371Z</time></trkpt><trkpt lat="51.6125425" lon="-0.7669823"><ele>149.0</ele><time>2026-04-12T19:38:31.372Z</time></trkpt><trkpt lat="51.612592" lon="-0.7666479"><ele>148.0</ele><time>2026-04-12T19:38:32.371Z</time></trkpt><trkpt lat="51.6126489" lon="-0.7663218"><ele>147.66666666666669</ele><time>2026-04-12T19:38:33.372Z</time></trkpt><trkpt lat="51.6127067" lon="-0.7659762"><ele>147.33333333333334</ele><time>2026-04-12T19:38:34.371Z</time></trkpt><trkpt lat="51.6127666" lon="-0.7656278"><ele>147.0</ele><time>2026-04-12T19:38:35.371Z</time></trkpt><trkpt lat="51.6128772" lon="-0.7649171"><ele>147.0</ele><time>2026-04-12T19:38:37.371Z</time></trkpt><trkpt lat="51.6129405" lon="-0.7645523"><ele>147.0</ele><time>2026-04-12T19:38:38.371Z</time></trkpt><trkpt lat="51.6129983" lon="-0.7641801"><ele>146.5</ele><time>2026-04-12T19:38:39.372Z</time></trkpt><trkpt lat="51.6130516" lon="-0.7638111"><ele>146.0</ele><time>2026-04-12T19:38:40.371Z</time></trkpt><trkpt lat="51.6131111" lon="-0.7634443"><ele>145.0</ele><time>2026-04-12T19:38:41.373Z</time></trkpt><trkpt lat="51.6131732" lon="-0.7630718"><ele>144.0</ele><time>2026-04-12T19:38:42.373Z</time></trkpt><trkpt lat="51.6132329" lon="-0.7627015"><ele>143.0</ele><time>2026-04-12T19:38:43.372Z</time></trkpt><trkpt lat="51.6132905" lon="-0.7623338"><ele>142.0</ele><time>2026-04-12T19:38:44.373Z</time></trkpt><trkpt lat="51.6133521" lon="-0.7619647"><ele>141.5</ele><time>2026-04-12T19:38:45.373Z</time></trkpt><trkpt lat="51.6134099" lon="-0.7615997"><ele>141.0</ele><time>2026-04-12T19:38:46.373Z</time></trkpt><trkpt lat="51.6134689" lon="-0.7612283"><ele>140.5</ele><time>2026-04-12T19:38:47.373Z</time></trkpt><trkpt lat="51.6135309" lon="-0.7608567"><ele>140.0</ele><time>2026-04-12T19:38:48.372Z</time></trkpt><trkpt lat="51.6135858" lon="-0.7604951"><ele>140.0</ele><time>2026-04-12T19:38:49.372Z</time></trkpt><trkpt lat="51.6136401" lon="-0.7601241"><ele>140.0</ele><time>2026-04-12T19:38:50.373Z</time></trkpt><trkpt lat="51.6136969" lon="-0.7597419"><ele>141.0</ele><time>2026-04-12T19:38:51.373Z</time></trkpt><trkpt lat="51.613762" lon="-0.7593545"><ele>142.0</ele><time>2026-04-12T19:38:52.373Z</time></trkpt><trkpt lat="51.6138251" lon="-0.7589601"><ele>142.0</ele><time>2026-04-12T19:38:53.373Z</time></trkpt><trkpt lat="51.6138875" lon="-0.7585615"><ele>142.0</ele><time>2026-04-12T19:38:54.372Z</time></trkpt><trkpt lat="51.6139522" lon="-0.7581602"><ele>141.5</ele><time>2026-04-12T19:38:55.373Z</time></trkpt><trkpt lat="51.6140168" lon="-0.757754"><ele>141.0</ele><time>2026-04-12T19:38:56.373Z</time></trkpt><trkpt lat="51.6140805" lon="-0.7573448"><ele>141.0</ele><time>2026-04-12T19:38:57.373Z</time></trkpt><trkpt lat="51.6141483" lon="-0.756931"><ele>141.0</ele><time>2026-04-12T19:38:58.372Z</time></trkpt><trkpt lat="51.6142073" lon="-0.756508"><ele>142.0</ele><time>2026-04-12T19:38:59.372Z</time></trkpt><trkpt lat="51.6142691" lon="-0.7560911"><ele>143.0</ele><time>2026-04-12T19:39:00.373Z</time></trkpt><trkpt lat="51.6143333" lon="-0.7556734"><ele>144.5</ele><time>2026-04-12T19:39:01.373Z</time></trkpt><trkpt lat="51.614394" lon="-0.7552559"><ele>146.0</ele><time>2026-04-12T19:39:02.372Z</time></trkpt><trkpt lat="51.6144487" lon="-0.7548334"><ele>148.5</ele><time>2026-04-12T19:39:03.373Z</time></trkpt><trkpt lat="51.6145006" lon="-0.754406"><ele>151.0</ele><time>2026-04-12T19:39:04.373Z</time></trkpt><trkpt lat="51.6145385" lon="-0.7539629"><ele>148.5</ele><time>2026-04-12T19:39:05.372Z</time></trkpt><trkpt lat="51.6145766" lon="-0.753531"><ele>146.0</ele><time>2026-04-12T19:39:06.372Z</time></trkpt><trkpt lat="51.6146069" lon="-0.7530916"><ele>144.5</ele><time>2026-04-12T19:39:07.372Z</time></trkpt><trkpt lat="51.6146247" lon="-0.7526527"><ele>143.0</ele><time>2026-04-12T19:39:08.373Z</time></trkpt><trkpt lat="51.6146376" lon="-0.7522153"><ele>141.5</ele><time>2026-04-12T19:39:09.373Z</time></trkpt><trkpt lat="51.6146526" lon="-0.7517704"><ele>140.0</ele><time>2026-04-12T19:39:10.372Z</time></trkpt><trkpt lat="51.6146564" lon="-0.7513285"><ele>139.0</ele><time>2026-04-12T19:39:11.372Z</time></trkpt><trkpt lat="51.6146515" lon="-0.7508841"><ele>138.0</ele><time>2026-04-12T19:39:12.373Z</time></trkpt><trkpt lat="51.614638" lon="-0.7504396"><ele>137.0</ele><time>2026-04-12T19:39:13.373Z</time></trkpt><trkpt lat="51.6146156" lon="-0.7499893"><ele>136.0</ele><time>2026-04-12T19:39:14.373Z</time></trkpt><trkpt lat="51.6145901" lon="-0.7495271"><ele>137.0</ele><time>2026-04-12T19:39:15.372Z</time></trkpt><trkpt lat="51.6145552" lon="-0.7490806"><ele>138.0</ele><time>2026-04-12T19:39:16.373Z</time></trkpt><trkpt lat="51.6145086" lon="-0.7486284"><ele>138.0</ele><time>2026-04-12T19:39:17.373Z</time></trkpt><trkpt lat="51.6144588" lon="-0.7481836"><ele>138.0</ele><time>2026-04-12T19:39:18.373Z</time></trkpt><trkpt lat="51.6143913" lon="-0.7477429"><ele>139.5</ele><time>2026-04-12T19:39:19.372Z</time></trkpt><trkpt lat="51.614329" lon="-0.747298"><ele>141.0</ele><time>2026-04-12T19:39:20.372Z</time></trkpt><trkpt lat="51.6142525" lon="-0.7468533"><ele>141.5</ele><time>2026-04-12T19:39:21.373Z</time></trkpt><trkpt lat="51.6141749" lon="-0.7464191"><ele>142.0</ele><time>2026-04-12T19:39:22.373Z</time></trkpt><trkpt lat="51.614078" lon="-0.7459721"><ele>142.5</ele><time>2026-04-12T19:39:23.372Z</time></trkpt><trkpt lat="51.6139757" lon="-0.745548"><ele>143.0</ele><time>2026-04-12T19:39:24.373Z</time></trkpt><trkpt lat="51.6138675" lon="-0.7451307"><ele>143.5</ele><time>2026-04-12T19:39:25.372Z</time></trkpt><trkpt lat="51.6137582" lon="-0.7447121"><ele>144.0</ele><time>2026-04-12T19:39:26.373Z</time></trkpt><trkpt lat="51.6136461" lon="-0.744304"><ele>144.0</ele><time>2026-04-12T19:39:27.373Z</time></trkpt><trkpt lat="51.6135348" lon="-0.7438987"><ele>144.0</ele><time>2026-04-12T19:39:28.373Z</time></trkpt><trkpt lat="51.6134134" lon="-0.7435144"><ele>144.0</ele><time>2026-04-12T19:39:29.372Z</time></trkpt><trkpt lat="51.6132811" lon="-0.7431389"><ele>144.0</ele><time>2026-04-12T19:39:30.373Z</time></trkpt><trkpt lat="51.6131418" lon="-0.7427677"><ele>145.0</ele><time>2026-04-12T19:39:31.373Z</time></trkpt><trkpt lat="51.6130016" lon="-0.7423988"><ele>146.0</ele><time>2026-04-12T19:39:32.373Z</time></trkpt><trkpt lat="51.6128635" lon="-0.7420262"><ele>145.5</ele><time>2026-04-12T19:39:33.372Z</time></trkpt><trkpt lat="51.6127285" lon="-0.7416586"><ele>145.0</ele><time>2026-04-12T19:39:34.373Z</time></trkpt><trkpt lat="51.6125938" lon="-0.741299"><ele>145.5</ele><time>2026-04-12T19:39:35.372Z</time></trkpt><trkpt lat="51.6124568" lon="-0.7409431"><ele>146.0</ele><time>2026-04-12T19:39:36.372Z</time></trkpt><trkpt lat="51.6123171" lon="-0.7405723"><ele>146.0</ele><time>2026-04-12T19:39:37.373Z</time></trkpt><trkpt lat="51.6121772" lon="-0.740197"><ele>146.0</ele><time>2026-04-12T19:39:38.372Z</time></trkpt><trkpt lat="51.6120456" lon="-0.7398129"><ele>145.0</ele><time>2026-04-12T19:39:39.372Z</time></trkpt><trkpt lat="51.6119208" lon="-0.739419"><ele>144.0</ele><time>2026-04-12T19:39:40.373Z</time></trkpt><trkpt lat="51.6118031" lon="-0.7390113"><ele>144.0</ele><time>2026-04-12T19:39:41.372Z</time></trkpt><trkpt lat="51.6116888" lon="-0.7386045"><ele>144.0</ele><time>2026-04-12T19:39:42.372Z</time></trkpt><trkpt lat="51.6115708" lon="-0.7381934"><ele>145.0</ele><time>2026-04-12T19:39:43.372Z</time></trkpt><trkpt lat="51.6114486" lon="-0.7377666"><ele>146.0</ele><time>2026-04-12T19:39:44.373Z</time></trkpt><trkpt lat="51.6113338" lon="-0.7373332"><ele>147.5</ele><time>2026-04-12T19:39:45.373Z</time></trkpt><trkpt lat="51.6112335" lon="-0.7369015"><ele>149.0</ele><time>2026-04-12T19:39:46.373Z</time></trkpt><trkpt lat="51.6111422" lon="-0.7364663"><ele>146.0</ele><time>2026-04-12T19:39:47.373Z</time></trkpt><trkpt lat="51.611051" lon="-0.7360362"><ele>143.0</ele><time>2026-04-12T19:39:48.373Z</time></trkpt><trkpt lat="51.6109677" lon="-0.735603"><ele>143.0</ele><time>2026-04-12T19:39:49.372Z</time></trkpt><trkpt lat="51.6108929" lon="-0.7351608"><ele>143.0</ele><time>2026-04-12T19:39:50.372Z</time></trkpt><trkpt lat="51.6108131" lon="-0.7347182"><ele>143.5</ele><time>2026-04-12T19:39:51.374Z</time></trkpt><trkpt lat="51.6107412" lon="-0.7342621"><ele>144.0</ele><time>2026-04-12T19:39:52.373Z</time></trkpt><trkpt lat="51.6106686" lon="-0.7338043"><ele>143.5</ele><time>2026-04-12T19:39:53.373Z</time></trkpt><trkpt lat="51.6106101" lon="-0.7333474"><ele>143.0</ele><time>2026-04-12T19:39:54.373Z</time></trkpt><trkpt lat="51.6105551" lon="-0.7328817"><ele>142.0</ele><time>2026-04-12T19:39:55.373Z</time></trkpt><trkpt lat="51.6105004" lon="-0.7324033"><ele>141.0</ele><time>2026-04-12T19:39:56.374Z</time></trkpt><trkpt lat="51.6104505" lon="-0.7319103"><ele>141.0</ele><time>2026-04-12T19:39:57.374Z</time></trkpt><trkpt lat="51.6104108" lon="-0.7314131"><ele>141.0</ele><time>2026-04-12T19:39:58.374Z</time></trkpt><trkpt lat="51.6103785" lon="-0.7309124"><ele>141.0</ele><time>2026-04-12T19:39:59.373Z</time></trkpt><trkpt lat="51.6103529" lon="-0.7304263"><ele>141.0</ele><time>2026-04-12T19:40:00.373Z</time></trkpt><trkpt lat="51.6103333" lon="-0.7299405"><ele>138.5</ele><time>2026-04-12T19:40:01.374Z</time></trkpt><trkpt lat="51.6103131" lon="-0.7294509"><ele>136.0</ele><time>2026-04-12T19:40:02.374Z</time></trkpt><trkpt lat="51.6103048" lon="-0.7289706"><ele>135.5</ele><time>2026-04-12T19:40:03.373Z</time></trkpt><trkpt lat="51.6103078" lon="-0.7284876"><ele>135.0</ele><time>2026-04-12T19:40:04.374Z</time></trkpt><trkpt lat="51.6103074" lon="-0.7280049"><ele>134.5</ele><time>2026-04-12T19:40:05.374Z</time></trkpt><trkpt lat="51.610318" lon="-0.7275336"><ele>134.0</ele><time>2026-04-12T19:40:06.373Z</time></trkpt><trkpt lat="51.6103321" lon="-0.7270655"><ele>135.5</ele><time>2026-04-12T19:40:07.373Z</time></trkpt><trkpt lat="51.6103504" lon="-0.7265906"><ele>137.0</ele><time>2026-04-12T19:40:08.374Z</time></trkpt><trkpt lat="51.6103759" lon="-0.7261062"><ele>136.5</ele><time>2026-04-12T19:40:09.373Z</time></trkpt><trkpt lat="51.6104095" lon="-0.7256291"><ele>136.0</ele><time>2026-04-12T19:40:10.374Z</time></trkpt><trkpt lat="51.6104495" lon="-0.7251536"><ele>134.5</ele><time>2026-04-12T19:40:11.374Z</time></trkpt><trkpt lat="51.6104936" lon="-0.7246769"><ele>133.0</ele><time>2026-04-12T19:40:12.374Z</time></trkpt><trkpt lat="51.6105426" lon="-0.7242051"><ele>131.0</ele><time>2026-04-12T19:40:13.374Z</time></trkpt><trkpt lat="51.6105897" lon="-0.7237313"><ele>129.0</ele><time>2026-04-12T19:40:14.374Z</time></trkpt><trkpt lat="51.6106322" lon="-0.7232609"><ele>127.0</ele><time>2026-04-12T19:40:15.373Z</time></trkpt><trkpt lat="51.6106725" lon="-0.7227877"><ele>125.0</ele><time>2026-04-12T19:40:16.374Z</time></trkpt><trkpt lat="51.6107104" lon="-0.7223193"><ele>122.0</ele><time>2026-04-12T19:40:17.373Z</time></trkpt><trkpt lat="51.6107346" lon="-0.7218405"><ele>119.0</ele><time>2026-04-12T19:40:18.374Z</time></trkpt><trkpt lat="51.6107608" lon="-0.7213658"><ele>118.0</ele><time>2026-04-12T19:40:19.373Z</time></trkpt><trkpt lat="51.6107738" lon="-0.720868"><ele>117.0</ele><time>2026-04-12T19:40:20.373Z</time></trkpt><trkpt lat="51.6107837" lon="-0.7203573"><ele>118.0</ele><time>2026-04-12T19:40:21.373Z</time></trkpt><trkpt lat="51.6107843" lon="-0.7198541"><ele>119.0</ele><time>2026-04-12T19:40:22.374Z</time></trkpt><trkpt lat="51.6107775" lon="-0.7193607"><ele>119.0</ele><time>2026-04-12T19:40:23.374Z</time></trkpt><trkpt lat="51.610761" lon="-0.7188672"><ele>119.0</ele><time>2026-04-12T19:40:24.373Z</time></trkpt><trkpt lat="51.6107333" lon="-0.718371"><ele>118.5</ele><time>2026-04-12T19:40:25.373Z</time></trkpt><trkpt lat="51.610705" lon="-0.7178707"><ele>118.0</ele><time>2026-04-12T19:40:26.373Z</time></trkpt><trkpt lat="51.6106733" lon="-0.717374"><ele>116.5</ele><time>2026-04-12T19:40:27.374Z</time></trkpt><trkpt lat="51.6106227" lon="-0.7168767"><ele>115.0</ele><time>2026-04-12T19:40:28.374Z</time></trkpt><trkpt lat="51.6105599" lon="-0.7163806"><ele>115.5</ele><time>2026-04-12T19:40:29.373Z</time></trkpt><trkpt lat="51.6104911" lon="-0.7159016"><ele>116.0</ele><time>2026-04-12T19:40:30.373Z</time></trkpt><trkpt lat="51.610419" lon="-0.7154151"><ele>116.5</ele><time>2026-04-12T19:40:31.373Z</time></trkpt><trkpt lat="51.6103426" lon="-0.7149316"><ele>117.0</ele><time>2026-04-12T19:40:32.374Z</time></trkpt><trkpt lat="51.6102557" lon="-0.7144536"><ele>117.5</ele><time>2026-04-12T19:40:33.373Z</time></trkpt><trkpt lat="51.6101586" lon="-0.7139838"><ele>118.0</ele><time>2026-04-12T19:40:34.374Z</time></trkpt><trkpt lat="51.61006" lon="-0.7135225"><ele>116.0</ele><time>2026-04-12T19:40:35.374Z</time></trkpt><trkpt lat="51.6099522" lon="-0.7130596"><ele>114.0</ele><time>2026-04-12T19:40:36.373Z</time></trkpt><trkpt lat="51.6098328" lon="-0.7126126"><ele>112.0</ele><time>2026-04-12T19:40:37.373Z</time></trkpt><trkpt lat="51.609702" lon="-0.7121669"><ele>110.0</ele><time>2026-04-12T19:40:38.373Z</time></trkpt><trkpt lat="51.6095708" lon="-0.7117311"><ele>111.0</ele><time>2026-04-12T19:40:39.373Z</time></trkpt><trkpt lat="51.6094356" lon="-0.7112949"><ele>112.0</ele><time>2026-04-12T19:40:40.374Z</time></trkpt><trkpt lat="51.6092922" lon="-0.7108587"><ele>110.0</ele><time>2026-04-12T19:40:41.374Z</time></trkpt><trkpt lat="51.6091441" lon="-0.7104238"><ele>108.0</ele><time>2026-04-12T19:40:42.373Z</time></trkpt><trkpt lat="51.6089859" lon="-0.7100008"><ele>107.5</ele><time>2026-04-12T19:40:43.374Z</time></trkpt><trkpt lat="51.6088159" lon="-0.7095816"><ele>107.0</ele><time>2026-04-12T19:40:44.373Z</time></trkpt><trkpt lat="51.6086415" lon="-0.7091726"><ele>107.0</ele><time>2026-04-12T19:40:45.374Z</time></trkpt><trkpt lat="51.6084564" lon="-0.7087722"><ele>107.0</ele><time>2026-04-12T19:40:46.373Z</time></trkpt><trkpt lat="51.6082706" lon="-0.7083817"><ele>104.0</ele><time>2026-04-12T19:40:47.374Z</time></trkpt><trkpt lat="51.6080735" lon="-0.707988"><ele>101.0</ele><time>2026-04-12T19:40:48.374Z</time></trkpt><trkpt lat="51.6078678" lon="-0.7076052"><ele>101.5</ele><time>2026-04-12T19:40:49.373Z</time></trkpt><trkpt lat="51.6076518" lon="-0.7072281"><ele>102.0</ele><time>2026-04-12T19:40:50.373Z</time></trkpt><trkpt lat="51.6074351" lon="-0.7068572"><ele>103.5</ele><time>2026-04-12T19:40:51.374Z</time></trkpt><trkpt lat="51.6072138" lon="-0.7064964"><ele>105.0</ele><time>2026-04-12T19:40:52.374Z</time></trkpt><trkpt lat="51.6069889" lon="-0.7061379"><ele>100.0</ele><time>2026-04-12T19:40:53.374Z</time></trkpt><trkpt lat="51.6067549" lon="-0.7057856"><ele>95.0</ele><time>2026-04-12T19:40:54.374Z</time></trkpt><trkpt lat="51.6065193" lon="-0.7054372"><ele>96.0</ele><time>2026-04-12T19:40:55.374Z</time></trkpt><trkpt lat="51.6062892" lon="-0.7050834"><ele>97.0</ele><time>2026-04-12T19:40:56.373Z</time></trkpt><trkpt lat="51.606065" lon="-0.704727"><ele>92.5</ele><time>2026-04-12T19:40:57.374Z</time></trkpt><trkpt lat="51.6058467" lon="-0.7043655"><ele>88.0</ele><time>2026-04-12T19:40:58.373Z</time></trkpt><trkpt lat="51.6056353" lon="-0.7040026"><ele>88.0</ele><time>2026-04-12T19:40:59.374Z</time></trkpt><trkpt lat="51.60543" lon="-0.7036306"><ele>88.0</ele><time>2026-04-12T19:41:00.373Z</time></trkpt><trkpt lat="51.6052279" lon="-0.7032478"><ele>86.0</ele><time>2026-04-12T19:41:01.373Z</time></trkpt><trkpt lat="51.6050418" lon="-0.7028581"><ele>84.0</ele><time>2026-04-12T19:41:02.374Z</time></trkpt><trkpt lat="51.6048625" lon="-0.7024479"><ele>80.0</ele><time>2026-04-12T19:41:03.374Z</time></trkpt><trkpt lat="51.6046991" lon="-0.7020245"><ele>76.0</ele><time>2026-04-12T19:41:04.373Z</time></trkpt><trkpt lat="51.6045458" lon="-0.7015998"><ele>75.0</ele><time>2026-04-12T19:41:05.373Z</time></trkpt><trkpt lat="51.6043955" lon="-0.701159"><ele>74.0</ele><time>2026-04-12T19:41:06.374Z</time></trkpt><trkpt lat="51.6042577" lon="-0.7007146"><ele>74.0</ele><time>2026-04-12T19:41:07.374Z</time></trkpt><trkpt lat="51.6041321" lon="-0.7002565"><ele>74.0</ele><time>2026-04-12T19:41:08.373Z</time></trkpt><trkpt lat="51.6040215" lon="-0.699786"><ele>67.5</ele><time>2026-04-12T19:41:09.374Z</time></trkpt><trkpt lat="51.6039227" lon="-0.6993155"><ele>61.0</ele><time>2026-04-12T19:41:10.373Z</time></trkpt><trkpt lat="51.603834" lon="-0.6988392"><ele>57.5</ele><time>2026-04-12T19:41:11.374Z</time></trkpt><trkpt lat="51.6037618" lon="-0.6983571"><ele>54.0</ele><time>2026-04-12T19:41:12.374Z</time></trkpt><trkpt lat="51.6036963" lon="-0.6978634"><ele>53.0</ele><time>2026-04-12T19:41:13.374Z</time></trkpt><trkpt lat="51.6036421" lon="-0.6973734"><ele>52.0</ele><time>2026-04-12T19:41:14.375Z</time></trkpt><trkpt lat="51.6036014" lon="-0.6968742"><ele>52.0</ele><time>2026-04-12T19:41:15.374Z</time></trkpt><trkpt lat="51.6035653" lon="-0.6963664"><ele>52.0</ele><time>2026-04-12T19:41:16.375Z</time></trkpt><trkpt lat="51.6035406" lon="-0.6958558"><ele>50.5</ele><time>2026-04-12T19:41:17.374Z</time></trkpt><trkpt lat="51.6035204" lon="-0.6953776"><ele>49.0</ele><time>2026-04-12T19:41:18.375Z</time></trkpt><trkpt lat="51.6035075" lon="-0.6949042"><ele>49.0</ele><time>2026-04-12T19:41:19.375Z</time></trkpt><trkpt lat="51.6034908" lon="-0.6944441"><ele>49.0</ele><time>2026-04-12T19:41:20.375Z</time></trkpt><trkpt lat="51.6034672" lon="-0.6939762"><ele>50.0</ele><time>2026-04-12T19:41:21.374Z</time></trkpt><trkpt lat="51.6034449" lon="-0.6935068"><ele>51.0</ele><time>2026-04-12T19:41:22.375Z</time></trkpt><trkpt lat="51.6034169" lon="-0.6930468"><ele>52.0</ele><time>2026-04-12T19:41:23.374Z</time></trkpt><trkpt lat="51.6033833" lon="-0.69258"><ele>53.0</ele><time>2026-04-12T19:41:24.375Z</time></trkpt><trkpt lat="51.60334" lon="-0.6921243"><ele>53.5</ele><time>2026-04-12T19:41:25.375Z</time></trkpt><trkpt lat="51.6032894" lon="-0.6916599"><ele>54.0</ele><time>2026-04-12T19:41:26.375Z</time></trkpt><trkpt lat="51.6032235" lon="-0.6911923"><ele>54.5</ele><time>2026-04-12T19:41:27.374Z</time></trkpt><trkpt lat="51.6031503" lon="-0.6907303"><ele>55.0</ele><time>2026-04-12T19:41:28.374Z</time></trkpt><trkpt lat="51.6030579" lon="-0.6902746"><ele>56.0</ele><time>2026-04-12T19:41:29.374Z</time></trkpt><trkpt lat="51.6029608" lon="-0.689822"><ele>57.0</ele><time>2026-04-12T19:41:30.375Z</time></trkpt><trkpt lat="51.6028543" lon="-0.6893745"><ele>56.0</ele><time>2026-04-12T19:41:31.374Z</time></trkpt><trkpt lat="51.6027417" lon="-0.68892"><ele>55.0</ele><time>2026-04-12T19:41:32.374Z</time></trkpt><trkpt lat="51.6026236" lon="-0.6884779"><ele>55.0</ele><time>2026-04-12T19:41:33.375Z</time></trkpt><trkpt lat="51.6024895" lon="-0.688051"><ele>55.0</ele><time>2026-04-12T19:41:34.374Z</time></trkpt><trkpt lat="51.6023454" lon="-0.6876277"><ele>57.5</ele><time>2026-04-12T19:41:35.375Z</time></trkpt><trkpt lat="51.6022016" lon="-0.6872033"><ele>60.0</ele><time>2026-04-12T19:41:36.375Z</time></trkpt><trkpt lat="51.602052" lon="-0.6867773"><ele>59.5</ele><time>2026-04-12T19:41:37.374Z</time></trkpt><trkpt lat="51.6019" lon="-0.6863518"><ele>59.0</ele><time>2026-04-12T19:41:38.374Z</time></trkpt><trkpt lat="51.6017416" lon="-0.6859135"><ele>59.0</ele><time>2026-04-12T19:41:39.374Z</time></trkpt><trkpt lat="51.6015867" lon="-0.6854814"><ele>59.0</ele><time>2026-04-12T19:41:40.374Z</time></trkpt><trkpt lat="51.6014314" lon="-0.6850655"><ele>58.0</ele><time>2026-04-12T19:41:41.374Z</time></trkpt><trkpt lat="51.6012872" lon="-0.6846449"><ele>57.0</ele><time>2026-04-12T19:41:42.374Z</time></trkpt><trkpt lat="51.6011443" lon="-0.6842246"><ele>57.0</ele><time>2026-04-12T19:41:43.375Z</time></trkpt><trkpt lat="51.6010013" lon="-0.6838071"><ele>57.0</ele><time>2026-04-12T19:41:44.375Z</time></trkpt><trkpt lat="51.6008572" lon="-0.6833987"><ele>59.5</ele><time>2026-04-12T19:41:45.374Z</time></trkpt><trkpt lat="51.6007069" lon="-0.6829954"><ele>62.0</ele><time>2026-04-12T19:41:46.374Z</time></trkpt><trkpt lat="51.6005623" lon="-0.6825972"><ele>64.0</ele><time>2026-04-12T19:41:47.374Z</time></trkpt><trkpt lat="51.6004146" lon="-0.6821944"><ele>66.0</ele><time>2026-04-12T19:41:48.374Z</time></trkpt><trkpt lat="51.6002705" lon="-0.6818038"><ele>66.0</ele><time>2026-04-12T19:41:49.374Z</time></trkpt><trkpt lat="51.6001309" lon="-0.6814038"><ele>66.0</ele><time>2026-04-12T19:41:50.375Z</time></trkpt><trkpt lat="51.5999929" lon="-0.6810267"><ele>69.0</ele><time>2026-04-12T19:41:51.375Z</time></trkpt><trkpt lat="51.5998574" lon="-0.6806315"><ele>72.0</ele><time>2026-04-12T19:41:52.374Z</time></trkpt><trkpt lat="51.5997156" lon="-0.6802489"><ele>72.0</ele><time>2026-04-12T19:41:53.374Z</time></trkpt><trkpt lat="51.5995758" lon="-0.67987"><ele>72.0</ele><time>2026-04-12T19:41:54.375Z</time></trkpt><trkpt lat="51.599437" lon="-0.6794934"><ele>75.0</ele><time>2026-04-12T19:41:55.374Z</time></trkpt><trkpt lat="51.5993016" lon="-0.6791056"><ele>78.0</ele><time>2026-04-12T19:41:56.374Z</time></trkpt><trkpt lat="51.59916" lon="-0.6787132"><ele>79.5</ele><time>2026-04-12T19:41:57.374Z</time></trkpt><trkpt lat="51.5990204" lon="-0.6783193"><ele>81.0</ele><time>2026-04-12T19:41:58.375Z</time></trkpt><trkpt lat="51.5988818" lon="-0.6779243"><ele>81.5</ele><time>2026-04-12T19:41:59.374Z</time></trkpt><trkpt lat="51.5987388" lon="-0.6775345"><ele>82.0</ele><time>2026-04-12T19:42:00.375Z</time></trkpt><trkpt lat="51.5985946" lon="-0.677134"><ele>84.5</ele><time>2026-04-12T19:42:01.375Z</time></trkpt><trkpt lat="51.5984595" lon="-0.6767304"><ele>87.0</ele><time>2026-04-12T19:42:02.374Z</time></trkpt><trkpt lat="51.5983316" lon="-0.6763188"><ele>90.0</ele><time>2026-04-12T19:42:03.374Z</time></trkpt><trkpt lat="51.5982101" lon="-0.6758971"><ele>93.0</ele><time>2026-04-12T19:42:04.374Z</time></trkpt><trkpt lat="51.5980994" lon="-0.6754787"><ele>95.5</ele><time>2026-04-12T19:42:05.374Z</time></trkpt><trkpt lat="51.5979923" lon="-0.6750468"><ele>98.0</ele><time>2026-04-12T19:42:06.375Z</time></trkpt><trkpt lat="51.5979021" lon="-0.6746174"><ele>95.0</ele><time>2026-04-12T19:42:07.375Z</time></trkpt><trkpt lat="51.5978167" lon="-0.6741815"><ele>92.0</ele><time>2026-04-12T19:42:08.374Z</time></trkpt><trkpt lat="51.5977444" lon="-0.6737361"><ele>94.0</ele><time>2026-04-12T19:42:09.374Z</time></trkpt><trkpt lat="51.5976777" lon="-0.6732847"><ele>96.0</ele><time>2026-04-12T19:42:10.375Z</time></trkpt><trkpt lat="51.5976216" lon="-0.6728296"><ele>97.5</ele><time>2026-04-12T19:42:11.374Z</time></trkpt><trkpt lat="51.5975776" lon="-0.6723754"><ele>99.0</ele><time>2026-04-12T19:42:12.375Z</time></trkpt><trkpt lat="51.5975474" lon="-0.6719417"><ele>100.5</ele><time>2026-04-12T19:42:13.374Z</time></trkpt><trkpt lat="51.5975296" lon="-0.6715116"><ele>102.0</ele><time>2026-04-12T19:42:14.375Z</time></trkpt><trkpt lat="51.5975194" lon="-0.6710908"><ele>103.0</ele><time>2026-04-12T19:42:15.375Z</time></trkpt><trkpt lat="51.5975123" lon="-0.6706918"><ele>104.0</ele><time>2026-04-12T19:42:16.375Z</time></trkpt><trkpt lat="51.5975129" lon="-0.6702869"><ele>104.0</ele><time>2026-04-12T19:42:17.374Z</time></trkpt><trkpt lat="51.5975227" lon="-0.669878"><ele>104.0</ele><time>2026-04-12T19:42:18.374Z</time></trkpt><trkpt lat="51.5975408" lon="-0.6694811"><ele>103.5</ele><time>2026-04-12T19:42:19.374Z</time></trkpt><trkpt lat="51.5975569" lon="-0.669076"><ele>103.0</ele><time>2026-04-12T19:42:20.375Z</time></trkpt><trkpt lat="51.5975769" lon="-0.6686678"><ele>103.5</ele><time>2026-04-12T19:42:21.374Z</time></trkpt><trkpt lat="51.5975913" lon="-0.6682478"><ele>104.0</ele><time>2026-04-12T19:42:22.375Z</time></trkpt><trkpt lat="51.5976191" lon="-0.6678379"><ele>104.5</ele><time>2026-04-12T19:42:23.374Z</time></trkpt><trkpt lat="51.5976452" lon="-0.6674337"><ele>105.0</ele><time>2026-04-12T19:42:24.375Z</time></trkpt><trkpt lat="51.5976659" lon="-0.6670236"><ele>105.0</ele><time>2026-04-12T19:42:25.375Z</time></trkpt><trkpt lat="51.5976835" lon="-0.6666086"><ele>105.0</ele><time>2026-04-12T19:42:26.375Z</time></trkpt><trkpt lat="51.5976995" lon="-0.6662059"><ele>105.0</ele><time>2026-04-12T19:42:27.375Z</time></trkpt><trkpt lat="51.597719" lon="-0.6658157"><ele>105.0</ele><time>2026-04-12T19:42:28.375Z</time></trkpt><trkpt lat="51.5977384" lon="-0.6654511"><ele>105.0</ele><time>2026-04-12T19:42:29.375Z</time></trkpt><trkpt lat="51.5977601" lon="-0.6650822"><ele>105.0</ele><time>2026-04-12T19:42:30.376Z</time></trkpt><trkpt lat="51.5977863" lon="-0.6647166"><ele>104.5</ele><time>2026-04-12T19:42:31.375Z</time></trkpt><trkpt lat="51.597808" lon="-0.6643508"><ele>104.0</ele><time>2026-04-12T19:42:32.376Z</time></trkpt><trkpt lat="51.5978255" lon="-0.6639861"><ele>104.0</ele><time>2026-04-12T19:42:33.376Z</time></trkpt><trkpt lat="51.597844" lon="-0.6636211"><ele>104.0</ele><time>2026-04-12T19:42:34.375Z</time></trkpt><trkpt lat="51.5978586" lon="-0.6632479"><ele>104.0</ele><time>2026-04-12T19:42:35.375Z</time></trkpt><trkpt lat="51.597879" lon="-0.6628715"><ele>104.0</ele><time>2026-04-12T19:42:36.375Z</time></trkpt><trkpt lat="51.5978994" lon="-0.6624933"><ele>104.5</ele><time>2026-04-12T19:42:37.376Z</time></trkpt><trkpt lat="51.5979191" lon="-0.662093"><ele>105.0</ele><time>2026-04-12T19:42:38.375Z</time></trkpt><trkpt lat="51.5979457" lon="-0.6616806"><ele>105.0</ele><time>2026-04-12T19:42:39.375Z</time></trkpt><trkpt lat="51.5979661" lon="-0.6612499"><ele>105.0</ele><time>2026-04-12T19:42:40.376Z</time></trkpt><trkpt lat="51.5979908" lon="-0.6608238"><ele>105.0</ele><time>2026-04-12T19:42:41.376Z</time></trkpt><trkpt lat="51.5980152" lon="-0.6603848"><ele>105.0</ele><time>2026-04-12T19:42:42.375Z</time></trkpt><trkpt lat="51.5980323" lon="-0.6599378"><ele>105.0</ele><time>2026-04-12T19:42:43.376Z</time></trkpt><trkpt lat="51.5980581" lon="-0.6594924"><ele>105.0</ele><time>2026-04-12T19:42:44.375Z</time></trkpt><trkpt lat="51.598083" lon="-0.6590579"><ele>103.5</ele><time>2026-04-12T19:42:45.376Z</time></trkpt><trkpt lat="51.5981057" lon="-0.6586071"><ele>102.0</ele><time>2026-04-12T19:42:46.376Z</time></trkpt><trkpt lat="51.5981297" lon="-0.6581469"><ele>101.5</ele><time>2026-04-12T19:42:47.375Z</time></trkpt><trkpt lat="51.5981493" lon="-0.6576742"><ele>101.0</ele><time>2026-04-12T19:42:48.376Z</time></trkpt><trkpt lat="51.5981719" lon="-0.6571955"><ele>101.5</ele><time>2026-04-12T19:42:49.375Z</time></trkpt><trkpt lat="51.5982006" lon="-0.6567028"><ele>102.0</ele><time>2026-04-12T19:42:50.376Z</time></trkpt><trkpt lat="51.5982302" lon="-0.6562143"><ele>101.5</ele><time>2026-04-12T19:42:51.376Z</time></trkpt><trkpt lat="51.5982587" lon="-0.655735"><ele>101.0</ele><time>2026-04-12T19:42:52.376Z</time></trkpt><trkpt lat="51.5982838" lon="-0.6552544"><ele>101.0</ele><time>2026-04-12T19:42:53.375Z</time></trkpt><trkpt lat="51.598313" lon="-0.6547598"><ele>101.0</ele><time>2026-04-12T19:42:54.376Z</time></trkpt><trkpt lat="51.5983335" lon="-0.6542655"><ele>101.5</ele><time>2026-04-12T19:42:55.376Z</time></trkpt><trkpt lat="51.598354" lon="-0.6537664"><ele>102.0</ele><time>2026-04-12T19:42:56.375Z</time></trkpt><trkpt lat="51.5983824" lon="-0.6532641"><ele>101.5</ele><time>2026-04-12T19:42:57.375Z</time></trkpt><trkpt lat="51.5984026" lon="-0.6527822"><ele>101.0</ele><time>2026-04-12T19:42:58.376Z</time></trkpt><trkpt lat="51.598418" lon="-0.652316"><ele>101.0</ele><time>2026-04-12T19:42:59.376Z</time></trkpt><trkpt lat="51.5984294" lon="-0.6518567"><ele>101.0</ele><time>2026-04-12T19:43:00.375Z</time></trkpt><trkpt lat="51.5984312" lon="-0.6514145"><ele>101.5</ele><time>2026-04-12T19:43:01.375Z</time></trkpt><trkpt lat="51.5984336" lon="-0.6509853"><ele>102.0</ele><time>2026-04-12T19:43:02.376Z</time></trkpt><trkpt lat="51.5984348" lon="-0.6505745"><ele>102.5</ele><time>2026-04-12T19:43:03.376Z</time></trkpt><trkpt lat="51.5984359" lon="-0.6501746"><ele>103.0</ele><time>2026-04-12T19:43:04.375Z</time></trkpt><trkpt lat="51.5984358" lon="-0.6497868"><ele>102.0</ele><time>2026-04-12T19:43:05.376Z</time></trkpt><trkpt lat="51.5984289" lon="-0.6494026"><ele>101.0</ele><time>2026-04-12T19:43:06.376Z</time></trkpt><trkpt lat="51.5984223" lon="-0.6490245"><ele>101.0</ele><time>2026-04-12T19:43:07.375Z</time></trkpt><trkpt lat="51.5984156" lon="-0.6486474"><ele>101.0</ele><time>2026-04-12T19:43:08.376Z</time></trkpt><trkpt lat="51.5984036" lon="-0.6482728"><ele>100.5</ele><time>2026-04-12T19:43:09.375Z</time></trkpt><trkpt lat="51.5983943" lon="-0.6478935"><ele>100.0</ele><time>2026-04-12T19:43:10.376Z</time></trkpt><trkpt lat="51.5983785" lon="-0.6475107"><ele>100.0</ele><time>2026-04-12T19:43:11.375Z</time></trkpt><trkpt lat="51.5983626" lon="-0.6471337"><ele>100.0</ele><time>2026-04-12T19:43:12.375Z</time></trkpt><trkpt lat="51.5983384" lon="-0.6467502"><ele>99.5</ele><time>2026-04-12T19:43:13.375Z</time></trkpt><trkpt lat="51.5983195" lon="-0.6463624"><ele>99.0</ele><time>2026-04-12T19:43:14.375Z</time></trkpt><trkpt lat="51.5982917" lon="-0.6459884"><ele>99.0</ele><time>2026-04-12T19:43:15.376Z</time></trkpt><trkpt lat="51.5982615" lon="-0.6456094"><ele>99.0</ele><time>2026-04-12T19:43:16.376Z</time></trkpt><trkpt lat="51.5982274" lon="-0.6452398"><ele>99.0</ele><time>2026-04-12T19:43:17.375Z</time></trkpt><trkpt lat="51.5982034" lon="-0.6448757"><ele>99.0</ele><time>2026-04-12T19:43:18.376Z</time></trkpt><trkpt lat="51.5981669" lon="-0.6445141"><ele>98.0</ele><time>2026-04-12T19:43:19.375Z</time></trkpt><trkpt lat="51.5981319" lon="-0.6441505"><ele>97.0</ele><time>2026-04-12T19:43:20.376Z</time></trkpt><trkpt lat="51.5980983" lon="-0.6437973"><ele>96.5</ele><time>2026-04-12T19:43:21.376Z</time></trkpt><trkpt lat="51.5980603" lon="-0.6434278"><ele>96.0</ele><time>2026-04-12T19:43:22.375Z</time></trkpt><trkpt lat="51.5980186" lon="-0.6430497"><ele>97.5</ele><time>2026-04-12T19:43:23.376Z</time></trkpt><trkpt lat="51.5979728" lon="-0.6426816"><ele>99.0</ele><time>2026-04-12T19:43:24.376Z</time></trkpt><trkpt lat="51.5979283" lon="-0.6423381"><ele>99.0</ele><time>2026-04-12T19:43:25.375Z</time></trkpt><trkpt lat="51.5978846" lon="-0.6419895"><ele>99.0</ele><time>2026-04-12T19:43:26.375Z</time></trkpt><trkpt lat="51.5978383" lon="-0.6416317"><ele>99.0</ele><time>2026-04-12T19:43:27.376Z</time></trkpt><trkpt lat="51.5977872" lon="-0.6412808"><ele>99.0</ele><time>2026-04-12T19:43:28.375Z</time></trkpt><trkpt lat="51.5977332" lon="-0.640931"><ele>99.0</ele><time>2026-04-12T19:43:29.376Z</time></trkpt><trkpt lat="51.5976781" lon="-0.6405893"><ele>99.0</ele><time>2026-04-12T19:43:30.376Z</time></trkpt><trkpt lat="51.5976266" lon="-0.6402706"><ele>99.0</ele><time>2026-04-12T19:43:31.376Z</time></trkpt><trkpt lat="51.5975734" lon="-0.6399383"><ele>99.0</ele><time>2026-04-12T19:43:32.376Z</time></trkpt><trkpt lat="51.597515" lon="-0.6396016"><ele>99.0</ele><time>2026-04-12T19:43:33.376Z</time></trkpt><trkpt lat="51.5974509" lon="-0.6392538"><ele>99.0</ele><time>2026-04-12T19:43:34.376Z</time></trkpt><trkpt lat="51.5973862" lon="-0.6389061"><ele>99.0</ele><time>2026-04-12T19:43:35.375Z</time></trkpt><trkpt lat="51.5973217" lon="-0.6385619"><ele>99.0</ele><time>2026-04-12T19:43:36.376Z</time></trkpt><trkpt lat="51.5972531" lon="-0.6382167"><ele>99.0</ele><time>2026-04-12T19:43:37.376Z</time></trkpt><trkpt lat="51.5971827" lon="-0.637862"><ele>99.0</ele><time>2026-04-12T19:43:38.376Z</time></trkpt><trkpt lat="51.5971077" lon="-0.6375046"><ele>100.5</ele><time>2026-04-12T19:43:39.376Z</time></trkpt><trkpt lat="51.5970372" lon="-0.6371488"><ele>102.0</ele><time>2026-04-12T19:43:40.376Z</time></trkpt><trkpt lat="51.5969569" lon="-0.6367922"><ele>102.5</ele><time>2026-04-12T19:43:41.376Z</time></trkpt><trkpt lat="51.5968765" lon="-0.6364438"><ele>103.0</ele><time>2026-04-12T19:43:42.376Z</time></trkpt><trkpt lat="51.5967931" lon="-0.6360953"><ele>102.0</ele><time>2026-04-12T19:43:43.375Z</time></trkpt><trkpt lat="51.5967018" lon="-0.6357422"><ele>101.0</ele><time>2026-04-12T19:43:44.376Z</time></trkpt><trkpt lat="51.5966172" lon="-0.6353803"><ele>101.0</ele><time>2026-04-12T19:43:45.376Z</time></trkpt><trkpt lat="51.596524" lon="-0.6350188"><ele>101.0</ele><time>2026-04-12T19:43:46.377Z</time></trkpt><trkpt lat="51.5964299" lon="-0.6346432"><ele>102.0</ele><time>2026-04-12T19:43:47.377Z</time></trkpt><trkpt lat="51.5963295" lon="-0.634265"><ele>103.0</ele><time>2026-04-12T19:43:48.376Z</time></trkpt><trkpt lat="51.5962248" lon="-0.6338932"><ele>102.5</ele><time>2026-04-12T19:43:49.377Z</time></trkpt><trkpt lat="51.596121" lon="-0.6335223"><ele>102.0</ele><time>2026-04-12T19:43:50.376Z</time></trkpt><trkpt lat="51.5960127" lon="-0.6331589"><ele>102.5</ele><time>2026-04-12T19:43:51.377Z</time></trkpt><trkpt lat="51.5959032" lon="-0.6327892"><ele>103.0</ele><time>2026-04-12T19:43:52.377Z</time></trkpt><trkpt lat="51.595793" lon="-0.6324238"><ele>103.0</ele><time>2026-04-12T19:43:53.377Z</time></trkpt><trkpt lat="51.5956856" lon="-0.63205"><ele>103.0</ele><time>2026-04-12T19:43:54.376Z</time></trkpt><trkpt lat="51.5955765" lon="-0.6316792"><ele>103.0</ele><time>2026-04-12T19:43:55.377Z</time></trkpt><trkpt lat="51.5954679" lon="-0.6313035"><ele>103.0</ele><time>2026-04-12T19:43:56.376Z</time></trkpt><trkpt lat="51.5953573" lon="-0.6309393"><ele>104.0</ele><time>2026-04-12T19:43:57.376Z</time></trkpt><trkpt lat="51.5952544" lon="-0.6305735"><ele>105.0</ele><time>2026-04-12T19:43:58.377Z</time></trkpt><trkpt lat="51.5951445" lon="-0.6302017"><ele>105.0</ele><time>2026-04-12T19:43:59.377Z</time></trkpt><trkpt lat="51.5950321" lon="-0.6298311"><ele>105.0</ele><time>2026-04-12T19:44:00.377Z</time></trkpt><trkpt lat="51.5949183" lon="-0.6294517"><ele>104.5</ele><time>2026-04-12T19:44:01.376Z</time></trkpt><trkpt lat="51.594806" lon="-0.6290696"><ele>104.0</ele><time>2026-04-12T19:44:02.376Z</time></trkpt><trkpt lat="51.5946918" lon="-0.6286914"><ele>104.0</ele><time>2026-04-12T19:44:03.376Z</time></trkpt><trkpt lat="51.5945825" lon="-0.6283207"><ele>104.0</ele><time>2026-04-12T19:44:04.377Z</time></trkpt><trkpt lat="51.594471" lon="-0.6279577"><ele>104.0</ele><time>2026-04-12T19:44:05.377Z</time></trkpt><trkpt lat="51.5943605" lon="-0.6275855"><ele>104.0</ele><time>2026-04-12T19:44:06.377Z</time></trkpt><trkpt lat="51.5942615" lon="-0.6272257"><ele>102.5</ele><time>2026-04-12T19:44:07.377Z</time></trkpt><trkpt lat="51.5941578" lon="-0.6268691"><ele>101.0</ele><time>2026-04-12T19:44:08.377Z</time></trkpt><trkpt lat="51.594045" lon="-0.6264974"><ele>101.5</ele><time>2026-04-12T19:44:09.376Z</time></trkpt><trkpt lat="51.5939366" lon="-0.6261138"><ele>102.0</ele><time>2026-04-12T19:44:10.377Z</time></trkpt><trkpt lat="51.5938181" lon="-0.625739"><ele>102.0</ele><time>2026-04-12T19:44:11.377Z</time></trkpt><trkpt lat="51.5937042" lon="-0.6253583"><ele>102.0</ele><time>2026-04-12T19:44:12.376Z</time></trkpt><trkpt lat="51.5935851" lon="-0.6249723"><ele>101.0</ele><time>2026-04-12T19:44:13.377Z</time></trkpt><trkpt lat="51.5934727" lon="-0.6245835"><ele>100.0</ele><time>2026-04-12T19:44:14.377Z</time></trkpt><trkpt lat="51.5933525" lon="-0.6241901"><ele>99.5</ele><time>2026-04-12T19:44:15.376Z</time></trkpt><trkpt lat="51.5932423" lon="-0.6238167"><ele>99.0</ele><time>2026-04-12T19:44:16.377Z</time></trkpt><trkpt lat="51.5931357" lon="-0.6234327"><ele>99.0</ele><time>2026-04-12T19:44:17.377Z</time></trkpt><trkpt lat="51.5930259" lon="-0.6230482"><ele>99.0</ele><time>2026-04-12T19:44:18.377Z</time></trkpt><trkpt lat="51.5929172" lon="-0.6226699"><ele>98.0</ele><time>2026-04-12T19:44:19.377Z</time></trkpt><trkpt lat="51.5928002" lon="-0.6222803"><ele>97.0</ele><time>2026-04-12T19:44:20.377Z</time></trkpt><trkpt lat="51.5926807" lon="-0.6218923"><ele>96.0</ele><time>2026-04-12T19:44:21.376Z</time></trkpt><trkpt lat="51.5925597" lon="-0.6214902"><ele>95.0</ele><time>2026-04-12T19:44:22.376Z</time></trkpt><trkpt lat="51.5924393" lon="-0.6210968"><ele>95.0</ele><time>2026-04-12T19:44:23.376Z</time></trkpt><trkpt lat="51.5923223" lon="-0.6207008"><ele>95.0</ele><time>2026-04-12T19:44:24.376Z</time></trkpt><trkpt lat="51.5922076" lon="-0.6203004"><ele>95.0</ele><time>2026-04-12T19:44:25.377Z</time></trkpt><trkpt lat="51.5920823" lon="-0.6199033"><ele>95.0</ele><time>2026-04-12T19:44:26.377Z</time></trkpt><trkpt lat="51.5919669" lon="-0.6195043"><ele>95.5</ele><time>2026-04-12T19:44:27.376Z</time></trkpt><trkpt lat="51.5918496" lon="-0.6191036"><ele>96.0</ele><time>2026-04-12T19:44:28.377Z</time></trkpt><trkpt lat="51.5917307" lon="-0.61871"><ele>95.5</ele><time>2026-04-12T19:44:29.376Z</time></trkpt><trkpt lat="51.5916126" lon="-0.6183097"><ele>95.0</ele><time>2026-04-12T19:44:30.376Z</time></trkpt><trkpt lat="51.591495" lon="-0.617902"><ele>95.5</ele><time>2026-04-12T19:44:31.377Z</time></trkpt><trkpt lat="51.5913758" lon="-0.6174976"><ele>96.0</ele><time>2026-04-12T19:44:32.377Z</time></trkpt><trkpt lat="51.5912585" lon="-0.6170907"><ele>96.0</ele><time>2026-04-12T19:44:33.377Z</time></trkpt><trkpt lat="51.5911393" lon="-0.616698"><ele>96.0</ele><time>2026-04-12T19:44:34.376Z</time></trkpt><trkpt lat="51.5910153" lon="-0.6162874"><ele>95.0</ele><time>2026-04-12T19:44:35.376Z</time></trkpt><trkpt lat="51.5908948" lon="-0.6158706"><ele>94.0</ele><time>2026-04-12T19:44:36.376Z</time></trkpt><trkpt lat="51.5907734" lon="-0.6154629"><ele>93.5</ele><time>2026-04-12T19:44:37.376Z</time></trkpt><trkpt lat="51.5906499" lon="-0.6150467"><ele>93.0</ele><time>2026-04-12T19:44:38.376Z</time></trkpt><trkpt lat="51.59053" lon="-0.6146386"><ele>93.0</ele><time>2026-04-12T19:44:39.377Z</time></trkpt><trkpt lat="51.5904068" lon="-0.6142283"><ele>93.0</ele><time>2026-04-12T19:44:40.377Z</time></trkpt><trkpt lat="51.5902862" lon="-0.6138218"><ele>92.5</ele><time>2026-04-12T19:44:41.377Z</time></trkpt><trkpt lat="51.590166" lon="-0.6134091"><ele>92.0</ele><time>2026-04-12T19:44:42.377Z</time></trkpt><trkpt lat="51.5900464" lon="-0.6129961"><ele>92.0</ele><time>2026-04-12T19:44:43.377Z</time></trkpt><trkpt lat="51.5899243" lon="-0.6125953"><ele>92.0</ele><time>2026-04-12T19:44:44.377Z</time></trkpt><trkpt lat="51.5898042" lon="-0.6121816"><ele>92.0</ele><time>2026-04-12T19:44:45.377Z</time></trkpt><trkpt lat="51.5896843" lon="-0.6117734"><ele>92.0</ele><time>2026-04-12T19:44:46.377Z</time></trkpt><trkpt lat="51.5895617" lon="-0.6113697"><ele>91.0</ele><time>2026-04-12T19:44:47.376Z</time></trkpt><trkpt lat="51.589439" lon="-0.6109428"><ele>90.0</ele><time>2026-04-12T19:44:48.377Z</time></trkpt><trkpt lat="51.5893054" lon="-0.6105089"><ele>90.0</ele><time>2026-04-12T19:44:49.376Z</time></trkpt><trkpt lat="51.5891808" lon="-0.6100849"><ele>90.0</ele><time>2026-04-12T19:44:50.377Z</time></trkpt><trkpt lat="51.589054" lon="-0.6096685"><ele>90.5</ele><time>2026-04-12T19:44:51.377Z</time></trkpt><trkpt lat="51.5889332" lon="-0.6092493"><ele>91.0</ele><time>2026-04-12T19:44:52.376Z</time></trkpt><trkpt lat="51.5888103" lon="-0.6088275"><ele>91.5</ele><time>2026-04-12T19:44:53.377Z</time></trkpt><trkpt lat="51.5886847" lon="-0.60841"><ele>92.0</ele><time>2026-04-12T19:44:54.376Z</time></trkpt><trkpt lat="51.5885627" lon="-0.6079938"><ele>92.5</ele><time>2026-04-12T19:44:55.377Z</time></trkpt><trkpt lat="51.588438" lon="-0.6075761"><ele>93.0</ele><time>2026-04-12T19:44:56.376Z</time></trkpt><trkpt lat="51.5883121" lon="-0.607158"><ele>93.0</ele><time>2026-04-12T19:44:57.376Z</time></trkpt><trkpt lat="51.5881892" lon="-0.6067385"><ele>93.0</ele><time>2026-04-12T19:44:58.378Z</time></trkpt><trkpt lat="51.5880627" lon="-0.6063238"><ele>93.0</ele><time>2026-04-12T19:44:59.377Z</time></trkpt><trkpt lat="51.5879377" lon="-0.6059077"><ele>93.0</ele><time>2026-04-12T19:45:00.378Z</time></trkpt><trkpt lat="51.5878143" lon="-0.6054965"><ele>93.0</ele><time>2026-04-12T19:45:01.377Z</time></trkpt><trkpt lat="51.5876932" lon="-0.6050809"><ele>93.0</ele><time>2026-04-12T19:45:02.378Z</time></trkpt><trkpt lat="51.5875731" lon="-0.6046678"><ele>93.0</ele><time>2026-04-12T19:45:03.378Z</time></trkpt><trkpt lat="51.5874569" lon="-0.6042555"><ele>93.0</ele><time>2026-04-12T19:45:04.377Z</time></trkpt><trkpt lat="51.5873316" lon="-0.6038502"><ele>93.0</ele><time>2026-04-12T19:45:05.377Z</time></trkpt><trkpt lat="51.5872065" lon="-0.6034437"><ele>93.0</ele><time>2026-04-12T19:45:06.377Z</time></trkpt><trkpt lat="51.5870876" lon="-0.6030406"><ele>92.5</ele><time>2026-04-12T19:45:07.377Z</time></trkpt><trkpt lat="51.5869682" lon="-0.602629"><ele>92.0</ele><time>2026-04-12T19:45:08.378Z</time></trkpt><trkpt lat="51.5868462" lon="-0.6022198"><ele>92.0</ele><time>2026-04-12T19:45:09.377Z</time></trkpt><trkpt lat="51.586728" lon="-0.601803"><ele>92.0</ele><time>2026-04-12T19:45:10.377Z</time></trkpt><trkpt lat="51.5866039" lon="-0.6013917"><ele>92.0</ele><time>2026-04-12T19:45:11.377Z</time></trkpt><trkpt lat="51.5864853" lon="-0.6009734"><ele>92.0</ele><time>2026-04-12T19:45:12.378Z</time></trkpt><trkpt lat="51.5863626" lon="-0.6005634"><ele>92.5</ele><time>2026-04-12T19:45:13.377Z</time></trkpt><trkpt lat="51.5862393" lon="-0.6001562"><ele>93.0</ele><time>2026-04-12T19:45:14.378Z</time></trkpt><trkpt lat="51.586118" lon="-0.5997564"><ele>93.5</ele><time>2026-04-12T19:45:15.377Z</time></trkpt><trkpt lat="51.5859968" lon="-0.5993449"><ele>94.0</ele><time>2026-04-12T19:45:16.378Z</time></trkpt><trkpt lat="51.5858741" lon="-0.5989374"><ele>93.5</ele><time>2026-04-12T19:45:17.378Z</time></trkpt><trkpt lat="51.5857537" lon="-0.5985379"><ele>93.0</ele><time>2026-04-12T19:45:18.378Z</time></trkpt><trkpt lat="51.5856311" lon="-0.5981322"><ele>93.0</ele><time>2026-04-12T19:45:19.378Z</time></trkpt><trkpt lat="51.5855078" lon="-0.5977242"><ele>93.0</ele><time>2026-04-12T19:45:20.377Z</time></trkpt><trkpt lat="51.5853888" lon="-0.5973072"><ele>94.0</ele><time>2026-04-12T19:45:21.377Z</time></trkpt><trkpt lat="51.5852701" lon="-0.5968885"><ele>95.0</ele><time>2026-04-12T19:45:22.378Z</time></trkpt><trkpt lat="51.5851475" lon="-0.5964808"><ele>94.5</ele><time>2026-04-12T19:45:23.378Z</time></trkpt><trkpt lat="51.5850248" lon="-0.5960759"><ele>94.0</ele><time>2026-04-12T19:45:24.378Z</time></trkpt><trkpt lat="51.5849025" lon="-0.59567"><ele>93.0</ele><time>2026-04-12T19:45:25.377Z</time></trkpt><trkpt lat="51.5847826" lon="-0.5952586"><ele>92.0</ele><time>2026-04-12T19:45:26.378Z</time></trkpt><trkpt lat="51.5846577" lon="-0.5948466"><ele>92.0</ele><time>2026-04-12T19:45:27.377Z</time></trkpt><trkpt lat="51.5845353" lon="-0.5944312"><ele>92.0</ele><time>2026-04-12T19:45:28.377Z</time></trkpt><trkpt lat="51.5844153" lon="-0.5940199"><ele>92.0</ele><time>2026-04-12T19:45:29.378Z</time></trkpt><trkpt lat="51.5842946" lon="-0.5936071"><ele>92.0</ele><time>2026-04-12T19:45:30.378Z</time></trkpt><trkpt lat="51.584175" lon="-0.5931876"><ele>92.0</ele><time>2026-04-12T19:45:31.378Z</time></trkpt><trkpt lat="51.5840481" lon="-0.5927618"><ele>92.0</ele><time>2026-04-12T19:45:32.378Z</time></trkpt><trkpt lat="51.5839221" lon="-0.5923418"><ele>92.0</ele><time>2026-04-12T19:45:33.378Z</time></trkpt><trkpt lat="51.5838017" lon="-0.5919234"><ele>92.0</ele><time>2026-04-12T19:45:34.377Z</time></trkpt><trkpt lat="51.583682" lon="-0.5914981"><ele>91.5</ele><time>2026-04-12T19:45:35.377Z</time></trkpt><trkpt lat="51.5835534" lon="-0.5910738"><ele>91.0</ele><time>2026-04-12T19:45:36.378Z</time></trkpt><trkpt lat="51.5834316" lon="-0.5906412"><ele>90.5</ele><time>2026-04-12T19:45:37.377Z</time></trkpt><trkpt lat="51.5833039" lon="-0.5901954"><ele>90.0</ele><time>2026-04-12T19:45:38.377Z</time></trkpt><trkpt lat="51.5831788" lon="-0.58976"><ele>89.5</ele><time>2026-04-12T19:45:39.377Z</time></trkpt><trkpt lat="51.5830571" lon="-0.5893434"><ele>89.0</ele><time>2026-04-12T19:45:40.378Z</time></trkpt><trkpt lat="51.5829364" lon="-0.5889308"><ele>88.0</ele><time>2026-04-12T19:45:41.378Z</time></trkpt><trkpt lat="51.5828126" lon="-0.5885164"><ele>87.0</ele><time>2026-04-12T19:45:42.378Z</time></trkpt><trkpt lat="51.5826775" lon="-0.5881125"><ele>86.0</ele><time>2026-04-12T19:45:43.377Z</time></trkpt><trkpt lat="51.5825334" lon="-0.5877128"><ele>85.0</ele><time>2026-04-12T19:45:44.378Z</time></trkpt><trkpt lat="51.582388" lon="-0.5873271"><ele>85.0</ele><time>2026-04-12T19:45:45.378Z</time></trkpt><trkpt lat="51.5822301" lon="-0.5869468"><ele>85.0</ele><time>2026-04-12T19:45:46.378Z</time></trkpt><trkpt lat="51.5820606" lon="-0.5865643"><ele>84.0</ele><time>2026-04-12T19:45:47.378Z</time></trkpt><trkpt lat="51.5818846" lon="-0.5861873"><ele>83.0</ele><time>2026-04-12T19:45:48.378Z</time></trkpt><trkpt lat="51.5816978" lon="-0.5858061"><ele>83.0</ele><time>2026-04-12T19:45:49.378Z</time></trkpt><trkpt lat="51.5814975" lon="-0.585426"><ele>83.0</ele><time>2026-04-12T19:45:50.377Z</time></trkpt><trkpt lat="51.5812846" lon="-0.5850508"><ele>82.5</ele><time>2026-04-12T19:45:51.377Z</time></trkpt><trkpt lat="51.5810629" lon="-0.5846915"><ele>82.0</ele><time>2026-04-12T19:45:52.377Z</time></trkpt><trkpt lat="51.5808311" lon="-0.5843535"><ele>79.5</ele><time>2026-04-12T19:45:53.377Z</time></trkpt><trkpt lat="51.5806081" lon="-0.584041"><ele>77.0</ele><time>2026-04-12T19:45:54.378Z</time></trkpt><trkpt lat="51.5803781" lon="-0.5837399"><ele>76.5</ele><time>2026-04-12T19:45:55.378Z</time></trkpt><trkpt lat="51.5801388" lon="-0.5834482"><ele>76.0</ele><time>2026-04-12T19:45:56.378Z</time></trkpt><trkpt lat="51.579899" lon="-0.5831796"><ele>76.0</ele><time>2026-04-12T19:45:57.378Z</time></trkpt><trkpt lat="51.5796543" lon="-0.5829091"><ele>76.0</ele><time>2026-04-12T19:45:58.378Z</time></trkpt><trkpt lat="51.5794075" lon="-0.5826604"><ele>73.0</ele><time>2026-04-12T19:45:59.377Z</time></trkpt><trkpt lat="51.5791573" lon="-0.5824314"><ele>70.0</ele><time>2026-04-12T19:46:00.378Z</time></trkpt><trkpt lat="51.5789113" lon="-0.5822131"><ele>68.0</ele><time>2026-04-12T19:46:01.378Z</time></trkpt><trkpt lat="51.5786604" lon="-0.5820197"><ele>66.0</ele><time>2026-04-12T19:46:02.377Z</time></trkpt><trkpt lat="51.5784101" lon="-0.5818414"><ele>66.0</ele><time>2026-04-12T19:46:03.377Z</time></trkpt><trkpt lat="51.5781646" lon="-0.58167"><ele>66.0</ele><time>2026-04-12T19:46:04.377Z</time></trkpt><trkpt lat="51.5779099" lon="-0.5815013"><ele>64.0</ele><time>2026-04-12T19:46:05.377Z</time></trkpt><trkpt lat="51.5776584" lon="-0.5813275"><ele>62.0</ele><time>2026-04-12T19:46:06.377Z</time></trkpt><trkpt lat="51.5774038" lon="-0.5811537"><ele>62.0</ele><time>2026-04-12T19:46:07.378Z</time></trkpt><trkpt lat="51.5771359" lon="-0.5809788"><ele>62.0</ele><time>2026-04-12T19:46:08.377Z</time></trkpt><trkpt lat="51.5768695" lon="-0.5807952"><ele>61.0</ele><time>2026-04-12T19:46:09.377Z</time></trkpt><trkpt lat="51.576594" lon="-0.5806056"><ele>60.0</ele><time>2026-04-12T19:46:10.378Z</time></trkpt><trkpt lat="51.576322" lon="-0.5804101"><ele>60.0</ele><time>2026-04-12T19:46:11.377Z</time></trkpt><trkpt lat="51.5760591" lon="-0.5802175"><ele>60.0</ele><time>2026-04-12T19:46:12.378Z</time></trkpt><trkpt lat="51.5757988" lon="-0.5800126"><ele>60.0</ele><time>2026-04-12T19:46:13.378Z</time></trkpt><trkpt lat="51.5755395" lon="-0.5797922"><ele>60.0</ele><time>2026-04-12T19:46:14.379Z</time></trkpt><trkpt lat="51.5752864" lon="-0.5795641"><ele>59.0</ele><time>2026-04-12T19:46:15.378Z</time></trkpt><trkpt lat="51.5750265" lon="-0.5793383"><ele>58.0</ele><time>2026-04-12T19:46:16.379Z</time></trkpt><trkpt lat="51.5747711" lon="-0.5790968"><ele>58.0</ele><time>2026-04-12T19:46:17.379Z</time></trkpt><trkpt lat="51.5745262" lon="-0.5788455"><ele>58.0</ele><time>2026-04-12T19:46:18.378Z</time></trkpt><trkpt lat="51.5742841" lon="-0.5785631"><ele>60.5</ele><time>2026-04-12T19:46:19.379Z</time></trkpt><trkpt lat="51.5740432" lon="-0.5782751"><ele>63.0</ele><time>2026-04-12T19:46:20.379Z</time></trkpt><trkpt lat="51.5738086" lon="-0.5779986"><ele>63.0</ele><time>2026-04-12T19:46:21.378Z</time></trkpt><trkpt lat="51.5735771" lon="-0.5777136"><ele>63.0</ele><time>2026-04-12T19:46:22.379Z</time></trkpt><trkpt lat="51.5733534" lon="-0.5774175"><ele>63.0</ele><time>2026-04-12T19:46:23.379Z</time></trkpt><trkpt lat="51.5731382" lon="-0.5771041"><ele>63.0</ele><time>2026-04-12T19:46:24.378Z</time></trkpt><trkpt lat="51.5729359" lon="-0.5767995"><ele>61.0</ele><time>2026-04-12T19:46:25.379Z</time></trkpt><trkpt lat="51.5727402" lon="-0.5764888"><ele>59.0</ele><time>2026-04-12T19:46:26.379Z</time></trkpt><trkpt lat="51.572549" lon="-0.5761747"><ele>59.0</ele><time>2026-04-12T19:46:27.378Z</time></trkpt><trkpt lat="51.5723569" lon="-0.5758537"><ele>59.0</ele><time>2026-04-12T19:46:28.378Z</time></trkpt><trkpt lat="51.572179" lon="-0.5755403"><ele>57.5</ele><time>2026-04-12T19:46:29.378Z</time></trkpt><trkpt lat="51.5720017" lon="-0.5752161"><ele>56.0</ele><time>2026-04-12T19:46:30.379Z</time></trkpt><trkpt lat="51.5718409" lon="-0.5748903"><ele>56.0</ele><time>2026-04-12T19:46:31.378Z</time></trkpt><trkpt lat="51.5716794" lon="-0.5745667"><ele>56.0</ele><time>2026-04-12T19:46:32.378Z</time></trkpt><trkpt lat="51.571519" lon="-0.5742362"><ele>58.5</ele><time>2026-04-12T19:46:33.379Z</time></trkpt><trkpt lat="51.571362" lon="-0.5739142"><ele>61.0</ele><time>2026-04-12T19:46:34.379Z</time></trkpt><trkpt lat="51.5712068" lon="-0.5735886"><ele>60.5</ele><time>2026-04-12T19:46:35.378Z</time></trkpt><trkpt lat="51.5710641" lon="-0.5732579"><ele>60.0</ele><time>2026-04-12T19:46:36.379Z</time></trkpt><trkpt lat="51.5709338" lon="-0.5729177"><ele>64.0</ele><time>2026-04-12T19:46:37.379Z</time></trkpt><trkpt lat="51.5708043" lon="-0.5725819"><ele>68.0</ele><time>2026-04-12T19:46:38.378Z</time></trkpt><trkpt lat="51.5706779" lon="-0.5722331"><ele>71.0</ele><time>2026-04-12T19:46:39.379Z</time></trkpt><trkpt lat="51.5705598" lon="-0.5718763"><ele>74.0</ele><time>2026-04-12T19:46:40.379Z</time></trkpt><trkpt lat="51.5704386" lon="-0.5715306"><ele>72.0</ele><time>2026-04-12T19:46:41.379Z</time></trkpt><trkpt lat="51.5703275" lon="-0.571188"><ele>70.0</ele><time>2026-04-12T19:46:42.379Z</time></trkpt><trkpt lat="51.5702134" lon="-0.5708458"><ele>70.0</ele><time>2026-04-12T19:46:43.379Z</time></trkpt><trkpt lat="51.5701081" lon="-0.5705135"><ele>70.0</ele><time>2026-04-12T19:46:44.378Z</time></trkpt><trkpt lat="51.5700038" lon="-0.5701643"><ele>70.0</ele><time>2026-04-12T19:46:45.378Z</time></trkpt><trkpt lat="51.5699108" lon="-0.5698304"><ele>70.0</ele><time>2026-04-12T19:46:46.379Z</time></trkpt><trkpt lat="51.5698212" lon="-0.5694817"><ele>71.5</ele><time>2026-04-12T19:46:47.378Z</time></trkpt><trkpt lat="51.5697243" lon="-0.5691325"><ele>73.0</ele><time>2026-04-12T19:46:48.379Z</time></trkpt><trkpt lat="51.5696315" lon="-0.5687843"><ele>74.5</ele><time>2026-04-12T19:46:49.379Z</time></trkpt><trkpt lat="51.5695343" lon="-0.5684461"><ele>76.0</ele><time>2026-04-12T19:46:50.378Z</time></trkpt><trkpt lat="51.5694398" lon="-0.568107"><ele>72.66666666666666</ele><time>2026-04-12T19:46:51.379Z</time></trkpt><trkpt lat="51.569349" lon="-0.5677877"><ele>69.33333333333333</ele><time>2026-04-12T19:46:52.378Z</time></trkpt><trkpt lat="51.5692621" lon="-0.5674625"><ele>66.0</ele><time>2026-04-12T19:46:53.378Z</time></trkpt><trkpt lat="51.5691691" lon="-0.5671415"><ele>67.5</ele><time>2026-04-12T19:46:54.379Z</time></trkpt><trkpt lat="51.5690745" lon="-0.5668071"><ele>69.0</ele><time>2026-04-12T19:46:55.378Z</time></trkpt><trkpt lat="51.5689861" lon="-0.566464"><ele>70.5</ele><time>2026-04-12T19:46:56.379Z</time></trkpt><trkpt lat="51.568894" lon="-0.566127"><ele>72.0</ele><time>2026-04-12T19:46:57.379Z</time></trkpt><trkpt lat="51.5687954" lon="-0.565798"><ele>72.0</ele><time>2026-04-12T19:46:58.379Z</time></trkpt><trkpt lat="51.5687001" lon="-0.5654541"><ele>72.0</ele><time>2026-04-12T19:46:59.378Z</time></trkpt><trkpt lat="51.5686078" lon="-0.5651264"><ele>71.5</ele><time>2026-04-12T19:47:00.379Z</time></trkpt><trkpt lat="51.5685048" lon="-0.564787"><ele>71.0</ele><time>2026-04-12T19:47:01.379Z</time></trkpt><trkpt lat="51.5684072" lon="-0.5644428"><ele>71.0</ele><time>2026-04-12T19:47:02.378Z</time></trkpt><trkpt lat="51.5683035" lon="-0.5641119"><ele>71.0</ele><time>2026-04-12T19:47:03.379Z</time></trkpt><trkpt lat="51.5682112" lon="-0.5637921"><ele>71.0</ele><time>2026-04-12T19:47:04.379Z</time></trkpt><trkpt lat="51.5681182" lon="-0.5634835"><ele>73.5</ele><time>2026-04-12T19:47:05.378Z</time></trkpt><trkpt lat="51.5680144" lon="-0.5631645"><ele>76.0</ele><time>2026-04-12T19:47:06.378Z</time></trkpt><trkpt lat="51.5679073" lon="-0.5628411"><ele>71.5</ele><time>2026-04-12T19:47:07.378Z</time></trkpt><trkpt lat="51.5677996" lon="-0.5625219"><ele>67.0</ele><time>2026-04-12T19:47:08.379Z</time></trkpt><trkpt lat="51.5676891" lon="-0.5622079"><ele>69.0</ele><time>2026-04-12T19:47:09.378Z</time></trkpt><trkpt lat="51.5675766" lon="-0.5618809"><ele>71.0</ele><time>2026-04-12T19:47:10.378Z</time></trkpt><trkpt lat="51.5674662" lon="-0.5615424"><ele>71.0</ele><time>2026-04-12T19:47:11.379Z</time></trkpt><trkpt lat="51.5673535" lon="-0.5612089"><ele>71.0</ele><time>2026-04-12T19:47:12.379Z</time></trkpt><trkpt lat="51.5672312" lon="-0.5608765"><ele>72.5</ele><time>2026-04-12T19:47:13.379Z</time></trkpt><trkpt lat="51.5671071" lon="-0.560539"><ele>74.0</ele><time>2026-04-12T19:47:14.379Z</time></trkpt><trkpt lat="51.5669807" lon="-0.5602087"><ele>70.5</ele><time>2026-04-12T19:47:15.379Z</time></trkpt><trkpt lat="51.5668529" lon="-0.5598739"><ele>67.0</ele><time>2026-04-12T19:47:16.379Z</time></trkpt><trkpt lat="51.5667249" lon="-0.5595384"><ele>66.0</ele><time>2026-04-12T19:47:17.379Z</time></trkpt><trkpt lat="51.5665918" lon="-0.5592091"><ele>65.0</ele><time>2026-04-12T19:47:18.378Z</time></trkpt><trkpt lat="51.5664518" lon="-0.5588849"><ele>65.0</ele><time>2026-04-12T19:47:19.379Z</time></trkpt><trkpt lat="51.5663208" lon="-0.5585618"><ele>65.0</ele><time>2026-04-12T19:47:20.379Z</time></trkpt><trkpt lat="51.5661837" lon="-0.5582499"><ele>65.0</ele><time>2026-04-12T19:47:21.379Z</time></trkpt><trkpt lat="51.5660534" lon="-0.5579315"><ele>65.0</ele><time>2026-04-12T19:47:22.378Z</time></trkpt><trkpt lat="51.5659187" lon="-0.5576147"><ele>63.5</ele><time>2026-04-12T19:47:23.378Z</time></trkpt><trkpt lat="51.5657803" lon="-0.5573045"><ele>62.0</ele><time>2026-04-12T19:47:24.378Z</time></trkpt><trkpt lat="51.5656436" lon="-0.5569998"><ele>61.5</ele><time>2026-04-12T19:47:25.379Z</time></trkpt><trkpt lat="51.5655138" lon="-0.5566882"><ele>61.0</ele><time>2026-04-12T19:47:26.379Z</time></trkpt><trkpt lat="51.5653761" lon="-0.5563943"><ele>61.5</ele><time>2026-04-12T19:47:27.379Z</time></trkpt><trkpt lat="51.5652379" lon="-0.5561036"><ele>62.0</ele><time>2026-04-12T19:47:28.379Z</time></trkpt><trkpt lat="51.5651057" lon="-0.5558006"><ele>62.0</ele><time>2026-04-12T19:47:29.378Z</time></trkpt><trkpt lat="51.5649771" lon="-0.5555028"><ele>62.0</ele><time>2026-04-12T19:47:30.379Z</time></trkpt><trkpt lat="51.564848" lon="-0.5552002"><ele>62.5</ele><time>2026-04-12T19:47:31.379Z</time></trkpt><trkpt lat="51.5647184" lon="-0.5548957"><ele>63.0</ele><time>2026-04-12T19:47:32.379Z</time></trkpt><trkpt lat="51.5645849" lon="-0.5545893"><ele>64.5</ele><time>2026-04-12T19:47:33.38Z</time></trkpt><trkpt lat="51.5644629" lon="-0.5542659"><ele>66.0</ele><time>2026-04-12T19:47:34.38Z</time></trkpt><trkpt lat="51.5643412" lon="-0.5539312"><ele>67.0</ele><time>2026-04-12T19:47:35.38Z</time></trkpt><trkpt lat="51.5642233" lon="-0.5535991"><ele>68.0</ele><time>2026-04-12T19:47:36.38Z</time></trkpt><trkpt lat="51.5641002" lon="-0.5532668"><ele>68.0</ele><time>2026-04-12T19:47:37.38Z</time></trkpt><trkpt lat="51.5639836" lon="-0.5529235"><ele>68.0</ele><time>2026-04-12T19:47:38.38Z</time></trkpt><trkpt lat="51.563881" lon="-0.5525752"><ele>68.5</ele><time>2026-04-12T19:47:39.379Z</time></trkpt><trkpt lat="51.5637776" lon="-0.5522244"><ele>69.0</ele><time>2026-04-12T19:47:40.38Z</time></trkpt><trkpt lat="51.5636821" lon="-0.5518702"><ele>67.0</ele><time>2026-04-12T19:47:41.379Z</time></trkpt><trkpt lat="51.5635887" lon="-0.5515266"><ele>65.0</ele><time>2026-04-12T19:47:42.379Z</time></trkpt><trkpt lat="51.5635033" lon="-0.5511633"><ele>65.0</ele><time>2026-04-12T19:47:43.38Z</time></trkpt><trkpt lat="51.5634284" lon="-0.5508066"><ele>65.0</ele><time>2026-04-12T19:47:44.379Z</time></trkpt><trkpt lat="51.5633541" lon="-0.5504318"><ele>66.0</ele><time>2026-04-12T19:47:45.379Z</time></trkpt><trkpt lat="51.563281" lon="-0.5500397"><ele>67.0</ele><time>2026-04-12T19:47:46.379Z</time></trkpt><trkpt lat="51.5632078" lon="-0.5496417"><ele>67.5</ele><time>2026-04-12T19:47:47.379Z</time></trkpt><trkpt lat="51.5631456" lon="-0.5492425"><ele>68.0</ele><time>2026-04-12T19:47:48.38Z</time></trkpt><trkpt lat="51.5630774" lon="-0.5488419"><ele>67.5</ele><time>2026-04-12T19:47:49.379Z</time></trkpt><trkpt lat="51.5630121" lon="-0.5484507"><ele>67.0</ele><time>2026-04-12T19:47:50.38Z</time></trkpt><trkpt lat="51.5629544" lon="-0.5480578"><ele>66.0</ele><time>2026-04-12T19:47:51.379Z</time></trkpt><trkpt lat="51.5629041" lon="-0.5476659"><ele>65.0</ele><time>2026-04-12T19:47:52.379Z</time></trkpt><trkpt lat="51.5628536" lon="-0.5472852"><ele>66.5</ele><time>2026-04-12T19:47:53.38Z</time></trkpt><trkpt lat="51.5628095" lon="-0.5468943"><ele>68.0</ele><time>2026-04-12T19:47:54.379Z</time></trkpt><trkpt lat="51.5627711" lon="-0.5465194"><ele>69.5</ele><time>2026-04-12T19:47:55.379Z</time></trkpt><trkpt lat="51.5627439" lon="-0.546134"><ele>71.0</ele><time>2026-04-12T19:47:56.38Z</time></trkpt><trkpt lat="51.5627134" lon="-0.5457384"><ele>71.0</ele><time>2026-04-12T19:47:57.379Z</time></trkpt><trkpt lat="51.5626837" lon="-0.5453409"><ele>71.0</ele><time>2026-04-12T19:47:58.38Z</time></trkpt><trkpt lat="51.5626583" lon="-0.5449542"><ele>71.0</ele><time>2026-04-12T19:47:59.38Z</time></trkpt><trkpt lat="51.5626267" lon="-0.544583"><ele>71.0</ele><time>2026-04-12T19:48:00.38Z</time></trkpt><trkpt lat="51.5625991" lon="-0.5442253"><ele>70.33333333333334</ele><time>2026-04-12T19:48:01.38Z</time></trkpt><trkpt lat="51.562576" lon="-0.5438748"><ele>69.66666666666667</ele><time>2026-04-12T19:48:02.379Z</time></trkpt><trkpt lat="51.5625663" lon="-0.5435209"><ele>69.0</ele><time>2026-04-12T19:48:03.38Z</time></trkpt><trkpt lat="51.5625562" lon="-0.5431806"><ele>67.66666666666667</ele><time>2026-04-12T19:48:04.379Z</time></trkpt><trkpt lat="51.5625424" lon="-0.5428381"><ele>66.33333333333334</ele><time>2026-04-12T19:48:05.379Z</time></trkpt><trkpt lat="51.5625326" lon="-0.5424833"><ele>65.0</ele><time>2026-04-12T19:48:06.38Z</time></trkpt><trkpt lat="51.5625264" lon="-0.542136"><ele>64.33333333333334</ele><time>2026-04-12T19:48:07.379Z</time></trkpt><trkpt lat="51.5625257" lon="-0.5417912"><ele>63.66666666666667</ele><time>2026-04-12T19:48:08.38Z</time></trkpt><trkpt lat="51.5625305" lon="-0.5414455"><ele>63.0</ele><time>2026-04-12T19:48:09.38Z</time></trkpt><trkpt lat="51.562541" lon="-0.541089"><ele>62.66666666666667</ele><time>2026-04-12T19:48:10.379Z</time></trkpt><trkpt lat="51.5625565" lon="-0.540748"><ele>62.333333333333336</ele><time>2026-04-12T19:48:11.379Z</time></trkpt><trkpt lat="51.5625743" lon="-0.5404097"><ele>62.0</ele><time>2026-04-12T19:48:12.38Z</time></trkpt><trkpt lat="51.5625887" lon="-0.5400876"><ele>61.333333333333336</ele><time>2026-04-12T19:48:13.38Z</time></trkpt><trkpt lat="51.56259" lon="-0.5397691"><ele>60.66666666666667</ele><time>2026-04-12T19:48:14.38Z</time></trkpt><trkpt lat="51.5625654" lon="-0.5394467"><ele>60.0</ele><time>2026-04-12T19:48:15.38Z</time></trkpt><trkpt lat="51.5625296" lon="-0.5391375"><ele>59.33333333333333</ele><time>2026-04-12T19:48:16.38Z</time></trkpt><trkpt lat="51.5624737" lon="-0.5388175"><ele>58.666666666666664</ele><time>2026-04-12T19:48:17.379Z</time></trkpt><trkpt lat="51.5623949" lon="-0.5384863"><ele>58.0</ele><time>2026-04-12T19:48:18.38Z</time></trkpt><trkpt lat="51.5622931" lon="-0.5381546"><ele>55.5</ele><time>2026-04-12T19:48:19.38Z</time></trkpt><trkpt lat="51.5621691" lon="-0.5378272"><ele>53.0</ele><time>2026-04-12T19:48:20.379Z</time></trkpt><trkpt lat="51.5620328" lon="-0.5375224"><ele>53.0</ele><time>2026-04-12T19:48:21.379Z</time></trkpt><trkpt lat="51.5618679" lon="-0.5372496"><ele>53.0</ele><time>2026-04-12T19:48:22.38Z</time></trkpt><trkpt lat="51.5616808" lon="-0.5369997"><ele>52.0</ele><time>2026-04-12T19:48:23.379Z</time></trkpt><trkpt lat="51.5614906" lon="-0.5367687"><ele>51.0</ele><time>2026-04-12T19:48:24.38Z</time></trkpt><trkpt lat="51.5613063" lon="-0.5365568"><ele>50.66666666666667</ele><time>2026-04-12T19:48:25.38Z</time></trkpt><trkpt lat="51.5611295" lon="-0.536381"><ele>50.333333333333336</ele><time>2026-04-12T19:48:26.38Z</time></trkpt><trkpt lat="51.5609698" lon="-0.5361629"><ele>50.0</ele><time>2026-04-12T19:48:27.38Z</time></trkpt><trkpt lat="51.5607952" lon="-0.5359639"><ele>49.333333333333336</ele><time>2026-04-12T19:48:28.379Z</time></trkpt><trkpt lat="51.5606299" lon="-0.5357529"><ele>48.66666666666667</ele><time>2026-04-12T19:48:29.38Z</time></trkpt><trkpt lat="51.5604667" lon="-0.5355408"><ele>48.0</ele><time>2026-04-12T19:48:30.38Z</time></trkpt><trkpt lat="51.5603106" lon="-0.5353158"><ele>46.666666666666664</ele><time>2026-04-12T19:48:31.38Z</time></trkpt><trkpt lat="51.560155" lon="-0.5350916"><ele>45.33333333333333</ele><time>2026-04-12T19:48:32.379Z</time></trkpt><trkpt lat="51.5600021" lon="-0.5348663"><ele>44.0</ele><time>2026-04-12T19:48:33.379Z</time></trkpt><trkpt lat="51.559851" lon="-0.534638"><ele>43.666666666666664</ele><time>2026-04-12T19:48:34.38Z</time></trkpt><trkpt lat="51.5596928" lon="-0.5344145"><ele>43.333333333333336</ele><time>2026-04-12T19:48:35.38Z</time></trkpt><trkpt lat="51.5595438" lon="-0.5341711"><ele>43.0</ele><time>2026-04-12T19:48:36.38Z</time></trkpt><trkpt lat="51.5593931" lon="-0.5339136"><ele>42.66666666666667</ele><time>2026-04-12T19:48:37.379Z</time></trkpt><trkpt lat="51.5592456" lon="-0.5336567"><ele>42.333333333333336</ele><time>2026-04-12T19:48:38.379Z</time></trkpt><trkpt lat="51.5590983" lon="-0.5333806"><ele>42.0</ele><time>2026-04-12T19:48:39.379Z</time></trkpt><trkpt lat="51.5589563" lon="-0.5331112"><ele>42.0</ele><time>2026-04-12T19:48:40.38Z</time></trkpt><trkpt lat="51.5588196" lon="-0.5328357"><ele>42.0</ele><time>2026-04-12T19:48:41.38Z</time></trkpt><trkpt lat="51.55868" lon="-0.5325547"><ele>42.0</ele><time>2026-04-12T19:48:42.38Z</time></trkpt><trkpt lat="51.5585429" lon="-0.5322633"><ele>41.666666666666664</ele><time>2026-04-12T19:48:43.379Z</time></trkpt><trkpt lat="51.558409" lon="-0.5319704"><ele>41.33333333333333</ele><time>2026-04-12T19:48:44.38Z</time></trkpt><trkpt lat="51.5582873" lon="-0.5316714"><ele>41.0</ele><time>2026-04-12T19:48:45.381Z</time></trkpt><trkpt lat="51.5581717" lon="-0.5313838"><ele>41.0</ele><time>2026-04-12T19:48:46.381Z</time></trkpt><trkpt lat="51.5580585" lon="-0.5310958"><ele>41.0</ele><time>2026-04-12T19:48:47.381Z</time></trkpt><trkpt lat="51.5579459" lon="-0.5308044"><ele>41.0</ele><time>2026-04-12T19:48:48.38Z</time></trkpt><trkpt lat="51.5578391" lon="-0.5305135"><ele>42.666666666666664</ele><time>2026-04-12T19:48:49.381Z</time></trkpt><trkpt lat="51.5577408" lon="-0.5302352"><ele>44.333333333333336</ele><time>2026-04-12T19:48:50.381Z</time></trkpt><trkpt lat="51.5576431" lon="-0.5299567"><ele>46.0</ele><time>2026-04-12T19:48:51.381Z</time></trkpt><trkpt lat="51.5575536" lon="-0.5296813"><ele>46.0</ele><time>2026-04-12T19:48:52.381Z</time></trkpt><trkpt lat="51.5574681" lon="-0.52941"><ele>46.0</ele><time>2026-04-12T19:48:53.38Z</time></trkpt><trkpt lat="51.5573704" lon="-0.5291296"><ele>46.0</ele><time>2026-04-12T19:48:54.38Z</time></trkpt><trkpt lat="51.5572683" lon="-0.5288748"><ele>45.66666666666667</ele><time>2026-04-12T19:48:55.38Z</time></trkpt><trkpt lat="51.5571625" lon="-0.5286197"><ele>45.333333333333336</ele><time>2026-04-12T19:48:56.381Z</time></trkpt><trkpt lat="51.5570404" lon="-0.5283682"><ele>45.0</ele><time>2026-04-12T19:48:57.38Z</time></trkpt><trkpt lat="51.5569073" lon="-0.5281443"><ele>45.333333333333336</ele><time>2026-04-12T19:48:58.381Z</time></trkpt><trkpt lat="51.5567689" lon="-0.5279434"><ele>45.66666666666667</ele><time>2026-04-12T19:48:59.381Z</time></trkpt><trkpt lat="51.556622" lon="-0.5277579"><ele>46.0</ele><time>2026-04-12T19:49:00.381Z</time></trkpt><trkpt lat="51.5564634" lon="-0.5275828"><ele>46.0</ele><time>2026-04-12T19:49:01.381Z</time></trkpt><trkpt lat="51.5562913" lon="-0.5274349"><ele>46.0</ele><time>2026-04-12T19:49:02.381Z</time></trkpt><trkpt lat="51.5561047" lon="-0.5273137"><ele>46.0</ele><time>2026-04-12T19:49:03.38Z</time></trkpt><trkpt lat="51.5559234" lon="-0.5272127"><ele>47.333333333333336</ele><time>2026-04-12T19:49:04.381Z</time></trkpt><trkpt lat="51.5557361" lon="-0.5271425"><ele>48.66666666666667</ele><time>2026-04-12T19:49:05.381Z</time></trkpt><trkpt lat="51.5555522" lon="-0.5270865"><ele>50.0</ele><time>2026-04-12T19:49:06.38Z</time></trkpt><trkpt lat="51.5553718" lon="-0.5270468"><ele>51.66666666666667</ele><time>2026-04-12T19:49:07.38Z</time></trkpt><trkpt lat="51.5551852" lon="-0.5270113"><ele>53.33333333333333</ele><time>2026-04-12T19:49:08.38Z</time></trkpt><trkpt lat="51.5549886" lon="-0.5269747"><ele>55.0</ele><time>2026-04-12T19:49:09.381Z</time></trkpt><trkpt lat="51.5548052" lon="-0.5269285"><ele>55.0</ele><time>2026-04-12T19:49:10.381Z</time></trkpt><trkpt lat="51.5546289" lon="-0.5268689"><ele>55.0</ele><time>2026-04-12T19:49:11.38Z</time></trkpt><trkpt lat="51.5544578" lon="-0.5267923"><ele>55.0</ele><time>2026-04-12T19:49:12.381Z</time></trkpt><trkpt lat="51.5542918" lon="-0.5267255"><ele>55.33333333333333</ele><time>2026-04-12T19:49:13.381Z</time></trkpt><trkpt lat="51.5541265" lon="-0.5266519"><ele>55.66666666666667</ele><time>2026-04-12T19:49:14.38Z</time></trkpt><trkpt lat="51.553962" lon="-0.5265648"><ele>56.0</ele><time>2026-04-12T19:49:15.381Z</time></trkpt><trkpt lat="51.5538076" lon="-0.5264686"><ele>56.66666666666667</ele><time>2026-04-12T19:49:16.38Z</time></trkpt><trkpt lat="51.5536644" lon="-0.5263749"><ele>57.33333333333333</ele><time>2026-04-12T19:49:17.381Z</time></trkpt><trkpt lat="51.5535231" lon="-0.5262728"><ele>58.0</ele><time>2026-04-12T19:49:18.38Z</time></trkpt><trkpt lat="51.5533755" lon="-0.5261526"><ele>58.0</ele><time>2026-04-12T19:49:19.38Z</time></trkpt><trkpt lat="51.5532144" lon="-0.5260304"><ele>58.0</ele><time>2026-04-12T19:49:20.381Z</time></trkpt><trkpt lat="51.5530583" lon="-0.5258887"><ele>58.0</ele><time>2026-04-12T19:49:21.38Z</time></trkpt><trkpt lat="51.5529024" lon="-0.5257484"><ele>58.0</ele><time>2026-04-12T19:49:22.381Z</time></trkpt><trkpt lat="51.5527464" lon="-0.5255941"><ele>58.0</ele><time>2026-04-12T19:49:23.381Z</time></trkpt><trkpt lat="51.5525899" lon="-0.5254339"><ele>58.0</ele><time>2026-04-12T19:49:24.38Z</time></trkpt><trkpt lat="51.5524313" lon="-0.5252664"><ele>58.0</ele><time>2026-04-12T19:49:25.38Z</time></trkpt><trkpt lat="51.5522773" lon="-0.5251007"><ele>58.0</ele><time>2026-04-12T19:49:26.38Z</time></trkpt><trkpt lat="51.552121" lon="-0.5249362"><ele>58.0</ele><time>2026-04-12T19:49:27.38Z</time></trkpt><trkpt lat="51.5519632" lon="-0.5247585"><ele>58.0</ele><time>2026-04-12T19:49:28.38Z</time></trkpt><trkpt lat="51.5518176" lon="-0.52457"><ele>58.0</ele><time>2026-04-12T19:49:29.38Z</time></trkpt><trkpt lat="51.5516632" lon="-0.5243905"><ele>58.0</ele><time>2026-04-12T19:49:30.381Z</time></trkpt><trkpt lat="51.5515077" lon="-0.5241962"><ele>57.666666666666664</ele><time>2026-04-12T19:49:31.381Z</time></trkpt><trkpt lat="51.551349" lon="-0.5239908"><ele>57.33333333333333</ele><time>2026-04-12T19:49:32.381Z</time></trkpt><trkpt lat="51.5511892" lon="-0.5237845"><ele>57.0</ele><time>2026-04-12T19:49:33.381Z</time></trkpt><trkpt lat="51.5510354" lon="-0.5235842"><ele>57.0</ele><time>2026-04-12T19:49:34.38Z</time></trkpt><trkpt lat="51.550872" lon="-0.5233618"><ele>57.0</ele><time>2026-04-12T19:49:35.38Z</time></trkpt><trkpt lat="51.5507063" lon="-0.5231154"><ele>57.0</ele><time>2026-04-12T19:49:36.38Z</time></trkpt><trkpt lat="51.5505462" lon="-0.5228576"><ele>57.0</ele><time>2026-04-12T19:49:37.38Z</time></trkpt><trkpt lat="51.5503761" lon="-0.5225999"><ele>57.0</ele><time>2026-04-12T19:49:38.38Z</time></trkpt><trkpt lat="51.5502071" lon="-0.5223372"><ele>55.5</ele><time>2026-04-12T19:49:39.38Z</time></trkpt><trkpt lat="51.5500303" lon="-0.5220565"><ele>54.0</ele><time>2026-04-12T19:49:40.381Z</time></trkpt><trkpt lat="51.5498429" lon="-0.5217605"><ele>54.0</ele><time>2026-04-12T19:49:41.381Z</time></trkpt><trkpt lat="51.5496597" lon="-0.5214609"><ele>54.0</ele><time>2026-04-12T19:49:42.38Z</time></trkpt><trkpt lat="51.5494868" lon="-0.5211527"><ele>52.5</ele><time>2026-04-12T19:49:43.381Z</time></trkpt><trkpt lat="51.5493196" lon="-0.5208361"><ele>51.0</ele><time>2026-04-12T19:49:44.38Z</time></trkpt><trkpt lat="51.5491534" lon="-0.5205095"><ele>50.5</ele><time>2026-04-12T19:49:45.381Z</time></trkpt><trkpt lat="51.5489951" lon="-0.5201916"><ele>50.0</ele><time>2026-04-12T19:49:46.381Z</time></trkpt><trkpt lat="51.548848" lon="-0.5198648"><ele>49.5</ele><time>2026-04-12T19:49:47.38Z</time></trkpt><trkpt lat="51.5487045" lon="-0.5195387"><ele>49.0</ele><time>2026-04-12T19:49:48.381Z</time></trkpt><trkpt lat="51.5485604" lon="-0.5192167"><ele>49.0</ele><time>2026-04-12T19:49:49.38Z</time></trkpt><trkpt lat="51.5484218" lon="-0.5188856"><ele>49.0</ele><time>2026-04-12T19:49:50.381Z</time></trkpt><trkpt lat="51.5482859" lon="-0.5185616"><ele>49.0</ele><time>2026-04-12T19:49:51.38Z</time></trkpt><trkpt lat="51.5481571" lon="-0.5182274"><ele>49.0</ele><time>2026-04-12T19:49:52.38Z</time></trkpt><trkpt lat="51.5480385" lon="-0.5179024"><ele>49.0</ele><time>2026-04-12T19:49:53.38Z</time></trkpt><trkpt lat="51.5479155" lon="-0.5175765"><ele>49.0</ele><time>2026-04-12T19:49:54.38Z</time></trkpt><trkpt lat="51.5477956" lon="-0.5172304"><ele>48.5</ele><time>2026-04-12T19:49:55.381Z</time></trkpt><trkpt lat="51.5476832" lon="-0.5168857"><ele>48.0</ele><time>2026-04-12T19:49:56.381Z</time></trkpt><trkpt lat="51.5475714" lon="-0.5165392"><ele>49.0</ele><time>2026-04-12T19:49:57.382Z</time></trkpt><trkpt lat="51.5474543" lon="-0.5161871"><ele>50.0</ele><time>2026-04-12T19:49:58.382Z</time></trkpt><trkpt lat="51.5473495" lon="-0.5158294"><ele>50.0</ele><time>2026-04-12T19:49:59.382Z</time></trkpt><trkpt lat="51.5472498" lon="-0.5154782"><ele>50.0</ele><time>2026-04-12T19:50:00.381Z</time></trkpt><trkpt lat="51.5471448" lon="-0.5151242"><ele>50.0</ele><time>2026-04-12T19:50:01.381Z</time></trkpt><trkpt lat="51.5470534" lon="-0.5147847"><ele>50.0</ele><time>2026-04-12T19:50:02.382Z</time></trkpt><trkpt lat="51.5469653" lon="-0.5144369"><ele>50.0</ele><time>2026-04-12T19:50:03.382Z</time></trkpt><trkpt lat="51.5468802" lon="-0.5140917"><ele>50.0</ele><time>2026-04-12T19:50:04.382Z</time></trkpt><trkpt lat="51.5468015" lon="-0.5137426"><ele>49.0</ele><time>2026-04-12T19:50:05.382Z</time></trkpt><trkpt lat="51.5467225" lon="-0.5133886"><ele>48.0</ele><time>2026-04-12T19:50:06.382Z</time></trkpt><trkpt lat="51.5466537" lon="-0.5130467"><ele>47.0</ele><time>2026-04-12T19:50:07.382Z</time></trkpt><trkpt lat="51.5465803" lon="-0.512706"><ele>46.0</ele><time>2026-04-12T19:50:08.382Z</time></trkpt><trkpt lat="51.5465104" lon="-0.5123566"><ele>46.5</ele><time>2026-04-12T19:50:09.382Z</time></trkpt><trkpt lat="51.5464255" lon="-0.511997"><ele>47.0</ele><time>2026-04-12T19:50:10.382Z</time></trkpt><trkpt lat="51.5463408" lon="-0.5116281"><ele>47.0</ele><time>2026-04-12T19:50:11.382Z</time></trkpt><trkpt lat="51.5462606" lon="-0.5112715"><ele>47.0</ele><time>2026-04-12T19:50:12.382Z</time></trkpt><trkpt lat="51.5461736" lon="-0.5109121"><ele>47.0</ele><time>2026-04-12T19:50:13.382Z</time></trkpt><trkpt lat="51.5460897" lon="-0.5105701"><ele>47.0</ele><time>2026-04-12T19:50:14.381Z</time></trkpt><trkpt lat="51.5459946" lon="-0.5102349"><ele>46.5</ele><time>2026-04-12T19:50:15.381Z</time></trkpt><trkpt lat="51.545893" lon="-0.5098962"><ele>46.0</ele><time>2026-04-12T19:50:16.382Z</time></trkpt><trkpt lat="51.5457888" lon="-0.5095509"><ele>44.5</ele><time>2026-04-12T19:50:17.382Z</time></trkpt><trkpt lat="51.5456799" lon="-0.5092179"><ele>43.0</ele><time>2026-04-12T19:50:18.381Z</time></trkpt><trkpt lat="51.5455675" lon="-0.5089004"><ele>43.333333333333336</ele><time>2026-04-12T19:50:19.382Z</time></trkpt><trkpt lat="51.5454615" lon="-0.5086012"><ele>43.666666666666664</ele><time>2026-04-12T19:50:20.381Z</time></trkpt><trkpt lat="51.5453468" lon="-0.5083064"><ele>44.0</ele><time>2026-04-12T19:50:21.382Z</time></trkpt><trkpt lat="51.5452302" lon="-0.5080289"><ele>44.33333333333333</ele><time>2026-04-12T19:50:22.381Z</time></trkpt><trkpt lat="51.5451162" lon="-0.5077587"><ele>44.666666666666664</ele><time>2026-04-12T19:50:23.381Z</time></trkpt><trkpt lat="51.5449935" lon="-0.5074802"><ele>45.0</ele><time>2026-04-12T19:50:24.382Z</time></trkpt><trkpt lat="51.5448589" lon="-0.5072087"><ele>45.333333333333336</ele><time>2026-04-12T19:50:25.382Z</time></trkpt><trkpt lat="51.5447303" lon="-0.5069476"><ele>45.66666666666667</ele><time>2026-04-12T19:50:26.381Z</time></trkpt><trkpt lat="51.5445938" lon="-0.5066873"><ele>46.0</ele><time>2026-04-12T19:50:27.381Z</time></trkpt><trkpt lat="51.5444508" lon="-0.5064247"><ele>45.66666666666667</ele><time>2026-04-12T19:50:28.382Z</time></trkpt><trkpt lat="51.544303" lon="-0.5061733"><ele>45.333333333333336</ele><time>2026-04-12T19:50:29.381Z</time></trkpt><trkpt lat="51.5441493" lon="-0.5059251"><ele>45.0</ele><time>2026-04-12T19:50:30.382Z</time></trkpt><trkpt lat="51.5439921" lon="-0.5056678"><ele>45.0</ele><time>2026-04-12T19:50:31.382Z</time></trkpt><trkpt lat="51.543827" lon="-0.5054055"><ele>45.0</ele><time>2026-04-12T19:50:32.382Z</time></trkpt><trkpt lat="51.5436566" lon="-0.5051595"><ele>44.0</ele><time>2026-04-12T19:50:33.382Z</time></trkpt><trkpt lat="51.5434814" lon="-0.5049213"><ele>43.0</ele><time>2026-04-12T19:50:34.382Z</time></trkpt><trkpt lat="51.5432992" lon="-0.5046912"><ele>42.66666666666667</ele><time>2026-04-12T19:50:35.382Z</time></trkpt><trkpt lat="51.543129" lon="-0.5044778"><ele>42.333333333333336</ele><time>2026-04-12T19:50:36.381Z</time></trkpt><trkpt lat="51.542957" lon="-0.5042834"><ele>42.0</ele><time>2026-04-12T19:50:37.381Z</time></trkpt><trkpt lat="51.5427913" lon="-0.504095"><ele>40.666666666666664</ele><time>2026-04-12T19:50:38.382Z</time></trkpt><trkpt lat="51.5426184" lon="-0.5039051"><ele>39.33333333333333</ele><time>2026-04-12T19:50:39.381Z</time></trkpt><trkpt lat="51.5424407" lon="-0.5037234"><ele>38.0</ele><time>2026-04-12T19:50:40.382Z</time></trkpt><trkpt lat="51.5422577" lon="-0.5035559"><ele>37.666666666666664</ele><time>2026-04-12T19:50:41.382Z</time></trkpt><trkpt lat="51.5420706" lon="-0.5033805"><ele>37.333333333333336</ele><time>2026-04-12T19:50:42.381Z</time></trkpt><trkpt lat="51.5418833" lon="-0.5032042"><ele>37.0</ele><time>2026-04-12T19:50:43.381Z</time></trkpt><trkpt lat="51.5416904" lon="-0.5030506"><ele>36.66666666666667</ele><time>2026-04-12T19:50:44.382Z</time></trkpt><trkpt lat="51.5414917" lon="-0.5029013"><ele>36.333333333333336</ele><time>2026-04-12T19:50:45.382Z</time></trkpt><trkpt lat="51.5412926" lon="-0.5027629"><ele>36.0</ele><time>2026-04-12T19:50:46.382Z</time></trkpt><trkpt lat="51.5410935" lon="-0.5026188"><ele>35.0</ele><time>2026-04-12T19:50:47.381Z</time></trkpt><trkpt lat="51.5408963" lon="-0.5024863"><ele>34.0</ele><time>2026-04-12T19:50:48.382Z</time></trkpt><trkpt lat="51.5406975" lon="-0.5023678"><ele>33.0</ele><time>2026-04-12T19:50:49.382Z</time></trkpt><trkpt lat="51.5404898" lon="-0.5022508"><ele>33.333333333333336</ele><time>2026-04-12T19:50:50.381Z</time></trkpt><trkpt lat="51.5402913" lon="-0.5021467"><ele>33.66666666666667</ele><time>2026-04-12T19:50:51.382Z</time></trkpt><trkpt lat="51.5400905" lon="-0.5020413"><ele>34.0</ele><time>2026-04-12T19:50:52.381Z</time></trkpt><trkpt lat="51.5398873" lon="-0.5019516"><ele>34.0</ele><time>2026-04-12T19:50:53.382Z</time></trkpt><trkpt lat="51.5396896" lon="-0.5018513"><ele>34.0</ele><time>2026-04-12T19:50:54.382Z</time></trkpt><trkpt lat="51.5394817" lon="-0.5017423"><ele>34.0</ele><time>2026-04-12T19:50:55.381Z</time></trkpt><trkpt lat="51.5392707" lon="-0.5016443"><ele>33.66666666666667</ele><time>2026-04-12T19:50:56.382Z</time></trkpt><trkpt lat="51.5390627" lon="-0.5015521"><ele>33.333333333333336</ele><time>2026-04-12T19:50:57.381Z</time></trkpt><trkpt lat="51.5388468" lon="-0.5014493"><ele>33.0</ele><time>2026-04-12T19:50:58.381Z</time></trkpt><trkpt lat="51.5386303" lon="-0.5013502"><ele>32.5</ele><time>2026-04-12T19:50:59.382Z</time></trkpt><trkpt lat="51.5384132" lon="-0.5012569"><ele>32.0</ele><time>2026-04-12T19:51:00.381Z</time></trkpt><trkpt lat="51.5381888" lon="-0.5011531"><ele>31.5</ele><time>2026-04-12T19:51:01.382Z</time></trkpt><trkpt lat="51.5379652" lon="-0.5010624"><ele>31.0</ele><time>2026-04-12T19:51:02.382Z</time></trkpt><trkpt lat="51.5377493" lon="-0.5009682"><ele>32.0</ele><time>2026-04-12T19:51:03.383Z</time></trkpt><trkpt lat="51.5375354" lon="-0.5008725"><ele>33.0</ele><time>2026-04-12T19:51:04.381Z</time></trkpt><trkpt lat="51.5373122" lon="-0.5007801"><ele>33.0</ele><time>2026-04-12T19:51:05.382Z</time></trkpt><trkpt lat="51.5370987" lon="-0.5007013"><ele>33.0</ele><time>2026-04-12T19:51:06.382Z</time></trkpt><trkpt lat="51.5368779" lon="-0.5006126"><ele>33.0</ele><time>2026-04-12T19:51:07.381Z</time></trkpt><trkpt lat="51.5366671" lon="-0.5005277"><ele>33.0</ele><time>2026-04-12T19:51:08.382Z</time></trkpt><trkpt lat="51.5364503" lon="-0.5004455"><ele>33.0</ele><time>2026-04-12T19:51:09.382Z</time></trkpt><trkpt lat="51.5362398" lon="-0.500364"><ele>33.0</ele><time>2026-04-12T19:51:10.383Z</time></trkpt><trkpt lat="51.5360187" lon="-0.500283"><ele>31.5</ele><time>2026-04-12T19:51:11.383Z</time></trkpt><trkpt lat="51.5357979" lon="-0.5002064"><ele>30.0</ele><time>2026-04-12T19:51:12.383Z</time></trkpt><trkpt lat="51.5355751" lon="-0.5001349"><ele>30.5</ele><time>2026-04-12T19:51:13.383Z</time></trkpt><trkpt lat="51.5353493" lon="-0.5000635"><ele>31.0</ele><time>2026-04-12T19:51:14.382Z</time></trkpt><trkpt lat="51.5351337" lon="-0.4999753"><ele>31.0</ele><time>2026-04-12T19:51:15.382Z</time></trkpt><trkpt lat="51.5349127" lon="-0.4998931"><ele>31.0</ele><time>2026-04-12T19:51:16.383Z</time></trkpt><trkpt lat="51.5346864" lon="-0.4998191"><ele>31.5</ele><time>2026-04-12T19:51:17.382Z</time></trkpt><trkpt lat="51.5344637" lon="-0.4997425"><ele>32.0</ele><time>2026-04-12T19:51:18.383Z</time></trkpt><trkpt lat="51.5342218" lon="-0.4996867"><ele>32.0</ele><time>2026-04-12T19:51:19.382Z</time></trkpt><trkpt lat="51.5339715" lon="-0.4996337"><ele>32.0</ele><time>2026-04-12T19:51:20.383Z</time></trkpt><trkpt lat="51.5337242" lon="-0.4995773"><ele>31.0</ele><time>2026-04-12T19:51:21.383Z</time></trkpt><trkpt lat="51.5334705" lon="-0.4995125"><ele>30.0</ele><time>2026-04-12T19:51:22.382Z</time></trkpt><trkpt lat="51.5332232" lon="-0.4994479"><ele>30.0</ele><time>2026-04-12T19:51:23.382Z</time></trkpt><trkpt lat="51.5329823" lon="-0.4993861"><ele>30.0</ele><time>2026-04-12T19:51:24.383Z</time></trkpt><trkpt lat="51.5327431" lon="-0.4993126"><ele>31.0</ele><time>2026-04-12T19:51:25.382Z</time></trkpt><trkpt lat="51.5325" lon="-0.4992508"><ele>32.0</ele><time>2026-04-12T19:51:26.382Z</time></trkpt><trkpt lat="51.5322578" lon="-0.4991942"><ele>32.5</ele><time>2026-04-12T19:51:27.383Z</time></trkpt><trkpt lat="51.5320133" lon="-0.4991333"><ele>33.0</ele><time>2026-04-12T19:51:28.383Z</time></trkpt><trkpt lat="51.5317616" lon="-0.499085"><ele>33.0</ele><time>2026-04-12T19:51:29.382Z</time></trkpt><trkpt lat="51.5315118" lon="-0.4990294"><ele>33.0</ele><time>2026-04-12T19:51:30.382Z</time></trkpt><trkpt lat="51.5312583" lon="-0.4989743"><ele>33.0</ele><time>2026-04-12T19:51:31.382Z</time></trkpt><trkpt lat="51.5309957" lon="-0.4989184"><ele>33.0</ele><time>2026-04-12T19:51:32.383Z</time></trkpt><trkpt lat="51.5307392" lon="-0.4988664"><ele>33.0</ele><time>2026-04-12T19:51:33.383Z</time></trkpt><trkpt lat="51.5304791" lon="-0.4988284"><ele>33.0</ele><time>2026-04-12T19:51:34.382Z</time></trkpt><trkpt lat="51.5302243" lon="-0.4987754"><ele>33.5</ele><time>2026-04-12T19:51:35.382Z</time></trkpt><trkpt lat="51.5299637" lon="-0.4987256"><ele>34.0</ele><time>2026-04-12T19:51:36.383Z</time></trkpt><trkpt lat="51.5297054" lon="-0.4986805"><ele>33.5</ele><time>2026-04-12T19:51:37.382Z</time></trkpt><trkpt lat="51.5294503" lon="-0.49864"><ele>33.0</ele><time>2026-04-12T19:51:38.383Z</time></trkpt><trkpt lat="51.5291882" lon="-0.498606"><ele>33.0</ele><time>2026-04-12T19:51:39.383Z</time></trkpt><trkpt lat="51.5289343" lon="-0.4985767"><ele>33.0</ele><time>2026-04-12T19:51:40.383Z</time></trkpt><trkpt lat="51.5286735" lon="-0.4985425"><ele>31.5</ele><time>2026-04-12T19:51:41.382Z</time></trkpt><trkpt lat="51.5284113" lon="-0.4985158"><ele>30.0</ele><time>2026-04-12T19:51:42.382Z</time></trkpt><trkpt lat="51.5281521" lon="-0.4984819"><ele>30.0</ele><time>2026-04-12T19:51:43.382Z</time></trkpt><trkpt lat="51.5278948" lon="-0.4984519"><ele>30.0</ele><time>2026-04-12T19:51:44.383Z</time></trkpt><trkpt lat="51.5276357" lon="-0.4984223"><ele>30.0</ele><time>2026-04-12T19:51:45.382Z</time></trkpt><trkpt lat="51.5273796" lon="-0.4984033"><ele>30.0</ele><time>2026-04-12T19:51:46.383Z</time></trkpt><trkpt lat="51.5271188" lon="-0.4983809"><ele>30.5</ele><time>2026-04-12T19:51:47.383Z</time></trkpt><trkpt lat="51.5268597" lon="-0.4983545"><ele>31.0</ele><time>2026-04-12T19:51:48.383Z</time></trkpt><trkpt lat="51.5266052" lon="-0.4983308"><ele>31.0</ele><time>2026-04-12T19:51:49.383Z</time></trkpt><trkpt lat="51.5263455" lon="-0.498316"><ele>31.0</ele><time>2026-04-12T19:51:50.383Z</time></trkpt><trkpt lat="51.5260844" lon="-0.4983134"><ele>30.0</ele><time>2026-04-12T19:51:51.382Z</time></trkpt><trkpt lat="51.5258243" lon="-0.4983033"><ele>29.0</ele><time>2026-04-12T19:51:52.383Z</time></trkpt><trkpt lat="51.5255629" lon="-0.498304"><ele>29.0</ele><time>2026-04-12T19:51:53.383Z</time></trkpt><trkpt lat="51.5253003" lon="-0.4982955"><ele>29.0</ele><time>2026-04-12T19:51:54.382Z</time></trkpt><trkpt lat="51.5250442" lon="-0.498284"><ele>29.0</ele><time>2026-04-12T19:51:55.382Z</time></trkpt><trkpt lat="51.5247839" lon="-0.4982804"><ele>29.0</ele><time>2026-04-12T19:51:56.383Z</time></trkpt><trkpt lat="51.5245268" lon="-0.4982823"><ele>29.0</ele><time>2026-04-12T19:51:57.383Z</time></trkpt><trkpt lat="51.5242697" lon="-0.4982821"><ele>29.0</ele><time>2026-04-12T19:51:58.383Z</time></trkpt><trkpt lat="51.5240107" lon="-0.4982921"><ele>29.0</ele><time>2026-04-12T19:51:59.383Z</time></trkpt><trkpt lat="51.52375" lon="-0.4982997"><ele>29.0</ele><time>2026-04-12T19:52:00.382Z</time></trkpt><trkpt lat="51.5234901" lon="-0.4982935"><ele>29.0</ele><time>2026-04-12T19:52:01.383Z</time></trkpt><trkpt lat="51.5232315" lon="-0.4982962"><ele>29.0</ele><time>2026-04-12T19:52:02.383Z</time></trkpt><trkpt lat="51.5229711" lon="-0.498303"><ele>29.5</ele><time>2026-04-12T19:52:03.383Z</time></trkpt><trkpt lat="51.5227121" lon="-0.4983132"><ele>30.0</ele><time>2026-04-12T19:52:04.382Z</time></trkpt><trkpt lat="51.5224535" lon="-0.4983273"><ele>30.0</ele><time>2026-04-12T19:52:05.382Z</time></trkpt><trkpt lat="51.5221939" lon="-0.4983422"><ele>30.0</ele><time>2026-04-12T19:52:06.383Z</time></trkpt><trkpt lat="51.521944" lon="-0.4983531"><ele>29.5</ele><time>2026-04-12T19:52:07.382Z</time></trkpt><trkpt lat="51.5216871" lon="-0.4983712"><ele>29.0</ele><time>2026-04-12T19:52:08.383Z</time></trkpt><trkpt lat="51.5214263" lon="-0.4983896"><ele>29.5</ele><time>2026-04-12T19:52:09.383Z</time></trkpt><trkpt lat="51.5211673" lon="-0.4984071"><ele>30.0</ele><time>2026-04-12T19:52:10.382Z</time></trkpt><trkpt lat="51.5209159" lon="-0.4984358"><ele>30.0</ele><time>2026-04-12T19:52:11.382Z</time></trkpt><trkpt lat="51.5206713" lon="-0.4984575"><ele>30.0</ele><time>2026-04-12T19:52:12.382Z</time></trkpt><trkpt lat="51.520431" lon="-0.4984896"><ele>30.0</ele><time>2026-04-12T19:52:13.383Z</time></trkpt><trkpt lat="51.5201934" lon="-0.4985184"><ele>30.0</ele><time>2026-04-12T19:52:14.382Z</time></trkpt><trkpt lat="51.5199628" lon="-0.4985652"><ele>30.0</ele><time>2026-04-12T19:52:15.383Z</time></trkpt><trkpt lat="51.5197293" lon="-0.4986219"><ele>30.0</ele><time>2026-04-12T19:52:16.382Z</time></trkpt><trkpt lat="51.5195077" lon="-0.4986796"><ele>29.666666666666664</ele><time>2026-04-12T19:52:17.382Z</time></trkpt><trkpt lat="51.5192838" lon="-0.4987489"><ele>29.333333333333332</ele><time>2026-04-12T19:52:18.382Z</time></trkpt><trkpt lat="51.5190695" lon="-0.4987986"><ele>29.0</ele><time>2026-04-12T19:52:19.383Z</time></trkpt><trkpt lat="51.5188553" lon="-0.498857"><ele>29.666666666666664</ele><time>2026-04-12T19:52:20.383Z</time></trkpt><trkpt lat="51.5186516" lon="-0.4989225"><ele>30.333333333333336</ele><time>2026-04-12T19:52:21.382Z</time></trkpt><trkpt lat="51.5184384" lon="-0.4989836"><ele>31.0</ele><time>2026-04-12T19:52:22.382Z</time></trkpt><trkpt lat="51.5182374" lon="-0.4990548"><ele>31.0</ele><time>2026-04-12T19:52:23.382Z</time></trkpt><trkpt lat="51.5180419" lon="-0.4991235"><ele>31.0</ele><time>2026-04-12T19:52:24.382Z</time></trkpt><trkpt lat="51.5178542" lon="-0.4992025"><ele>31.0</ele><time>2026-04-12T19:52:25.383Z</time></trkpt><trkpt lat="51.5176581" lon="-0.4992795"><ele>31.0</ele><time>2026-04-12T19:52:26.384Z</time></trkpt><trkpt lat="51.5174639" lon="-0.4993642"><ele>31.0</ele><time>2026-04-12T19:52:27.384Z</time></trkpt><trkpt lat="51.5172755" lon="-0.4994502"><ele>31.0</ele><time>2026-04-12T19:52:28.384Z</time></trkpt><trkpt lat="51.5170868" lon="-0.499529"><ele>32.333333333333336</ele><time>2026-04-12T19:52:29.384Z</time></trkpt><trkpt lat="51.5168939" lon="-0.4996222"><ele>33.666666666666664</ele><time>2026-04-12T19:52:30.383Z</time></trkpt><trkpt lat="51.5167098" lon="-0.4997189"><ele>35.0</ele><time>2026-04-12T19:52:31.383Z</time></trkpt><trkpt lat="51.5165313" lon="-0.4998248"><ele>35.0</ele><time>2026-04-12T19:52:32.384Z</time></trkpt><trkpt lat="51.5163529" lon="-0.499915"><ele>35.0</ele><time>2026-04-12T19:52:33.384Z</time></trkpt><trkpt lat="51.5161761" lon="-0.5000039"><ele>35.0</ele><time>2026-04-12T19:52:34.383Z</time></trkpt><trkpt lat="51.5160117" lon="-0.5001034"><ele>35.0</ele><time>2026-04-12T19:52:35.383Z</time></trkpt><trkpt lat="51.5158403" lon="-0.5002054"><ele>35.0</ele><time>2026-04-12T19:52:36.383Z</time></trkpt><trkpt lat="51.5156687" lon="-0.5002913"><ele>35.0</ele><time>2026-04-12T19:52:37.383Z</time></trkpt><trkpt lat="51.5155052" lon="-0.5003815"><ele>34.666666666666664</ele><time>2026-04-12T19:52:38.383Z</time></trkpt><trkpt lat="51.5153268" lon="-0.5004816"><ele>34.333333333333336</ele><time>2026-04-12T19:52:39.384Z</time></trkpt><trkpt lat="51.5151506" lon="-0.500575"><ele>34.0</ele><time>2026-04-12T19:52:40.384Z</time></trkpt><trkpt lat="51.5149726" lon="-0.5006764"><ele>34.0</ele><time>2026-04-12T19:52:41.383Z</time></trkpt><trkpt lat="51.5147906" lon="-0.5007771"><ele>34.0</ele><time>2026-04-12T19:52:42.383Z</time></trkpt><trkpt lat="51.5146007" lon="-0.5008764"><ele>34.0</ele><time>2026-04-12T19:52:43.384Z</time></trkpt><trkpt lat="51.5144061" lon="-0.50098"><ele>34.0</ele><time>2026-04-12T19:52:44.383Z</time></trkpt><trkpt lat="51.5142056" lon="-0.5010647"><ele>34.0</ele><time>2026-04-12T19:52:45.383Z</time></trkpt><trkpt lat="51.513997" lon="-0.5011577"><ele>34.0</ele><time>2026-04-12T19:52:46.384Z</time></trkpt><trkpt lat="51.5137769" lon="-0.5012422"><ele>35.0</ele><time>2026-04-12T19:52:47.384Z</time></trkpt><trkpt lat="51.5135646" lon="-0.5013241"><ele>36.0</ele><time>2026-04-12T19:52:48.384Z</time></trkpt><trkpt lat="51.5133568" lon="-0.5014035"><ele>37.0</ele><time>2026-04-12T19:52:49.384Z</time></trkpt><trkpt lat="51.5131389" lon="-0.5014748"><ele>37.0</ele><time>2026-04-12T19:52:50.384Z</time></trkpt><trkpt lat="51.5129115" lon="-0.5015306"><ele>37.0</ele><time>2026-04-12T19:52:51.383Z</time></trkpt><trkpt lat="51.5126703" lon="-0.501578"><ele>37.5</ele><time>2026-04-12T19:52:52.383Z</time></trkpt><trkpt lat="51.5124208" lon="-0.5016298"><ele>38.0</ele><time>2026-04-12T19:52:53.383Z</time></trkpt><trkpt lat="51.5121818" lon="-0.5016773"><ele>38.5</ele><time>2026-04-12T19:52:54.384Z</time></trkpt><trkpt lat="51.5119474" lon="-0.5017177"><ele>39.0</ele><time>2026-04-12T19:52:55.383Z</time></trkpt><trkpt lat="51.5117153" lon="-0.50174"><ele>39.0</ele><time>2026-04-12T19:52:56.384Z</time></trkpt><trkpt lat="51.5114849" lon="-0.5017637"><ele>39.0</ele><time>2026-04-12T19:52:57.384Z</time></trkpt><trkpt lat="51.5112648" lon="-0.5017816"><ele>39.0</ele><time>2026-04-12T19:52:58.383Z</time></trkpt><trkpt lat="51.511042" lon="-0.5017829"><ele>39.0</ele><time>2026-04-12T19:52:59.383Z</time></trkpt><trkpt lat="51.5108202" lon="-0.5017777"><ele>39.0</ele><time>2026-04-12T19:53:00.383Z</time></trkpt><trkpt lat="51.5105987" lon="-0.501769"><ele>38.0</ele><time>2026-04-12T19:53:01.383Z</time></trkpt><trkpt lat="51.5103842" lon="-0.5017549"><ele>37.0</ele><time>2026-04-12T19:53:02.384Z</time></trkpt><trkpt lat="51.5101608" lon="-0.5017362"><ele>36.0</ele><time>2026-04-12T19:53:03.383Z</time></trkpt><trkpt lat="51.5099366" lon="-0.5017067"><ele>36.0</ele><time>2026-04-12T19:53:04.384Z</time></trkpt><trkpt lat="51.5097142" lon="-0.50167"><ele>36.0</ele><time>2026-04-12T19:53:05.383Z</time></trkpt><trkpt lat="51.5094981" lon="-0.5016297"><ele>36.0</ele><time>2026-04-12T19:53:06.383Z</time></trkpt><trkpt lat="51.5092852" lon="-0.5015787"><ele>36.0</ele><time>2026-04-12T19:53:07.383Z</time></trkpt><trkpt lat="51.5090766" lon="-0.5015326"><ele>36.0</ele><time>2026-04-12T19:53:08.383Z</time></trkpt><trkpt lat="51.5088688" lon="-0.5014728"><ele>36.0</ele><time>2026-04-12T19:53:09.383Z</time></trkpt><trkpt lat="51.508671" lon="-0.5014068"><ele>36.0</ele><time>2026-04-12T19:53:10.384Z</time></trkpt><trkpt lat="51.5084662" lon="-0.5013324"><ele>36.0</ele><time>2026-04-12T19:53:11.384Z</time></trkpt><trkpt lat="51.5082535" lon="-0.5012455"><ele>36.0</ele><time>2026-04-12T19:53:12.384Z</time></trkpt><trkpt lat="51.5080391" lon="-0.501152"><ele>35.0</ele><time>2026-04-12T19:53:13.384Z</time></trkpt><trkpt lat="51.5078246" lon="-0.501059"><ele>34.0</ele><time>2026-04-12T19:53:14.383Z</time></trkpt><trkpt lat="51.5076072" lon="-0.5009499"><ele>34.0</ele><time>2026-04-12T19:53:15.384Z</time></trkpt><trkpt lat="51.5073887" lon="-0.5008464"><ele>34.0</ele><time>2026-04-12T19:53:16.383Z</time></trkpt><trkpt lat="51.5071722" lon="-0.5007265"><ele>34.0</ele><time>2026-04-12T19:53:17.384Z</time></trkpt><trkpt lat="51.5069567" lon="-0.5006082"><ele>34.0</ele><time>2026-04-12T19:53:18.383Z</time></trkpt><trkpt lat="51.5067498" lon="-0.5004824"><ele>34.0</ele><time>2026-04-12T19:53:19.384Z</time></trkpt><trkpt lat="51.5065423" lon="-0.50035"><ele>33.333333333333336</ele><time>2026-04-12T19:53:20.383Z</time></trkpt><trkpt lat="51.5063394" lon="-0.5002076"><ele>32.666666666666664</ele><time>2026-04-12T19:53:21.383Z</time></trkpt><trkpt lat="51.5061315" lon="-0.5000613"><ele>32.0</ele><time>2026-04-12T19:53:22.383Z</time></trkpt><trkpt lat="51.5059411" lon="-0.4999272"><ele>32.0</ele><time>2026-04-12T19:53:23.383Z</time></trkpt><trkpt lat="51.5057446" lon="-0.499779"><ele>32.0</ele><time>2026-04-12T19:53:24.384Z</time></trkpt><trkpt lat="51.5055528" lon="-0.4996351"><ele>32.0</ele><time>2026-04-12T19:53:25.383Z</time></trkpt><trkpt lat="51.5053604" lon="-0.4994757"><ele>31.0</ele><time>2026-04-12T19:53:26.384Z</time></trkpt><trkpt lat="51.5051649" lon="-0.4993219"><ele>30.0</ele><time>2026-04-12T19:53:27.384Z</time></trkpt><trkpt lat="51.5049765" lon="-0.4991677"><ele>29.0</ele><time>2026-04-12T19:53:28.384Z</time></trkpt><trkpt lat="51.5047989" lon="-0.4990003"><ele>29.0</ele><time>2026-04-12T19:53:29.383Z</time></trkpt><trkpt lat="51.5046137" lon="-0.4988284"><ele>29.0</ele><time>2026-04-12T19:53:30.383Z</time></trkpt><trkpt lat="51.5044235" lon="-0.49865"><ele>29.0</ele><time>2026-04-12T19:53:31.383Z</time></trkpt><trkpt lat="51.5042358" lon="-0.4984727"><ele>29.333333333333332</ele><time>2026-04-12T19:53:32.383Z</time></trkpt><trkpt lat="51.5040436" lon="-0.4983033"><ele>29.666666666666664</ele><time>2026-04-12T19:53:33.384Z</time></trkpt><trkpt lat="51.5038651" lon="-0.4981225"><ele>30.0</ele><time>2026-04-12T19:53:34.384Z</time></trkpt><trkpt lat="51.503679" lon="-0.4979442"><ele>29.333333333333336</ele><time>2026-04-12T19:53:35.384Z</time></trkpt><trkpt lat="51.5034929" lon="-0.4977756"><ele>28.666666666666668</ele><time>2026-04-12T19:53:36.384Z</time></trkpt><trkpt lat="51.5033036" lon="-0.4976055"><ele>28.0</ele><time>2026-04-12T19:53:37.383Z</time></trkpt><trkpt lat="51.5031139" lon="-0.4974398"><ele>28.0</ele><time>2026-04-12T19:53:38.383Z</time></trkpt><trkpt lat="51.5029258" lon="-0.4972792"><ele>28.0</ele><time>2026-04-12T19:53:39.383Z</time></trkpt><trkpt lat="51.5027322" lon="-0.4971119"><ele>28.0</ele><time>2026-04-12T19:53:40.385Z</time></trkpt><trkpt lat="51.5025314" lon="-0.4969482"><ele>27.666666666666668</ele><time>2026-04-12T19:53:41.385Z</time></trkpt><trkpt lat="51.5023316" lon="-0.4967914"><ele>27.333333333333336</ele><time>2026-04-12T19:53:42.385Z</time></trkpt><trkpt lat="51.5021307" lon="-0.4966253"><ele>27.0</ele><time>2026-04-12T19:53:43.385Z</time></trkpt><trkpt lat="51.5019265" lon="-0.4964588"><ele>27.0</ele><time>2026-04-12T19:53:44.385Z</time></trkpt><trkpt lat="51.5017161" lon="-0.4963086"><ele>27.0</ele><time>2026-04-12T19:53:45.384Z</time></trkpt><trkpt lat="51.5015037" lon="-0.4961612"><ele>27.5</ele><time>2026-04-12T19:53:46.384Z</time></trkpt><trkpt lat="51.5012847" lon="-0.4960193"><ele>28.0</ele><time>2026-04-12T19:53:47.385Z</time></trkpt><trkpt lat="51.501068" lon="-0.4958739"><ele>28.0</ele><time>2026-04-12T19:53:48.385Z</time></trkpt><trkpt lat="51.5008439" lon="-0.4957382"><ele>28.0</ele><time>2026-04-12T19:53:49.384Z</time></trkpt><trkpt lat="51.5006307" lon="-0.4956111"><ele>27.0</ele><time>2026-04-12T19:53:50.384Z</time></trkpt><trkpt lat="51.5004124" lon="-0.4954853"><ele>26.0</ele><time>2026-04-12T19:53:51.385Z</time></trkpt><trkpt lat="51.5001957" lon="-0.4953558"><ele>26.0</ele><time>2026-04-12T19:53:52.384Z</time></trkpt><trkpt lat="51.4999785" lon="-0.4952149"><ele>26.0</ele><time>2026-04-12T19:53:53.385Z</time></trkpt><trkpt lat="51.499784" lon="-0.4950792"><ele>26.0</ele><time>2026-04-12T19:53:54.384Z</time></trkpt><trkpt lat="51.4996242" lon="-0.4949526"><ele>27.0</ele><time>2026-04-12T19:53:55.384Z</time></trkpt><trkpt lat="51.4994859" lon="-0.4948377"><ele>28.0</ele><time>2026-04-12T19:53:56.385Z</time></trkpt><trkpt lat="51.4993369" lon="-0.4947211"><ele>29.0</ele><time>2026-04-12T19:53:57.384Z</time></trkpt><trkpt lat="51.499187" lon="-0.4945957"><ele>28.333333333333332</ele><time>2026-04-12T19:53:58.385Z</time></trkpt><trkpt lat="51.4990472" lon="-0.494471"><ele>27.666666666666664</ele><time>2026-04-12T19:53:59.385Z</time></trkpt><trkpt lat="51.4989173" lon="-0.4943537"><ele>27.0</ele><time>2026-04-12T19:54:00.385Z</time></trkpt><trkpt lat="51.4987907" lon="-0.4942419"><ele>28.0</ele><time>2026-04-12T19:54:01.385Z</time></trkpt><trkpt lat="51.4986696" lon="-0.494121"><ele>29.0</ele><time>2026-04-12T19:54:02.385Z</time></trkpt><trkpt lat="51.4985335" lon="-0.4939845"><ele>30.0</ele><time>2026-04-12T19:54:03.385Z</time></trkpt><trkpt lat="51.498383" lon="-0.4938234"><ele>29.333333333333336</ele><time>2026-04-12T19:54:04.385Z</time></trkpt><trkpt lat="51.4982264" lon="-0.4936629"><ele>28.666666666666668</ele><time>2026-04-12T19:54:05.384Z</time></trkpt><trkpt lat="51.4980588" lon="-0.4934873"><ele>28.0</ele><time>2026-04-12T19:54:06.385Z</time></trkpt><trkpt lat="51.4978894" lon="-0.4933074"><ele>28.0</ele><time>2026-04-12T19:54:07.385Z</time></trkpt><trkpt lat="51.49772" lon="-0.4931198"><ele>28.0</ele><time>2026-04-12T19:54:08.384Z</time></trkpt><trkpt lat="51.4975604" lon="-0.4929311"><ele>28.0</ele><time>2026-04-12T19:54:09.385Z</time></trkpt><trkpt lat="51.4974029" lon="-0.492745"><ele>28.0</ele><time>2026-04-12T19:54:10.385Z</time></trkpt><trkpt lat="51.4972432" lon="-0.4925487"><ele>28.0</ele><time>2026-04-12T19:54:11.385Z</time></trkpt><trkpt lat="51.4970826" lon="-0.4923478"><ele>28.0</ele><time>2026-04-12T19:54:12.385Z</time></trkpt><trkpt lat="51.4969234" lon="-0.4921488"><ele>27.666666666666668</ele><time>2026-04-12T19:54:13.385Z</time></trkpt><trkpt lat="51.4967631" lon="-0.4919256"><ele>27.333333333333336</ele><time>2026-04-12T19:54:14.385Z</time></trkpt><trkpt lat="51.4966051" lon="-0.4917094"><ele>27.0</ele><time>2026-04-12T19:54:15.385Z</time></trkpt><trkpt lat="51.4964516" lon="-0.4914814"><ele>27.333333333333336</ele><time>2026-04-12T19:54:16.385Z</time></trkpt><trkpt lat="51.4963037" lon="-0.4912508"><ele>27.666666666666668</ele><time>2026-04-12T19:54:17.384Z</time></trkpt><trkpt lat="51.4961606" lon="-0.4910231"><ele>28.0</ele><time>2026-04-12T19:54:18.385Z</time></trkpt><trkpt lat="51.4960222" lon="-0.4908008"><ele>28.0</ele><time>2026-04-12T19:54:19.385Z</time></trkpt><trkpt lat="51.4958797" lon="-0.490578"><ele>28.0</ele><time>2026-04-12T19:54:20.384Z</time></trkpt><trkpt lat="51.4957313" lon="-0.4903312"><ele>28.0</ele><time>2026-04-12T19:54:21.384Z</time></trkpt><trkpt lat="51.4955754" lon="-0.4900714"><ele>27.0</ele><time>2026-04-12T19:54:22.385Z</time></trkpt><trkpt lat="51.4954296" lon="-0.4898154"><ele>26.0</ele><time>2026-04-12T19:54:23.385Z</time></trkpt><trkpt lat="51.4952931" lon="-0.4895682"><ele>25.0</ele><time>2026-04-12T19:54:24.385Z</time></trkpt><trkpt lat="51.4951535" lon="-0.4892941"><ele>25.0</ele><time>2026-04-12T19:54:25.385Z</time></trkpt><trkpt lat="51.4950439" lon="-0.4889733"><ele>25.0</ele><time>2026-04-12T19:54:26.385Z</time></trkpt><trkpt lat="51.494949" lon="-0.4886432"><ele>25.0</ele><time>2026-04-12T19:54:27.384Z</time></trkpt><trkpt lat="51.4948652" lon="-0.4882716"><ele>25.0</ele><time>2026-04-12T19:54:28.384Z</time></trkpt><trkpt lat="51.4947977" lon="-0.4878972"><ele>25.0</ele><time>2026-04-12T19:54:29.385Z</time></trkpt><trkpt lat="51.4947479" lon="-0.4875349"><ele>25.0</ele><time>2026-04-12T19:54:30.384Z</time></trkpt><trkpt lat="51.494723" lon="-0.4871699"><ele>25.0</ele><time>2026-04-12T19:54:31.385Z</time></trkpt><trkpt lat="51.4947039" lon="-0.4868033"><ele>25.0</ele><time>2026-04-12T19:54:32.384Z</time></trkpt><trkpt lat="51.4946883" lon="-0.4864426"><ele>25.666666666666668</ele><time>2026-04-12T19:54:33.385Z</time></trkpt><trkpt lat="51.4946705" lon="-0.4860928"><ele>26.333333333333336</ele><time>2026-04-12T19:54:34.385Z</time></trkpt><trkpt lat="51.4946559" lon="-0.4857568"><ele>27.0</ele><time>2026-04-12T19:54:35.384Z</time></trkpt><trkpt lat="51.4946447" lon="-0.4854461"><ele>26.666666666666664</ele><time>2026-04-12T19:54:36.385Z</time></trkpt><trkpt lat="51.4946265" lon="-0.4851197"><ele>26.333333333333332</ele><time>2026-04-12T19:54:37.384Z</time></trkpt><trkpt lat="51.4946085" lon="-0.4847992"><ele>26.0</ele><time>2026-04-12T19:54:38.384Z</time></trkpt><trkpt lat="51.4945905" lon="-0.4844635"><ele>26.333333333333332</ele><time>2026-04-12T19:54:39.384Z</time></trkpt><trkpt lat="51.4945758" lon="-0.4841362"><ele>26.666666666666664</ele><time>2026-04-12T19:54:40.385Z</time></trkpt><trkpt lat="51.4945632" lon="-0.4838161"><ele>27.0</ele><time>2026-04-12T19:54:41.384Z</time></trkpt><trkpt lat="51.4945511" lon="-0.483492"><ele>27.0</ele><time>2026-04-12T19:54:42.385Z</time></trkpt><trkpt lat="51.4945432" lon="-0.4831726"><ele>27.0</ele><time>2026-04-12T19:54:43.385Z</time></trkpt><trkpt lat="51.4945394" lon="-0.482861"><ele>27.0</ele><time>2026-04-12T19:54:44.385Z</time></trkpt><trkpt lat="51.4945328" lon="-0.4825433"><ele>27.0</ele><time>2026-04-12T19:54:45.384Z</time></trkpt><trkpt lat="51.4945253" lon="-0.4822185"><ele>27.0</ele><time>2026-04-12T19:54:46.384Z</time></trkpt><trkpt lat="51.4945189" lon="-0.4818696"><ele>27.0</ele><time>2026-04-12T19:54:47.385Z</time></trkpt><trkpt lat="51.4945181" lon="-0.4815267"><ele>26.333333333333336</ele><time>2026-04-12T19:54:48.384Z</time></trkpt><trkpt lat="51.4945093" lon="-0.4811739"><ele>25.666666666666668</ele><time>2026-04-12T19:54:49.384Z</time></trkpt><trkpt lat="51.494503" lon="-0.4808166"><ele>25.0</ele><time>2026-04-12T19:54:50.386Z</time></trkpt><trkpt lat="51.4944969" lon="-0.4804415"><ele>25.5</ele><time>2026-04-12T19:54:51.385Z</time></trkpt><trkpt lat="51.4944898" lon="-0.4800399"><ele>26.0</ele><time>2026-04-12T19:54:52.385Z</time></trkpt><trkpt lat="51.4944847" lon="-0.4796358"><ele>26.5</ele><time>2026-04-12T19:54:53.384Z</time></trkpt><trkpt lat="51.4944923" lon="-0.4792375"><ele>27.0</ele><time>2026-04-12T19:54:54.386Z</time></trkpt><trkpt lat="51.4945044" lon="-0.4788536"><ele>27.0</ele><time>2026-04-12T19:54:55.385Z</time></trkpt><trkpt lat="51.4945211" lon="-0.4784546"><ele>27.0</ele><time>2026-04-12T19:54:56.386Z</time></trkpt><trkpt lat="51.4945491" lon="-0.4780492"><ele>27.0</ele><time>2026-04-12T19:54:57.386Z</time></trkpt><trkpt lat="51.494577" lon="-0.4776522"><ele>27.0</ele><time>2026-04-12T19:54:58.385Z</time></trkpt><trkpt lat="51.4945997" lon="-0.4772437"><ele>28.0</ele><time>2026-04-12T19:54:59.386Z</time></trkpt><trkpt lat="51.4946349" lon="-0.4768512"><ele>29.0</ele><time>2026-04-12T19:55:00.385Z</time></trkpt><trkpt lat="51.4946613" lon="-0.4764514"><ele>29.5</ele><time>2026-04-12T19:55:01.386Z</time></trkpt><trkpt lat="51.494698" lon="-0.476054"><ele>30.0</ele><time>2026-04-12T19:55:02.385Z</time></trkpt><trkpt lat="51.4947348" lon="-0.4756592"><ele>30.0</ele><time>2026-04-12T19:55:03.386Z</time></trkpt><trkpt lat="51.494769" lon="-0.4752614"><ele>30.0</ele><time>2026-04-12T19:55:04.385Z</time></trkpt><trkpt lat="51.4948039" lon="-0.4748579"><ele>30.0</ele><time>2026-04-12T19:55:05.385Z</time></trkpt><trkpt lat="51.494843" lon="-0.4744579"><ele>30.0</ele><time>2026-04-12T19:55:06.386Z</time></trkpt><trkpt lat="51.4948823" lon="-0.4740615"><ele>29.5</ele><time>2026-04-12T19:55:07.386Z</time></trkpt><trkpt lat="51.4949219" lon="-0.4736819"><ele>29.0</ele><time>2026-04-12T19:55:08.386Z</time></trkpt><trkpt lat="51.4949585" lon="-0.47331"><ele>29.5</ele><time>2026-04-12T19:55:09.385Z</time></trkpt><trkpt lat="51.4949949" lon="-0.472939"><ele>30.0</ele><time>2026-04-12T19:55:10.386Z</time></trkpt><trkpt lat="51.4950332" lon="-0.4725773"><ele>30.0</ele><time>2026-04-12T19:55:11.386Z</time></trkpt><trkpt lat="51.4950712" lon="-0.4722241"><ele>30.0</ele><time>2026-04-12T19:55:12.386Z</time></trkpt><trkpt lat="51.4951039" lon="-0.4718737"><ele>30.0</ele><time>2026-04-12T19:55:13.386Z</time></trkpt><trkpt lat="51.4951377" lon="-0.4715283"><ele>30.0</ele><time>2026-04-12T19:55:14.385Z</time></trkpt><trkpt lat="51.4951726" lon="-0.4711785"><ele>30.0</ele><time>2026-04-12T19:55:15.386Z</time></trkpt><trkpt lat="51.495211" lon="-0.4708351"><ele>30.0</ele><time>2026-04-12T19:55:16.385Z</time></trkpt><trkpt lat="51.4952402" lon="-0.4704978"><ele>30.0</ele><time>2026-04-12T19:55:17.386Z</time></trkpt><trkpt lat="51.4952717" lon="-0.4701693"><ele>30.0</ele><time>2026-04-12T19:55:18.386Z</time></trkpt><trkpt lat="51.4953021" lon="-0.4698446"><ele>30.0</ele><time>2026-04-12T19:55:19.385Z</time></trkpt><trkpt lat="51.4953347" lon="-0.469515"><ele>30.0</ele><time>2026-04-12T19:55:20.386Z</time></trkpt><trkpt lat="51.4953598" lon="-0.4691793"><ele>30.0</ele><time>2026-04-12T19:55:21.386Z</time></trkpt><trkpt lat="51.4953909" lon="-0.4688486"><ele>30.0</ele><time>2026-04-12T19:55:22.386Z</time></trkpt><trkpt lat="51.4954183" lon="-0.4685191"><ele>30.0</ele><time>2026-04-12T19:55:23.385Z</time></trkpt><trkpt lat="51.4954436" lon="-0.4681877"><ele>30.0</ele><time>2026-04-12T19:55:24.385Z</time></trkpt><trkpt lat="51.4954632" lon="-0.4678633"><ele>30.0</ele><time>2026-04-12T19:55:25.386Z</time></trkpt><trkpt lat="51.4954913" lon="-0.4675344"><ele>30.333333333333336</ele><time>2026-04-12T19:55:26.385Z</time></trkpt><trkpt lat="51.4955142" lon="-0.4672059"><ele>30.666666666666668</ele><time>2026-04-12T19:55:27.386Z</time></trkpt><trkpt lat="51.4955372" lon="-0.4668738"><ele>31.0</ele><time>2026-04-12T19:55:28.385Z</time></trkpt><trkpt lat="51.4955623" lon="-0.4665551"><ele>30.666666666666668</ele><time>2026-04-12T19:55:29.386Z</time></trkpt><trkpt lat="51.4955821" lon="-0.4662395"><ele>30.333333333333336</ele><time>2026-04-12T19:55:30.385Z</time></trkpt><trkpt lat="51.4956073" lon="-0.465926"><ele>30.0</ele><time>2026-04-12T19:55:31.385Z</time></trkpt><trkpt lat="51.4956285" lon="-0.4656127"><ele>30.333333333333336</ele><time>2026-04-12T19:55:32.385Z</time></trkpt><trkpt lat="51.4956513" lon="-0.4652938"><ele>30.666666666666668</ele><time>2026-04-12T19:55:33.386Z</time></trkpt><trkpt lat="51.4956716" lon="-0.46497"><ele>31.0</ele><time>2026-04-12T19:55:34.386Z</time></trkpt><trkpt lat="51.4956983" lon="-0.464656"><ele>31.333333333333336</ele><time>2026-04-12T19:55:35.386Z</time></trkpt><trkpt lat="51.4957226" lon="-0.4643313"><ele>31.666666666666664</ele><time>2026-04-12T19:55:36.386Z</time></trkpt><trkpt lat="51.4957482" lon="-0.4639993"><ele>32.0</ele><time>2026-04-12T19:55:37.385Z</time></trkpt><trkpt lat="51.4957634" lon="-0.4636487"><ele>32.0</ele><time>2026-04-12T19:55:38.386Z</time></trkpt><trkpt lat="51.4957885" lon="-0.4632945"><ele>32.0</ele><time>2026-04-12T19:55:39.386Z</time></trkpt><trkpt lat="51.4958103" lon="-0.4629363"><ele>32.0</ele><time>2026-04-12T19:55:40.386Z</time></trkpt><trkpt lat="51.4958334" lon="-0.4625782"><ele>31.5</ele><time>2026-04-12T19:55:41.386Z</time></trkpt><trkpt lat="51.4958528" lon="-0.4622111"><ele>31.0</ele><time>2026-04-12T19:55:42.386Z</time></trkpt><trkpt lat="51.4958677" lon="-0.461856"><ele>31.0</ele><time>2026-04-12T19:55:43.385Z</time></trkpt><trkpt lat="51.4958818" lon="-0.4615047"><ele>31.0</ele><time>2026-04-12T19:55:44.385Z</time></trkpt><trkpt lat="51.4958948" lon="-0.4611509"><ele>31.0</ele><time>2026-04-12T19:55:45.386Z</time></trkpt><trkpt lat="51.4959063" lon="-0.4608056"><ele>30.666666666666668</ele><time>2026-04-12T19:55:46.386Z</time></trkpt><trkpt lat="51.4959128" lon="-0.4604605"><ele>30.333333333333336</ele><time>2026-04-12T19:55:47.386Z</time></trkpt><trkpt lat="51.4959207" lon="-0.4601222"><ele>30.0</ele><time>2026-04-12T19:55:48.385Z</time></trkpt><trkpt lat="51.4959253" lon="-0.4597829"><ele>30.333333333333336</ele><time>2026-04-12T19:55:49.386Z</time></trkpt><trkpt lat="51.4959326" lon="-0.4594464"><ele>30.666666666666668</ele><time>2026-04-12T19:55:50.386Z</time></trkpt><trkpt lat="51.4959334" lon="-0.459108"><ele>31.0</ele><time>2026-04-12T19:55:51.385Z</time></trkpt><trkpt lat="51.4959344" lon="-0.4587816"><ele>31.333333333333336</ele><time>2026-04-12T19:55:52.386Z</time></trkpt><trkpt lat="51.4959379" lon="-0.4584466"><ele>31.666666666666664</ele><time>2026-04-12T19:55:53.386Z</time></trkpt><trkpt lat="51.4959311" lon="-0.4581187"><ele>32.0</ele><time>2026-04-12T19:55:54.386Z</time></trkpt><trkpt lat="51.4959259" lon="-0.4577907"><ele>32.0</ele><time>2026-04-12T19:55:55.385Z</time></trkpt><trkpt lat="51.4959187" lon="-0.4574559"><ele>32.0</ele><time>2026-04-12T19:55:56.385Z</time></trkpt><trkpt lat="51.4959124" lon="-0.4571196"><ele>32.0</ele><time>2026-04-12T19:55:57.385Z</time></trkpt><trkpt lat="51.4959077" lon="-0.4567874"><ele>32.0</ele><time>2026-04-12T19:55:58.386Z</time></trkpt><trkpt lat="51.4959046" lon="-0.4564547"><ele>32.0</ele><time>2026-04-12T19:55:59.386Z</time></trkpt><trkpt lat="51.4958989" lon="-0.4561121"><ele>32.0</ele><time>2026-04-12T19:56:00.386Z</time></trkpt><trkpt lat="51.4958902" lon="-0.4557798"><ele>31.666666666666664</ele><time>2026-04-12T19:56:01.385Z</time></trkpt><trkpt lat="51.4958817" lon="-0.4554355"><ele>31.333333333333336</ele><time>2026-04-12T19:56:02.386Z</time></trkpt><trkpt lat="51.4958663" lon="-0.4551042"><ele>31.0</ele><time>2026-04-12T19:56:03.385Z</time></trkpt><trkpt lat="51.4958544" lon="-0.4547714"><ele>31.0</ele><time>2026-04-12T19:56:04.386Z</time></trkpt><trkpt lat="51.4958469" lon="-0.4544336"><ele>31.0</ele><time>2026-04-12T19:56:05.386Z</time></trkpt><trkpt lat="51.4958321" lon="-0.4540927"><ele>31.0</ele><time>2026-04-12T19:56:06.385Z</time></trkpt><trkpt lat="51.495816" lon="-0.4537629"><ele>31.0</ele><time>2026-04-12T19:56:07.386Z</time></trkpt><trkpt lat="51.495798" lon="-0.45344"><ele>31.0</ele><time>2026-04-12T19:56:08.386Z</time></trkpt><trkpt lat="51.4957823" lon="-0.4531115"><ele>31.0</ele><time>2026-04-12T19:56:09.387Z</time></trkpt><trkpt lat="51.4957654" lon="-0.4527885"><ele>31.666666666666668</ele><time>2026-04-12T19:56:10.386Z</time></trkpt><trkpt lat="51.495746" lon="-0.4524584"><ele>32.333333333333336</ele><time>2026-04-12T19:56:11.387Z</time></trkpt><trkpt lat="51.4957271" lon="-0.4521366"><ele>33.0</ele><time>2026-04-12T19:56:12.387Z</time></trkpt><trkpt lat="51.4957078" lon="-0.4518042"><ele>33.0</ele><time>2026-04-12T19:56:13.386Z</time></trkpt><trkpt lat="51.4956854" lon="-0.4514832"><ele>33.0</ele><time>2026-04-12T19:56:14.386Z</time></trkpt><trkpt lat="51.4956647" lon="-0.4511629"><ele>33.0</ele><time>2026-04-12T19:56:15.387Z</time></trkpt><trkpt lat="51.4956465" lon="-0.4508374"><ele>32.333333333333336</ele><time>2026-04-12T19:56:16.387Z</time></trkpt><trkpt lat="51.4956241" lon="-0.4505142"><ele>31.666666666666668</ele><time>2026-04-12T19:56:17.386Z</time></trkpt><trkpt lat="51.4955986" lon="-0.450189"><ele>31.0</ele><time>2026-04-12T19:56:18.387Z</time></trkpt><trkpt lat="51.4955726" lon="-0.4498627"><ele>30.666666666666668</ele><time>2026-04-12T19:56:19.387Z</time></trkpt><trkpt lat="51.4955459" lon="-0.4495254"><ele>30.333333333333336</ele><time>2026-04-12T19:56:20.386Z</time></trkpt><trkpt lat="51.4955202" lon="-0.4492001"><ele>30.0</ele><time>2026-04-12T19:56:21.387Z</time></trkpt><trkpt lat="51.4954964" lon="-0.4488607"><ele>29.666666666666664</ele><time>2026-04-12T19:56:22.386Z</time></trkpt><trkpt lat="51.4954671" lon="-0.4485328"><ele>29.333333333333332</ele><time>2026-04-12T19:56:23.387Z</time></trkpt><trkpt lat="51.4954347" lon="-0.4482001"><ele>29.0</ele><time>2026-04-12T19:56:24.386Z</time></trkpt><trkpt lat="51.4954025" lon="-0.4478554"><ele>27.5</ele><time>2026-04-12T19:56:25.387Z</time></trkpt><trkpt lat="51.4953715" lon="-0.4474997"><ele>26.0</ele><time>2026-04-12T19:56:26.387Z</time></trkpt><trkpt lat="51.495339" lon="-0.4471382"><ele>27.0</ele><time>2026-04-12T19:56:27.387Z</time></trkpt><trkpt lat="51.495302" lon="-0.4467766"><ele>28.0</ele><time>2026-04-12T19:56:28.386Z</time></trkpt><trkpt lat="51.4952671" lon="-0.4464124"><ele>28.0</ele><time>2026-04-12T19:56:29.386Z</time></trkpt><trkpt lat="51.4952243" lon="-0.4460603"><ele>28.0</ele><time>2026-04-12T19:56:30.387Z</time></trkpt><trkpt lat="51.4951908" lon="-0.4457106"><ele>28.0</ele><time>2026-04-12T19:56:31.386Z</time></trkpt><trkpt lat="51.4951504" lon="-0.445354"><ele>27.666666666666668</ele><time>2026-04-12T19:56:32.387Z</time></trkpt><trkpt lat="51.4951146" lon="-0.4450009"><ele>27.333333333333336</ele><time>2026-04-12T19:56:33.387Z</time></trkpt><trkpt lat="51.4950738" lon="-0.4446467"><ele>27.0</ele><time>2026-04-12T19:56:34.387Z</time></trkpt><trkpt lat="51.4950348" lon="-0.4442886"><ele>27.0</ele><time>2026-04-12T19:56:35.386Z</time></trkpt><trkpt lat="51.4950031" lon="-0.4439352"><ele>27.0</ele><time>2026-04-12T19:56:36.386Z</time></trkpt><trkpt lat="51.4949617" lon="-0.443584"><ele>27.0</ele><time>2026-04-12T19:56:37.387Z</time></trkpt><trkpt lat="51.4949235" lon="-0.4432268"><ele>26.666666666666664</ele><time>2026-04-12T19:56:38.386Z</time></trkpt><trkpt lat="51.4948905" lon="-0.4428728"><ele>26.333333333333332</ele><time>2026-04-12T19:56:39.387Z</time></trkpt><trkpt lat="51.4948497" lon="-0.4425207"><ele>26.0</ele><time>2026-04-12T19:56:40.386Z</time></trkpt><trkpt lat="51.4948224" lon="-0.4421665"><ele>26.333333333333332</ele><time>2026-04-12T19:56:41.386Z</time></trkpt><trkpt lat="51.4947836" lon="-0.4418122"><ele>26.666666666666664</ele><time>2026-04-12T19:56:42.387Z</time></trkpt><trkpt lat="51.4947497" lon="-0.4414541"><ele>27.0</ele><time>2026-04-12T19:56:43.386Z</time></trkpt><trkpt lat="51.4947162" lon="-0.4410973"><ele>27.0</ele><time>2026-04-12T19:56:44.387Z</time></trkpt><trkpt lat="51.4946799" lon="-0.4407407"><ele>27.0</ele><time>2026-04-12T19:56:45.387Z</time></trkpt><trkpt lat="51.4946473" lon="-0.4403895"><ele>27.0</ele><time>2026-04-12T19:56:46.387Z</time></trkpt><trkpt lat="51.494609" lon="-0.4400284"><ele>26.666666666666664</ele><time>2026-04-12T19:56:47.387Z</time></trkpt><trkpt lat="51.4945753" lon="-0.4396767"><ele>26.333333333333332</ele><time>2026-04-12T19:56:48.386Z</time></trkpt><trkpt lat="51.4945384" lon="-0.4393183"><ele>26.0</ele><time>2026-04-12T19:56:49.387Z</time></trkpt><trkpt lat="51.4945077" lon="-0.4389669"><ele>26.0</ele><time>2026-04-12T19:56:50.387Z</time></trkpt><trkpt lat="51.4944789" lon="-0.4386134"><ele>26.0</ele><time>2026-04-12T19:56:51.386Z</time></trkpt><trkpt lat="51.4944474" lon="-0.4382573"><ele>26.0</ele><time>2026-04-12T19:56:52.387Z</time></trkpt><trkpt lat="51.4944134" lon="-0.4379027"><ele>26.0</ele><time>2026-04-12T19:56:53.387Z</time></trkpt><trkpt lat="51.4943787" lon="-0.4375459"><ele>26.0</ele><time>2026-04-12T19:56:54.387Z</time></trkpt><trkpt lat="51.4943502" lon="-0.4371909"><ele>26.0</ele><time>2026-04-12T19:56:55.387Z</time></trkpt><trkpt lat="51.4943171" lon="-0.4368326"><ele>26.333333333333332</ele><time>2026-04-12T19:56:56.386Z</time></trkpt><trkpt lat="51.4942826" lon="-0.4364804"><ele>26.666666666666664</ele><time>2026-04-12T19:56:57.386Z</time></trkpt><trkpt lat="51.494257" lon="-0.4361271"><ele>27.0</ele><time>2026-04-12T19:56:58.387Z</time></trkpt><trkpt lat="51.4942272" lon="-0.4357731"><ele>27.5</ele><time>2026-04-12T19:56:59.386Z</time></trkpt><trkpt lat="51.4941994" lon="-0.4354126"><ele>28.0</ele><time>2026-04-12T19:57:00.386Z</time></trkpt><trkpt lat="51.4941704" lon="-0.4350561"><ele>28.0</ele><time>2026-04-12T19:57:01.386Z</time></trkpt><trkpt lat="51.49414" lon="-0.434704"><ele>28.0</ele><time>2026-04-12T19:57:02.386Z</time></trkpt><trkpt lat="51.4941062" lon="-0.4343483"><ele>28.0</ele><time>2026-04-12T19:57:03.386Z</time></trkpt><trkpt lat="51.4940832" lon="-0.4339925"><ele>28.0</ele><time>2026-04-12T19:57:04.387Z</time></trkpt><trkpt lat="51.4940537" lon="-0.4336342"><ele>28.0</ele><time>2026-04-12T19:57:05.387Z</time></trkpt><trkpt lat="51.49403" lon="-0.4332764"><ele>28.0</ele><time>2026-04-12T19:57:06.386Z</time></trkpt><trkpt lat="51.4940031" lon="-0.4329156"><ele>28.0</ele><time>2026-04-12T19:57:07.387Z</time></trkpt><trkpt lat="51.4939807" lon="-0.4325592"><ele>28.0</ele><time>2026-04-12T19:57:08.387Z</time></trkpt><trkpt lat="51.4939519" lon="-0.4321974"><ele>28.0</ele><time>2026-04-12T19:57:09.387Z</time></trkpt><trkpt lat="51.4939287" lon="-0.4318413"><ele>28.0</ele><time>2026-04-12T19:57:10.386Z</time></trkpt><trkpt lat="51.493904" lon="-0.4314882"><ele>28.0</ele><time>2026-04-12T19:57:11.387Z</time></trkpt><trkpt lat="51.4938757" lon="-0.431131"><ele>28.0</ele><time>2026-04-12T19:57:12.387Z</time></trkpt><trkpt lat="51.4938509" lon="-0.4307765"><ele>28.0</ele><time>2026-04-12T19:57:13.387Z</time></trkpt><trkpt lat="51.4938227" lon="-0.430437"><ele>28.0</ele><time>2026-04-12T19:57:14.387Z</time></trkpt><trkpt lat="51.4937972" lon="-0.4301017"><ele>28.0</ele><time>2026-04-12T19:57:15.387Z</time></trkpt><trkpt lat="51.493774" lon="-0.4297659"><ele>28.0</ele><time>2026-04-12T19:57:16.386Z</time></trkpt><trkpt lat="51.493753" lon="-0.4294236"><ele>28.0</ele><time>2026-04-12T19:57:17.387Z</time></trkpt><trkpt lat="51.4937305" lon="-0.4290886"><ele>27.666666666666668</ele><time>2026-04-12T19:57:18.387Z</time></trkpt><trkpt lat="51.4937023" lon="-0.4287455"><ele>27.333333333333336</ele><time>2026-04-12T19:57:19.387Z</time></trkpt><trkpt lat="51.4936762" lon="-0.4284066"><ele>27.0</ele><time>2026-04-12T19:57:20.386Z</time></trkpt><trkpt lat="51.4936544" lon="-0.4280669"><ele>27.0</ele><time>2026-04-12T19:57:21.388Z</time></trkpt><trkpt lat="51.4936382" lon="-0.4277286"><ele>27.0</ele><time>2026-04-12T19:57:22.388Z</time></trkpt><trkpt lat="51.4936186" lon="-0.4273928"><ele>27.0</ele><time>2026-04-12T19:57:23.388Z</time></trkpt><trkpt lat="51.4935908" lon="-0.4270679"><ele>27.0</ele><time>2026-04-12T19:57:24.388Z</time></trkpt><trkpt lat="51.4935616" lon="-0.4267368"><ele>27.0</ele><time>2026-04-12T19:57:25.388Z</time></trkpt><trkpt lat="51.493541" lon="-0.4264057"><ele>27.0</ele><time>2026-04-12T19:57:26.387Z</time></trkpt><trkpt lat="51.4935197" lon="-0.4260731"><ele>27.0</ele><time>2026-04-12T19:57:27.388Z</time></trkpt><trkpt lat="51.4934973" lon="-0.4257374"><ele>27.0</ele><time>2026-04-12T19:57:28.388Z</time></trkpt><trkpt lat="51.4934788" lon="-0.4253989"><ele>27.0</ele><time>2026-04-12T19:57:29.388Z</time></trkpt><trkpt lat="51.4934505" lon="-0.4250607"><ele>27.0</ele><time>2026-04-12T19:57:30.388Z</time></trkpt><trkpt lat="51.493422" lon="-0.4247266"><ele>27.0</ele><time>2026-04-12T19:57:31.387Z</time></trkpt><trkpt lat="51.4933998" lon="-0.4243802"><ele>27.0</ele><time>2026-04-12T19:57:32.388Z</time></trkpt><trkpt lat="51.4933787" lon="-0.4240438"><ele>26.666666666666664</ele><time>2026-04-12T19:57:33.388Z</time></trkpt><trkpt lat="51.493358" lon="-0.4237047"><ele>26.333333333333332</ele><time>2026-04-12T19:57:34.387Z</time></trkpt><trkpt lat="51.4933311" lon="-0.4233653"><ele>26.0</ele><time>2026-04-12T19:57:35.388Z</time></trkpt><trkpt lat="51.493308" lon="-0.4230312"><ele>26.0</ele><time>2026-04-12T19:57:36.387Z</time></trkpt><trkpt lat="51.4932829" lon="-0.4226887"><ele>26.0</ele><time>2026-04-12T19:57:37.387Z</time></trkpt><trkpt lat="51.4932609" lon="-0.4223544"><ele>26.0</ele><time>2026-04-12T19:57:38.388Z</time></trkpt><trkpt lat="51.4932417" lon="-0.4220131"><ele>26.333333333333332</ele><time>2026-04-12T19:57:39.388Z</time></trkpt><trkpt lat="51.4932188" lon="-0.4216801"><ele>26.666666666666664</ele><time>2026-04-12T19:57:40.388Z</time></trkpt><trkpt lat="51.4931957" lon="-0.4213348"><ele>27.0</ele><time>2026-04-12T19:57:41.388Z</time></trkpt><trkpt lat="51.4931646" lon="-0.4209978"><ele>27.666666666666664</ele><time>2026-04-12T19:57:42.387Z</time></trkpt><trkpt lat="51.4931309" lon="-0.4206574"><ele>28.333333333333332</ele><time>2026-04-12T19:57:43.387Z</time></trkpt><trkpt lat="51.493104" lon="-0.4203062"><ele>29.0</ele><time>2026-04-12T19:57:44.387Z</time></trkpt><trkpt lat="51.4930817" lon="-0.4199735"><ele>29.333333333333332</ele><time>2026-04-12T19:57:45.388Z</time></trkpt><trkpt lat="51.493059" lon="-0.4196353"><ele>29.666666666666664</ele><time>2026-04-12T19:57:46.388Z</time></trkpt><trkpt lat="51.4930328" lon="-0.419298"><ele>30.0</ele><time>2026-04-12T19:57:47.388Z</time></trkpt><trkpt lat="51.4930097" lon="-0.4189588"><ele>30.333333333333336</ele><time>2026-04-12T19:57:48.388Z</time></trkpt><trkpt lat="51.4929887" lon="-0.4186276"><ele>30.666666666666668</ele><time>2026-04-12T19:57:49.388Z</time></trkpt><trkpt lat="51.4929621" lon="-0.4182928"><ele>31.0</ele><time>2026-04-12T19:57:50.387Z</time></trkpt><trkpt lat="51.492936" lon="-0.4179534"><ele>31.333333333333336</ele><time>2026-04-12T19:57:51.388Z</time></trkpt><trkpt lat="51.4929077" lon="-0.41762"><ele>31.666666666666664</ele><time>2026-04-12T19:57:52.387Z</time></trkpt><trkpt lat="51.4928916" lon="-0.4172807"><ele>32.0</ele><time>2026-04-12T19:57:53.388Z</time></trkpt><trkpt lat="51.4928647" lon="-0.416941"><ele>32.0</ele><time>2026-04-12T19:57:54.388Z</time></trkpt><trkpt lat="51.4928383" lon="-0.416605"><ele>32.0</ele><time>2026-04-12T19:57:55.388Z</time></trkpt><trkpt lat="51.4928119" lon="-0.4162674"><ele>32.0</ele><time>2026-04-12T19:57:56.388Z</time></trkpt><trkpt lat="51.4927934" lon="-0.4159278"><ele>31.666666666666664</ele><time>2026-04-12T19:57:57.387Z</time></trkpt><trkpt lat="51.4927774" lon="-0.4155758"><ele>31.333333333333336</ele><time>2026-04-12T19:57:58.388Z</time></trkpt><trkpt lat="51.4927536" lon="-0.4152339"><ele>31.0</ele><time>2026-04-12T19:57:59.388Z</time></trkpt><trkpt lat="51.4927325" lon="-0.4148799"><ele>32.0</ele><time>2026-04-12T19:58:00.388Z</time></trkpt><trkpt lat="51.4927091" lon="-0.4145335"><ele>33.0</ele><time>2026-04-12T19:58:01.388Z</time></trkpt><trkpt lat="51.4926841" lon="-0.4141843"><ele>34.0</ele><time>2026-04-12T19:58:02.388Z</time></trkpt><trkpt lat="51.4926601" lon="-0.413833"><ele>34.0</ele><time>2026-04-12T19:58:03.388Z</time></trkpt><trkpt lat="51.4926264" lon="-0.4134782"><ele>34.0</ele><time>2026-04-12T19:58:04.387Z</time></trkpt><trkpt lat="51.4926011" lon="-0.4131192"><ele>34.0</ele><time>2026-04-12T19:58:05.388Z</time></trkpt><trkpt lat="51.4925749" lon="-0.412763"><ele>33.0</ele><time>2026-04-12T19:58:06.387Z</time></trkpt><trkpt lat="51.4925556" lon="-0.4124024"><ele>32.0</ele><time>2026-04-12T19:58:07.387Z</time></trkpt><trkpt lat="51.4925244" lon="-0.4120364"><ele>31.5</ele><time>2026-04-12T19:58:08.388Z</time></trkpt><trkpt lat="51.4925" lon="-0.4116732"><ele>31.0</ele><time>2026-04-12T19:58:09.388Z</time></trkpt><trkpt lat="51.4924724" lon="-0.4113076"><ele>30.5</ele><time>2026-04-12T19:58:10.388Z</time></trkpt><trkpt lat="51.4924382" lon="-0.4109451"><ele>30.0</ele><time>2026-04-12T19:58:11.388Z</time></trkpt><trkpt lat="51.4924095" lon="-0.4105875"><ele>28.5</ele><time>2026-04-12T19:58:12.387Z</time></trkpt><trkpt lat="51.4923704" lon="-0.4102253"><ele>27.0</ele><time>2026-04-12T19:58:13.387Z</time></trkpt><trkpt lat="51.4923343" lon="-0.4098662"><ele>28.0</ele><time>2026-04-12T19:58:14.388Z</time></trkpt><trkpt lat="51.4922994" lon="-0.4095058"><ele>29.0</ele><time>2026-04-12T19:58:15.387Z</time></trkpt><trkpt lat="51.4922627" lon="-0.4091472"><ele>30.0</ele><time>2026-04-12T19:58:16.387Z</time></trkpt><trkpt lat="51.4922152" lon="-0.4087907"><ele>31.0</ele><time>2026-04-12T19:58:17.388Z</time></trkpt><trkpt lat="51.4921624" lon="-0.4084374"><ele>31.0</ele><time>2026-04-12T19:58:18.388Z</time></trkpt><trkpt lat="51.4921071" lon="-0.4080801"><ele>31.0</ele><time>2026-04-12T19:58:19.387Z</time></trkpt><trkpt lat="51.4920527" lon="-0.4077291"><ele>31.0</ele><time>2026-04-12T19:58:20.388Z</time></trkpt><trkpt lat="51.4919917" lon="-0.4073762"><ele>31.0</ele><time>2026-04-12T19:58:21.387Z</time></trkpt><trkpt lat="51.4919308" lon="-0.4070243"><ele>31.0</ele><time>2026-04-12T19:58:22.387Z</time></trkpt><trkpt lat="51.4918685" lon="-0.4066823"><ele>31.0</ele><time>2026-04-12T19:58:23.387Z</time></trkpt><trkpt lat="51.4918013" lon="-0.4063344"><ele>31.0</ele><time>2026-04-12T19:58:24.387Z</time></trkpt><trkpt lat="51.4917301" lon="-0.405988"><ele>30.0</ele><time>2026-04-12T19:58:25.388Z</time></trkpt><trkpt lat="51.4916589" lon="-0.4056397"><ele>29.0</ele><time>2026-04-12T19:58:26.388Z</time></trkpt><trkpt lat="51.4915771" lon="-0.4052949"><ele>28.0</ele><time>2026-04-12T19:58:27.388Z</time></trkpt><trkpt lat="51.4915005" lon="-0.4049487"><ele>27.0</ele><time>2026-04-12T19:58:28.387Z</time></trkpt><trkpt lat="51.4914137" lon="-0.4046141"><ele>27.333333333333336</ele><time>2026-04-12T19:58:29.387Z</time></trkpt><trkpt lat="51.4913296" lon="-0.4042812"><ele>27.666666666666668</ele><time>2026-04-12T19:58:30.387Z</time></trkpt><trkpt lat="51.4912475" lon="-0.4039507"><ele>28.0</ele><time>2026-04-12T19:58:31.388Z</time></trkpt><trkpt lat="51.4911589" lon="-0.4036092"><ele>28.0</ele><time>2026-04-12T19:58:32.388Z</time></trkpt><trkpt lat="51.4910684" lon="-0.4032726"><ele>28.0</ele><time>2026-04-12T19:58:33.387Z</time></trkpt><trkpt lat="51.4909835" lon="-0.4029408"><ele>28.5</ele><time>2026-04-12T19:58:34.387Z</time></trkpt><trkpt lat="51.4908947" lon="-0.4026049"><ele>29.0</ele><time>2026-04-12T19:58:35.388Z</time></trkpt><trkpt lat="51.4908021" lon="-0.4022739"><ele>30.0</ele><time>2026-04-12T19:58:36.389Z</time></trkpt><trkpt lat="51.4907151" lon="-0.4019455"><ele>31.0</ele><time>2026-04-12T19:58:37.388Z</time></trkpt><trkpt lat="51.4906234" lon="-0.4016049"><ele>30.5</ele><time>2026-04-12T19:58:38.388Z</time></trkpt><trkpt lat="51.4905301" lon="-0.4012741"><ele>30.0</ele><time>2026-04-12T19:58:39.388Z</time></trkpt><trkpt lat="51.4904392" lon="-0.40094"><ele>31.0</ele><time>2026-04-12T19:58:40.388Z</time></trkpt><trkpt lat="51.4903523" lon="-0.4006021"><ele>32.0</ele><time>2026-04-12T19:58:41.388Z</time></trkpt><trkpt lat="51.4902594" lon="-0.4002691"><ele>32.0</ele><time>2026-04-12T19:58:42.389Z</time></trkpt><trkpt lat="51.4901657" lon="-0.399938"><ele>32.0</ele><time>2026-04-12T19:58:43.389Z</time></trkpt><trkpt lat="51.4900808" lon="-0.3996065"><ele>32.0</ele><time>2026-04-12T19:58:44.388Z</time></trkpt><trkpt lat="51.4899933" lon="-0.3992722"><ele>32.0</ele><time>2026-04-12T19:58:45.389Z</time></trkpt><trkpt lat="51.4899055" lon="-0.3989385"><ele>32.0</ele><time>2026-04-12T19:58:46.389Z</time></trkpt><trkpt lat="51.4898141" lon="-0.3986022"><ele>32.0</ele><time>2026-04-12T19:58:47.389Z</time></trkpt><trkpt lat="51.489724" lon="-0.3982707"><ele>32.0</ele><time>2026-04-12T19:58:48.389Z</time></trkpt><trkpt lat="51.4896346" lon="-0.3979363"><ele>32.0</ele><time>2026-04-12T19:58:49.389Z</time></trkpt><trkpt lat="51.489542" lon="-0.3976017"><ele>32.0</ele><time>2026-04-12T19:58:50.389Z</time></trkpt><trkpt lat="51.4894517" lon="-0.3972659"><ele>32.0</ele><time>2026-04-12T19:58:51.389Z</time></trkpt><trkpt lat="51.4893601" lon="-0.39693"><ele>32.0</ele><time>2026-04-12T19:58:52.389Z</time></trkpt><trkpt lat="51.4892698" lon="-0.3965906"><ele>32.0</ele><time>2026-04-12T19:58:53.389Z</time></trkpt><trkpt lat="51.4891824" lon="-0.3962585"><ele>31.5</ele><time>2026-04-12T19:58:54.389Z</time></trkpt><trkpt lat="51.4890903" lon="-0.395928"><ele>31.0</ele><time>2026-04-12T19:58:55.389Z</time></trkpt><trkpt lat="51.4890012" lon="-0.3955881"><ele>31.0</ele><time>2026-04-12T19:58:56.389Z</time></trkpt><trkpt lat="51.4889169" lon="-0.3952523"><ele>31.0</ele><time>2026-04-12T19:58:57.389Z</time></trkpt><trkpt lat="51.4888383" lon="-0.3949158"><ele>31.0</ele><time>2026-04-12T19:58:58.388Z</time></trkpt><trkpt lat="51.4887568" lon="-0.3945741"><ele>30.5</ele><time>2026-04-12T19:58:59.389Z</time></trkpt><trkpt lat="51.4886807" lon="-0.394224"><ele>30.0</ele><time>2026-04-12T19:59:00.388Z</time></trkpt><trkpt lat="51.4886115" lon="-0.393879"><ele>31.0</ele><time>2026-04-12T19:59:01.388Z</time></trkpt><trkpt lat="51.4885416" lon="-0.3935377"><ele>32.0</ele><time>2026-04-12T19:59:02.389Z</time></trkpt><trkpt lat="51.4884735" lon="-0.3931874"><ele>32.0</ele><time>2026-04-12T19:59:03.389Z</time></trkpt><trkpt lat="51.4884094" lon="-0.3928365"><ele>32.0</ele><time>2026-04-12T19:59:04.389Z</time></trkpt><trkpt lat="51.4883457" lon="-0.3924938"><ele>32.5</ele><time>2026-04-12T19:59:05.389Z</time></trkpt><trkpt lat="51.4882909" lon="-0.3921414"><ele>33.0</ele><time>2026-04-12T19:59:06.388Z</time></trkpt><trkpt lat="51.4882361" lon="-0.39179"><ele>33.0</ele><time>2026-04-12T19:59:07.389Z</time></trkpt><trkpt lat="51.4881862" lon="-0.3914396"><ele>33.0</ele><time>2026-04-12T19:59:08.388Z</time></trkpt><trkpt lat="51.4881399" lon="-0.3910983"><ele>33.0</ele><time>2026-04-12T19:59:09.388Z</time></trkpt><trkpt lat="51.4880991" lon="-0.3907513"><ele>33.333333333333336</ele><time>2026-04-12T19:59:10.389Z</time></trkpt><trkpt lat="51.4880598" lon="-0.3904063"><ele>33.66666666666667</ele><time>2026-04-12T19:59:11.388Z</time></trkpt><trkpt lat="51.4880309" lon="-0.3900603"><ele>34.0</ele><time>2026-04-12T19:59:12.389Z</time></trkpt><trkpt lat="51.4880005" lon="-0.389711"><ele>34.333333333333336</ele><time>2026-04-12T19:59:13.388Z</time></trkpt><trkpt lat="51.4879745" lon="-0.3893603"><ele>34.666666666666664</ele><time>2026-04-12T19:59:14.388Z</time></trkpt><trkpt lat="51.4879529" lon="-0.3890035"><ele>35.0</ele><time>2026-04-12T19:59:15.389Z</time></trkpt><trkpt lat="51.4879317" lon="-0.3886517"><ele>35.0</ele><time>2026-04-12T19:59:16.389Z</time></trkpt><trkpt lat="51.4879139" lon="-0.3882982"><ele>35.0</ele><time>2026-04-12T19:59:17.389Z</time></trkpt><trkpt lat="51.4879002" lon="-0.3879449"><ele>35.0</ele><time>2026-04-12T19:59:18.389Z</time></trkpt><trkpt lat="51.4878855" lon="-0.3875919"><ele>34.666666666666664</ele><time>2026-04-12T19:59:19.389Z</time></trkpt><trkpt lat="51.4878813" lon="-0.3872416"><ele>34.333333333333336</ele><time>2026-04-12T19:59:20.388Z</time></trkpt><trkpt lat="51.4878745" lon="-0.3868888"><ele>34.0</ele><time>2026-04-12T19:59:21.388Z</time></trkpt><trkpt lat="51.4878708" lon="-0.386536"><ele>34.0</ele><time>2026-04-12T19:59:22.388Z</time></trkpt><trkpt lat="51.4878697" lon="-0.3861855"><ele>34.0</ele><time>2026-04-12T19:59:23.389Z</time></trkpt><trkpt lat="51.4878777" lon="-0.3858323"><ele>34.0</ele><time>2026-04-12T19:59:24.389Z</time></trkpt><trkpt lat="51.4878881" lon="-0.3854828"><ele>34.0</ele><time>2026-04-12T19:59:25.389Z</time></trkpt><trkpt lat="51.4878997" lon="-0.3851336"><ele>34.0</ele><time>2026-04-12T19:59:26.388Z</time></trkpt><trkpt lat="51.4879112" lon="-0.3847922"><ele>34.0</ele><time>2026-04-12T19:59:27.388Z</time></trkpt><trkpt lat="51.4879363" lon="-0.384444"><ele>34.0</ele><time>2026-04-12T19:59:28.388Z</time></trkpt><trkpt lat="51.4879591" lon="-0.3841005"><ele>34.0</ele><time>2026-04-12T19:59:29.388Z</time></trkpt><trkpt lat="51.4879846" lon="-0.3837502"><ele>34.0</ele><time>2026-04-12T19:59:30.389Z</time></trkpt><trkpt lat="51.4880127" lon="-0.3834128"><ele>34.0</ele><time>2026-04-12T19:59:31.388Z</time></trkpt><trkpt lat="51.4880454" lon="-0.3830661"><ele>34.0</ele><time>2026-04-12T19:59:32.388Z</time></trkpt><trkpt lat="51.4880759" lon="-0.382722"><ele>34.0</ele><time>2026-04-12T19:59:33.389Z</time></trkpt><trkpt lat="51.4881161" lon="-0.3823784"><ele>33.333333333333336</ele><time>2026-04-12T19:59:34.389Z</time></trkpt><trkpt lat="51.4881634" lon="-0.3820434"><ele>32.666666666666664</ele><time>2026-04-12T19:59:35.389Z</time></trkpt><trkpt lat="51.4882075" lon="-0.3816967"><ele>32.0</ele><time>2026-04-12T19:59:36.388Z</time></trkpt><trkpt lat="51.488257" lon="-0.3813645"><ele>31.333333333333332</ele><time>2026-04-12T19:59:37.389Z</time></trkpt><trkpt lat="51.4883041" lon="-0.3810245"><ele>30.666666666666664</ele><time>2026-04-12T19:59:38.389Z</time></trkpt><trkpt lat="51.4883489" lon="-0.3806873"><ele>30.0</ele><time>2026-04-12T19:59:39.389Z</time></trkpt><trkpt lat="51.4884076" lon="-0.3803508"><ele>30.0</ele><time>2026-04-12T19:59:40.389Z</time></trkpt><trkpt lat="51.4884577" lon="-0.3800092"><ele>30.0</ele><time>2026-04-12T19:59:41.388Z</time></trkpt><trkpt lat="51.4885104" lon="-0.3796694"><ele>30.0</ele><time>2026-04-12T19:59:42.389Z</time></trkpt><trkpt lat="51.488567" lon="-0.3793376"><ele>30.666666666666664</ele><time>2026-04-12T19:59:43.388Z</time></trkpt><trkpt lat="51.4886304" lon="-0.3790054"><ele>31.333333333333332</ele><time>2026-04-12T19:59:44.388Z</time></trkpt><trkpt lat="51.4886832" lon="-0.3786741"><ele>32.0</ele><time>2026-04-12T19:59:45.388Z</time></trkpt><trkpt lat="51.4887404" lon="-0.3783349"><ele>32.0</ele><time>2026-04-12T19:59:46.388Z</time></trkpt><trkpt lat="51.4887966" lon="-0.3779965"><ele>32.0</ele><time>2026-04-12T19:59:47.389Z</time></trkpt><trkpt lat="51.4888457" lon="-0.3776652"><ele>32.0</ele><time>2026-04-12T19:59:48.388Z</time></trkpt><trkpt lat="51.4888963" lon="-0.3773275"><ele>32.33333333333333</ele><time>2026-04-12T19:59:49.389Z</time></trkpt><trkpt lat="51.488949" lon="-0.3769877"><ele>32.666666666666664</ele><time>2026-04-12T19:59:50.389Z</time></trkpt><trkpt lat="51.4889959" lon="-0.3766477"><ele>33.0</ele><time>2026-04-12T19:59:51.388Z</time></trkpt><trkpt lat="51.4890421" lon="-0.3763134"><ele>33.0</ele><time>2026-04-12T19:59:52.388Z</time></trkpt><trkpt lat="51.489088" lon="-0.3759727"><ele>33.0</ele><time>2026-04-12T19:59:53.389Z</time></trkpt><trkpt lat="51.4891324" lon="-0.3756356"><ele>33.0</ele><time>2026-04-12T19:59:54.389Z</time></trkpt><trkpt lat="51.4891782" lon="-0.3752924"><ele>33.0</ele><time>2026-04-12T19:59:55.389Z</time></trkpt><trkpt lat="51.4892198" lon="-0.3749573"><ele>33.0</ele><time>2026-04-12T19:59:56.389Z</time></trkpt><trkpt lat="51.4892575" lon="-0.3746126"><ele>33.0</ele><time>2026-04-12T19:59:57.39Z</time></trkpt><trkpt lat="51.4892966" lon="-0.3742755"><ele>33.0</ele><time>2026-04-12T19:59:58.39Z</time></trkpt><trkpt lat="51.4893385" lon="-0.3739313"><ele>33.0</ele><time>2026-04-12T19:59:59.39Z</time></trkpt><trkpt lat="51.4893763" lon="-0.3735843"><ele>33.0</ele><time>2026-04-12T20:00:00.389Z</time></trkpt><trkpt lat="51.4894204" lon="-0.3732397"><ele>32.666666666666664</ele><time>2026-04-12T20:00:01.39Z</time></trkpt><trkpt lat="51.4894691" lon="-0.372908"><ele>32.33333333333333</ele><time>2026-04-12T20:00:02.39Z</time></trkpt><trkpt lat="51.4895086" lon="-0.3725612"><ele>32.0</ele><time>2026-04-12T20:00:03.39Z</time></trkpt><trkpt lat="51.4895447" lon="-0.3722189"><ele>31.666666666666664</ele><time>2026-04-12T20:00:04.39Z</time></trkpt><trkpt lat="51.489581" lon="-0.371878"><ele>31.333333333333336</ele><time>2026-04-12T20:00:05.39Z</time></trkpt><trkpt lat="51.48962" lon="-0.3715349"><ele>31.0</ele><time>2026-04-12T20:00:06.389Z</time></trkpt><trkpt lat="51.4896577" lon="-0.3711939"><ele>31.0</ele><time>2026-04-12T20:00:07.39Z</time></trkpt><trkpt lat="51.4897006" lon="-0.3708479"><ele>31.0</ele><time>2026-04-12T20:00:08.39Z</time></trkpt><trkpt lat="51.489743" lon="-0.3705013"><ele>31.0</ele><time>2026-04-12T20:00:09.389Z</time></trkpt><trkpt lat="51.4897855" lon="-0.3701644"><ele>31.0</ele><time>2026-04-12T20:00:10.389Z</time></trkpt><trkpt lat="51.4898349" lon="-0.3698281"><ele>31.0</ele><time>2026-04-12T20:00:11.39Z</time></trkpt><trkpt lat="51.4898795" lon="-0.3694865"><ele>31.0</ele><time>2026-04-12T20:00:12.39Z</time></trkpt><trkpt lat="51.4899234" lon="-0.3691451"><ele>31.333333333333336</ele><time>2026-04-12T20:00:13.39Z</time></trkpt><trkpt lat="51.4899733" lon="-0.3688107"><ele>31.666666666666664</ele><time>2026-04-12T20:00:14.39Z</time></trkpt><trkpt lat="51.4900321" lon="-0.3684751"><ele>32.0</ele><time>2026-04-12T20:00:15.389Z</time></trkpt><trkpt lat="51.4900952" lon="-0.3681399"><ele>31.333333333333332</ele><time>2026-04-12T20:00:16.389Z</time></trkpt><trkpt lat="51.4901533" lon="-0.3678068"><ele>30.666666666666664</ele><time>2026-04-12T20:00:17.39Z</time></trkpt><trkpt lat="51.4902157" lon="-0.3674754"><ele>30.0</ele><time>2026-04-12T20:00:18.389Z</time></trkpt><trkpt lat="51.4902809" lon="-0.3671376"><ele>29.666666666666664</ele><time>2026-04-12T20:00:19.389Z</time></trkpt><trkpt lat="51.4903514" lon="-0.3668119"><ele>29.333333333333332</ele><time>2026-04-12T20:00:20.39Z</time></trkpt><trkpt lat="51.4904319" lon="-0.3664846"><ele>29.0</ele><time>2026-04-12T20:00:21.389Z</time></trkpt><trkpt lat="51.4905117" lon="-0.3661596"><ele>29.666666666666664</ele><time>2026-04-12T20:00:22.39Z</time></trkpt><trkpt lat="51.4905903" lon="-0.3658383"><ele>30.333333333333336</ele><time>2026-04-12T20:00:23.389Z</time></trkpt><trkpt lat="51.4906782" lon="-0.3655154"><ele>31.0</ele><time>2026-04-12T20:00:24.39Z</time></trkpt><trkpt lat="51.4907707" lon="-0.3652"><ele>31.333333333333336</ele><time>2026-04-12T20:00:25.39Z</time></trkpt><trkpt lat="51.49086" lon="-0.364884"><ele>31.666666666666664</ele><time>2026-04-12T20:00:26.39Z</time></trkpt><trkpt lat="51.4909471" lon="-0.3645689"><ele>32.0</ele><time>2026-04-12T20:00:27.389Z</time></trkpt><trkpt lat="51.4910451" lon="-0.3642584"><ele>32.33333333333333</ele><time>2026-04-12T20:00:28.39Z</time></trkpt><trkpt lat="51.4911438" lon="-0.3639511"><ele>32.666666666666664</ele><time>2026-04-12T20:00:29.389Z</time></trkpt><trkpt lat="51.4912495" lon="-0.3636421"><ele>33.0</ele><time>2026-04-12T20:00:30.39Z</time></trkpt><trkpt lat="51.4913543" lon="-0.3633513"><ele>31.666666666666664</ele><time>2026-04-12T20:00:31.39Z</time></trkpt><trkpt lat="51.4914683" lon="-0.3630415"><ele>30.333333333333332</ele><time>2026-04-12T20:00:32.389Z</time></trkpt><trkpt lat="51.4915795" lon="-0.3627423"><ele>29.0</ele><time>2026-04-12T20:00:33.39Z</time></trkpt><trkpt lat="51.4916908" lon="-0.3624498"><ele>29.0</ele><time>2026-04-12T20:00:34.389Z</time></trkpt><trkpt lat="51.4918034" lon="-0.3621599"><ele>29.0</ele><time>2026-04-12T20:00:35.39Z</time></trkpt><trkpt lat="51.4919226" lon="-0.3618629"><ele>29.0</ele><time>2026-04-12T20:00:36.389Z</time></trkpt><trkpt lat="51.4920397" lon="-0.361575"><ele>28.666666666666664</ele><time>2026-04-12T20:00:37.39Z</time></trkpt><trkpt lat="51.4921566" lon="-0.3612818"><ele>28.333333333333336</ele><time>2026-04-12T20:00:38.39Z</time></trkpt><trkpt lat="51.4922768" lon="-0.3610006"><ele>28.0</ele><time>2026-04-12T20:00:39.389Z</time></trkpt><trkpt lat="51.4923962" lon="-0.3607074"><ele>27.666666666666668</ele><time>2026-04-12T20:00:40.389Z</time></trkpt><trkpt lat="51.4925214" lon="-0.3604156"><ele>27.333333333333336</ele><time>2026-04-12T20:00:41.389Z</time></trkpt><trkpt lat="51.4926409" lon="-0.3601298"><ele>27.0</ele><time>2026-04-12T20:00:42.389Z</time></trkpt><trkpt lat="51.4927644" lon="-0.3598387"><ele>27.0</ele><time>2026-04-12T20:00:43.39Z</time></trkpt><trkpt lat="51.4928836" lon="-0.3595455"><ele>27.0</ele><time>2026-04-12T20:00:44.39Z</time></trkpt><trkpt lat="51.4929992" lon="-0.3592531"><ele>27.0</ele><time>2026-04-12T20:00:45.389Z</time></trkpt><trkpt lat="51.4931131" lon="-0.3589463"><ele>27.0</ele><time>2026-04-12T20:00:46.39Z</time></trkpt><trkpt lat="51.4932254" lon="-0.3586512"><ele>27.0</ele><time>2026-04-12T20:00:47.39Z</time></trkpt><trkpt lat="51.4933399" lon="-0.3583401"><ele>27.0</ele><time>2026-04-12T20:00:48.39Z</time></trkpt><trkpt lat="51.4934494" lon="-0.3580293"><ele>27.0</ele><time>2026-04-12T20:00:49.39Z</time></trkpt><trkpt lat="51.4935605" lon="-0.3577103"><ele>27.0</ele><time>2026-04-12T20:00:50.389Z</time></trkpt><trkpt lat="51.4936599" lon="-0.3573976"><ele>27.0</ele><time>2026-04-12T20:00:51.39Z</time></trkpt><trkpt lat="51.4937538" lon="-0.3570811"><ele>27.0</ele><time>2026-04-12T20:00:52.389Z</time></trkpt><trkpt lat="51.4938558" lon="-0.3567653"><ele>27.0</ele><time>2026-04-12T20:00:53.39Z</time></trkpt><trkpt lat="51.4939451" lon="-0.3564388"><ele>27.0</ele><time>2026-04-12T20:00:54.389Z</time></trkpt><trkpt lat="51.4940392" lon="-0.3561119"><ele>27.0</ele><time>2026-04-12T20:00:55.39Z</time></trkpt><trkpt lat="51.4941245" lon="-0.3557839"><ele>27.0</ele><time>2026-04-12T20:00:56.389Z</time></trkpt><trkpt lat="51.4942107" lon="-0.3554537"><ele>27.0</ele><time>2026-04-12T20:00:57.39Z</time></trkpt><trkpt lat="51.4942877" lon="-0.355124"><ele>27.0</ele><time>2026-04-12T20:00:58.389Z</time></trkpt><trkpt lat="51.4943704" lon="-0.3547904"><ele>27.0</ele><time>2026-04-12T20:00:59.39Z</time></trkpt><trkpt lat="51.4944459" lon="-0.3544638"><ele>27.0</ele><time>2026-04-12T20:01:00.39Z</time></trkpt><trkpt lat="51.4945206" lon="-0.3541219"><ele>26.666666666666664</ele><time>2026-04-12T20:01:01.39Z</time></trkpt><trkpt lat="51.4945892" lon="-0.3537892"><ele>26.333333333333332</ele><time>2026-04-12T20:01:02.39Z</time></trkpt><trkpt lat="51.4946551" lon="-0.3534464"><ele>26.0</ele><time>2026-04-12T20:01:03.39Z</time></trkpt><trkpt lat="51.4947181" lon="-0.3531053"><ele>26.333333333333332</ele><time>2026-04-12T20:01:04.39Z</time></trkpt><trkpt lat="51.4947809" lon="-0.3527655"><ele>26.666666666666664</ele><time>2026-04-12T20:01:05.39Z</time></trkpt><trkpt lat="51.4948353" lon="-0.3524268"><ele>27.0</ele><time>2026-04-12T20:01:06.389Z</time></trkpt><trkpt lat="51.4948821" lon="-0.3520775"><ele>26.333333333333336</ele><time>2026-04-12T20:01:07.39Z</time></trkpt><trkpt lat="51.494934" lon="-0.3517274"><ele>25.666666666666668</ele><time>2026-04-12T20:01:08.389Z</time></trkpt><trkpt lat="51.4949805" lon="-0.351384"><ele>25.0</ele><time>2026-04-12T20:01:09.39Z</time></trkpt><trkpt lat="51.4950245" lon="-0.3510383"><ele>24.666666666666668</ele><time>2026-04-12T20:01:10.39Z</time></trkpt><trkpt lat="51.495061" lon="-0.3506823"><ele>24.333333333333336</ele><time>2026-04-12T20:01:11.39Z</time></trkpt><trkpt lat="51.4951014" lon="-0.3503288"><ele>24.0</ele><time>2026-04-12T20:01:12.39Z</time></trkpt><trkpt lat="51.4951374" lon="-0.3499761"><ele>24.0</ele><time>2026-04-12T20:01:13.39Z</time></trkpt><trkpt lat="51.4951722" lon="-0.3496299"><ele>24.0</ele><time>2026-04-12T20:01:14.391Z</time></trkpt><trkpt lat="51.4952045" lon="-0.3492768"><ele>24.0</ele><time>2026-04-12T20:01:15.39Z</time></trkpt><trkpt lat="51.495229" lon="-0.3489203"><ele>24.0</ele><time>2026-04-12T20:01:16.39Z</time></trkpt><trkpt lat="51.4952546" lon="-0.3485699"><ele>24.0</ele><time>2026-04-12T20:01:17.39Z</time></trkpt><trkpt lat="51.4952807" lon="-0.348218"><ele>24.0</ele><time>2026-04-12T20:01:18.39Z</time></trkpt><trkpt lat="51.4953003" lon="-0.3478627"><ele>24.333333333333336</ele><time>2026-04-12T20:01:19.39Z</time></trkpt><trkpt lat="51.4953223" lon="-0.3475111"><ele>24.666666666666668</ele><time>2026-04-12T20:01:20.391Z</time></trkpt><trkpt lat="51.4953447" lon="-0.3471553"><ele>25.0</ele><time>2026-04-12T20:01:21.391Z</time></trkpt><trkpt lat="51.4953674" lon="-0.3467989"><ele>25.0</ele><time>2026-04-12T20:01:22.39Z</time></trkpt><trkpt lat="51.4953921" lon="-0.3464504"><ele>25.0</ele><time>2026-04-12T20:01:23.39Z</time></trkpt><trkpt lat="51.4954166" lon="-0.3461041"><ele>25.0</ele><time>2026-04-12T20:01:24.39Z</time></trkpt><trkpt lat="51.4954404" lon="-0.3457429"><ele>25.333333333333336</ele><time>2026-04-12T20:01:25.391Z</time></trkpt><trkpt lat="51.4954632" lon="-0.3453928"><ele>25.666666666666664</ele><time>2026-04-12T20:01:26.39Z</time></trkpt><trkpt lat="51.4954854" lon="-0.3450379"><ele>26.0</ele><time>2026-04-12T20:01:27.39Z</time></trkpt><trkpt lat="51.495502" lon="-0.3446826"><ele>26.0</ele><time>2026-04-12T20:01:28.391Z</time></trkpt><trkpt lat="51.4955239" lon="-0.3443311"><ele>26.0</ele><time>2026-04-12T20:01:29.391Z</time></trkpt><trkpt lat="51.4955512" lon="-0.3439717"><ele>26.0</ele><time>2026-04-12T20:01:30.391Z</time></trkpt><trkpt lat="51.4955676" lon="-0.343633"><ele>25.666666666666664</ele><time>2026-04-12T20:01:31.39Z</time></trkpt><trkpt lat="51.4955825" lon="-0.3432727"><ele>25.333333333333336</ele><time>2026-04-12T20:01:32.391Z</time></trkpt><trkpt lat="51.4956033" lon="-0.3429208"><ele>25.0</ele><time>2026-04-12T20:01:33.39Z</time></trkpt><trkpt lat="51.4956296" lon="-0.3425633"><ele>24.333333333333336</ele><time>2026-04-12T20:01:34.39Z</time></trkpt><trkpt lat="51.4956544" lon="-0.3422094"><ele>23.666666666666668</ele><time>2026-04-12T20:01:35.391Z</time></trkpt><trkpt lat="51.4956773" lon="-0.3418515"><ele>23.0</ele><time>2026-04-12T20:01:36.391Z</time></trkpt><trkpt lat="51.4957032" lon="-0.341502"><ele>23.0</ele><time>2026-04-12T20:01:37.391Z</time></trkpt><trkpt lat="51.4957284" lon="-0.3411712"><ele>23.0</ele><time>2026-04-12T20:01:38.39Z</time></trkpt><trkpt lat="51.4957487" lon="-0.3408541"><ele>23.0</ele><time>2026-04-12T20:01:39.39Z</time></trkpt><trkpt lat="51.4957667" lon="-0.3405423"><ele>23.0</ele><time>2026-04-12T20:01:40.391Z</time></trkpt><trkpt lat="51.4957878" lon="-0.3402429"><ele>23.0</ele><time>2026-04-12T20:01:41.391Z</time></trkpt><trkpt lat="51.4958067" lon="-0.3399431"><ele>23.0</ele><time>2026-04-12T20:01:42.391Z</time></trkpt><trkpt lat="51.4958241" lon="-0.3396646"><ele>23.0</ele><time>2026-04-12T20:01:43.391Z</time></trkpt><trkpt lat="51.4958453" lon="-0.3393952"><ele>23.0</ele><time>2026-04-12T20:01:44.39Z</time></trkpt><trkpt lat="51.4958614" lon="-0.339136"><ele>23.0</ele><time>2026-04-12T20:01:45.39Z</time></trkpt><trkpt lat="51.4958701" lon="-0.3388824"><ele>23.0</ele><time>2026-04-12T20:01:46.39Z</time></trkpt><trkpt lat="51.4958837" lon="-0.3386331"><ele>23.0</ele><time>2026-04-12T20:01:47.39Z</time></trkpt><trkpt lat="51.4958966" lon="-0.3383847"><ele>23.0</ele><time>2026-04-12T20:01:48.39Z</time></trkpt><trkpt lat="51.4959157" lon="-0.338136"><ele>23.0</ele><time>2026-04-12T20:01:49.391Z</time></trkpt><trkpt lat="51.49593" lon="-0.337882"><ele>23.0</ele><time>2026-04-12T20:01:50.391Z</time></trkpt><trkpt lat="51.4959421" lon="-0.3376249"><ele>23.0</ele><time>2026-04-12T20:01:51.391Z</time></trkpt><trkpt lat="51.4959523" lon="-0.3373673"><ele>22.333333333333336</ele><time>2026-04-12T20:01:52.39Z</time></trkpt><trkpt lat="51.4959602" lon="-0.3370961"><ele>21.666666666666668</ele><time>2026-04-12T20:01:53.39Z</time></trkpt><trkpt lat="51.4959599" lon="-0.336834"><ele>21.0</ele><time>2026-04-12T20:01:54.391Z</time></trkpt><trkpt lat="51.4959617" lon="-0.3365726"><ele>21.333333333333332</ele><time>2026-04-12T20:01:55.391Z</time></trkpt><trkpt lat="51.495958" lon="-0.336319"><ele>21.666666666666664</ele><time>2026-04-12T20:01:56.39Z</time></trkpt><trkpt lat="51.4959486" lon="-0.336058"><ele>22.0</ele><time>2026-04-12T20:01:57.391Z</time></trkpt><trkpt lat="51.4959418" lon="-0.3358032"><ele>21.666666666666664</ele><time>2026-04-12T20:01:58.39Z</time></trkpt><trkpt lat="51.4959297" lon="-0.3355502"><ele>21.333333333333332</ele><time>2026-04-12T20:01:59.391Z</time></trkpt><trkpt lat="51.4959155" lon="-0.3352911"><ele>21.0</ele><time>2026-04-12T20:02:00.391Z</time></trkpt><trkpt lat="51.4958994" lon="-0.3350381"><ele>21.0</ele><time>2026-04-12T20:02:01.391Z</time></trkpt><trkpt lat="51.495872" lon="-0.3347906"><ele>21.0</ele><time>2026-04-12T20:02:02.391Z</time></trkpt><trkpt lat="51.495849" lon="-0.3345397"><ele>21.0</ele><time>2026-04-12T20:02:03.39Z</time></trkpt><trkpt lat="51.4958189" lon="-0.3342878"><ele>20.333333333333332</ele><time>2026-04-12T20:02:04.391Z</time></trkpt><trkpt lat="51.4957868" lon="-0.3340161"><ele>19.666666666666664</ele><time>2026-04-12T20:02:05.391Z</time></trkpt><trkpt lat="51.4957516" lon="-0.3337472"><ele>19.0</ele><time>2026-04-12T20:02:06.391Z</time></trkpt><trkpt lat="51.4957063" lon="-0.3334811"><ele>18.333333333333332</ele><time>2026-04-12T20:02:07.39Z</time></trkpt><trkpt lat="51.4956631" lon="-0.3332258"><ele>17.666666666666668</ele><time>2026-04-12T20:02:08.391Z</time></trkpt><trkpt lat="51.4956189" lon="-0.3329738"><ele>17.0</ele><time>2026-04-12T20:02:09.391Z</time></trkpt><trkpt lat="51.4955756" lon="-0.3327393"><ele>16.666666666666668</ele><time>2026-04-12T20:02:10.391Z</time></trkpt><trkpt lat="51.4955243" lon="-0.3325017"><ele>16.333333333333332</ele><time>2026-04-12T20:02:11.391Z</time></trkpt><trkpt lat="51.4954712" lon="-0.3322819"><ele>16.0</ele><time>2026-04-12T20:02:12.39Z</time></trkpt><trkpt lat="51.4954203" lon="-0.3320507"><ele>15.0</ele><time>2026-04-12T20:02:13.391Z</time></trkpt><trkpt lat="51.4953655" lon="-0.3318205"><ele>14.0</ele><time>2026-04-12T20:02:14.391Z</time></trkpt><trkpt lat="51.495302" lon="-0.3316029"><ele>13.0</ele><time>2026-04-12T20:02:15.391Z</time></trkpt><trkpt lat="51.4952361" lon="-0.3313825"><ele>12.5</ele><time>2026-04-12T20:02:16.391Z</time></trkpt><trkpt lat="51.4951749" lon="-0.3311746"><ele>12.0</ele><time>2026-04-12T20:02:17.39Z</time></trkpt><trkpt lat="51.4951125" lon="-0.3309663"><ele>11.5</ele><time>2026-04-12T20:02:18.391Z</time></trkpt><trkpt lat="51.4950409" lon="-0.3307677"><ele>11.0</ele><time>2026-04-12T20:02:19.391Z</time></trkpt><trkpt lat="51.4949739" lon="-0.3305752"><ele>11.5</ele><time>2026-04-12T20:02:20.391Z</time></trkpt><trkpt lat="51.4949034" lon="-0.3303773"><ele>12.0</ele><time>2026-04-12T20:02:21.391Z</time></trkpt><trkpt lat="51.4948342" lon="-0.3301735"><ele>12.5</ele><time>2026-04-12T20:02:22.39Z</time></trkpt><trkpt lat="51.4947585" lon="-0.3299804"><ele>13.0</ele><time>2026-04-12T20:02:23.39Z</time></trkpt><trkpt lat="51.4946795" lon="-0.3297697"><ele>13.333333333333332</ele><time>2026-04-12T20:02:24.39Z</time></trkpt><trkpt lat="51.4945953" lon="-0.3295578"><ele>13.666666666666668</ele><time>2026-04-12T20:02:25.391Z</time></trkpt><trkpt lat="51.4945123" lon="-0.3293416"><ele>14.0</ele><time>2026-04-12T20:02:26.39Z</time></trkpt><trkpt lat="51.4944289" lon="-0.3291346"><ele>14.0</ele><time>2026-04-12T20:02:27.391Z</time></trkpt><trkpt lat="51.4943474" lon="-0.3289316"><ele>14.0</ele><time>2026-04-12T20:02:28.392Z</time></trkpt><trkpt lat="51.4942635" lon="-0.3287356"><ele>14.0</ele><time>2026-04-12T20:02:29.391Z</time></trkpt><trkpt lat="51.4941917" lon="-0.3285408"><ele>14.0</ele><time>2026-04-12T20:02:30.391Z</time></trkpt><trkpt lat="51.4941238" lon="-0.3283411"><ele>14.333333333333334</ele><time>2026-04-12T20:02:31.392Z</time></trkpt><trkpt lat="51.4940448" lon="-0.3281441"><ele>14.666666666666668</ele><time>2026-04-12T20:02:32.392Z</time></trkpt><trkpt lat="51.4939662" lon="-0.3279356"><ele>15.0</ele><time>2026-04-12T20:02:33.392Z</time></trkpt><trkpt lat="51.4938858" lon="-0.3277215"><ele>15.0</ele><time>2026-04-12T20:02:34.392Z</time></trkpt><trkpt lat="51.4937922" lon="-0.3274985"><ele>15.0</ele><time>2026-04-12T20:02:35.392Z</time></trkpt><trkpt lat="51.4937018" lon="-0.3272809"><ele>15.0</ele><time>2026-04-12T20:02:36.391Z</time></trkpt><trkpt lat="51.4936145" lon="-0.3270689"><ele>15.0</ele><time>2026-04-12T20:02:37.391Z</time></trkpt><trkpt lat="51.493532" lon="-0.326842"><ele>15.0</ele><time>2026-04-12T20:02:38.391Z</time></trkpt><trkpt lat="51.4934426" lon="-0.3266345"><ele>15.0</ele><time>2026-04-12T20:02:39.392Z</time></trkpt><trkpt lat="51.4933619" lon="-0.3264269"><ele>14.333333333333332</ele><time>2026-04-12T20:02:40.391Z</time></trkpt><trkpt lat="51.4932704" lon="-0.326216"><ele>13.666666666666666</ele><time>2026-04-12T20:02:41.392Z</time></trkpt><trkpt lat="51.493176" lon="-0.3260156"><ele>13.0</ele><time>2026-04-12T20:02:42.391Z</time></trkpt><trkpt lat="51.4930819" lon="-0.325809"><ele>13.0</ele><time>2026-04-12T20:02:43.392Z</time></trkpt><trkpt lat="51.4929911" lon="-0.3256005"><ele>13.0</ele><time>2026-04-12T20:02:44.392Z</time></trkpt><trkpt lat="51.4928988" lon="-0.3253881"><ele>13.0</ele><time>2026-04-12T20:02:45.391Z</time></trkpt><trkpt lat="51.4928027" lon="-0.3251891"><ele>12.5</ele><time>2026-04-12T20:02:46.392Z</time></trkpt><trkpt lat="51.4927313" lon="-0.3249931"><ele>12.0</ele><time>2026-04-12T20:02:47.392Z</time></trkpt><trkpt lat="51.4926421" lon="-0.3248132"><ele>11.5</ele><time>2026-04-12T20:02:48.392Z</time></trkpt><trkpt lat="51.4925649" lon="-0.3246371"><ele>11.0</ele><time>2026-04-12T20:02:49.391Z</time></trkpt><trkpt lat="51.4924959" lon="-0.3244651"><ele>11.0</ele><time>2026-04-12T20:02:50.391Z</time></trkpt><trkpt lat="51.4924288" lon="-0.3242954"><ele>11.0</ele><time>2026-04-12T20:02:51.392Z</time></trkpt><trkpt lat="51.4923527" lon="-0.3241165"><ele>11.0</ele><time>2026-04-12T20:02:52.392Z</time></trkpt><trkpt lat="51.4922818" lon="-0.3239245"><ele>11.0</ele><time>2026-04-12T20:02:53.391Z</time></trkpt><trkpt lat="51.4922053" lon="-0.3237388"><ele>11.0</ele><time>2026-04-12T20:02:54.392Z</time></trkpt><trkpt lat="51.4921322" lon="-0.3235446"><ele>11.0</ele><time>2026-04-12T20:02:55.392Z</time></trkpt><trkpt lat="51.4920577" lon="-0.3233598"><ele>11.0</ele><time>2026-04-12T20:02:56.392Z</time></trkpt><trkpt lat="51.4919802" lon="-0.3231796"><ele>11.0</ele><time>2026-04-12T20:02:57.392Z</time></trkpt><trkpt lat="51.4919081" lon="-0.3230086"><ele>11.25</ele><time>2026-04-12T20:02:58.391Z</time></trkpt><trkpt lat="51.4918221" lon="-0.3228227"><ele>11.5</ele><time>2026-04-12T20:02:59.392Z</time></trkpt><trkpt lat="51.4917516" lon="-0.3226296"><ele>11.75</ele><time>2026-04-12T20:03:00.391Z</time></trkpt><trkpt lat="51.4916801" lon="-0.3224313"><ele>12.0</ele><time>2026-04-12T20:03:01.391Z</time></trkpt><trkpt lat="51.4916058" lon="-0.3222463"><ele>12.5</ele><time>2026-04-12T20:03:02.392Z</time></trkpt><trkpt lat="51.491533" lon="-0.3220687"><ele>13.0</ele><time>2026-04-12T20:03:03.392Z</time></trkpt><trkpt lat="51.4914659" lon="-0.3218895"><ele>13.5</ele><time>2026-04-12T20:03:04.392Z</time></trkpt><trkpt lat="51.4913873" lon="-0.3217204"><ele>14.0</ele><time>2026-04-12T20:03:05.391Z</time></trkpt><trkpt lat="51.4913125" lon="-0.321557"><ele>14.0</ele><time>2026-04-12T20:03:06.391Z</time></trkpt><trkpt lat="51.4912441" lon="-0.3213848"><ele>14.0</ele><time>2026-04-12T20:03:07.392Z</time></trkpt><trkpt lat="51.491175" lon="-0.3212102"><ele>14.0</ele><time>2026-04-12T20:03:08.392Z</time></trkpt><trkpt lat="51.4911053" lon="-0.3210241"><ele>14.0</ele><time>2026-04-12T20:03:09.392Z</time></trkpt><trkpt lat="51.4910277" lon="-0.3208407"><ele>14.0</ele><time>2026-04-12T20:03:10.392Z</time></trkpt><trkpt lat="51.4909535" lon="-0.3206589"><ele>14.0</ele><time>2026-04-12T20:03:11.391Z</time></trkpt><trkpt lat="51.4908859" lon="-0.3204889"><ele>14.0</ele><time>2026-04-12T20:03:12.392Z</time></trkpt><trkpt lat="51.4908199" lon="-0.3203282"><ele>14.0</ele><time>2026-04-12T20:03:13.392Z</time></trkpt><trkpt lat="51.4907558" lon="-0.3201752"><ele>14.0</ele><time>2026-04-12T20:03:14.391Z</time></trkpt><trkpt lat="51.4906934" lon="-0.3200137"><ele>14.0</ele><time>2026-04-12T20:03:15.392Z</time></trkpt><trkpt lat="51.4906243" lon="-0.3198408"><ele>14.0</ele><time>2026-04-12T20:03:16.392Z</time></trkpt><trkpt lat="51.4905503" lon="-0.3196562"><ele>14.0</ele><time>2026-04-12T20:03:17.391Z</time></trkpt><trkpt lat="51.4904753" lon="-0.3194701"><ele>15.0</ele><time>2026-04-12T20:03:18.392Z</time></trkpt><trkpt lat="51.4904007" lon="-0.3192842"><ele>16.0</ele><time>2026-04-12T20:03:19.391Z</time></trkpt><trkpt lat="51.4903242" lon="-0.3190941"><ele>17.0</ele><time>2026-04-12T20:03:20.392Z</time></trkpt><trkpt lat="51.4902443" lon="-0.3188909"><ele>18.0</ele><time>2026-04-12T20:03:21.392Z</time></trkpt><trkpt lat="51.4901622" lon="-0.3186811"><ele>18.333333333333332</ele><time>2026-04-12T20:03:22.392Z</time></trkpt><trkpt lat="51.4900808" lon="-0.3184687"><ele>18.666666666666664</ele><time>2026-04-12T20:03:23.392Z</time></trkpt><trkpt lat="51.4900036" lon="-0.3182586"><ele>19.0</ele><time>2026-04-12T20:03:24.392Z</time></trkpt><trkpt lat="51.4899299" lon="-0.3180496"><ele>18.25</ele><time>2026-04-12T20:03:25.391Z</time></trkpt><trkpt lat="51.48986" lon="-0.3178376"><ele>17.5</ele><time>2026-04-12T20:03:26.391Z</time></trkpt><trkpt lat="51.4897942" lon="-0.3176237"><ele>16.75</ele><time>2026-04-12T20:03:27.391Z</time></trkpt><trkpt lat="51.4897317" lon="-0.3174087"><ele>16.0</ele><time>2026-04-12T20:03:28.391Z</time></trkpt><trkpt lat="51.4896736" lon="-0.3171927"><ele>15.25</ele><time>2026-04-12T20:03:29.391Z</time></trkpt><trkpt lat="51.4896201" lon="-0.3169732"><ele>14.5</ele><time>2026-04-12T20:03:30.391Z</time></trkpt><trkpt lat="51.4895691" lon="-0.316747"><ele>13.75</ele><time>2026-04-12T20:03:31.391Z</time></trkpt><trkpt lat="51.4895207" lon="-0.3165159"><ele>13.0</ele><time>2026-04-12T20:03:32.391Z</time></trkpt><trkpt lat="51.4894741" lon="-0.3162845"><ele>13.25</ele><time>2026-04-12T20:03:33.392Z</time></trkpt><trkpt lat="51.4894307" lon="-0.3160554"><ele>13.5</ele><time>2026-04-12T20:03:34.391Z</time></trkpt><trkpt lat="51.4893915" lon="-0.3158269"><ele>13.75</ele><time>2026-04-12T20:03:35.392Z</time></trkpt><trkpt lat="51.4893576" lon="-0.3155904"><ele>14.0</ele><time>2026-04-12T20:03:36.392Z</time></trkpt><trkpt lat="51.4893277" lon="-0.3153458"><ele>14.0</ele><time>2026-04-12T20:03:37.391Z</time></trkpt><trkpt lat="51.4893004" lon="-0.3150931"><ele>14.0</ele><time>2026-04-12T20:03:38.391Z</time></trkpt><trkpt lat="51.4892768" lon="-0.314834"><ele>14.0</ele><time>2026-04-12T20:03:39.393Z</time></trkpt><trkpt lat="51.4892587" lon="-0.3145725"><ele>14.333333333333334</ele><time>2026-04-12T20:03:40.392Z</time></trkpt><trkpt lat="51.4892453" lon="-0.314319"><ele>14.666666666666668</ele><time>2026-04-12T20:03:41.393Z</time></trkpt><trkpt lat="51.4892338" lon="-0.314071"><ele>15.0</ele><time>2026-04-12T20:03:42.393Z</time></trkpt><trkpt lat="51.4892259" lon="-0.3138251"><ele>15.333333333333332</ele><time>2026-04-12T20:03:43.393Z</time></trkpt><trkpt lat="51.4892246" lon="-0.3135629"><ele>15.666666666666666</ele><time>2026-04-12T20:03:44.392Z</time></trkpt><trkpt lat="51.4892251" lon="-0.3132978"><ele>16.0</ele><time>2026-04-12T20:03:45.393Z</time></trkpt><trkpt lat="51.4892338" lon="-0.3130344"><ele>16.0</ele><time>2026-04-12T20:03:46.393Z</time></trkpt><trkpt lat="51.4892482" lon="-0.3127702"><ele>16.0</ele><time>2026-04-12T20:03:47.392Z</time></trkpt><trkpt lat="51.4892669" lon="-0.3125015"><ele>16.0</ele><time>2026-04-12T20:03:48.392Z</time></trkpt><trkpt lat="51.4892886" lon="-0.312242"><ele>16.0</ele><time>2026-04-12T20:03:49.392Z</time></trkpt><trkpt lat="51.4893135" lon="-0.3119914"><ele>16.0</ele><time>2026-04-12T20:03:50.393Z</time></trkpt><trkpt lat="51.4893395" lon="-0.3117436"><ele>16.0</ele><time>2026-04-12T20:03:51.392Z</time></trkpt><trkpt lat="51.4893702" lon="-0.3114946"><ele>15.666666666666666</ele><time>2026-04-12T20:03:52.393Z</time></trkpt><trkpt lat="51.4894067" lon="-0.3112455"><ele>15.333333333333332</ele><time>2026-04-12T20:03:53.392Z</time></trkpt><trkpt lat="51.4894485" lon="-0.3109998"><ele>15.0</ele><time>2026-04-12T20:03:54.392Z</time></trkpt><trkpt lat="51.4894952" lon="-0.3107564"><ele>14.666666666666668</ele><time>2026-04-12T20:03:55.392Z</time></trkpt><trkpt lat="51.4895447" lon="-0.3105138"><ele>14.333333333333334</ele><time>2026-04-12T20:03:56.393Z</time></trkpt><trkpt lat="51.4895988" lon="-0.3102725"><ele>14.0</ele><time>2026-04-12T20:03:57.392Z</time></trkpt><trkpt lat="51.489657" lon="-0.3100329"><ele>14.0</ele><time>2026-04-12T20:03:58.392Z</time></trkpt><trkpt lat="51.4897199" lon="-0.3097938"><ele>14.0</ele><time>2026-04-12T20:03:59.393Z</time></trkpt><trkpt lat="51.4897879" lon="-0.3095564"><ele>14.0</ele><time>2026-04-12T20:04:00.393Z</time></trkpt><trkpt lat="51.4898606" lon="-0.3093228"><ele>14.0</ele><time>2026-04-12T20:04:01.392Z</time></trkpt><trkpt lat="51.4899368" lon="-0.3090932"><ele>14.0</ele><time>2026-04-12T20:04:02.393Z</time></trkpt><trkpt lat="51.4900109" lon="-0.3088707"><ele>14.0</ele><time>2026-04-12T20:04:03.393Z</time></trkpt><trkpt lat="51.4900885" lon="-0.3086493"><ele>14.333333333333334</ele><time>2026-04-12T20:04:04.393Z</time></trkpt><trkpt lat="51.490167" lon="-0.3084256"><ele>14.666666666666668</ele><time>2026-04-12T20:04:05.393Z</time></trkpt><trkpt lat="51.4902458" lon="-0.3082022"><ele>15.0</ele><time>2026-04-12T20:04:06.392Z</time></trkpt><trkpt lat="51.4903269" lon="-0.307977"><ele>15.333333333333332</ele><time>2026-04-12T20:04:07.393Z</time></trkpt><trkpt lat="51.4904054" lon="-0.3077509"><ele>15.666666666666666</ele><time>2026-04-12T20:04:08.393Z</time></trkpt><trkpt lat="51.4904851" lon="-0.3075266"><ele>16.0</ele><time>2026-04-12T20:04:09.393Z</time></trkpt><trkpt lat="51.4905655" lon="-0.3073002"><ele>16.0</ele><time>2026-04-12T20:04:10.393Z</time></trkpt><trkpt lat="51.4906445" lon="-0.3070764"><ele>16.0</ele><time>2026-04-12T20:04:11.393Z</time></trkpt><trkpt lat="51.4907218" lon="-0.3068537"><ele>16.0</ele><time>2026-04-12T20:04:12.392Z</time></trkpt><trkpt lat="51.4907978" lon="-0.3066288"><ele>16.333333333333332</ele><time>2026-04-12T20:04:13.393Z</time></trkpt><trkpt lat="51.4908721" lon="-0.3064001"><ele>16.666666666666668</ele><time>2026-04-12T20:04:14.393Z</time></trkpt><trkpt lat="51.4909423" lon="-0.3061665"><ele>17.0</ele><time>2026-04-12T20:04:15.392Z</time></trkpt><trkpt lat="51.4910089" lon="-0.3059316"><ele>17.0</ele><time>2026-04-12T20:04:16.393Z</time></trkpt><trkpt lat="51.4910665" lon="-0.3056905"><ele>17.0</ele><time>2026-04-12T20:04:17.393Z</time></trkpt><trkpt lat="51.4911196" lon="-0.305451"><ele>17.0</ele><time>2026-04-12T20:04:18.393Z</time></trkpt><trkpt lat="51.4911671" lon="-0.3052213"><ele>16.666666666666668</ele><time>2026-04-12T20:04:19.393Z</time></trkpt><trkpt lat="51.4912115" lon="-0.3049886"><ele>16.333333333333332</ele><time>2026-04-12T20:04:20.393Z</time></trkpt><trkpt lat="51.4912524" lon="-0.3047544"><ele>16.0</ele><time>2026-04-12T20:04:21.393Z</time></trkpt><trkpt lat="51.4912857" lon="-0.3045128"><ele>15.333333333333332</ele><time>2026-04-12T20:04:22.393Z</time></trkpt><trkpt lat="51.4913143" lon="-0.3042737"><ele>14.666666666666668</ele><time>2026-04-12T20:04:23.392Z</time></trkpt><trkpt lat="51.4913393" lon="-0.3040343"><ele>14.0</ele><time>2026-04-12T20:04:24.393Z</time></trkpt><trkpt lat="51.4913605" lon="-0.3037931"><ele>14.0</ele><time>2026-04-12T20:04:25.393Z</time></trkpt><trkpt lat="51.4913723" lon="-0.3035545"><ele>14.0</ele><time>2026-04-12T20:04:26.393Z</time></trkpt><trkpt lat="51.4913858" lon="-0.3033139"><ele>14.0</ele><time>2026-04-12T20:04:27.393Z</time></trkpt><trkpt lat="51.4913958" lon="-0.3030719"><ele>14.666666666666668</ele><time>2026-04-12T20:04:28.393Z</time></trkpt><trkpt lat="51.491402" lon="-0.3028283"><ele>15.333333333333332</ele><time>2026-04-12T20:04:29.392Z</time></trkpt><trkpt lat="51.4914081" lon="-0.3025868"><ele>16.0</ele><time>2026-04-12T20:04:30.392Z</time></trkpt><trkpt lat="51.4914206" lon="-0.3023385"><ele>16.333333333333332</ele><time>2026-04-12T20:04:31.393Z</time></trkpt><trkpt lat="51.4914273" lon="-0.3020914"><ele>16.666666666666668</ele><time>2026-04-12T20:04:32.393Z</time></trkpt><trkpt lat="51.4914335" lon="-0.3018451"><ele>17.0</ele><time>2026-04-12T20:04:33.392Z</time></trkpt><trkpt lat="51.4914374" lon="-0.3016089"><ele>16.5</ele><time>2026-04-12T20:04:34.392Z</time></trkpt><trkpt lat="51.4914402" lon="-0.3013822"><ele>16.0</ele><time>2026-04-12T20:04:35.392Z</time></trkpt><trkpt lat="51.4914419" lon="-0.3011654"><ele>15.5</ele><time>2026-04-12T20:04:36.393Z</time></trkpt><trkpt lat="51.4914447" lon="-0.3009587"><ele>15.0</ele><time>2026-04-12T20:04:37.393Z</time></trkpt><trkpt lat="51.4914473" lon="-0.3007604"><ele>15.0</ele><time>2026-04-12T20:04:38.393Z</time></trkpt><trkpt lat="51.4914493" lon="-0.3005691"><ele>15.0</ele><time>2026-04-12T20:04:39.393Z</time></trkpt><trkpt lat="51.4914492" lon="-0.3003767"><ele>15.0</ele><time>2026-04-12T20:04:40.393Z</time></trkpt><trkpt lat="51.4914494" lon="-0.3001671"><ele>15.0</ele><time>2026-04-12T20:04:41.392Z</time></trkpt><trkpt lat="51.4914491" lon="-0.2999412"><ele>15.0</ele><time>2026-04-12T20:04:42.393Z</time></trkpt><trkpt lat="51.4914497" lon="-0.2997095"><ele>15.0</ele><time>2026-04-12T20:04:43.394Z</time></trkpt><trkpt lat="51.4914487" lon="-0.2994748"><ele>15.0</ele><time>2026-04-12T20:04:44.393Z</time></trkpt><trkpt lat="51.4914464" lon="-0.2992375"><ele>15.0</ele><time>2026-04-12T20:04:45.394Z</time></trkpt><trkpt lat="51.4914442" lon="-0.2989976"><ele>14.666666666666668</ele><time>2026-04-12T20:04:46.394Z</time></trkpt><trkpt lat="51.4914413" lon="-0.2987561"><ele>14.333333333333334</ele><time>2026-04-12T20:04:47.394Z</time></trkpt><trkpt lat="51.4914375" lon="-0.2985114"><ele>14.0</ele><time>2026-04-12T20:04:48.393Z</time></trkpt><trkpt lat="51.4914338" lon="-0.2982649"><ele>14.333333333333334</ele><time>2026-04-12T20:04:49.394Z</time></trkpt><trkpt lat="51.4914299" lon="-0.2980175"><ele>14.666666666666668</ele><time>2026-04-12T20:04:50.393Z</time></trkpt><trkpt lat="51.4914272" lon="-0.2977699"><ele>15.0</ele><time>2026-04-12T20:04:51.393Z</time></trkpt><trkpt lat="51.4914262" lon="-0.2975227"><ele>15.0</ele><time>2026-04-12T20:04:52.394Z</time></trkpt><trkpt lat="51.4914247" lon="-0.2972774"><ele>15.0</ele><time>2026-04-12T20:04:53.394Z</time></trkpt><trkpt lat="51.4914228" lon="-0.2970315"><ele>15.0</ele><time>2026-04-12T20:04:54.394Z</time></trkpt><trkpt lat="51.4914195" lon="-0.2967837"><ele>14.666666666666668</ele><time>2026-04-12T20:04:55.394Z</time></trkpt><trkpt lat="51.4914155" lon="-0.2965353"><ele>14.333333333333334</ele><time>2026-04-12T20:04:56.394Z</time></trkpt><trkpt lat="51.4914139" lon="-0.2962878"><ele>14.0</ele><time>2026-04-12T20:04:57.394Z</time></trkpt><trkpt lat="51.4914121" lon="-0.2960394"><ele>14.0</ele><time>2026-04-12T20:04:58.394Z</time></trkpt><trkpt lat="51.4914088" lon="-0.2957893"><ele>14.0</ele><time>2026-04-12T20:04:59.394Z</time></trkpt><trkpt lat="51.491403" lon="-0.2955379"><ele>14.0</ele><time>2026-04-12T20:05:00.393Z</time></trkpt><trkpt lat="51.4913965" lon="-0.2952843"><ele>14.333333333333334</ele><time>2026-04-12T20:05:01.394Z</time></trkpt><trkpt lat="51.4913922" lon="-0.2950308"><ele>14.666666666666668</ele><time>2026-04-12T20:05:02.394Z</time></trkpt><trkpt lat="51.4913904" lon="-0.2947785"><ele>15.0</ele><time>2026-04-12T20:05:03.393Z</time></trkpt><trkpt lat="51.4913908" lon="-0.294529"><ele>15.333333333333332</ele><time>2026-04-12T20:05:04.394Z</time></trkpt><trkpt lat="51.4913902" lon="-0.2942824"><ele>15.666666666666666</ele><time>2026-04-12T20:05:05.393Z</time></trkpt><trkpt lat="51.491386" lon="-0.294037"><ele>16.0</ele><time>2026-04-12T20:05:06.393Z</time></trkpt><trkpt lat="51.4913832" lon="-0.2937913"><ele>16.0</ele><time>2026-04-12T20:05:07.394Z</time></trkpt><trkpt lat="51.4913825" lon="-0.2935473"><ele>16.0</ele><time>2026-04-12T20:05:08.393Z</time></trkpt><trkpt lat="51.4913823" lon="-0.2933047"><ele>16.0</ele><time>2026-04-12T20:05:09.394Z</time></trkpt><trkpt lat="51.491385" lon="-0.2930617"><ele>15.333333333333332</ele><time>2026-04-12T20:05:10.393Z</time></trkpt><trkpt lat="51.4913936" lon="-0.2928174"><ele>14.666666666666668</ele><time>2026-04-12T20:05:11.393Z</time></trkpt><trkpt lat="51.4914131" lon="-0.2925728"><ele>14.0</ele><time>2026-04-12T20:05:12.393Z</time></trkpt><trkpt lat="51.4914428" lon="-0.2923292"><ele>13.666666666666668</ele><time>2026-04-12T20:05:13.393Z</time></trkpt><trkpt lat="51.4914789" lon="-0.2920878"><ele>13.333333333333332</ele><time>2026-04-12T20:05:14.394Z</time></trkpt><trkpt lat="51.491522" lon="-0.2918504"><ele>13.0</ele><time>2026-04-12T20:05:15.393Z</time></trkpt><trkpt lat="51.4915758" lon="-0.2916206"><ele>13.0</ele><time>2026-04-12T20:05:16.394Z</time></trkpt><trkpt lat="51.4916385" lon="-0.2913972"><ele>13.0</ele><time>2026-04-12T20:05:17.393Z</time></trkpt><trkpt lat="51.4917057" lon="-0.2911828"><ele>13.0</ele><time>2026-04-12T20:05:18.394Z</time></trkpt><trkpt lat="51.4917748" lon="-0.2909815"><ele>13.0</ele><time>2026-04-12T20:05:19.394Z</time></trkpt><trkpt lat="51.4918477" lon="-0.2907841"><ele>13.25</ele><time>2026-04-12T20:05:20.394Z</time></trkpt><trkpt lat="51.491922" lon="-0.2905828"><ele>13.5</ele><time>2026-04-12T20:05:21.394Z</time></trkpt><trkpt lat="51.4919972" lon="-0.2903769"><ele>13.75</ele><time>2026-04-12T20:05:22.394Z</time></trkpt><trkpt lat="51.4920736" lon="-0.2901678"><ele>14.0</ele><time>2026-04-12T20:05:23.394Z</time></trkpt><trkpt lat="51.4921509" lon="-0.2899577"><ele>14.75</ele><time>2026-04-12T20:05:24.394Z</time></trkpt><trkpt lat="51.4922287" lon="-0.289749"><ele>15.5</ele><time>2026-04-12T20:05:25.393Z</time></trkpt><trkpt lat="51.4923054" lon="-0.2895447"><ele>16.25</ele><time>2026-04-12T20:05:26.394Z</time></trkpt><trkpt lat="51.4923791" lon="-0.2893436"><ele>17.0</ele><time>2026-04-12T20:05:27.394Z</time></trkpt><trkpt lat="51.4924545" lon="-0.289143"><ele>17.0</ele><time>2026-04-12T20:05:28.394Z</time></trkpt><trkpt lat="51.4925321" lon="-0.2889413"><ele>17.0</ele><time>2026-04-12T20:05:29.394Z</time></trkpt><trkpt lat="51.4926103" lon="-0.2887312"><ele>17.0</ele><time>2026-04-12T20:05:30.394Z</time></trkpt><trkpt lat="51.492686" lon="-0.2885133"><ele>16.666666666666668</ele><time>2026-04-12T20:05:31.393Z</time></trkpt><trkpt lat="51.4927563" lon="-0.2882933"><ele>16.333333333333332</ele><time>2026-04-12T20:05:32.393Z</time></trkpt><trkpt lat="51.4928197" lon="-0.2880684"><ele>16.0</ele><time>2026-04-12T20:05:33.393Z</time></trkpt><trkpt lat="51.4928721" lon="-0.2878364"><ele>16.0</ele><time>2026-04-12T20:05:34.394Z</time></trkpt><trkpt lat="51.4929078" lon="-0.2875958"><ele>16.0</ele><time>2026-04-12T20:05:35.394Z</time></trkpt><trkpt lat="51.492926" lon="-0.2873489"><ele>16.0</ele><time>2026-04-12T20:05:36.394Z</time></trkpt><trkpt lat="51.4929283" lon="-0.2870999"><ele>15.0</ele><time>2026-04-12T20:05:37.394Z</time></trkpt><trkpt lat="51.492914" lon="-0.2868541"><ele>14.0</ele><time>2026-04-12T20:05:38.394Z</time></trkpt><trkpt lat="51.4928857" lon="-0.2866114"><ele>13.0</ele><time>2026-04-12T20:05:39.393Z</time></trkpt><trkpt lat="51.4928462" lon="-0.2863722"><ele>13.0</ele><time>2026-04-12T20:05:40.394Z</time></trkpt><trkpt lat="51.4927998" lon="-0.286134"><ele>13.0</ele><time>2026-04-12T20:05:41.394Z</time></trkpt><trkpt lat="51.4927557" lon="-0.2859143"><ele>13.0</ele><time>2026-04-12T20:05:42.394Z</time></trkpt><trkpt lat="51.492715" lon="-0.2856936"><ele>13.0</ele><time>2026-04-12T20:05:43.393Z</time></trkpt><trkpt lat="51.4926713" lon="-0.28546"><ele>13.0</ele><time>2026-04-12T20:05:44.394Z</time></trkpt><trkpt lat="51.4926231" lon="-0.2852196"><ele>13.0</ele><time>2026-04-12T20:05:45.395Z</time></trkpt><trkpt lat="51.4925726" lon="-0.2849773"><ele>13.0</ele><time>2026-04-12T20:05:46.393Z</time></trkpt><trkpt lat="51.4925154" lon="-0.2847354"><ele>12.666666666666666</ele><time>2026-04-12T20:05:47.395Z</time></trkpt><trkpt lat="51.492453" lon="-0.2844933"><ele>12.333333333333332</ele><time>2026-04-12T20:05:48.394Z</time></trkpt><trkpt lat="51.4923831" lon="-0.2842553"><ele>12.0</ele><time>2026-04-12T20:05:49.394Z</time></trkpt><trkpt lat="51.4923073" lon="-0.2840209"><ele>12.333333333333332</ele><time>2026-04-12T20:05:50.394Z</time></trkpt><trkpt lat="51.4922258" lon="-0.2837892"><ele>12.666666666666666</ele><time>2026-04-12T20:05:51.394Z</time></trkpt><trkpt lat="51.4921407" lon="-0.2835621"><ele>13.0</ele><time>2026-04-12T20:05:52.394Z</time></trkpt><trkpt lat="51.4920499" lon="-0.2833386"><ele>13.666666666666666</ele><time>2026-04-12T20:05:53.395Z</time></trkpt><trkpt lat="51.4919523" lon="-0.2831173"><ele>14.333333333333332</ele><time>2026-04-12T20:05:54.395Z</time></trkpt><trkpt lat="51.4918516" lon="-0.2828989"><ele>15.0</ele><time>2026-04-12T20:05:55.394Z</time></trkpt><trkpt lat="51.4917488" lon="-0.282675"><ele>15.0</ele><time>2026-04-12T20:05:56.395Z</time></trkpt><trkpt lat="51.4916446" lon="-0.2824545"><ele>15.0</ele><time>2026-04-12T20:05:57.395Z</time></trkpt><trkpt lat="51.4915417" lon="-0.2822275"><ele>15.0</ele><time>2026-04-12T20:05:58.395Z</time></trkpt><trkpt lat="51.491439" lon="-0.2819959"><ele>15.0</ele><time>2026-04-12T20:05:59.395Z</time></trkpt><trkpt lat="51.4913265" lon="-0.281776"><ele>15.0</ele><time>2026-04-12T20:06:00.395Z</time></trkpt><trkpt lat="51.4912207" lon="-0.281542"><ele>15.0</ele><time>2026-04-12T20:06:01.395Z</time></trkpt><trkpt lat="51.4911134" lon="-0.2813049"><ele>14.666666666666668</ele><time>2026-04-12T20:06:02.395Z</time></trkpt><trkpt lat="51.4910061" lon="-0.2810668"><ele>14.333333333333334</ele><time>2026-04-12T20:06:03.395Z</time></trkpt><trkpt lat="51.4908993" lon="-0.2808329"><ele>14.0</ele><time>2026-04-12T20:06:04.395Z</time></trkpt><trkpt lat="51.4907953" lon="-0.2806029"><ele>13.666666666666668</ele><time>2026-04-12T20:06:05.394Z</time></trkpt><trkpt lat="51.490702" lon="-0.2803857"><ele>13.333333333333332</ele><time>2026-04-12T20:06:06.394Z</time></trkpt><trkpt lat="51.4906036" lon="-0.2801679"><ele>13.0</ele><time>2026-04-12T20:06:07.395Z</time></trkpt><trkpt lat="51.4905042" lon="-0.2799539"><ele>13.333333333333332</ele><time>2026-04-12T20:06:08.395Z</time></trkpt><trkpt lat="51.4904104" lon="-0.2797467"><ele>13.666666666666668</ele><time>2026-04-12T20:06:09.395Z</time></trkpt><trkpt lat="51.4903226" lon="-0.279548"><ele>14.0</ele><time>2026-04-12T20:06:10.394Z</time></trkpt><trkpt lat="51.4902301" lon="-0.2793475"><ele>14.0</ele><time>2026-04-12T20:06:11.395Z</time></trkpt><trkpt lat="51.4901394" lon="-0.2791343"><ele>14.0</ele><time>2026-04-12T20:06:12.395Z</time></trkpt><trkpt lat="51.49005" lon="-0.2789257"><ele>14.0</ele><time>2026-04-12T20:06:13.395Z</time></trkpt><trkpt lat="51.4899629" lon="-0.2787133"><ele>14.333333333333334</ele><time>2026-04-12T20:06:14.394Z</time></trkpt><trkpt lat="51.4898778" lon="-0.2784949"><ele>14.666666666666668</ele><time>2026-04-12T20:06:15.395Z</time></trkpt><trkpt lat="51.4897897" lon="-0.2782821"><ele>15.0</ele><time>2026-04-12T20:06:16.395Z</time></trkpt><trkpt lat="51.4897098" lon="-0.2780594"><ele>14.333333333333332</ele><time>2026-04-12T20:06:17.394Z</time></trkpt><trkpt lat="51.4896307" lon="-0.2778392"><ele>13.666666666666666</ele><time>2026-04-12T20:06:18.394Z</time></trkpt><trkpt lat="51.4895424" lon="-0.2776101"><ele>13.0</ele><time>2026-04-12T20:06:19.394Z</time></trkpt><trkpt lat="51.4894642" lon="-0.2773991"><ele>12.5</ele><time>2026-04-12T20:06:20.394Z</time></trkpt><trkpt lat="51.4893901" lon="-0.2771891"><ele>12.0</ele><time>2026-04-12T20:06:21.395Z</time></trkpt><trkpt lat="51.4893265" lon="-0.276985"><ele>11.5</ele><time>2026-04-12T20:06:22.395Z</time></trkpt><trkpt lat="51.4892599" lon="-0.2767899"><ele>11.0</ele><time>2026-04-12T20:06:23.394Z</time></trkpt><trkpt lat="51.489196" lon="-0.2766104"><ele>11.5</ele><time>2026-04-12T20:06:24.395Z</time></trkpt><trkpt lat="51.4891248" lon="-0.2764075"><ele>12.0</ele><time>2026-04-12T20:06:25.394Z</time></trkpt><trkpt lat="51.489055" lon="-0.2761978"><ele>12.5</ele><time>2026-04-12T20:06:26.395Z</time></trkpt><trkpt lat="51.4889913" lon="-0.2759739"><ele>13.0</ele><time>2026-04-12T20:06:27.394Z</time></trkpt><trkpt lat="51.4889329" lon="-0.2757399"><ele>13.0</ele><time>2026-04-12T20:06:28.395Z</time></trkpt><trkpt lat="51.4888761" lon="-0.2754976"><ele>13.0</ele><time>2026-04-12T20:06:29.395Z</time></trkpt><trkpt lat="51.4888263" lon="-0.2752732"><ele>13.0</ele><time>2026-04-12T20:06:30.394Z</time></trkpt><trkpt lat="51.4887813" lon="-0.2750369"><ele>12.25</ele><time>2026-04-12T20:06:31.394Z</time></trkpt><trkpt lat="51.488727" lon="-0.2748156"><ele>11.5</ele><time>2026-04-12T20:06:32.395Z</time></trkpt><trkpt lat="51.4886781" lon="-0.2746036"><ele>10.75</ele><time>2026-04-12T20:06:33.395Z</time></trkpt><trkpt lat="51.4886363" lon="-0.274389"><ele>10.0</ele><time>2026-04-12T20:06:34.394Z</time></trkpt><trkpt lat="51.488593" lon="-0.2741877"><ele>10.0</ele><time>2026-04-12T20:06:35.395Z</time></trkpt><trkpt lat="51.488551" lon="-0.2739829"><ele>10.0</ele><time>2026-04-12T20:06:36.395Z</time></trkpt><trkpt lat="51.4885021" lon="-0.2737753"><ele>10.0</ele><time>2026-04-12T20:06:37.395Z</time></trkpt><trkpt lat="51.4884531" lon="-0.2735583"><ele>10.0</ele><time>2026-04-12T20:06:38.395Z</time></trkpt><trkpt lat="51.4884049" lon="-0.273342"><ele>9.75</ele><time>2026-04-12T20:06:39.395Z</time></trkpt><trkpt lat="51.4883735" lon="-0.2731199"><ele>9.5</ele><time>2026-04-12T20:06:40.395Z</time></trkpt><trkpt lat="51.4883396" lon="-0.2728989"><ele>9.25</ele><time>2026-04-12T20:06:41.395Z</time></trkpt><trkpt lat="51.4883139" lon="-0.2726861"><ele>9.0</ele><time>2026-04-12T20:06:42.394Z</time></trkpt><trkpt lat="51.488292" lon="-0.2724649"><ele>8.75</ele><time>2026-04-12T20:06:43.395Z</time></trkpt><trkpt lat="51.4882827" lon="-0.2722359"><ele>8.5</ele><time>2026-04-12T20:06:44.395Z</time></trkpt><trkpt lat="51.4882723" lon="-0.2720089"><ele>8.25</ele><time>2026-04-12T20:06:45.395Z</time></trkpt><trkpt lat="51.4882591" lon="-0.27177"><ele>8.0</ele><time>2026-04-12T20:06:46.394Z</time></trkpt><trkpt lat="51.4882532" lon="-0.2715371"><ele>8.0</ele><time>2026-04-12T20:06:47.394Z</time></trkpt><trkpt lat="51.4882366" lon="-0.2713151"><ele>8.0</ele><time>2026-04-12T20:06:48.395Z</time></trkpt><trkpt lat="51.4882225" lon="-0.271091"><ele>8.0</ele><time>2026-04-12T20:06:49.395Z</time></trkpt><trkpt lat="51.4882203" lon="-0.2708708"><ele>8.0</ele><time>2026-04-12T20:06:50.395Z</time></trkpt><trkpt lat="51.4881933" lon="-0.2706515"><ele>8.0</ele><time>2026-04-12T20:06:51.396Z</time></trkpt><trkpt lat="51.4881644" lon="-0.2704374"><ele>8.0</ele><time>2026-04-12T20:06:52.396Z</time></trkpt><trkpt lat="51.488123" lon="-0.2702318"><ele>8.0</ele><time>2026-04-12T20:06:53.395Z</time></trkpt><trkpt lat="51.4880881" lon="-0.2700237"><ele>8.0</ele><time>2026-04-12T20:06:54.395Z</time></trkpt><trkpt lat="51.4880408" lon="-0.269811"><ele>8.0</ele><time>2026-04-12T20:06:55.396Z</time></trkpt><trkpt lat="51.4880016" lon="-0.2695959"><ele>8.0</ele><time>2026-04-12T20:06:56.396Z</time></trkpt><trkpt lat="51.4879503" lon="-0.2693787"><ele>8.0</ele><time>2026-04-12T20:06:57.395Z</time></trkpt><trkpt lat="51.4879063" lon="-0.2691651"><ele>8.0</ele><time>2026-04-12T20:06:58.396Z</time></trkpt><trkpt lat="51.4878688" lon="-0.2689325"><ele>7.75</ele><time>2026-04-12T20:06:59.395Z</time></trkpt><trkpt lat="51.487811" lon="-0.2687175"><ele>7.5</ele><time>2026-04-12T20:07:00.396Z</time></trkpt><trkpt lat="51.4877731" lon="-0.2684921"><ele>7.25</ele><time>2026-04-12T20:07:01.396Z</time></trkpt><trkpt lat="51.4877376" lon="-0.2682755"><ele>7.0</ele><time>2026-04-12T20:07:02.395Z</time></trkpt><trkpt lat="51.4877108" lon="-0.2680677"><ele>7.5</ele><time>2026-04-12T20:07:03.395Z</time></trkpt><trkpt lat="51.4876957" lon="-0.2678634"><ele>8.0</ele><time>2026-04-12T20:07:04.396Z</time></trkpt><trkpt lat="51.4876864" lon="-0.2676582"><ele>8.5</ele><time>2026-04-12T20:07:05.395Z</time></trkpt><trkpt lat="51.4876809" lon="-0.2674469"><ele>9.0</ele><time>2026-04-12T20:07:06.395Z</time></trkpt><trkpt lat="51.4876779" lon="-0.2672199"><ele>9.5</ele><time>2026-04-12T20:07:07.396Z</time></trkpt><trkpt lat="51.487676" lon="-0.2669953"><ele>10.0</ele><time>2026-04-12T20:07:08.395Z</time></trkpt><trkpt lat="51.4876742" lon="-0.2667969"><ele>10.5</ele><time>2026-04-12T20:07:09.396Z</time></trkpt><trkpt lat="51.4876728" lon="-0.2666196"><ele>11.0</ele><time>2026-04-12T20:07:10.396Z</time></trkpt><trkpt lat="51.4876708" lon="-0.266453"><ele>11.200000000000001</ele><time>2026-04-12T20:07:11.396Z</time></trkpt><trkpt lat="51.4876676" lon="-0.2662878"><ele>11.4</ele><time>2026-04-12T20:07:12.396Z</time></trkpt><trkpt lat="51.487664" lon="-0.2661173"><ele>11.6</ele><time>2026-04-12T20:07:13.396Z</time></trkpt><trkpt lat="51.4876612" lon="-0.265941"><ele>11.8</ele><time>2026-04-12T20:07:14.396Z</time></trkpt><trkpt lat="51.4876578" lon="-0.2657612"><ele>12.0</ele><time>2026-04-12T20:07:15.396Z</time></trkpt><trkpt lat="51.4876564" lon="-0.2655808"><ele>12.0</ele><time>2026-04-12T20:07:16.395Z</time></trkpt><trkpt lat="51.4876573" lon="-0.2653996"><ele>12.0</ele><time>2026-04-12T20:07:17.396Z</time></trkpt><trkpt lat="51.4876625" lon="-0.2652165"><ele>12.0</ele><time>2026-04-12T20:07:18.395Z</time></trkpt><trkpt lat="51.4876724" lon="-0.2650305"><ele>12.0</ele><time>2026-04-12T20:07:19.395Z</time></trkpt><trkpt lat="51.4876839" lon="-0.2648426"><ele>11.8</ele><time>2026-04-12T20:07:20.396Z</time></trkpt><trkpt lat="51.4876942" lon="-0.264655"><ele>11.6</ele><time>2026-04-12T20:07:21.395Z</time></trkpt><trkpt lat="51.4877028" lon="-0.2644758"><ele>11.4</ele><time>2026-04-12T20:07:22.396Z</time></trkpt><trkpt lat="51.4877077" lon="-0.2643106"><ele>11.200000000000001</ele><time>2026-04-12T20:07:23.396Z</time></trkpt><trkpt lat="51.4877087" lon="-0.2641648"><ele>11.0</ele><time>2026-04-12T20:07:24.396Z</time></trkpt><trkpt lat="51.4877079" lon="-0.2640403"><ele>11.0</ele><time>2026-04-12T20:07:25.396Z</time></trkpt><trkpt lat="51.4877083" lon="-0.2639382"><ele>11.0</ele><time>2026-04-12T20:07:26.395Z</time></trkpt><trkpt lat="51.4877118" lon="-0.2637875"><ele>11.0</ele><time>2026-04-12T20:07:28.396Z</time></trkpt><trkpt lat="51.4877195" lon="-0.2636427"><ele>11.0</ele><time>2026-04-12T20:08:07.396Z</time></trkpt><trkpt lat="51.487716" lon="-0.2634419"><ele>11.0</ele><time>2026-04-12T20:08:09.397Z</time></trkpt><trkpt lat="51.4877142" lon="-0.2633198"><ele>11.0</ele><time>2026-04-12T20:08:10.396Z</time></trkpt><trkpt lat="51.4877126" lon="-0.2631876"><ele>11.200000000000001</ele><time>2026-04-12T20:08:11.397Z</time></trkpt><trkpt lat="51.4877086" lon="-0.263043"><ele>11.4</ele><time>2026-04-12T20:08:12.396Z</time></trkpt><trkpt lat="51.4877063" lon="-0.2628915"><ele>11.6</ele><time>2026-04-12T20:08:13.396Z</time></trkpt><trkpt lat="51.4877054" lon="-0.2627221"><ele>11.8</ele><time>2026-04-12T20:08:14.396Z</time></trkpt><trkpt lat="51.4877043" lon="-0.2625385"><ele>12.0</ele><time>2026-04-12T20:08:15.396Z</time></trkpt><trkpt lat="51.4877028" lon="-0.2623534"><ele>12.0</ele><time>2026-04-12T20:08:16.396Z</time></trkpt><trkpt lat="51.4876989" lon="-0.262154"><ele>12.0</ele><time>2026-04-12T20:08:17.397Z</time></trkpt><trkpt lat="51.4876983" lon="-0.2619393"><ele>12.0</ele><time>2026-04-12T20:08:18.397Z</time></trkpt><trkpt lat="51.487697" lon="-0.2617158"><ele>12.0</ele><time>2026-04-12T20:08:19.397Z</time></trkpt><trkpt lat="51.4876977" lon="-0.2614894"><ele>11.5</ele><time>2026-04-12T20:08:20.396Z</time></trkpt><trkpt lat="51.4876989" lon="-0.2612624"><ele>11.0</ele><time>2026-04-12T20:08:21.396Z</time></trkpt><trkpt lat="51.4876979" lon="-0.2610385"><ele>10.5</ele><time>2026-04-12T20:08:22.397Z</time></trkpt><trkpt lat="51.487698" lon="-0.2608158"><ele>10.0</ele><time>2026-04-12T20:08:23.397Z</time></trkpt><trkpt lat="51.4876981" lon="-0.2605924"><ele>10.0</ele><time>2026-04-12T20:08:24.396Z</time></trkpt><trkpt lat="51.4876988" lon="-0.2603668"><ele>10.0</ele><time>2026-04-12T20:08:25.397Z</time></trkpt><trkpt lat="51.4876989" lon="-0.2601395"><ele>10.0</ele><time>2026-04-12T20:08:26.396Z</time></trkpt><trkpt lat="51.4876974" lon="-0.2599114"><ele>10.0</ele><time>2026-04-12T20:08:27.396Z</time></trkpt><trkpt lat="51.487696" lon="-0.2596851"><ele>10.0</ele><time>2026-04-12T20:08:28.397Z</time></trkpt><trkpt lat="51.487697" lon="-0.2594656"><ele>10.0</ele><time>2026-04-12T20:08:29.397Z</time></trkpt><trkpt lat="51.4876963" lon="-0.2592539"><ele>10.0</ele><time>2026-04-12T20:08:30.397Z</time></trkpt><trkpt lat="51.4876958" lon="-0.2590428"><ele>10.0</ele><time>2026-04-12T20:08:31.396Z</time></trkpt><trkpt lat="51.4876944" lon="-0.258823"><ele>10.0</ele><time>2026-04-12T20:08:32.397Z</time></trkpt><trkpt lat="51.487691" lon="-0.2585998"><ele>10.0</ele><time>2026-04-12T20:08:33.396Z</time></trkpt><trkpt lat="51.4876842" lon="-0.2583766"><ele>10.0</ele><time>2026-04-12T20:08:34.396Z</time></trkpt><trkpt lat="51.4876748" lon="-0.2581504"><ele>10.0</ele><time>2026-04-12T20:08:35.396Z</time></trkpt><trkpt lat="51.4876597" lon="-0.2579217"><ele>10.0</ele><time>2026-04-12T20:08:36.397Z</time></trkpt><trkpt lat="51.4876422" lon="-0.2576896"><ele>10.0</ele><time>2026-04-12T20:08:37.397Z</time></trkpt><trkpt lat="51.4876241" lon="-0.2574594"><ele>10.0</ele><time>2026-04-12T20:08:38.396Z</time></trkpt><trkpt lat="51.4876077" lon="-0.2572386"><ele>10.0</ele><time>2026-04-12T20:08:39.397Z</time></trkpt><trkpt lat="51.4875879" lon="-0.2570221"><ele>10.0</ele><time>2026-04-12T20:08:40.396Z</time></trkpt><trkpt lat="51.487564" lon="-0.2568031"><ele>10.0</ele><time>2026-04-12T20:08:41.397Z</time></trkpt><trkpt lat="51.4875373" lon="-0.2565868"><ele>10.0</ele><time>2026-04-12T20:08:42.396Z</time></trkpt><trkpt lat="51.4875075" lon="-0.2563709"><ele>10.0</ele><time>2026-04-12T20:08:43.396Z</time></trkpt><trkpt lat="51.4874754" lon="-0.2561555"><ele>9.75</ele><time>2026-04-12T20:08:44.397Z</time></trkpt><trkpt lat="51.4874417" lon="-0.2559395"><ele>9.5</ele><time>2026-04-12T20:08:45.397Z</time></trkpt><trkpt lat="51.4874081" lon="-0.255724"><ele>9.25</ele><time>2026-04-12T20:08:46.397Z</time></trkpt><trkpt lat="51.4873767" lon="-0.2555163"><ele>9.0</ele><time>2026-04-12T20:08:47.397Z</time></trkpt><trkpt lat="51.4873456" lon="-0.2553132"><ele>8.75</ele><time>2026-04-12T20:08:48.397Z</time></trkpt><trkpt lat="51.4873134" lon="-0.2551131"><ele>8.5</ele><time>2026-04-12T20:08:49.397Z</time></trkpt><trkpt lat="51.4872824" lon="-0.2549184"><ele>8.25</ele><time>2026-04-12T20:08:50.396Z</time></trkpt><trkpt lat="51.4872534" lon="-0.2547359"><ele>8.0</ele><time>2026-04-12T20:08:51.398Z</time></trkpt><trkpt lat="51.4872269" lon="-0.2545653"><ele>7.999999999999999</ele><time>2026-04-12T20:08:52.396Z</time></trkpt><trkpt lat="51.4872037" lon="-0.2544069"><ele>8.0</ele><time>2026-04-12T20:08:53.397Z</time></trkpt><trkpt lat="51.4871841" lon="-0.2542628"><ele>8.0</ele><time>2026-04-12T20:08:54.397Z</time></trkpt><trkpt lat="51.4871672" lon="-0.254136"><ele>8.0</ele><time>2026-04-12T20:08:55.396Z</time></trkpt><trkpt lat="51.4871538" lon="-0.2540346"><ele>7.999999999999999</ele><time>2026-04-12T20:08:56.397Z</time></trkpt><trkpt lat="51.4871313" lon="-0.2538781"><ele>8.0</ele><time>2026-04-12T20:08:58.397Z</time></trkpt><trkpt lat="51.4871197" lon="-0.2537725"><ele>7.999999999999999</ele><time>2026-04-12T20:09:00.398Z</time></trkpt><trkpt lat="51.4871238" lon="-0.2536662"><ele>8.0</ele><time>2026-04-12T20:09:02.397Z</time></trkpt><trkpt lat="51.4871222" lon="-0.2535637"><ele>8.0</ele><time>2026-04-12T20:09:05.398Z</time></trkpt><trkpt lat="51.4871138" lon="-0.2534274"><ele>8.0</ele><time>2026-04-12T20:09:10.398Z</time></trkpt><trkpt lat="51.4871141" lon="-0.2532792"><ele>7.999999999999999</ele><time>2026-04-12T20:09:12.398Z</time></trkpt><trkpt lat="51.4871379" lon="-0.2531113"><ele>8.0</ele><time>2026-04-12T20:09:14.397Z</time></trkpt><trkpt lat="51.4871824" lon="-0.2529398"><ele>8.0</ele><time>2026-04-12T20:09:16.397Z</time></trkpt><trkpt lat="51.4872419" lon="-0.2527603"><ele>8.0</ele><time>2026-04-12T20:09:18.398Z</time></trkpt><trkpt lat="51.4872708" lon="-0.2526582"><ele>8.0</ele><time>2026-04-12T20:09:19.398Z</time></trkpt><trkpt lat="51.4872954" lon="-0.2525403"><ele>8.0</ele><time>2026-04-12T20:09:20.397Z</time></trkpt><trkpt lat="51.4873173" lon="-0.2524099"><ele>8.0</ele><time>2026-04-12T20:09:21.398Z</time></trkpt><trkpt lat="51.4873345" lon="-0.2522559"><ele>8.0</ele><time>2026-04-12T20:09:22.398Z</time></trkpt><trkpt lat="51.487352" lon="-0.252107"><ele>8.0</ele><time>2026-04-12T20:09:23.398Z</time></trkpt><trkpt lat="51.4873783" lon="-0.25196"><ele>8.0</ele><time>2026-04-12T20:09:24.397Z</time></trkpt><trkpt lat="51.4874122" lon="-0.2518118"><ele>8.0</ele><time>2026-04-12T20:09:25.397Z</time></trkpt><trkpt lat="51.4874703" lon="-0.2516566"><ele>8.0</ele><time>2026-04-12T20:09:26.397Z</time></trkpt><trkpt lat="51.4875385" lon="-0.2515035"><ele>8.0</ele><time>2026-04-12T20:09:27.397Z</time></trkpt><trkpt lat="51.4876099" lon="-0.2513538"><ele>8.0</ele><time>2026-04-12T20:09:28.397Z</time></trkpt><trkpt lat="51.4876898" lon="-0.2511914"><ele>8.0</ele><time>2026-04-12T20:09:29.397Z</time></trkpt><trkpt lat="51.4877762" lon="-0.2510124"><ele>8.0</ele><time>2026-04-12T20:09:30.398Z</time></trkpt><trkpt lat="51.4878676" lon="-0.2508193"><ele>8.0</ele><time>2026-04-12T20:09:31.397Z</time></trkpt><trkpt lat="51.4879557" lon="-0.2506337"><ele>8.0</ele><time>2026-04-12T20:09:32.398Z</time></trkpt><trkpt lat="51.488039" lon="-0.2504577"><ele>8.0</ele><time>2026-04-12T20:09:33.398Z</time></trkpt><trkpt lat="51.4881182" lon="-0.2502876"><ele>8.0</ele><time>2026-04-12T20:09:34.398Z</time></trkpt><trkpt lat="51.4881947" lon="-0.2501187"><ele>8.0</ele><time>2026-04-12T20:09:35.397Z</time></trkpt><trkpt lat="51.4882706" lon="-0.2499485"><ele>8.0</ele><time>2026-04-12T20:09:36.398Z</time></trkpt><trkpt lat="51.4883447" lon="-0.2497756"><ele>8.0</ele><time>2026-04-12T20:09:37.397Z</time></trkpt><trkpt lat="51.4884188" lon="-0.2495994"><ele>8.0</ele><time>2026-04-12T20:09:38.398Z</time></trkpt><trkpt lat="51.4884934" lon="-0.2494185"><ele>8.0</ele><time>2026-04-12T20:09:39.398Z</time></trkpt><trkpt lat="51.4885694" lon="-0.2492384"><ele>8.0</ele><time>2026-04-12T20:09:40.398Z</time></trkpt><trkpt lat="51.4886473" lon="-0.2490582"><ele>8.0</ele><time>2026-04-12T20:09:41.397Z</time></trkpt><trkpt lat="51.4887249" lon="-0.2488724"><ele>8.0</ele><time>2026-04-12T20:09:42.398Z</time></trkpt><trkpt lat="51.4888029" lon="-0.24868"><ele>8.0</ele><time>2026-04-12T20:09:43.398Z</time></trkpt><trkpt lat="51.4888808" lon="-0.2484875"><ele>8.0</ele><time>2026-04-12T20:09:44.398Z</time></trkpt><trkpt lat="51.4889579" lon="-0.2482952"><ele>8.0</ele><time>2026-04-12T20:09:45.398Z</time></trkpt><trkpt lat="51.4890357" lon="-0.2481011"><ele>8.0</ele><time>2026-04-12T20:09:46.397Z</time></trkpt><trkpt lat="51.489114" lon="-0.2479136"><ele>8.25</ele><time>2026-04-12T20:09:47.398Z</time></trkpt><trkpt lat="51.4891894" lon="-0.2477242"><ele>8.5</ele><time>2026-04-12T20:09:48.397Z</time></trkpt><trkpt lat="51.4892624" lon="-0.2475413"><ele>8.75</ele><time>2026-04-12T20:09:49.398Z</time></trkpt><trkpt lat="51.489333" lon="-0.2473618"><ele>9.0</ele><time>2026-04-12T20:09:50.397Z</time></trkpt><trkpt lat="51.4894069" lon="-0.2471829"><ele>9.0</ele><time>2026-04-12T20:09:51.398Z</time></trkpt><trkpt lat="51.4894797" lon="-0.2470047"><ele>9.0</ele><time>2026-04-12T20:09:52.398Z</time></trkpt><trkpt lat="51.4895523" lon="-0.2468229"><ele>9.0</ele><time>2026-04-12T20:09:53.398Z</time></trkpt><trkpt lat="51.4896263" lon="-0.2466458"><ele>9.0</ele><time>2026-04-12T20:09:54.398Z</time></trkpt><trkpt lat="51.4896987" lon="-0.2464668"><ele>8.25</ele><time>2026-04-12T20:09:55.398Z</time></trkpt><trkpt lat="51.4897683" lon="-0.2462933"><ele>7.5</ele><time>2026-04-12T20:09:56.398Z</time></trkpt><trkpt lat="51.4898341" lon="-0.2461254"><ele>6.75</ele><time>2026-04-12T20:09:57.398Z</time></trkpt><trkpt lat="51.4899012" lon="-0.2459543"><ele>6.0</ele><time>2026-04-12T20:09:58.397Z</time></trkpt><trkpt lat="51.4899738" lon="-0.2457764"><ele>6.25</ele><time>2026-04-12T20:09:59.398Z</time></trkpt><trkpt lat="51.4900482" lon="-0.2455897"><ele>6.5</ele><time>2026-04-12T20:10:00.399Z</time></trkpt><trkpt lat="51.4901239" lon="-0.2453977"><ele>6.75</ele><time>2026-04-12T20:10:01.398Z</time></trkpt><trkpt lat="51.4901983" lon="-0.2452001"><ele>7.0</ele><time>2026-04-12T20:10:02.399Z</time></trkpt><trkpt lat="51.4902714" lon="-0.2449969"><ele>7.0</ele><time>2026-04-12T20:10:03.399Z</time></trkpt><trkpt lat="51.4903412" lon="-0.2447935"><ele>7.0</ele><time>2026-04-12T20:10:04.398Z</time></trkpt><trkpt lat="51.4904075" lon="-0.2445911"><ele>7.0</ele><time>2026-04-12T20:10:05.398Z</time></trkpt><trkpt lat="51.4904716" lon="-0.2443896"><ele>7.0</ele><time>2026-04-12T20:10:06.399Z</time></trkpt><trkpt lat="51.4905317" lon="-0.2441851"><ele>7.5</ele><time>2026-04-12T20:10:07.398Z</time></trkpt><trkpt lat="51.4905888" lon="-0.2439746"><ele>8.0</ele><time>2026-04-12T20:10:08.399Z</time></trkpt><trkpt lat="51.4906424" lon="-0.2437722"><ele>8.5</ele><time>2026-04-12T20:10:09.398Z</time></trkpt><trkpt lat="51.490694" lon="-0.2435806"><ele>9.0</ele><time>2026-04-12T20:10:10.399Z</time></trkpt><trkpt lat="51.4907426" lon="-0.2433988"><ele>9.25</ele><time>2026-04-12T20:10:11.399Z</time></trkpt><trkpt lat="51.4907878" lon="-0.2432239"><ele>9.5</ele><time>2026-04-12T20:10:12.398Z</time></trkpt><trkpt lat="51.4908279" lon="-0.2430492"><ele>9.75</ele><time>2026-04-12T20:10:13.398Z</time></trkpt><trkpt lat="51.4908694" lon="-0.2428681"><ele>10.0</ele><time>2026-04-12T20:10:14.399Z</time></trkpt><trkpt lat="51.4909122" lon="-0.2426882"><ele>9.75</ele><time>2026-04-12T20:10:15.398Z</time></trkpt><trkpt lat="51.4909574" lon="-0.2425034"><ele>9.5</ele><time>2026-04-12T20:10:16.399Z</time></trkpt><trkpt lat="51.4909999" lon="-0.2423307"><ele>9.25</ele><time>2026-04-12T20:10:17.398Z</time></trkpt><trkpt lat="51.4910403" lon="-0.2421613"><ele>9.0</ele><time>2026-04-12T20:10:18.398Z</time></trkpt><trkpt lat="51.4910819" lon="-0.2419908"><ele>9.0</ele><time>2026-04-12T20:10:19.398Z</time></trkpt><trkpt lat="51.4911205" lon="-0.2418269"><ele>9.0</ele><time>2026-04-12T20:10:20.399Z</time></trkpt><trkpt lat="51.4911557" lon="-0.2416719"><ele>9.0</ele><time>2026-04-12T20:10:21.399Z</time></trkpt><trkpt lat="51.4911879" lon="-0.2415211"><ele>9.0</ele><time>2026-04-12T20:10:22.399Z</time></trkpt><trkpt lat="51.4912197" lon="-0.2413591"><ele>9.0</ele><time>2026-04-12T20:10:23.399Z</time></trkpt><trkpt lat="51.4912495" lon="-0.2411921"><ele>8.4</ele><time>2026-04-12T20:10:24.399Z</time></trkpt><trkpt lat="51.4912771" lon="-0.2410337"><ele>7.800000000000001</ele><time>2026-04-12T20:10:25.399Z</time></trkpt><trkpt lat="51.4913049" lon="-0.2408667"><ele>7.199999999999999</ele><time>2026-04-12T20:10:26.399Z</time></trkpt><trkpt lat="51.4913281" lon="-0.2406906"><ele>6.6</ele><time>2026-04-12T20:10:27.399Z</time></trkpt><trkpt lat="51.4913484" lon="-0.2405116"><ele>6.0</ele><time>2026-04-12T20:10:28.398Z</time></trkpt><trkpt lat="51.4913673" lon="-0.2403249"><ele>6.0</ele><time>2026-04-12T20:10:29.399Z</time></trkpt><trkpt lat="51.4913825" lon="-0.2401358"><ele>6.0</ele><time>2026-04-12T20:10:30.398Z</time></trkpt><trkpt lat="51.4913976" lon="-0.2399506"><ele>6.0</ele><time>2026-04-12T20:10:31.399Z</time></trkpt><trkpt lat="51.4914097" lon="-0.2397772"><ele>6.0</ele><time>2026-04-12T20:10:32.399Z</time></trkpt><trkpt lat="51.491418" lon="-0.2396069"><ele>6.4</ele><time>2026-04-12T20:10:33.399Z</time></trkpt><trkpt lat="51.4914217" lon="-0.239445"><ele>6.8</ele><time>2026-04-12T20:10:34.398Z</time></trkpt><trkpt lat="51.4914254" lon="-0.2392873"><ele>7.200000000000001</ele><time>2026-04-12T20:10:35.399Z</time></trkpt><trkpt lat="51.4914281" lon="-0.2391223"><ele>7.6000000000000005</ele><time>2026-04-12T20:10:36.398Z</time></trkpt><trkpt lat="51.4914323" lon="-0.2389493"><ele>8.0</ele><time>2026-04-12T20:10:37.398Z</time></trkpt><trkpt lat="51.4914355" lon="-0.2387722"><ele>8.0</ele><time>2026-04-12T20:10:38.399Z</time></trkpt><trkpt lat="51.4914397" lon="-0.2385875"><ele>8.0</ele><time>2026-04-12T20:10:39.399Z</time></trkpt><trkpt lat="51.4914443" lon="-0.2384043"><ele>8.0</ele><time>2026-04-12T20:10:40.399Z</time></trkpt><trkpt lat="51.491448" lon="-0.2382206"><ele>8.0</ele><time>2026-04-12T20:10:41.399Z</time></trkpt><trkpt lat="51.4914507" lon="-0.238037"><ele>8.0</ele><time>2026-04-12T20:10:42.399Z</time></trkpt><trkpt lat="51.4914518" lon="-0.2378469"><ele>8.0</ele><time>2026-04-12T20:10:43.399Z</time></trkpt><trkpt lat="51.4914527" lon="-0.2376524"><ele>8.0</ele><time>2026-04-12T20:10:44.399Z</time></trkpt><trkpt lat="51.4914533" lon="-0.2374627"><ele>8.0</ele><time>2026-04-12T20:10:45.399Z</time></trkpt><trkpt lat="51.4914478" lon="-0.2372644"><ele>8.0</ele><time>2026-04-12T20:10:46.398Z</time></trkpt><trkpt lat="51.4914441" lon="-0.2370678"><ele>8.0</ele><time>2026-04-12T20:10:47.398Z</time></trkpt><trkpt lat="51.4914402" lon="-0.2368783"><ele>8.0</ele><time>2026-04-12T20:10:48.399Z</time></trkpt><trkpt lat="51.4914322" lon="-0.2366887"><ele>8.0</ele><time>2026-04-12T20:10:49.398Z</time></trkpt><trkpt lat="51.4914255" lon="-0.2364983"><ele>7.5</ele><time>2026-04-12T20:10:50.398Z</time></trkpt><trkpt lat="51.4914196" lon="-0.2363052"><ele>7.0</ele><time>2026-04-12T20:10:51.399Z</time></trkpt><trkpt lat="51.4914124" lon="-0.2361131"><ele>6.5</ele><time>2026-04-12T20:10:52.398Z</time></trkpt><trkpt lat="51.4914048" lon="-0.2359204"><ele>6.0</ele><time>2026-04-12T20:10:53.399Z</time></trkpt><trkpt lat="51.4913961" lon="-0.2357286"><ele>6.0</ele><time>2026-04-12T20:10:54.398Z</time></trkpt><trkpt lat="51.4913867" lon="-0.2355367"><ele>6.0</ele><time>2026-04-12T20:10:55.4Z</time></trkpt><trkpt lat="51.4913756" lon="-0.2353447"><ele>6.0</ele><time>2026-04-12T20:10:56.4Z</time></trkpt><trkpt lat="51.4913615" lon="-0.2351514"><ele>6.0</ele><time>2026-04-12T20:10:57.399Z</time></trkpt><trkpt lat="51.4913457" lon="-0.2349663"><ele>6.5</ele><time>2026-04-12T20:10:58.399Z</time></trkpt><trkpt lat="51.4913284" lon="-0.234783"><ele>7.0</ele><time>2026-04-12T20:10:59.4Z</time></trkpt><trkpt lat="51.4913123" lon="-0.234594"><ele>7.5</ele><time>2026-04-12T20:11:00.4Z</time></trkpt><trkpt lat="51.4912973" lon="-0.2344062"><ele>8.0</ele><time>2026-04-12T20:11:01.4Z</time></trkpt><trkpt lat="51.4912802" lon="-0.2342131"><ele>8.0</ele><time>2026-04-12T20:11:02.399Z</time></trkpt><trkpt lat="51.4912621" lon="-0.2340107"><ele>8.0</ele><time>2026-04-12T20:11:03.4Z</time></trkpt><trkpt lat="51.4912423" lon="-0.2338046"><ele>8.0</ele><time>2026-04-12T20:11:04.4Z</time></trkpt><trkpt lat="51.4912218" lon="-0.2335978"><ele>8.0</ele><time>2026-04-12T20:11:05.399Z</time></trkpt><trkpt lat="51.4912" lon="-0.2333919"><ele>7.75</ele><time>2026-04-12T20:11:06.4Z</time></trkpt><trkpt lat="51.4911792" lon="-0.2331904"><ele>7.5</ele><time>2026-04-12T20:11:07.4Z</time></trkpt><trkpt lat="51.4911581" lon="-0.2329814"><ele>7.25</ele><time>2026-04-12T20:11:08.4Z</time></trkpt><trkpt lat="51.4911364" lon="-0.2327653"><ele>7.0</ele><time>2026-04-12T20:11:09.399Z</time></trkpt><trkpt lat="51.4911128" lon="-0.2325222"><ele>6.75</ele><time>2026-04-12T20:11:10.399Z</time></trkpt><trkpt lat="51.4910909" lon="-0.2322854"><ele>6.5</ele><time>2026-04-12T20:11:11.4Z</time></trkpt><trkpt lat="51.4910733" lon="-0.2320822"><ele>6.25</ele><time>2026-04-12T20:11:12.4Z</time></trkpt><trkpt lat="51.4910597" lon="-0.2319169"><ele>6.0</ele><time>2026-04-12T20:11:13.399Z</time></trkpt><trkpt lat="51.4910528" lon="-0.231783"><ele>6.0</ele><time>2026-04-12T20:11:14.4Z</time></trkpt><trkpt lat="51.4910489" lon="-0.2316644"><ele>6.0</ele><time>2026-04-12T20:11:15.399Z</time></trkpt><trkpt lat="51.4910491" lon="-0.2315375"><ele>6.0</ele><time>2026-04-12T20:11:16.4Z</time></trkpt><trkpt lat="51.4910516" lon="-0.2313931"><ele>6.0</ele><time>2026-04-12T20:11:17.399Z</time></trkpt><trkpt lat="51.491056" lon="-0.231237"><ele>6.0</ele><time>2026-04-12T20:11:18.399Z</time></trkpt><trkpt lat="51.4910626" lon="-0.2310736"><ele>6.0</ele><time>2026-04-12T20:11:19.399Z</time></trkpt><trkpt lat="51.4910707" lon="-0.2309047"><ele>6.199999999999999</ele><time>2026-04-12T20:11:20.399Z</time></trkpt><trkpt lat="51.4910786" lon="-0.2307389"><ele>6.3999999999999995</ele><time>2026-04-12T20:11:21.399Z</time></trkpt><trkpt lat="51.4910875" lon="-0.2305718"><ele>6.6</ele><time>2026-04-12T20:11:22.399Z</time></trkpt><trkpt lat="51.4910969" lon="-0.2304078"><ele>6.8</ele><time>2026-04-12T20:11:23.4Z</time></trkpt><trkpt lat="51.4911059" lon="-0.230251"><ele>7.0</ele><time>2026-04-12T20:11:24.399Z</time></trkpt><trkpt lat="51.4911129" lon="-0.2300996"><ele>7.000000000000001</ele><time>2026-04-12T20:11:25.4Z</time></trkpt><trkpt lat="51.4911192" lon="-0.2299555"><ele>7.0</ele><time>2026-04-12T20:11:26.399Z</time></trkpt><trkpt lat="51.4911264" lon="-0.2298213"><ele>7.0</ele><time>2026-04-12T20:11:27.4Z</time></trkpt><trkpt lat="51.4911352" lon="-0.2296951"><ele>7.0</ele><time>2026-04-12T20:11:28.399Z</time></trkpt><trkpt lat="51.4911432" lon="-0.2295737"><ele>7.000000000000001</ele><time>2026-04-12T20:11:29.399Z</time></trkpt><trkpt lat="51.4911537" lon="-0.2294557"><ele>7.0</ele><time>2026-04-12T20:11:30.399Z</time></trkpt><trkpt lat="51.4911655" lon="-0.2293292"><ele>7.0</ele><time>2026-04-12T20:11:31.4Z</time></trkpt><trkpt lat="51.4911782" lon="-0.229196"><ele>7.0</ele><time>2026-04-12T20:11:32.4Z</time></trkpt><trkpt lat="51.4911895" lon="-0.2290766"><ele>7.0</ele><time>2026-04-12T20:11:33.4Z</time></trkpt><trkpt lat="51.4912012" lon="-0.2289718"><ele>7.0</ele><time>2026-04-12T20:11:34.399Z</time></trkpt><trkpt lat="51.4912121" lon="-0.2288675"><ele>7.0</ele><time>2026-04-12T20:11:35.4Z</time></trkpt><trkpt lat="51.4912242" lon="-0.228757"><ele>7.0</ele><time>2026-04-12T20:11:36.4Z</time></trkpt><trkpt lat="51.4912386" lon="-0.2286367"><ele>7.0</ele><time>2026-04-12T20:11:37.4Z</time></trkpt><trkpt lat="51.4912561" lon="-0.2284953"><ele>8.2</ele><time>2026-04-12T20:11:38.4Z</time></trkpt><trkpt lat="51.4912751" lon="-0.2283447"><ele>9.399999999999999</ele><time>2026-04-12T20:11:39.4Z</time></trkpt><trkpt lat="51.4912953" lon="-0.2281946"><ele>10.600000000000001</ele><time>2026-04-12T20:11:40.4Z</time></trkpt><trkpt lat="51.4913172" lon="-0.2280444"><ele>11.8</ele><time>2026-04-12T20:11:41.399Z</time></trkpt><trkpt lat="51.4913432" lon="-0.2278944"><ele>13.0</ele><time>2026-04-12T20:11:42.4Z</time></trkpt><trkpt lat="51.4913722" lon="-0.2277444"><ele>13.2</ele><time>2026-04-12T20:11:43.399Z</time></trkpt><trkpt lat="51.4914011" lon="-0.2276033"><ele>13.4</ele><time>2026-04-12T20:11:44.4Z</time></trkpt><trkpt lat="51.4914331" lon="-0.227472"><ele>13.599999999999998</ele><time>2026-04-12T20:11:45.4Z</time></trkpt><trkpt lat="51.4914743" lon="-0.2273436"><ele>13.799999999999999</ele><time>2026-04-12T20:11:46.4Z</time></trkpt><trkpt lat="51.4915239" lon="-0.2272157"><ele>14.0</ele><time>2026-04-12T20:11:47.4Z</time></trkpt><trkpt lat="51.4915791" lon="-0.2270905"><ele>14.000000000000002</ele><time>2026-04-12T20:11:48.399Z</time></trkpt><trkpt lat="51.491637" lon="-0.2269725"><ele>14.0</ele><time>2026-04-12T20:11:49.4Z</time></trkpt><trkpt lat="51.4916932" lon="-0.2268654"><ele>14.0</ele><time>2026-04-12T20:11:50.4Z</time></trkpt><trkpt lat="51.4917419" lon="-0.2267751"><ele>14.0</ele><time>2026-04-12T20:11:51.4Z</time></trkpt><trkpt lat="51.4917876" lon="-0.2266909"><ele>14.000000000000002</ele><time>2026-04-12T20:11:52.4Z</time></trkpt><trkpt lat="51.4918322" lon="-0.2266173"><ele>14.0</ele><time>2026-04-12T20:11:53.4Z</time></trkpt><trkpt lat="51.4918781" lon="-0.2265379"><ele>13.571428571428571</ele><time>2026-04-12T20:11:54.399Z</time></trkpt><trkpt lat="51.4919239" lon="-0.2264531"><ele>13.142857142857142</ele><time>2026-04-12T20:11:55.399Z</time></trkpt><trkpt lat="51.4919642" lon="-0.2263688"><ele>12.714285714285715</ele><time>2026-04-12T20:11:56.399Z</time></trkpt><trkpt lat="51.4920017" lon="-0.226284"><ele>12.285714285714285</ele><time>2026-04-12T20:11:57.4Z</time></trkpt><trkpt lat="51.4920408" lon="-0.226195"><ele>11.857142857142858</ele><time>2026-04-12T20:11:58.4Z</time></trkpt><trkpt lat="51.492073" lon="-0.2261041"><ele>11.428571428571429</ele><time>2026-04-12T20:11:59.4Z</time></trkpt><trkpt lat="51.4921011" lon="-0.2260068"><ele>11.0</ele><time>2026-04-12T20:12:00.399Z</time></trkpt><trkpt lat="51.4921236" lon="-0.2259042"><ele>11.0</ele><time>2026-04-12T20:12:01.401Z</time></trkpt><trkpt lat="51.4921425" lon="-0.2257986"><ele>11.0</ele><time>2026-04-12T20:12:02.4Z</time></trkpt><trkpt lat="51.4921556" lon="-0.2256982"><ele>11.0</ele><time>2026-04-12T20:12:03.4Z</time></trkpt><trkpt lat="51.4921677" lon="-0.2255954"><ele>11.0</ele><time>2026-04-12T20:12:04.4Z</time></trkpt><trkpt lat="51.4921803" lon="-0.225399"><ele>11.0</ele><time>2026-04-12T20:12:06.401Z</time></trkpt><trkpt lat="51.4921813" lon="-0.2252957"><ele>11.0</ele><time>2026-04-12T20:12:07.4Z</time></trkpt><trkpt lat="51.4921846" lon="-0.2251046"><ele>11.0</ele><time>2026-04-12T20:12:09.4Z</time></trkpt><trkpt lat="51.4922137" lon="-0.2249635"><ele>11.0</ele><time>2026-04-12T20:12:11.401Z</time></trkpt><trkpt lat="51.4922712" lon="-0.2248971"><ele>11.0</ele><time>2026-04-12T20:12:13.4Z</time></trkpt><trkpt lat="51.4923572" lon="-0.2248523"><ele>11.0</ele><time>2026-04-12T20:12:15.401Z</time></trkpt><trkpt lat="51.4924407" lon="-0.2248357"><ele>11.0</ele><time>2026-04-12T20:12:17.401Z</time></trkpt><trkpt lat="51.4925049" lon="-0.2248258"><ele>11.0</ele><time>2026-04-12T20:12:19.4Z</time></trkpt><trkpt lat="51.4926175" lon="-0.2247925"><ele>11.0</ele><time>2026-04-12T20:12:26.4Z</time></trkpt><trkpt lat="51.4927389" lon="-0.2247542"><ele>11.0</ele><time>2026-04-12T20:12:28.401Z</time></trkpt><trkpt lat="51.4928517" lon="-0.2246997"><ele>11.0</ele><time>2026-04-12T20:12:30.401Z</time></trkpt><trkpt lat="51.4929352" lon="-0.2245975"><ele>11.0</ele><time>2026-04-12T20:12:32.4Z</time></trkpt><trkpt lat="51.4929944" lon="-0.2244374"><ele>11.0</ele><time>2026-04-12T20:12:34.401Z</time></trkpt><trkpt lat="51.4930332" lon="-0.2242958"><ele>11.0</ele><time>2026-04-12T20:12:36.401Z</time></trkpt><trkpt lat="51.4930654" lon="-0.224136"><ele>11.0</ele><time>2026-04-12T20:12:38.4Z</time></trkpt><trkpt lat="51.4930786" lon="-0.2238388"><ele>11.0</ele><time>2026-04-12T20:12:41.401Z</time></trkpt><trkpt lat="51.4930681" lon="-0.223723"><ele>11.0</ele><time>2026-04-12T20:12:42.401Z</time></trkpt><trkpt lat="51.493059" lon="-0.2236088"><ele>11.0</ele><time>2026-04-12T20:12:43.4Z</time></trkpt><trkpt lat="51.4930533" lon="-0.2234939"><ele>11.0</ele><time>2026-04-12T20:12:44.401Z</time></trkpt><trkpt lat="51.4930483" lon="-0.2233808"><ele>11.0</ele><time>2026-04-12T20:12:45.401Z</time></trkpt><trkpt lat="51.4930437" lon="-0.2232796"><ele>11.0</ele><time>2026-04-12T20:12:46.4Z</time></trkpt><trkpt lat="51.4930383" lon="-0.2231217"><ele>11.0</ele><time>2026-04-12T20:12:48.4Z</time></trkpt><trkpt lat="51.4930161" lon="-0.2229931"><ele>10.8</ele><time>2026-04-12T20:12:50.4Z</time></trkpt><trkpt lat="51.4929977" lon="-0.2228721"><ele>10.600000000000001</ele><time>2026-04-12T20:12:52.401Z</time></trkpt><trkpt lat="51.4929374" lon="-0.2226652"><ele>10.4</ele><time>2026-04-12T20:13:04.4Z</time></trkpt><trkpt lat="51.4928844" lon="-0.2225975"><ele>10.2</ele><time>2026-04-12T20:13:05.401Z</time></trkpt><trkpt lat="51.4928126" lon="-0.2225399"><ele>10.0</ele><time>2026-04-12T20:13:06.4Z</time></trkpt><trkpt lat="51.4927299" lon="-0.2224856"><ele>10.8</ele><time>2026-04-12T20:13:07.402Z</time></trkpt><trkpt lat="51.4926334" lon="-0.2224434"><ele>11.6</ele><time>2026-04-12T20:13:08.402Z</time></trkpt><trkpt lat="51.4925315" lon="-0.2224045"><ele>12.399999999999999</ele><time>2026-04-12T20:13:09.401Z</time></trkpt><trkpt lat="51.4924329" lon="-0.2223678"><ele>13.2</ele><time>2026-04-12T20:13:10.402Z</time></trkpt><trkpt lat="51.4923291" lon="-0.2223365"><ele>14.0</ele><time>2026-04-12T20:13:11.402Z</time></trkpt><trkpt lat="51.4922249" lon="-0.2223028"><ele>14.333333333333334</ele><time>2026-04-12T20:13:12.401Z</time></trkpt><trkpt lat="51.4921268" lon="-0.2222728"><ele>14.666666666666668</ele><time>2026-04-12T20:13:13.401Z</time></trkpt><trkpt lat="51.4920461" lon="-0.222241"><ele>15.0</ele><time>2026-04-12T20:13:14.402Z</time></trkpt><trkpt lat="51.4919628" lon="-0.2222057"><ele>15.333333333333332</ele><time>2026-04-12T20:13:15.402Z</time></trkpt><trkpt lat="51.4918836" lon="-0.222163"><ele>15.666666666666666</ele><time>2026-04-12T20:13:16.402Z</time></trkpt><trkpt lat="51.4918107" lon="-0.2221445"><ele>16.0</ele><time>2026-04-12T20:13:17.402Z</time></trkpt><trkpt lat="51.491738" lon="-0.2221265"><ele>17.0</ele><time>2026-04-12T20:13:18.402Z</time></trkpt><trkpt lat="51.4916389" lon="-0.2220932"><ele>18.0</ele><time>2026-04-12T20:13:20.401Z</time></trkpt><trkpt lat="51.4915706" lon="-0.2220979"><ele>19.0</ele><time>2026-04-12T20:13:22.401Z</time></trkpt><trkpt lat="51.4914837" lon="-0.2221076"><ele>20.0</ele><time>2026-04-12T20:13:24.401Z</time></trkpt><trkpt lat="51.4914135" lon="-0.2221832"><ele>21.0</ele><time>2026-04-12T20:13:26.401Z</time></trkpt><trkpt lat="51.4913506" lon="-0.2223234"><ele>22.0</ele><time>2026-04-12T20:13:28.401Z</time></trkpt><trkpt lat="51.491329" lon="-0.2224374"><ele>22.0</ele><time>2026-04-12T20:13:29.402Z</time></trkpt><trkpt lat="51.4913027" lon="-0.2225752"><ele>22.0</ele><time>2026-04-12T20:13:30.402Z</time></trkpt><trkpt lat="51.4912833" lon="-0.2227521"><ele>22.0</ele><time>2026-04-12T20:13:31.402Z</time></trkpt><trkpt lat="51.4912784" lon="-0.2229324"><ele>22.0</ele><time>2026-04-12T20:13:32.402Z</time></trkpt><trkpt lat="51.4912759" lon="-0.2230751"><ele>22.0</ele><time>2026-04-12T20:13:33.402Z</time></trkpt><trkpt lat="51.4912747" lon="-0.2231971"><ele>22.400000000000002</ele><time>2026-04-12T20:13:34.402Z</time></trkpt><trkpt lat="51.4912772" lon="-0.2233068"><ele>22.8</ele><time>2026-04-12T20:13:35.401Z</time></trkpt><trkpt lat="51.4912519" lon="-0.2234216"><ele>23.2</ele><time>2026-04-12T20:13:36.402Z</time></trkpt><trkpt lat="51.4912178" lon="-0.2235346"><ele>23.6</ele><time>2026-04-12T20:13:37.401Z</time></trkpt><trkpt lat="51.4911156" lon="-0.2235756"><ele>24.0</ele><time>2026-04-12T20:13:38.402Z</time></trkpt><trkpt lat="51.4909769" lon="-0.2235629"><ele>22.0</ele><time>2026-04-12T20:13:39.401Z</time></trkpt><trkpt lat="51.4908309" lon="-0.2235265"><ele>20.0</ele><time>2026-04-12T20:13:40.402Z</time></trkpt><trkpt lat="51.4906992" lon="-0.2235063"><ele>18.0</ele><time>2026-04-12T20:13:41.402Z</time></trkpt><trkpt lat="51.4905834" lon="-0.2234818"><ele>16.0</ele><time>2026-04-12T20:13:42.402Z</time></trkpt><trkpt lat="51.4904786" lon="-0.2234569"><ele>14.4</ele><time>2026-04-12T20:13:43.401Z</time></trkpt><trkpt lat="51.4903803" lon="-0.2234254"><ele>12.8</ele><time>2026-04-12T20:13:44.402Z</time></trkpt><trkpt lat="51.4902824" lon="-0.2233903"><ele>11.200000000000001</ele><time>2026-04-12T20:13:45.402Z</time></trkpt><trkpt lat="51.490184" lon="-0.2233472"><ele>9.600000000000001</ele><time>2026-04-12T20:13:46.401Z</time></trkpt><trkpt lat="51.4900868" lon="-0.2232954"><ele>8.0</ele><time>2026-04-12T20:13:47.402Z</time></trkpt><trkpt lat="51.4899915" lon="-0.2232385"><ele>8.0</ele><time>2026-04-12T20:13:48.401Z</time></trkpt><trkpt lat="51.4899025" lon="-0.2231829"><ele>8.0</ele><time>2026-04-12T20:13:49.402Z</time></trkpt><trkpt lat="51.4898142" lon="-0.2231273"><ele>8.0</ele><time>2026-04-12T20:13:50.401Z</time></trkpt><trkpt lat="51.4897218" lon="-0.2230674"><ele>8.0</ele><time>2026-04-12T20:13:51.402Z</time></trkpt><trkpt lat="51.4896266" lon="-0.2230215"><ele>8.0</ele><time>2026-04-12T20:13:52.402Z</time></trkpt><trkpt lat="51.4895275" lon="-0.2229883"><ele>8.200000000000001</ele><time>2026-04-12T20:13:53.402Z</time></trkpt><trkpt lat="51.4894268" lon="-0.2229594"><ele>8.4</ele><time>2026-04-12T20:13:54.401Z</time></trkpt><trkpt lat="51.4893278" lon="-0.2229357"><ele>8.600000000000001</ele><time>2026-04-12T20:13:55.402Z</time></trkpt><trkpt lat="51.4892243" lon="-0.22291"><ele>8.8</ele><time>2026-04-12T20:13:56.401Z</time></trkpt><trkpt lat="51.4891236" lon="-0.2228812"><ele>9.0</ele><time>2026-04-12T20:13:57.402Z</time></trkpt><trkpt lat="51.4890229" lon="-0.2228508"><ele>9.0</ele><time>2026-04-12T20:13:58.401Z</time></trkpt><trkpt lat="51.4889209" lon="-0.2228177"><ele>9.0</ele><time>2026-04-12T20:13:59.402Z</time></trkpt><trkpt lat="51.4888208" lon="-0.2227828"><ele>9.0</ele><time>2026-04-12T20:14:00.402Z</time></trkpt><trkpt lat="51.488723" lon="-0.2227486"><ele>9.0</ele><time>2026-04-12T20:14:01.401Z</time></trkpt><trkpt lat="51.4886265" lon="-0.2227171"><ele>9.0</ele><time>2026-04-12T20:14:02.402Z</time></trkpt><trkpt lat="51.4885282" lon="-0.2226866"><ele>9.0</ele><time>2026-04-12T20:14:03.403Z</time></trkpt><trkpt lat="51.4884279" lon="-0.2226533"><ele>9.0</ele><time>2026-04-12T20:14:04.402Z</time></trkpt><trkpt lat="51.488329" lon="-0.2226171"><ele>9.0</ele><time>2026-04-12T20:14:05.401Z</time></trkpt><trkpt lat="51.488236" lon="-0.2225702"><ele>9.0</ele><time>2026-04-12T20:14:06.402Z</time></trkpt><trkpt lat="51.4881526" lon="-0.2225137"><ele>9.0</ele><time>2026-04-12T20:14:07.402Z</time></trkpt><trkpt lat="51.4880788" lon="-0.2224524"><ele>9.0</ele><time>2026-04-12T20:14:08.401Z</time></trkpt><trkpt lat="51.488011" lon="-0.2223842"><ele>9.0</ele><time>2026-04-12T20:14:09.403Z</time></trkpt><trkpt lat="51.487944" lon="-0.2223068"><ele>9.0</ele><time>2026-04-12T20:14:10.403Z</time></trkpt><trkpt lat="51.4878741" lon="-0.2222268"><ele>9.0</ele><time>2026-04-12T20:14:11.403Z</time></trkpt><trkpt lat="51.4878047" lon="-0.2221493"><ele>9.0</ele><time>2026-04-12T20:14:12.403Z</time></trkpt><trkpt lat="51.4877391" lon="-0.2220793"><ele>9.0</ele><time>2026-04-12T20:14:13.403Z</time></trkpt><trkpt lat="51.4876758" lon="-0.2220162"><ele>9.0</ele><time>2026-04-12T20:14:14.403Z</time></trkpt><trkpt lat="51.4876125" lon="-0.2219536"><ele>9.0</ele><time>2026-04-12T20:14:15.403Z</time></trkpt><trkpt lat="51.4875487" lon="-0.2218873"><ele>9.0</ele><time>2026-04-12T20:14:16.403Z</time></trkpt><trkpt lat="51.4874844" lon="-0.2218166"><ele>9.0</ele><time>2026-04-12T20:14:17.403Z</time></trkpt><trkpt lat="51.4874211" lon="-0.2217441"><ele>9.0</ele><time>2026-04-12T20:14:18.403Z</time></trkpt><trkpt lat="51.4873617" lon="-0.2216791"><ele>9.0</ele><time>2026-04-12T20:14:19.402Z</time></trkpt><trkpt lat="51.4873034" lon="-0.2216074"><ele>9.0</ele><time>2026-04-12T20:14:20.403Z</time></trkpt><trkpt lat="51.4872446" lon="-0.2215313"><ele>9.0</ele><time>2026-04-12T20:14:21.403Z</time></trkpt><trkpt lat="51.4871822" lon="-0.2214537"><ele>9.0</ele><time>2026-04-12T20:14:22.403Z</time></trkpt><trkpt lat="51.487114" lon="-0.2213743"><ele>9.0</ele><time>2026-04-12T20:14:23.403Z</time></trkpt><trkpt lat="51.4870405" lon="-0.2212923"><ele>9.0</ele><time>2026-04-12T20:14:24.403Z</time></trkpt><trkpt lat="51.4869633" lon="-0.2212056"><ele>9.0</ele><time>2026-04-12T20:14:25.402Z</time></trkpt><trkpt lat="51.4868854" lon="-0.2211217"><ele>9.6</ele><time>2026-04-12T20:14:26.403Z</time></trkpt><trkpt lat="51.4868058" lon="-0.2210419"><ele>10.2</ele><time>2026-04-12T20:14:27.403Z</time></trkpt><trkpt lat="51.4867234" lon="-0.220965"><ele>10.799999999999999</ele><time>2026-04-12T20:14:28.402Z</time></trkpt><trkpt lat="51.486637" lon="-0.2208947"><ele>11.4</ele><time>2026-04-12T20:14:29.403Z</time></trkpt><trkpt lat="51.4865507" lon="-0.2208214"><ele>12.0</ele><time>2026-04-12T20:14:30.403Z</time></trkpt><trkpt lat="51.4864641" lon="-0.2207467"><ele>12.0</ele><time>2026-04-12T20:14:31.403Z</time></trkpt><trkpt lat="51.4863764" lon="-0.2206702"><ele>12.0</ele><time>2026-04-12T20:14:32.403Z</time></trkpt><trkpt lat="51.4862901" lon="-0.2205972"><ele>12.0</ele><time>2026-04-12T20:14:33.403Z</time></trkpt><trkpt lat="51.486195" lon="-0.220524"><ele>12.0</ele><time>2026-04-12T20:14:34.403Z</time></trkpt><trkpt lat="51.486098" lon="-0.2204552"><ele>12.0</ele><time>2026-04-12T20:14:35.403Z</time></trkpt><trkpt lat="51.4859959" lon="-0.2203886"><ele>11.4</ele><time>2026-04-12T20:14:36.403Z</time></trkpt><trkpt lat="51.4858906" lon="-0.2203295"><ele>10.799999999999999</ele><time>2026-04-12T20:14:37.403Z</time></trkpt><trkpt lat="51.4857853" lon="-0.2202775"><ele>10.2</ele><time>2026-04-12T20:14:38.402Z</time></trkpt><trkpt lat="51.4856839" lon="-0.2202335"><ele>9.6</ele><time>2026-04-12T20:14:39.402Z</time></trkpt><trkpt lat="51.4855866" lon="-0.2201954"><ele>9.0</ele><time>2026-04-12T20:14:40.403Z</time></trkpt><trkpt lat="51.485494" lon="-0.220162"><ele>9.0</ele><time>2026-04-12T20:14:41.403Z</time></trkpt><trkpt lat="51.4854016" lon="-0.220131"><ele>9.0</ele><time>2026-04-12T20:14:42.402Z</time></trkpt><trkpt lat="51.4853067" lon="-0.2200984"><ele>9.0</ele><time>2026-04-12T20:14:43.402Z</time></trkpt><trkpt lat="51.4852109" lon="-0.220066"><ele>9.0</ele><time>2026-04-12T20:14:44.403Z</time></trkpt><trkpt lat="51.4851143" lon="-0.2200363"><ele>9.0</ele><time>2026-04-12T20:14:45.403Z</time></trkpt><trkpt lat="51.4850206" lon="-0.2200046"><ele>9.0</ele><time>2026-04-12T20:14:46.402Z</time></trkpt><trkpt lat="51.4849283" lon="-0.2199726"><ele>9.0</ele><time>2026-04-12T20:14:47.403Z</time></trkpt><trkpt lat="51.4848344" lon="-0.2199418"><ele>9.0</ele><time>2026-04-12T20:14:48.402Z</time></trkpt><trkpt lat="51.4847421" lon="-0.2199126"><ele>9.0</ele><time>2026-04-12T20:14:49.402Z</time></trkpt><trkpt lat="51.4846509" lon="-0.2198817"><ele>9.0</ele><time>2026-04-12T20:14:50.402Z</time></trkpt><trkpt lat="51.4845571" lon="-0.2198501"><ele>8.4</ele><time>2026-04-12T20:14:51.403Z</time></trkpt><trkpt lat="51.4844611" lon="-0.2198154"><ele>7.800000000000001</ele><time>2026-04-12T20:14:52.403Z</time></trkpt><trkpt lat="51.4843629" lon="-0.2197761"><ele>7.199999999999999</ele><time>2026-04-12T20:14:53.403Z</time></trkpt><trkpt lat="51.4842627" lon="-0.2197337"><ele>6.6</ele><time>2026-04-12T20:14:54.403Z</time></trkpt><trkpt lat="51.4841686" lon="-0.2196816"><ele>6.0</ele><time>2026-04-12T20:14:55.403Z</time></trkpt><trkpt lat="51.4840734" lon="-0.2196279"><ele>6.0</ele><time>2026-04-12T20:14:56.403Z</time></trkpt><trkpt lat="51.4839772" lon="-0.2195711"><ele>6.0</ele><time>2026-04-12T20:14:57.402Z</time></trkpt><trkpt lat="51.4838812" lon="-0.2195138"><ele>6.0</ele><time>2026-04-12T20:14:58.403Z</time></trkpt><trkpt lat="51.4837839" lon="-0.2194494"><ele>6.0</ele><time>2026-04-12T20:14:59.403Z</time></trkpt><trkpt lat="51.4836878" lon="-0.2193796"><ele>6.0</ele><time>2026-04-12T20:15:00.402Z</time></trkpt><trkpt lat="51.4835902" lon="-0.219306"><ele>6.4</ele><time>2026-04-12T20:15:01.404Z</time></trkpt><trkpt lat="51.4834915" lon="-0.2192341"><ele>6.8</ele><time>2026-04-12T20:15:02.405Z</time></trkpt><trkpt lat="51.4833922" lon="-0.219163"><ele>7.200000000000001</ele><time>2026-04-12T20:15:03.402Z</time></trkpt><trkpt lat="51.4832907" lon="-0.2190915"><ele>7.6000000000000005</ele><time>2026-04-12T20:15:04.403Z</time></trkpt><trkpt lat="51.4831883" lon="-0.2190205"><ele>8.0</ele><time>2026-04-12T20:15:05.403Z</time></trkpt><trkpt lat="51.4830855" lon="-0.218951"><ele>8.200000000000001</ele><time>2026-04-12T20:15:06.403Z</time></trkpt><trkpt lat="51.4829851" lon="-0.2188785"><ele>8.4</ele><time>2026-04-12T20:15:07.403Z</time></trkpt><trkpt lat="51.482885" lon="-0.2188099"><ele>8.600000000000001</ele><time>2026-04-12T20:15:08.403Z</time></trkpt><trkpt lat="51.4827854" lon="-0.2187477"><ele>8.8</ele><time>2026-04-12T20:15:09.403Z</time></trkpt><trkpt lat="51.4826862" lon="-0.218687"><ele>9.0</ele><time>2026-04-12T20:15:10.403Z</time></trkpt><trkpt lat="51.4825882" lon="-0.2186309"><ele>9.2</ele><time>2026-04-12T20:15:11.403Z</time></trkpt><trkpt lat="51.4824929" lon="-0.2185773"><ele>9.4</ele><time>2026-04-12T20:15:12.404Z</time></trkpt><trkpt lat="51.4824013" lon="-0.2185244"><ele>9.6</ele><time>2026-04-12T20:15:13.404Z</time></trkpt><trkpt lat="51.4823147" lon="-0.2184802"><ele>9.8</ele><time>2026-04-12T20:15:14.404Z</time></trkpt><trkpt lat="51.4822316" lon="-0.2184414"><ele>10.0</ele><time>2026-04-12T20:15:15.404Z</time></trkpt><trkpt lat="51.4821513" lon="-0.2184055"><ele>9.833333333333334</ele><time>2026-04-12T20:15:16.404Z</time></trkpt><trkpt lat="51.4820696" lon="-0.2183701"><ele>9.666666666666668</ele><time>2026-04-12T20:15:17.404Z</time></trkpt><trkpt lat="51.4819893" lon="-0.2183317"><ele>9.5</ele><time>2026-04-12T20:15:18.404Z</time></trkpt><trkpt lat="51.4819108" lon="-0.2182895"><ele>9.333333333333334</ele><time>2026-04-12T20:15:19.403Z</time></trkpt><trkpt lat="51.4818318" lon="-0.2182473"><ele>9.166666666666666</ele><time>2026-04-12T20:15:20.403Z</time></trkpt><trkpt lat="51.4817498" lon="-0.2182041"><ele>9.0</ele><time>2026-04-12T20:15:21.403Z</time></trkpt><trkpt lat="51.4816542" lon="-0.218161"><ele>9.25</ele><time>2026-04-12T20:15:22.404Z</time></trkpt><trkpt lat="51.4815517" lon="-0.2181117"><ele>9.5</ele><time>2026-04-12T20:15:23.403Z</time></trkpt><trkpt lat="51.4814409" lon="-0.2180581"><ele>9.75</ele><time>2026-04-12T20:15:24.404Z</time></trkpt><trkpt lat="51.4813201" lon="-0.2180034"><ele>10.0</ele><time>2026-04-12T20:15:25.404Z</time></trkpt><trkpt lat="51.4811969" lon="-0.2179519"><ele>10.0</ele><time>2026-04-12T20:15:26.403Z</time></trkpt><trkpt lat="51.4810834" lon="-0.2179091"><ele>10.0</ele><time>2026-04-12T20:15:27.404Z</time></trkpt><trkpt lat="51.480978" lon="-0.2178695"><ele>10.0</ele><time>2026-04-12T20:15:28.403Z</time></trkpt><trkpt lat="51.4808777" lon="-0.2178345"><ele>10.0</ele><time>2026-04-12T20:15:29.404Z</time></trkpt><trkpt lat="51.4807796" lon="-0.2178105"><ele>10.0</ele><time>2026-04-12T20:15:30.403Z</time></trkpt><trkpt lat="51.4806823" lon="-0.2177867"><ele>10.0</ele><time>2026-04-12T20:15:31.404Z</time></trkpt><trkpt lat="51.4805907" lon="-0.217766"><ele>10.0</ele><time>2026-04-12T20:15:32.403Z</time></trkpt><trkpt lat="51.4805016" lon="-0.2177495"><ele>10.0</ele><time>2026-04-12T20:15:33.403Z</time></trkpt><trkpt lat="51.4804147" lon="-0.2177325"><ele>10.0</ele><time>2026-04-12T20:15:34.403Z</time></trkpt><trkpt lat="51.4803247" lon="-0.2177129"><ele>10.0</ele><time>2026-04-12T20:15:35.403Z</time></trkpt><trkpt lat="51.4802375" lon="-0.217694"><ele>10.0</ele><time>2026-04-12T20:15:36.404Z</time></trkpt><trkpt lat="51.4801513" lon="-0.2176749"><ele>10.0</ele><time>2026-04-12T20:15:37.404Z</time></trkpt><trkpt lat="51.4800654" lon="-0.2176577"><ele>10.0</ele><time>2026-04-12T20:15:38.404Z</time></trkpt><trkpt lat="51.4799798" lon="-0.2176407"><ele>10.0</ele><time>2026-04-12T20:15:39.403Z</time></trkpt><trkpt lat="51.4798911" lon="-0.2176236"><ele>10.0</ele><time>2026-04-12T20:15:40.403Z</time></trkpt><trkpt lat="51.4797998" lon="-0.2176043"><ele>10.0</ele><time>2026-04-12T20:15:41.404Z</time></trkpt><trkpt lat="51.4797094" lon="-0.2175831"><ele>10.0</ele><time>2026-04-12T20:15:42.403Z</time></trkpt><trkpt lat="51.4796231" lon="-0.2175632"><ele>9.833333333333334</ele><time>2026-04-12T20:15:43.404Z</time></trkpt><trkpt lat="51.4795388" lon="-0.2175427"><ele>9.666666666666668</ele><time>2026-04-12T20:15:44.404Z</time></trkpt><trkpt lat="51.4794586" lon="-0.2175236"><ele>9.5</ele><time>2026-04-12T20:15:45.404Z</time></trkpt><trkpt lat="51.4793764" lon="-0.217503"><ele>9.333333333333334</ele><time>2026-04-12T20:15:46.403Z</time></trkpt><trkpt lat="51.4792929" lon="-0.2174821"><ele>9.166666666666666</ele><time>2026-04-12T20:15:47.404Z</time></trkpt><trkpt lat="51.4792104" lon="-0.2174607"><ele>9.0</ele><time>2026-04-12T20:15:48.403Z</time></trkpt><trkpt lat="51.4791273" lon="-0.2174381"><ele>9.0</ele><time>2026-04-12T20:15:49.403Z</time></trkpt><trkpt lat="51.4790437" lon="-0.2174103"><ele>9.0</ele><time>2026-04-12T20:15:50.404Z</time></trkpt><trkpt lat="51.4789628" lon="-0.2173812"><ele>9.0</ele><time>2026-04-12T20:15:51.403Z</time></trkpt><trkpt lat="51.4788819" lon="-0.2173552"><ele>9.0</ele><time>2026-04-12T20:15:52.404Z</time></trkpt><trkpt lat="51.4788052" lon="-0.2173283"><ele>9.0</ele><time>2026-04-12T20:15:53.403Z</time></trkpt><trkpt lat="51.4787291" lon="-0.2172993"><ele>9.0</ele><time>2026-04-12T20:15:54.403Z</time></trkpt><trkpt lat="51.4786524" lon="-0.2172715"><ele>8.666666666666666</ele><time>2026-04-12T20:15:55.403Z</time></trkpt><trkpt lat="51.4785757" lon="-0.2172395"><ele>8.333333333333334</ele><time>2026-04-12T20:15:56.404Z</time></trkpt><trkpt lat="51.4784999" lon="-0.2171987"><ele>8.0</ele><time>2026-04-12T20:15:57.404Z</time></trkpt><trkpt lat="51.4784259" lon="-0.2171529"><ele>7.666666666666667</ele><time>2026-04-12T20:15:58.403Z</time></trkpt><trkpt lat="51.4783532" lon="-0.2171026"><ele>7.333333333333334</ele><time>2026-04-12T20:15:59.403Z</time></trkpt><trkpt lat="51.4782815" lon="-0.217051"><ele>7.0</ele><time>2026-04-12T20:16:00.404Z</time></trkpt><trkpt lat="51.4782106" lon="-0.216996"><ele>7.000000000000001</ele><time>2026-04-12T20:16:01.404Z</time></trkpt><trkpt lat="51.4781396" lon="-0.2169398"><ele>7.0</ele><time>2026-04-12T20:16:02.404Z</time></trkpt><trkpt lat="51.4780679" lon="-0.2168816"><ele>7.0</ele><time>2026-04-12T20:16:03.405Z</time></trkpt><trkpt lat="51.4779973" lon="-0.2168243"><ele>7.0</ele><time>2026-04-12T20:16:04.405Z</time></trkpt><trkpt lat="51.4779272" lon="-0.2167682"><ele>7.000000000000001</ele><time>2026-04-12T20:16:05.403Z</time></trkpt><trkpt lat="51.4778581" lon="-0.2167107"><ele>7.0</ele><time>2026-04-12T20:16:06.405Z</time></trkpt><trkpt lat="51.4777885" lon="-0.2166495"><ele>7.166666666666667</ele><time>2026-04-12T20:16:07.403Z</time></trkpt><trkpt lat="51.4777183" lon="-0.2165907"><ele>7.333333333333334</ele><time>2026-04-12T20:16:08.404Z</time></trkpt><trkpt lat="51.4776481" lon="-0.2165348"><ele>7.5</ele><time>2026-04-12T20:16:09.404Z</time></trkpt><trkpt lat="51.4775788" lon="-0.2164772"><ele>7.666666666666666</ele><time>2026-04-12T20:16:10.404Z</time></trkpt><trkpt lat="51.4775091" lon="-0.216419"><ele>7.833333333333333</ele><time>2026-04-12T20:16:11.405Z</time></trkpt><trkpt lat="51.4774392" lon="-0.2163597"><ele>8.0</ele><time>2026-04-12T20:16:12.404Z</time></trkpt><trkpt lat="51.4773693" lon="-0.2162997"><ele>7.999999999999999</ele><time>2026-04-12T20:16:13.404Z</time></trkpt><trkpt lat="51.477299" lon="-0.2162406"><ele>8.0</ele><time>2026-04-12T20:16:14.405Z</time></trkpt><trkpt lat="51.4772283" lon="-0.2161829"><ele>8.0</ele><time>2026-04-12T20:16:15.404Z</time></trkpt><trkpt lat="51.4771576" lon="-0.2161283"><ele>8.0</ele><time>2026-04-12T20:16:16.405Z</time></trkpt><trkpt lat="51.4770861" lon="-0.2160739"><ele>7.999999999999999</ele><time>2026-04-12T20:16:17.404Z</time></trkpt><trkpt lat="51.4770145" lon="-0.2160181"><ele>8.0</ele><time>2026-04-12T20:16:18.405Z</time></trkpt><trkpt lat="51.476943" lon="-0.2159652"><ele>7.999999999999999</ele><time>2026-04-12T20:16:19.405Z</time></trkpt><trkpt lat="51.4768721" lon="-0.2159112"><ele>8.0</ele><time>2026-04-12T20:16:20.404Z</time></trkpt><trkpt lat="51.4767991" lon="-0.2158595"><ele>8.0</ele><time>2026-04-12T20:16:21.405Z</time></trkpt><trkpt lat="51.4767254" lon="-0.2158122"><ele>8.0</ele><time>2026-04-12T20:16:22.405Z</time></trkpt><trkpt lat="51.4766517" lon="-0.2157581"><ele>7.999999999999999</ele><time>2026-04-12T20:16:23.405Z</time></trkpt><trkpt lat="51.4765775" lon="-0.2157031"><ele>8.0</ele><time>2026-04-12T20:16:24.404Z</time></trkpt><trkpt lat="51.4765081" lon="-0.215649"><ele>7.999999999999999</ele><time>2026-04-12T20:16:25.405Z</time></trkpt><trkpt lat="51.4764365" lon="-0.2155954"><ele>8.0</ele><time>2026-04-12T20:16:26.405Z</time></trkpt><trkpt lat="51.476365" lon="-0.215542"><ele>8.0</ele><time>2026-04-12T20:16:27.405Z</time></trkpt><trkpt lat="51.4762919" lon="-0.2154904"><ele>8.0</ele><time>2026-04-12T20:16:28.405Z</time></trkpt><trkpt lat="51.4762201" lon="-0.2154387"><ele>7.999999999999999</ele><time>2026-04-12T20:16:29.405Z</time></trkpt><trkpt lat="51.4761463" lon="-0.2153877"><ele>8.0</ele><time>2026-04-12T20:16:30.404Z</time></trkpt><trkpt lat="51.4760747" lon="-0.21534"><ele>7.666666666666666</ele><time>2026-04-12T20:16:31.404Z</time></trkpt><trkpt lat="51.4760031" lon="-0.2152926"><ele>7.333333333333333</ele><time>2026-04-12T20:16:32.404Z</time></trkpt><trkpt lat="51.4759312" lon="-0.2152464"><ele>7.0</ele><time>2026-04-12T20:16:33.405Z</time></trkpt><trkpt lat="51.475859" lon="-0.2151926"><ele>6.666666666666666</ele><time>2026-04-12T20:16:34.405Z</time></trkpt><trkpt lat="51.4757879" lon="-0.2151361"><ele>6.333333333333333</ele><time>2026-04-12T20:16:35.405Z</time></trkpt><trkpt lat="51.4757186" lon="-0.2150758"><ele>6.0</ele><time>2026-04-12T20:16:36.405Z</time></trkpt><trkpt lat="51.4756522" lon="-0.2150104"><ele>6.0</ele><time>2026-04-12T20:16:37.405Z</time></trkpt><trkpt lat="51.4755845" lon="-0.214945"><ele>6.0</ele><time>2026-04-12T20:16:38.405Z</time></trkpt><trkpt lat="51.475517" lon="-0.2148783"><ele>6.0</ele><time>2026-04-12T20:16:39.405Z</time></trkpt><trkpt lat="51.4754503" lon="-0.2148093"><ele>6.0</ele><time>2026-04-12T20:16:40.405Z</time></trkpt><trkpt lat="51.475384" lon="-0.2147392"><ele>6.0</ele><time>2026-04-12T20:16:41.405Z</time></trkpt><trkpt lat="51.475319" lon="-0.2146679"><ele>6.0</ele><time>2026-04-12T20:16:42.404Z</time></trkpt><trkpt lat="51.4752543" lon="-0.2145954"><ele>6.166666666666667</ele><time>2026-04-12T20:16:43.405Z</time></trkpt><trkpt lat="51.475189" lon="-0.2145252"><ele>6.333333333333334</ele><time>2026-04-12T20:16:44.404Z</time></trkpt><trkpt lat="51.4751236" lon="-0.2144556"><ele>6.5</ele><time>2026-04-12T20:16:45.405Z</time></trkpt><trkpt lat="51.4750581" lon="-0.2143857"><ele>6.666666666666667</ele><time>2026-04-12T20:16:46.404Z</time></trkpt><trkpt lat="51.4749911" lon="-0.2143174"><ele>6.833333333333334</ele><time>2026-04-12T20:16:47.404Z</time></trkpt><trkpt lat="51.4749291" lon="-0.2142522"><ele>7.0</ele><time>2026-04-12T20:16:48.404Z</time></trkpt><trkpt lat="51.4748623" lon="-0.2141806"><ele>7.000000000000001</ele><time>2026-04-12T20:16:49.404Z</time></trkpt><trkpt lat="51.4747945" lon="-0.2141121"><ele>7.0</ele><time>2026-04-12T20:16:50.405Z</time></trkpt><trkpt lat="51.4747279" lon="-0.2140439"><ele>7.0</ele><time>2026-04-12T20:16:51.404Z</time></trkpt><trkpt lat="51.4746698" lon="-0.2139767"><ele>7.0</ele><time>2026-04-12T20:16:52.405Z</time></trkpt><trkpt lat="51.4746186" lon="-0.2139168"><ele>7.000000000000001</ele><time>2026-04-12T20:16:53.405Z</time></trkpt><trkpt lat="51.4745279" lon="-0.2138213"><ele>7.0</ele><time>2026-04-12T20:16:55.405Z</time></trkpt><trkpt lat="51.4744329" lon="-0.2137164"><ele>7.0</ele><time>2026-04-12T20:16:57.405Z</time></trkpt><trkpt lat="51.4743794" lon="-0.2136613"><ele>7.0</ele><time>2026-04-12T20:16:58.405Z</time></trkpt><trkpt lat="51.4743225" lon="-0.2136009"><ele>7.0</ele><time>2026-04-12T20:16:59.405Z</time></trkpt><trkpt lat="51.4742651" lon="-0.2135342"><ele>7.0</ele><time>2026-04-12T20:17:00.405Z</time></trkpt><trkpt lat="51.4742055" lon="-0.2134622"><ele>7.0</ele><time>2026-04-12T20:17:01.405Z</time></trkpt><trkpt lat="51.4741452" lon="-0.2133818"><ele>7.0</ele><time>2026-04-12T20:17:02.404Z</time></trkpt><trkpt lat="51.4740735" lon="-0.2133087"><ele>7.0</ele><time>2026-04-12T20:17:03.404Z</time></trkpt><trkpt lat="51.473999" lon="-0.2132235"><ele>7.199999999999999</ele><time>2026-04-12T20:17:04.404Z</time></trkpt><trkpt lat="51.4739214" lon="-0.2131335"><ele>7.3999999999999995</ele><time>2026-04-12T20:17:05.405Z</time></trkpt><trkpt lat="51.4738402" lon="-0.2130425"><ele>7.6000000000000005</ele><time>2026-04-12T20:17:06.405Z</time></trkpt><trkpt lat="51.4737554" lon="-0.2129556"><ele>7.800000000000001</ele><time>2026-04-12T20:17:07.405Z</time></trkpt><trkpt lat="51.4736711" lon="-0.2128708"><ele>8.0</ele><time>2026-04-12T20:17:08.405Z</time></trkpt><trkpt lat="51.47359" lon="-0.2127919"><ele>8.333333333333332</ele><time>2026-04-12T20:17:09.404Z</time></trkpt><trkpt lat="51.4735131" lon="-0.212715"><ele>8.666666666666666</ele><time>2026-04-12T20:17:10.405Z</time></trkpt><trkpt lat="51.4734373" lon="-0.2126382"><ele>9.0</ele><time>2026-04-12T20:17:11.404Z</time></trkpt><trkpt lat="51.4733646" lon="-0.212566"><ele>9.333333333333334</ele><time>2026-04-12T20:17:12.405Z</time></trkpt><trkpt lat="51.4732957" lon="-0.212497"><ele>9.666666666666668</ele><time>2026-04-12T20:17:13.405Z</time></trkpt><trkpt lat="51.4732273" lon="-0.2124287"><ele>10.0</ele><time>2026-04-12T20:17:14.404Z</time></trkpt><trkpt lat="51.4731588" lon="-0.2123583"><ele>10.0</ele><time>2026-04-12T20:17:15.406Z</time></trkpt><trkpt lat="51.4730889" lon="-0.2122875"><ele>10.0</ele><time>2026-04-12T20:17:16.406Z</time></trkpt><trkpt lat="51.4730184" lon="-0.2122145"><ele>10.0</ele><time>2026-04-12T20:17:17.406Z</time></trkpt><trkpt lat="51.4729469" lon="-0.2121426"><ele>10.0</ele><time>2026-04-12T20:17:18.406Z</time></trkpt><trkpt lat="51.472874" lon="-0.2120713"><ele>10.0</ele><time>2026-04-12T20:17:19.406Z</time></trkpt><trkpt lat="51.4728008" lon="-0.2120005"><ele>10.0</ele><time>2026-04-12T20:17:20.406Z</time></trkpt><trkpt lat="51.472727" lon="-0.2119343"><ele>10.0</ele><time>2026-04-12T20:17:21.406Z</time></trkpt><trkpt lat="51.4726513" lon="-0.2118792"><ele>10.0</ele><time>2026-04-12T20:17:22.405Z</time></trkpt><trkpt lat="51.4725738" lon="-0.2118294"><ele>10.0</ele><time>2026-04-12T20:17:23.406Z</time></trkpt><trkpt lat="51.4724956" lon="-0.2117792"><ele>10.0</ele><time>2026-04-12T20:17:24.406Z</time></trkpt><trkpt lat="51.4724212" lon="-0.211728"><ele>10.0</ele><time>2026-04-12T20:17:25.405Z</time></trkpt><trkpt lat="51.4723426" lon="-0.2116729"><ele>10.0</ele><time>2026-04-12T20:17:26.406Z</time></trkpt><trkpt lat="51.4722645" lon="-0.2116178"><ele>10.0</ele><time>2026-04-12T20:17:27.406Z</time></trkpt><trkpt lat="51.4721869" lon="-0.2115645"><ele>10.0</ele><time>2026-04-12T20:17:28.406Z</time></trkpt><trkpt lat="51.4721101" lon="-0.211514"><ele>10.0</ele><time>2026-04-12T20:17:29.406Z</time></trkpt><trkpt lat="51.4720339" lon="-0.2114623"><ele>10.0</ele><time>2026-04-12T20:17:30.405Z</time></trkpt><trkpt lat="51.471957" lon="-0.2114084"><ele>10.0</ele><time>2026-04-12T20:17:31.406Z</time></trkpt><trkpt lat="51.4718845" lon="-0.2113529"><ele>10.0</ele><time>2026-04-12T20:17:32.406Z</time></trkpt><trkpt lat="51.4718218" lon="-0.2113"><ele>9.833333333333334</ele><time>2026-04-12T20:17:33.405Z</time></trkpt><trkpt lat="51.4717699" lon="-0.2112413"><ele>9.666666666666668</ele><time>2026-04-12T20:17:34.405Z</time></trkpt><trkpt lat="51.4716857" lon="-0.2111286"><ele>9.5</ele><time>2026-04-12T20:17:36.406Z</time></trkpt><trkpt lat="51.4715672" lon="-0.2110771"><ele>9.333333333333334</ele><time>2026-04-12T20:17:38.406Z</time></trkpt><trkpt lat="51.4715014" lon="-0.2110762"><ele>9.166666666666666</ele><time>2026-04-12T20:17:39.405Z</time></trkpt><trkpt lat="51.4714324" lon="-0.2110697"><ele>9.0</ele><time>2026-04-12T20:17:40.406Z</time></trkpt><trkpt lat="51.4713623" lon="-0.2110582"><ele>9.000000000000002</ele><time>2026-04-12T20:17:41.406Z</time></trkpt><trkpt lat="51.4712952" lon="-0.2110405"><ele>9.0</ele><time>2026-04-12T20:17:42.406Z</time></trkpt><trkpt lat="51.4712313" lon="-0.2110264"><ele>9.0</ele><time>2026-04-12T20:17:43.406Z</time></trkpt><trkpt lat="51.4711642" lon="-0.2110103"><ele>9.0</ele><time>2026-04-12T20:17:44.406Z</time></trkpt><trkpt lat="51.471096" lon="-0.2109874"><ele>9.0</ele><time>2026-04-12T20:17:45.406Z</time></trkpt><trkpt lat="51.4710268" lon="-0.2109504"><ele>9.000000000000002</ele><time>2026-04-12T20:17:46.405Z</time></trkpt><trkpt lat="51.4709585" lon="-0.210913"><ele>9.0</ele><time>2026-04-12T20:17:47.406Z</time></trkpt><trkpt lat="51.4708883" lon="-0.2108705"><ele>9.0</ele><time>2026-04-12T20:17:48.406Z</time></trkpt><trkpt lat="51.4708177" lon="-0.210821"><ele>9.0</ele><time>2026-04-12T20:17:49.406Z</time></trkpt><trkpt lat="51.4707476" lon="-0.2107707"><ele>9.0</ele><time>2026-04-12T20:17:50.406Z</time></trkpt><trkpt lat="51.4706768" lon="-0.2107285"><ele>9.0</ele><time>2026-04-12T20:17:51.406Z</time></trkpt><trkpt lat="51.4706076" lon="-0.2106858"><ele>9.0</ele><time>2026-04-12T20:17:52.406Z</time></trkpt><trkpt lat="51.470538" lon="-0.2106424"><ele>9.0</ele><time>2026-04-12T20:17:53.406Z</time></trkpt><trkpt lat="51.4704683" lon="-0.2105947"><ele>8.714285714285715</ele><time>2026-04-12T20:17:54.405Z</time></trkpt><trkpt lat="51.4703984" lon="-0.2105469"><ele>8.428571428571429</ele><time>2026-04-12T20:17:55.406Z</time></trkpt><trkpt lat="51.4703288" lon="-0.2105009"><ele>8.142857142857142</ele><time>2026-04-12T20:17:56.405Z</time></trkpt><trkpt lat="51.4702599" lon="-0.2104557"><ele>7.857142857142858</ele><time>2026-04-12T20:17:57.405Z</time></trkpt><trkpt lat="51.4701915" lon="-0.2104101"><ele>7.571428571428571</ele><time>2026-04-12T20:17:58.405Z</time></trkpt><trkpt lat="51.4701228" lon="-0.2103664"><ele>7.285714285714286</ele><time>2026-04-12T20:17:59.406Z</time></trkpt><trkpt lat="51.4700527" lon="-0.2103206"><ele>7.0</ele><time>2026-04-12T20:18:00.406Z</time></trkpt><trkpt lat="51.4699832" lon="-0.2102731"><ele>7.000000000000001</ele><time>2026-04-12T20:18:01.406Z</time></trkpt><trkpt lat="51.4699147" lon="-0.2102264"><ele>7.0</ele><time>2026-04-12T20:18:02.405Z</time></trkpt><trkpt lat="51.4698438" lon="-0.2101861"><ele>7.0</ele><time>2026-04-12T20:18:03.406Z</time></trkpt><trkpt lat="51.4697723" lon="-0.2101551"><ele>7.0</ele><time>2026-04-12T20:18:04.405Z</time></trkpt><trkpt lat="51.4697027" lon="-0.2101261"><ele>7.000000000000001</ele><time>2026-04-12T20:18:05.406Z</time></trkpt><trkpt lat="51.4695894" lon="-0.2100927"><ele>7.0</ele><time>2026-04-12T20:18:07.406Z</time></trkpt><trkpt lat="51.4695204" lon="-0.2100818"><ele>7.000000000000001</ele><time>2026-04-12T20:18:09.405Z</time></trkpt><trkpt lat="51.4694086" lon="-0.2101093"><ele>7.0</ele><time>2026-04-12T20:18:22.407Z</time></trkpt><trkpt lat="51.4693282" lon="-0.2101294"><ele>7.0</ele><time>2026-04-12T20:18:23.407Z</time></trkpt><trkpt lat="51.469255" lon="-0.2101808"><ele>7.0</ele><time>2026-04-12T20:18:24.406Z</time></trkpt><trkpt lat="51.469185" lon="-0.2102465"><ele>7.000000000000001</ele><time>2026-04-12T20:18:25.406Z</time></trkpt><trkpt lat="51.4691144" lon="-0.2103147"><ele>7.0</ele><time>2026-04-12T20:18:26.406Z</time></trkpt><trkpt lat="51.4690477" lon="-0.2103806"><ele>7.0</ele><time>2026-04-12T20:18:27.406Z</time></trkpt><trkpt lat="51.4689794" lon="-0.210446"><ele>6.999999999999999</ele><time>2026-04-12T20:18:28.406Z</time></trkpt><trkpt lat="51.4689049" lon="-0.2105221"><ele>6.999999999999999</ele><time>2026-04-12T20:18:29.407Z</time></trkpt><trkpt lat="51.4688272" lon="-0.2106008"><ele>7.0</ele><time>2026-04-12T20:18:30.407Z</time></trkpt><trkpt lat="51.4687466" lon="-0.2106838"><ele>7.0</ele><time>2026-04-12T20:18:31.407Z</time></trkpt><trkpt lat="51.4686665" lon="-0.2107705"><ele>7.199999999999999</ele><time>2026-04-12T20:18:32.407Z</time></trkpt><trkpt lat="51.468588" lon="-0.2108604"><ele>7.3999999999999995</ele><time>2026-04-12T20:18:33.406Z</time></trkpt><trkpt lat="51.4685136" lon="-0.2109488"><ele>7.6000000000000005</ele><time>2026-04-12T20:18:34.407Z</time></trkpt><trkpt lat="51.4684429" lon="-0.2110352"><ele>7.800000000000001</ele><time>2026-04-12T20:18:35.406Z</time></trkpt><trkpt lat="51.4683723" lon="-0.2111214"><ele>8.0</ele><time>2026-04-12T20:18:36.407Z</time></trkpt><trkpt lat="51.4683058" lon="-0.2112032"><ele>8.0</ele><time>2026-04-12T20:18:37.407Z</time></trkpt><trkpt lat="51.4682382" lon="-0.2113"><ele>8.0</ele><time>2026-04-12T20:18:38.407Z</time></trkpt><trkpt lat="51.4681729" lon="-0.2113943"><ele>8.0</ele><time>2026-04-12T20:18:39.407Z</time></trkpt><trkpt lat="51.4681011" lon="-0.2114874"><ele>8.0</ele><time>2026-04-12T20:18:40.407Z</time></trkpt><trkpt lat="51.4680307" lon="-0.211582"><ele>8.0</ele><time>2026-04-12T20:18:41.407Z</time></trkpt><trkpt lat="51.467961" lon="-0.2116731"><ele>7.6000000000000005</ele><time>2026-04-12T20:18:42.406Z</time></trkpt><trkpt lat="51.4678894" lon="-0.2117631"><ele>7.200000000000001</ele><time>2026-04-12T20:18:43.407Z</time></trkpt><trkpt lat="51.4678173" lon="-0.2118496"><ele>6.8</ele><time>2026-04-12T20:18:44.407Z</time></trkpt><trkpt lat="51.4677427" lon="-0.2119326"><ele>6.4</ele><time>2026-04-12T20:18:45.406Z</time></trkpt><trkpt lat="51.4676666" lon="-0.2120175"><ele>6.0</ele><time>2026-04-12T20:18:46.407Z</time></trkpt><trkpt lat="51.4675898" lon="-0.2121038"><ele>6.0</ele><time>2026-04-12T20:18:47.407Z</time></trkpt><trkpt lat="51.4675148" lon="-0.2121898"><ele>6.0</ele><time>2026-04-12T20:18:48.406Z</time></trkpt><trkpt lat="51.4674392" lon="-0.2122749"><ele>6.0</ele><time>2026-04-12T20:18:49.407Z</time></trkpt><trkpt lat="51.4673655" lon="-0.2123577"><ele>6.0</ele><time>2026-04-12T20:18:50.406Z</time></trkpt><trkpt lat="51.4672954" lon="-0.2124341"><ele>6.0</ele><time>2026-04-12T20:18:51.407Z</time></trkpt><trkpt lat="51.4672238" lon="-0.212509"><ele>6.0</ele><time>2026-04-12T20:18:52.406Z</time></trkpt><trkpt lat="51.467151" lon="-0.2125841"><ele>5.166666666666667</ele><time>2026-04-12T20:18:53.407Z</time></trkpt><trkpt lat="51.4670766" lon="-0.2126616"><ele>4.333333333333333</ele><time>2026-04-12T20:18:54.406Z</time></trkpt><trkpt lat="51.4670039" lon="-0.2127391"><ele>3.5</ele><time>2026-04-12T20:18:55.406Z</time></trkpt><trkpt lat="51.4669343" lon="-0.2128163"><ele>2.6666666666666665</ele><time>2026-04-12T20:18:56.406Z</time></trkpt><trkpt lat="51.466865" lon="-0.2128924"><ele>1.8333333333333333</ele><time>2026-04-12T20:18:57.406Z</time></trkpt><trkpt lat="51.466794" lon="-0.212969"><ele>1.0</ele><time>2026-04-12T20:18:58.406Z</time></trkpt><trkpt lat="51.4667241" lon="-0.2130456"><ele>0.9999999999999999</ele><time>2026-04-12T20:18:59.407Z</time></trkpt><trkpt lat="51.4666552" lon="-0.2131218"><ele>1.0</ele><time>2026-04-12T20:19:00.406Z</time></trkpt><trkpt lat="51.4665847" lon="-0.2131996"><ele>1.0</ele><time>2026-04-12T20:19:01.407Z</time></trkpt><trkpt lat="51.4665129" lon="-0.2132796"><ele>1.0</ele><time>2026-04-12T20:19:02.406Z</time></trkpt><trkpt lat="51.466442" lon="-0.2133578"><ele>0.9999999999999999</ele><time>2026-04-12T20:19:03.407Z</time></trkpt><trkpt lat="51.4663731" lon="-0.2134331"><ele>1.0</ele><time>2026-04-12T20:19:04.406Z</time></trkpt><trkpt lat="51.4663069" lon="-0.2135066"><ele>2.1666666666666665</ele><time>2026-04-12T20:19:05.406Z</time></trkpt><trkpt lat="51.4662401" lon="-0.2135804"><ele>3.333333333333333</ele><time>2026-04-12T20:19:06.406Z</time></trkpt><trkpt lat="51.4661697" lon="-0.2136583"><ele>4.5</ele><time>2026-04-12T20:19:07.406Z</time></trkpt><trkpt lat="51.4660995" lon="-0.2137356"><ele>5.666666666666666</ele><time>2026-04-12T20:19:08.407Z</time></trkpt><trkpt lat="51.4660322" lon="-0.2138118"><ele>6.833333333333333</ele><time>2026-04-12T20:19:09.407Z</time></trkpt><trkpt lat="51.4659658" lon="-0.2138841"><ele>8.0</ele><time>2026-04-12T20:19:10.408Z</time></trkpt><trkpt lat="51.4658939" lon="-0.2139662"><ele>8.333333333333332</ele><time>2026-04-12T20:19:11.408Z</time></trkpt><trkpt lat="51.4658209" lon="-0.2140398"><ele>8.666666666666666</ele><time>2026-04-12T20:19:12.407Z</time></trkpt><trkpt lat="51.4657519" lon="-0.2141035"><ele>9.0</ele><time>2026-04-12T20:19:13.406Z</time></trkpt><trkpt lat="51.4656805" lon="-0.2141521"><ele>9.333333333333334</ele><time>2026-04-12T20:19:14.407Z</time></trkpt><trkpt lat="51.4656061" lon="-0.2141897"><ele>9.666666666666668</ele><time>2026-04-12T20:19:15.407Z</time></trkpt><trkpt lat="51.4655254" lon="-0.2142225"><ele>10.0</ele><time>2026-04-12T20:19:16.407Z</time></trkpt><trkpt lat="51.4654547" lon="-0.2142513"><ele>10.0</ele><time>2026-04-12T20:19:17.406Z</time></trkpt><trkpt lat="51.4653585" lon="-0.2142957"><ele>10.0</ele><time>2026-04-12T20:19:19.408Z</time></trkpt><trkpt lat="51.4652864" lon="-0.2143411"><ele>10.0</ele><time>2026-04-12T20:19:21.408Z</time></trkpt><trkpt lat="51.4652052" lon="-0.2143974"><ele>10.0</ele><time>2026-04-12T20:19:23.408Z</time></trkpt><trkpt lat="51.4651055" lon="-0.2144635"><ele>10.0</ele><time>2026-04-12T20:19:25.408Z</time></trkpt><trkpt lat="51.4649931" lon="-0.2145373"><ele>10.0</ele><time>2026-04-12T20:19:27.408Z</time></trkpt><trkpt lat="51.4648927" lon="-0.2145819"><ele>10.0</ele><time>2026-04-12T20:19:29.407Z</time></trkpt><trkpt lat="51.4647849" lon="-0.2145137"><ele>10.0</ele><time>2026-04-12T20:19:31.407Z</time></trkpt><trkpt lat="51.4647393" lon="-0.2144366"><ele>10.0</ele><time>2026-04-12T20:19:32.408Z</time></trkpt><trkpt lat="51.4647019" lon="-0.2143401"><ele>10.0</ele><time>2026-04-12T20:19:33.407Z</time></trkpt><trkpt lat="51.4646685" lon="-0.2142377"><ele>10.0</ele><time>2026-04-12T20:19:34.408Z</time></trkpt><trkpt lat="51.4646437" lon="-0.2141393"><ele>10.5</ele><time>2026-04-12T20:19:35.408Z</time></trkpt><trkpt lat="51.4645998" lon="-0.2139491"><ele>11.0</ele><time>2026-04-12T20:19:37.408Z</time></trkpt><trkpt lat="51.464576" lon="-0.2138455"><ele>11.5</ele><time>2026-04-12T20:19:38.408Z</time></trkpt><trkpt lat="51.4645513" lon="-0.2137407"><ele>12.0</ele><time>2026-04-12T20:19:39.408Z</time></trkpt><trkpt lat="51.4645246" lon="-0.2136341"><ele>12.499999999999998</ele><time>2026-04-12T20:19:40.408Z</time></trkpt><trkpt lat="51.4644997" lon="-0.2135287"><ele>13.0</ele><time>2026-04-12T20:19:41.407Z</time></trkpt><trkpt lat="51.4644706" lon="-0.2134301"><ele>12.999999999999998</ele><time>2026-04-12T20:19:42.407Z</time></trkpt><trkpt lat="51.4644405" lon="-0.2133323"><ele>13.0</ele><time>2026-04-12T20:19:43.407Z</time></trkpt><trkpt lat="51.4644003" lon="-0.213242"><ele>13.0</ele><time>2026-04-12T20:19:44.408Z</time></trkpt><trkpt lat="51.4643652" lon="-0.2131535"><ele>13.0</ele><time>2026-04-12T20:19:45.408Z</time></trkpt><trkpt lat="51.4643014" lon="-0.2130025"><ele>12.999999999999998</ele><time>2026-04-12T20:19:47.407Z</time></trkpt><trkpt lat="51.4642369" lon="-0.2128697"><ele>13.0</ele><time>2026-04-12T20:19:49.408Z</time></trkpt><trkpt lat="51.4641679" lon="-0.2127426"><ele>12.8</ele><time>2026-04-12T20:19:51.407Z</time></trkpt><trkpt lat="51.4641083" lon="-0.2126261"><ele>12.600000000000001</ele><time>2026-04-12T20:19:53.408Z</time></trkpt><trkpt lat="51.4640309" lon="-0.2124681"><ele>12.399999999999999</ele><time>2026-04-12T20:19:55.407Z</time></trkpt><trkpt lat="51.4639671" lon="-0.2123461"><ele>12.2</ele><time>2026-04-12T20:19:56.407Z</time></trkpt><trkpt lat="51.4638941" lon="-0.2122079"><ele>12.0</ele><time>2026-04-12T20:19:57.408Z</time></trkpt><trkpt lat="51.4638232" lon="-0.212072"><ele>12.0</ele><time>2026-04-12T20:19:58.408Z</time></trkpt><trkpt lat="51.4637599" lon="-0.2119457"><ele>12.0</ele><time>2026-04-12T20:19:59.407Z</time></trkpt><trkpt lat="51.4637022" lon="-0.2118302"><ele>12.0</ele><time>2026-04-12T20:20:00.407Z</time></trkpt><trkpt lat="51.46365" lon="-0.211725"><ele>12.0</ele><time>2026-04-12T20:20:01.407Z</time></trkpt><trkpt lat="51.4635995" lon="-0.2116285"><ele>12.0</ele><time>2026-04-12T20:20:02.407Z</time></trkpt><trkpt lat="51.4635529" lon="-0.2115344"><ele>12.0</ele><time>2026-04-12T20:20:03.407Z</time></trkpt><trkpt lat="51.4635116" lon="-0.2114379"><ele>11.999999999999998</ele><time>2026-04-12T20:20:04.408Z</time></trkpt><trkpt lat="51.4634679" lon="-0.2113412"><ele>12.0</ele><time>2026-04-12T20:20:05.408Z</time></trkpt><trkpt lat="51.4634242" lon="-0.2112479"><ele>12.0</ele><time>2026-04-12T20:20:06.408Z</time></trkpt><trkpt lat="51.4633808" lon="-0.2111592"><ele>12.0</ele><time>2026-04-12T20:20:07.408Z</time></trkpt><trkpt lat="51.463336" lon="-0.2110694"><ele>12.0</ele><time>2026-04-12T20:20:08.408Z</time></trkpt><trkpt lat="51.4632888" lon="-0.2109762"><ele>11.999999999999998</ele><time>2026-04-12T20:20:09.407Z</time></trkpt><trkpt lat="51.463245" lon="-0.210876"><ele>12.0</ele><time>2026-04-12T20:20:10.408Z</time></trkpt><trkpt lat="51.4632024" lon="-0.2107769"><ele>12.0</ele><time>2026-04-12T20:20:11.408Z</time></trkpt><trkpt lat="51.463165" lon="-0.2106702"><ele>12.0</ele><time>2026-04-12T20:20:12.407Z</time></trkpt><trkpt lat="51.4631295" lon="-0.2105593"><ele>12.0</ele><time>2026-04-12T20:20:13.408Z</time></trkpt><trkpt lat="51.4630986" lon="-0.210436"><ele>12.0</ele><time>2026-04-12T20:20:14.407Z</time></trkpt><trkpt lat="51.463072" lon="-0.2103098"><ele>12.0</ele><time>2026-04-12T20:20:15.408Z</time></trkpt><trkpt lat="51.4630474" lon="-0.210174"><ele>12.0</ele><time>2026-04-12T20:20:16.408Z</time></trkpt><trkpt lat="51.4630264" lon="-0.2100428"><ele>12.0</ele><time>2026-04-12T20:20:17.408Z</time></trkpt><trkpt lat="51.4630033" lon="-0.2099135"><ele>12.0</ele><time>2026-04-12T20:20:18.408Z</time></trkpt><trkpt lat="51.4629861" lon="-0.2097845"><ele>12.0</ele><time>2026-04-12T20:20:19.408Z</time></trkpt><trkpt lat="51.4629661" lon="-0.2096578"><ele>12.0</ele><time>2026-04-12T20:20:20.408Z</time></trkpt><trkpt lat="51.4629479" lon="-0.2095366"><ele>12.0</ele><time>2026-04-12T20:20:21.408Z</time></trkpt><trkpt lat="51.4629198" lon="-0.2094161"><ele>12.0</ele><time>2026-04-12T20:20:22.409Z</time></trkpt><trkpt lat="51.4628846" lon="-0.2092943"><ele>12.0</ele><time>2026-04-12T20:20:23.408Z</time></trkpt><trkpt lat="51.4628415" lon="-0.2091754"><ele>12.0</ele><time>2026-04-12T20:20:24.409Z</time></trkpt><trkpt lat="51.4627954" lon="-0.2090654"><ele>12.0</ele><time>2026-04-12T20:20:25.408Z</time></trkpt><trkpt lat="51.4627505" lon="-0.2089668"><ele>12.0</ele><time>2026-04-12T20:20:26.409Z</time></trkpt><trkpt lat="51.462708" lon="-0.2088635"><ele>12.0</ele><time>2026-04-12T20:20:27.408Z</time></trkpt><trkpt lat="51.4626651" lon="-0.2087496"><ele>12.0</ele><time>2026-04-12T20:20:28.408Z</time></trkpt><trkpt lat="51.462622" lon="-0.2086259"><ele>12.0</ele><time>2026-04-12T20:20:29.408Z</time></trkpt><trkpt lat="51.4625857" lon="-0.2085063"><ele>12.0</ele><time>2026-04-12T20:20:30.409Z</time></trkpt><trkpt lat="51.4625541" lon="-0.2083915"><ele>12.0</ele><time>2026-04-12T20:20:31.408Z</time></trkpt><trkpt lat="51.4625255" lon="-0.2082835"><ele>12.0</ele><time>2026-04-12T20:20:32.408Z</time></trkpt><trkpt lat="51.4624931" lon="-0.2081745"><ele>12.0</ele><time>2026-04-12T20:20:33.408Z</time></trkpt><trkpt lat="51.4624577" lon="-0.2080638"><ele>12.0</ele><time>2026-04-12T20:20:34.409Z</time></trkpt><trkpt lat="51.4624235" lon="-0.2079559"><ele>12.0</ele><time>2026-04-12T20:20:35.408Z</time></trkpt><trkpt lat="51.4623892" lon="-0.20785"><ele>12.0</ele><time>2026-04-12T20:20:36.409Z</time></trkpt><trkpt lat="51.4623556" lon="-0.2077459"><ele>12.0</ele><time>2026-04-12T20:20:37.409Z</time></trkpt><trkpt lat="51.4623209" lon="-0.2076391"><ele>12.0</ele><time>2026-04-12T20:20:38.408Z</time></trkpt><trkpt lat="51.4622854" lon="-0.2075293"><ele>12.0</ele><time>2026-04-12T20:20:39.409Z</time></trkpt><trkpt lat="51.4622534" lon="-0.2074151"><ele>12.0</ele><time>2026-04-12T20:20:40.409Z</time></trkpt><trkpt lat="51.462222" lon="-0.2073055"><ele>12.0</ele><time>2026-04-12T20:20:41.409Z</time></trkpt><trkpt lat="51.4621926" lon="-0.2071929"><ele>12.0</ele><time>2026-04-12T20:20:42.409Z</time></trkpt><trkpt lat="51.4621625" lon="-0.2070763"><ele>12.0</ele><time>2026-04-12T20:20:43.408Z</time></trkpt><trkpt lat="51.4621313" lon="-0.2069576"><ele>12.0</ele><time>2026-04-12T20:20:44.409Z</time></trkpt><trkpt lat="51.4621021" lon="-0.2068335"><ele>12.0</ele><time>2026-04-12T20:20:45.408Z</time></trkpt><trkpt lat="51.462077" lon="-0.2067064"><ele>12.0</ele><time>2026-04-12T20:20:46.408Z</time></trkpt><trkpt lat="51.4620534" lon="-0.206577"><ele>11.833333333333334</ele><time>2026-04-12T20:20:47.409Z</time></trkpt><trkpt lat="51.462031" lon="-0.2064483"><ele>11.666666666666666</ele><time>2026-04-12T20:20:48.408Z</time></trkpt><trkpt lat="51.462009" lon="-0.2063184"><ele>11.5</ele><time>2026-04-12T20:20:49.408Z</time></trkpt><trkpt lat="51.4619879" lon="-0.2061843"><ele>11.333333333333332</ele><time>2026-04-12T20:20:50.408Z</time></trkpt><trkpt lat="51.4619673" lon="-0.2060479"><ele>11.166666666666666</ele><time>2026-04-12T20:20:51.408Z</time></trkpt><trkpt lat="51.4619433" lon="-0.2059097"><ele>11.0</ele><time>2026-04-12T20:20:52.409Z</time></trkpt><trkpt lat="51.4619193" lon="-0.2057746"><ele>10.666666666666666</ele><time>2026-04-12T20:20:53.408Z</time></trkpt><trkpt lat="51.4618929" lon="-0.2056376"><ele>10.333333333333332</ele><time>2026-04-12T20:20:54.409Z</time></trkpt><trkpt lat="51.4618669" lon="-0.2055042"><ele>10.0</ele><time>2026-04-12T20:20:55.409Z</time></trkpt><trkpt lat="51.4618417" lon="-0.2053793"><ele>9.666666666666666</ele><time>2026-04-12T20:20:56.409Z</time></trkpt><trkpt lat="51.4618138" lon="-0.2052604"><ele>9.333333333333334</ele><time>2026-04-12T20:20:57.408Z</time></trkpt><trkpt lat="51.4617867" lon="-0.2051445"><ele>9.0</ele><time>2026-04-12T20:20:58.409Z</time></trkpt><trkpt lat="51.4617571" lon="-0.2050273"><ele>9.0</ele><time>2026-04-12T20:20:59.408Z</time></trkpt><trkpt lat="51.4617248" lon="-0.2049117"><ele>9.0</ele><time>2026-04-12T20:21:00.408Z</time></trkpt><trkpt lat="51.4616899" lon="-0.2047975"><ele>9.0</ele><time>2026-04-12T20:21:01.409Z</time></trkpt><trkpt lat="51.4616538" lon="-0.2046789"><ele>9.0</ele><time>2026-04-12T20:21:02.408Z</time></trkpt><trkpt lat="51.461619" lon="-0.2045541"><ele>9.0</ele><time>2026-04-12T20:21:03.408Z</time></trkpt><trkpt lat="51.4615856" lon="-0.2044254"><ele>9.0</ele><time>2026-04-12T20:21:04.409Z</time></trkpt><trkpt lat="51.461552" lon="-0.2042988"><ele>8.666666666666666</ele><time>2026-04-12T20:21:05.408Z</time></trkpt><trkpt lat="51.4615156" lon="-0.2041693"><ele>8.333333333333334</ele><time>2026-04-12T20:21:06.408Z</time></trkpt><trkpt lat="51.4614823" lon="-0.2040411"><ele>8.0</ele><time>2026-04-12T20:21:07.409Z</time></trkpt><trkpt lat="51.461449" lon="-0.2039127"><ele>7.666666666666667</ele><time>2026-04-12T20:21:08.408Z</time></trkpt><trkpt lat="51.4614161" lon="-0.2037839"><ele>7.333333333333334</ele><time>2026-04-12T20:21:09.408Z</time></trkpt><trkpt lat="51.4613833" lon="-0.20366"><ele>7.0</ele><time>2026-04-12T20:21:10.409Z</time></trkpt><trkpt lat="51.4613522" lon="-0.2035417"><ele>6.857142857142857</ele><time>2026-04-12T20:21:11.408Z</time></trkpt><trkpt lat="51.4613226" lon="-0.2034284"><ele>6.714285714285714</ele><time>2026-04-12T20:21:12.409Z</time></trkpt><trkpt lat="51.4612964" lon="-0.2033177"><ele>6.571428571428571</ele><time>2026-04-12T20:21:13.408Z</time></trkpt><trkpt lat="51.461271" lon="-0.2032124"><ele>6.428571428571429</ele><time>2026-04-12T20:21:14.408Z</time></trkpt><trkpt lat="51.4612481" lon="-0.2031079"><ele>6.285714285714286</ele><time>2026-04-12T20:21:15.409Z</time></trkpt><trkpt lat="51.4612234" lon="-0.2030045"><ele>6.142857142857142</ele><time>2026-04-12T20:21:16.408Z</time></trkpt><trkpt lat="51.4612001" lon="-0.2028942"><ele>6.0</ele><time>2026-04-12T20:21:17.409Z</time></trkpt><trkpt lat="51.4611759" lon="-0.2027714"><ele>6.833333333333333</ele><time>2026-04-12T20:21:18.409Z</time></trkpt><trkpt lat="51.4611536" lon="-0.2026507"><ele>7.666666666666666</ele><time>2026-04-12T20:21:19.409Z</time></trkpt><trkpt lat="51.4611333" lon="-0.2025357"><ele>8.5</ele><time>2026-04-12T20:21:20.409Z</time></trkpt><trkpt lat="51.4611133" lon="-0.2024215"><ele>9.333333333333332</ele><time>2026-04-12T20:21:21.41Z</time></trkpt><trkpt lat="51.4610859" lon="-0.2022939"><ele>10.166666666666666</ele><time>2026-04-12T20:21:22.41Z</time></trkpt><trkpt lat="51.4610552" lon="-0.2021521"><ele>11.0</ele><time>2026-04-12T20:21:23.409Z</time></trkpt><trkpt lat="51.461023" lon="-0.2020042"><ele>11.0</ele><time>2026-04-12T20:21:24.41Z</time></trkpt><trkpt lat="51.4609912" lon="-0.2018581"><ele>11.0</ele><time>2026-04-12T20:21:25.41Z</time></trkpt><trkpt lat="51.4609581" lon="-0.2017194"><ele>11.0</ele><time>2026-04-12T20:21:26.409Z</time></trkpt><trkpt lat="51.4609232" lon="-0.201588"><ele>11.0</ele><time>2026-04-12T20:21:27.41Z</time></trkpt><trkpt lat="51.4608854" lon="-0.2014604"><ele>11.0</ele><time>2026-04-12T20:21:28.409Z</time></trkpt><trkpt lat="51.4608484" lon="-0.2013375"><ele>11.166666666666666</ele><time>2026-04-12T20:21:29.409Z</time></trkpt><trkpt lat="51.4608139" lon="-0.2012174"><ele>11.333333333333332</ele><time>2026-04-12T20:21:30.41Z</time></trkpt><trkpt lat="51.460776" lon="-0.201101"><ele>11.5</ele><time>2026-04-12T20:21:31.41Z</time></trkpt><trkpt lat="51.4607368" lon="-0.200985"><ele>11.666666666666666</ele><time>2026-04-12T20:21:32.409Z</time></trkpt><trkpt lat="51.4606972" lon="-0.2008674"><ele>11.833333333333334</ele><time>2026-04-12T20:21:33.41Z</time></trkpt><trkpt lat="51.4606542" lon="-0.2007501"><ele>12.0</ele><time>2026-04-12T20:21:34.41Z</time></trkpt><trkpt lat="51.4606088" lon="-0.2006361"><ele>11.833333333333334</ele><time>2026-04-12T20:21:35.409Z</time></trkpt><trkpt lat="51.4605597" lon="-0.2005228"><ele>11.666666666666666</ele><time>2026-04-12T20:21:36.409Z</time></trkpt><trkpt lat="51.4605091" lon="-0.2004043"><ele>11.5</ele><time>2026-04-12T20:21:37.41Z</time></trkpt><trkpt lat="51.4604622" lon="-0.2002857"><ele>11.333333333333332</ele><time>2026-04-12T20:21:38.409Z</time></trkpt><trkpt lat="51.4604175" lon="-0.2001624"><ele>11.166666666666666</ele><time>2026-04-12T20:21:39.409Z</time></trkpt><trkpt lat="51.4603719" lon="-0.2000246"><ele>11.0</ele><time>2026-04-12T20:21:40.41Z</time></trkpt><trkpt lat="51.4603256" lon="-0.1998835"><ele>10.8</ele><time>2026-04-12T20:21:41.409Z</time></trkpt><trkpt lat="51.4602816" lon="-0.1997404"><ele>10.600000000000001</ele><time>2026-04-12T20:21:42.41Z</time></trkpt><trkpt lat="51.4602293" lon="-0.1995929"><ele>10.4</ele><time>2026-04-12T20:21:43.41Z</time></trkpt><trkpt lat="51.4601389" lon="-0.1994263"><ele>10.2</ele><time>2026-04-12T20:21:45.409Z</time></trkpt><trkpt lat="51.46008" lon="-0.1993087"><ele>10.0</ele><time>2026-04-12T20:21:46.41Z</time></trkpt><trkpt lat="51.460014" lon="-0.1991962"><ele>10.0</ele><time>2026-04-12T20:21:47.409Z</time></trkpt><trkpt lat="51.4599369" lon="-0.1990965"><ele>10.0</ele><time>2026-04-12T20:21:48.41Z</time></trkpt><trkpt lat="51.4598548" lon="-0.1990065"><ele>10.0</ele><time>2026-04-12T20:21:49.409Z</time></trkpt><trkpt lat="51.4597764" lon="-0.198916"><ele>10.0</ele><time>2026-04-12T20:21:50.409Z</time></trkpt><trkpt lat="51.459692" lon="-0.1988304"><ele>10.0</ele><time>2026-04-12T20:21:51.409Z</time></trkpt><trkpt lat="51.4596131" lon="-0.1987495"><ele>9.666666666666668</ele><time>2026-04-12T20:21:52.41Z</time></trkpt><trkpt lat="51.459537" lon="-0.1986814"><ele>9.333333333333334</ele><time>2026-04-12T20:21:53.409Z</time></trkpt><trkpt lat="51.4594621" lon="-0.1986197"><ele>9.0</ele><time>2026-04-12T20:21:54.41Z</time></trkpt><trkpt lat="51.4593868" lon="-0.1985673"><ele>8.666666666666666</ele><time>2026-04-12T20:21:55.41Z</time></trkpt><trkpt lat="51.4593152" lon="-0.1985178"><ele>8.333333333333332</ele><time>2026-04-12T20:21:56.41Z</time></trkpt><trkpt lat="51.4592478" lon="-0.1984692"><ele>8.0</ele><time>2026-04-12T20:21:57.41Z</time></trkpt><trkpt lat="51.4591807" lon="-0.1984188"><ele>7.999999999999999</ele><time>2026-04-12T20:21:58.41Z</time></trkpt><trkpt lat="51.4591099" lon="-0.1983703"><ele>8.0</ele><time>2026-04-12T20:21:59.409Z</time></trkpt><trkpt lat="51.4590376" lon="-0.1983285"><ele>8.0</ele><time>2026-04-12T20:22:00.41Z</time></trkpt><trkpt lat="51.4589663" lon="-0.1982928"><ele>8.0</ele><time>2026-04-12T20:22:01.41Z</time></trkpt><trkpt lat="51.4588904" lon="-0.1982696"><ele>7.999999999999999</ele><time>2026-04-12T20:22:02.41Z</time></trkpt><trkpt lat="51.4588096" lon="-0.1982608"><ele>8.0</ele><time>2026-04-12T20:22:03.41Z</time></trkpt><trkpt lat="51.4587321" lon="-0.1982554"><ele>8.166666666666666</ele><time>2026-04-12T20:22:04.41Z</time></trkpt><trkpt lat="51.4586568" lon="-0.1982516"><ele>8.333333333333332</ele><time>2026-04-12T20:22:05.409Z</time></trkpt><trkpt lat="51.4585821" lon="-0.198249"><ele>8.5</ele><time>2026-04-12T20:22:06.411Z</time></trkpt><trkpt lat="51.4585159" lon="-0.1982469"><ele>8.666666666666666</ele><time>2026-04-12T20:22:07.409Z</time></trkpt><trkpt lat="51.4584112" lon="-0.1982447"><ele>8.833333333333334</ele><time>2026-04-12T20:22:09.41Z</time></trkpt><trkpt lat="51.4583214" lon="-0.1982295"><ele>9.0</ele><time>2026-04-12T20:22:11.41Z</time></trkpt><trkpt lat="51.4582432" lon="-0.1981961"><ele>8.8</ele><time>2026-04-12T20:22:13.41Z</time></trkpt><trkpt lat="51.4581223" lon="-0.1981429"><ele>8.600000000000001</ele><time>2026-04-12T20:22:15.409Z</time></trkpt><trkpt lat="51.4580566" lon="-0.1981035"><ele>8.4</ele><time>2026-04-12T20:22:16.41Z</time></trkpt><trkpt lat="51.4579988" lon="-0.1980567"><ele>8.200000000000001</ele><time>2026-04-12T20:22:17.411Z</time></trkpt><trkpt lat="51.4579283" lon="-0.1979383"><ele>8.0</ele><time>2026-04-12T20:22:19.409Z</time></trkpt><trkpt lat="51.4579331" lon="-0.1977692"><ele>7.999999999999999</ele><time>2026-04-12T20:22:21.409Z</time></trkpt><trkpt lat="51.4579614" lon="-0.1976539"><ele>8.0</ele><time>2026-04-12T20:22:22.41Z</time></trkpt><trkpt lat="51.4580003" lon="-0.1975192"><ele>8.0</ele><time>2026-04-12T20:22:23.409Z</time></trkpt><trkpt lat="51.4580417" lon="-0.1973815"><ele>8.0</ele><time>2026-04-12T20:22:24.41Z</time></trkpt><trkpt lat="51.4580793" lon="-0.19725"><ele>7.999999999999999</ele><time>2026-04-12T20:22:25.411Z</time></trkpt><trkpt lat="51.4581136" lon="-0.1971224"><ele>8.0</ele><time>2026-04-12T20:22:26.41Z</time></trkpt><trkpt lat="51.4581472" lon="-0.1970042"><ele>7.999999999999999</ele><time>2026-04-12T20:22:27.41Z</time></trkpt><trkpt lat="51.4581838" lon="-0.1968895"><ele>8.0</ele><time>2026-04-12T20:22:28.411Z</time></trkpt><trkpt lat="51.4582171" lon="-0.1967767"><ele>8.0</ele><time>2026-04-12T20:22:29.411Z</time></trkpt><trkpt lat="51.4582489" lon="-0.1966663"><ele>8.0</ele><time>2026-04-12T20:22:30.411Z</time></trkpt><trkpt lat="51.4582842" lon="-0.19655"><ele>7.999999999999999</ele><time>2026-04-12T20:22:31.411Z</time></trkpt><trkpt lat="51.4583199" lon="-0.1964273"><ele>8.0</ele><time>2026-04-12T20:22:32.411Z</time></trkpt><trkpt lat="51.4583531" lon="-0.1963056"><ele>7.999999999999999</ele><time>2026-04-12T20:22:33.41Z</time></trkpt><trkpt lat="51.4583845" lon="-0.1961881"><ele>8.0</ele><time>2026-04-12T20:22:34.411Z</time></trkpt><trkpt lat="51.4584141" lon="-0.1960737"><ele>8.0</ele><time>2026-04-12T20:22:35.411Z</time></trkpt><trkpt lat="51.4584406" lon="-0.1959626"><ele>8.0</ele><time>2026-04-12T20:22:36.411Z</time></trkpt><trkpt lat="51.4584653" lon="-0.195845"><ele>7.999999999999999</ele><time>2026-04-12T20:22:37.41Z</time></trkpt><trkpt lat="51.4584908" lon="-0.1957279"><ele>8.0</ele><time>2026-04-12T20:22:38.41Z</time></trkpt><trkpt lat="51.4585145" lon="-0.1955857"><ele>7.800000000000001</ele><time>2026-04-12T20:22:39.411Z</time></trkpt><trkpt lat="51.4585434" lon="-0.1954418"><ele>7.6000000000000005</ele><time>2026-04-12T20:22:40.41Z</time></trkpt><trkpt lat="51.4585726" lon="-0.1952932"><ele>7.3999999999999995</ele><time>2026-04-12T20:22:41.411Z</time></trkpt><trkpt lat="51.4586037" lon="-0.1951412"><ele>7.199999999999999</ele><time>2026-04-12T20:22:42.411Z</time></trkpt><trkpt lat="51.4586331" lon="-0.1949879"><ele>7.0</ele><time>2026-04-12T20:22:43.411Z</time></trkpt><trkpt lat="51.4586621" lon="-0.1948404"><ele>7.000000000000001</ele><time>2026-04-12T20:22:44.411Z</time></trkpt><trkpt lat="51.4586896" lon="-0.1946971"><ele>7.0</ele><time>2026-04-12T20:22:45.41Z</time></trkpt><trkpt lat="51.4587122" lon="-0.1945643"><ele>7.0</ele><time>2026-04-12T20:22:46.411Z</time></trkpt><trkpt lat="51.4587342" lon="-0.1944373"><ele>7.0</ele><time>2026-04-12T20:22:47.411Z</time></trkpt><trkpt lat="51.4587594" lon="-0.1943097"><ele>7.000000000000001</ele><time>2026-04-12T20:22:48.411Z</time></trkpt><trkpt lat="51.4587886" lon="-0.1941756"><ele>7.0</ele><time>2026-04-12T20:22:49.411Z</time></trkpt><trkpt lat="51.4588144" lon="-0.1940468"><ele>6.6</ele><time>2026-04-12T20:22:50.411Z</time></trkpt><trkpt lat="51.4588393" lon="-0.1939268"><ele>6.199999999999999</ele><time>2026-04-12T20:22:51.411Z</time></trkpt><trkpt lat="51.4588576" lon="-0.193817"><ele>5.8</ele><time>2026-04-12T20:22:52.41Z</time></trkpt><trkpt lat="51.4588742" lon="-0.1937174"><ele>5.4</ele><time>2026-04-12T20:22:53.411Z</time></trkpt><trkpt lat="51.4588999" lon="-0.1935351"><ele>5.0</ele><time>2026-04-12T20:22:55.41Z</time></trkpt><trkpt lat="51.4589267" lon="-0.1933378"><ele>5.0</ele><time>2026-04-12T20:22:57.41Z</time></trkpt><trkpt lat="51.4589377" lon="-0.193215"><ele>5.0</ele><time>2026-04-12T20:22:58.411Z</time></trkpt><trkpt lat="51.4589424" lon="-0.1930607"><ele>5.0</ele><time>2026-04-12T20:22:59.41Z</time></trkpt><trkpt lat="51.4589421" lon="-0.1929006"><ele>5.0</ele><time>2026-04-12T20:23:00.411Z</time></trkpt><trkpt lat="51.4589346" lon="-0.1927505"><ele>5.0</ele><time>2026-04-12T20:23:01.411Z</time></trkpt><trkpt lat="51.4589238" lon="-0.1926083"><ele>5.166666666666667</ele><time>2026-04-12T20:23:02.41Z</time></trkpt><trkpt lat="51.458908" lon="-0.1924746"><ele>5.333333333333334</ele><time>2026-04-12T20:23:03.411Z</time></trkpt><trkpt lat="51.4588904" lon="-0.1923455"><ele>5.5</ele><time>2026-04-12T20:23:04.41Z</time></trkpt><trkpt lat="51.4588693" lon="-0.1922194"><ele>5.666666666666667</ele><time>2026-04-12T20:23:05.411Z</time></trkpt><trkpt lat="51.4588483" lon="-0.1920989"><ele>5.833333333333333</ele><time>2026-04-12T20:23:06.411Z</time></trkpt><trkpt lat="51.4588334" lon="-0.1919755"><ele>6.0</ele><time>2026-04-12T20:23:07.41Z</time></trkpt><trkpt lat="51.4588329" lon="-0.191849"><ele>6.333333333333333</ele><time>2026-04-12T20:23:08.411Z</time></trkpt><trkpt lat="51.458837" lon="-0.1917182"><ele>6.666666666666666</ele><time>2026-04-12T20:23:09.411Z</time></trkpt><trkpt lat="51.4588684" lon="-0.191592"><ele>7.0</ele><time>2026-04-12T20:23:10.41Z</time></trkpt><trkpt lat="51.4589094" lon="-0.1914795"><ele>7.333333333333333</ele><time>2026-04-12T20:23:11.41Z</time></trkpt><trkpt lat="51.4589494" lon="-0.1913724"><ele>7.666666666666666</ele><time>2026-04-12T20:23:12.411Z</time></trkpt><trkpt lat="51.4589886" lon="-0.1912635"><ele>8.0</ele><time>2026-04-12T20:23:13.411Z</time></trkpt><trkpt lat="51.4590228" lon="-0.1911719"><ele>7.999999999999999</ele><time>2026-04-12T20:23:14.411Z</time></trkpt><trkpt lat="51.459078" lon="-0.1910179"><ele>8.0</ele><time>2026-04-12T20:23:16.411Z</time></trkpt><trkpt lat="51.4591172" lon="-0.1909087"><ele>8.0</ele><time>2026-04-12T20:23:18.41Z</time></trkpt><trkpt lat="51.459148" lon="-0.1908106"><ele>8.0</ele><time>2026-04-12T20:23:21.411Z</time></trkpt><trkpt lat="51.4591522" lon="-0.1906926"><ele>7.999999999999999</ele><time>2026-04-12T20:23:36.412Z</time></trkpt><trkpt lat="51.4590803" lon="-0.190543"><ele>8.0</ele><time>2026-04-12T20:23:38.412Z</time></trkpt><trkpt lat="51.4590062" lon="-0.1905038"><ele>8.200000000000001</ele><time>2026-04-12T20:23:39.412Z</time></trkpt><trkpt lat="51.4589227" lon="-0.1904677"><ele>8.4</ele><time>2026-04-12T20:23:40.412Z</time></trkpt><trkpt lat="51.4588026" lon="-0.1904285"><ele>8.600000000000001</ele><time>2026-04-12T20:23:41.412Z</time></trkpt><trkpt lat="51.4586865" lon="-0.1903859"><ele>8.8</ele><time>2026-04-12T20:23:42.411Z</time></trkpt><trkpt lat="51.458577" lon="-0.1903481"><ele>9.0</ele><time>2026-04-12T20:23:43.412Z</time></trkpt><trkpt lat="51.4584744" lon="-0.190314"><ele>9.0</ele><time>2026-04-12T20:23:44.411Z</time></trkpt><trkpt lat="51.4583812" lon="-0.1902816"><ele>9.0</ele><time>2026-04-12T20:23:45.412Z</time></trkpt><trkpt lat="51.4582933" lon="-0.1902481"><ele>9.0</ele><time>2026-04-12T20:23:46.411Z</time></trkpt><trkpt lat="51.4582016" lon="-0.1902113"><ele>9.0</ele><time>2026-04-12T20:23:47.411Z</time></trkpt><trkpt lat="51.4581061" lon="-0.1901715"><ele>9.0</ele><time>2026-04-12T20:23:48.411Z</time></trkpt><trkpt lat="51.4580179" lon="-0.1901299"><ele>9.166666666666666</ele><time>2026-04-12T20:23:49.412Z</time></trkpt><trkpt lat="51.4579367" lon="-0.1900915"><ele>9.333333333333334</ele><time>2026-04-12T20:23:50.411Z</time></trkpt><trkpt lat="51.4578603" lon="-0.190056"><ele>9.5</ele><time>2026-04-12T20:23:51.411Z</time></trkpt><trkpt lat="51.4577897" lon="-0.1900215"><ele>9.666666666666668</ele><time>2026-04-12T20:23:52.412Z</time></trkpt><trkpt lat="51.4577194" lon="-0.1899873"><ele>9.833333333333334</ele><time>2026-04-12T20:23:53.411Z</time></trkpt><trkpt lat="51.4576407" lon="-0.1899519"><ele>10.0</ele><time>2026-04-12T20:23:54.411Z</time></trkpt><trkpt lat="51.4575564" lon="-0.1899137"><ele>10.0</ele><time>2026-04-12T20:23:55.411Z</time></trkpt><trkpt lat="51.4574661" lon="-0.1898737"><ele>10.0</ele><time>2026-04-12T20:23:56.412Z</time></trkpt><trkpt lat="51.4573715" lon="-0.18983"><ele>10.0</ele><time>2026-04-12T20:23:57.411Z</time></trkpt><trkpt lat="51.4572778" lon="-0.1897858"><ele>10.0</ele><time>2026-04-12T20:23:58.411Z</time></trkpt><trkpt lat="51.45719" lon="-0.1897466"><ele>10.0</ele><time>2026-04-12T20:23:59.412Z</time></trkpt><trkpt lat="51.4571065" lon="-0.1897114"><ele>10.333333333333334</ele><time>2026-04-12T20:24:00.412Z</time></trkpt><trkpt lat="51.4570277" lon="-0.1896762"><ele>10.666666666666668</ele><time>2026-04-12T20:24:01.412Z</time></trkpt><trkpt lat="51.4569691" lon="-0.1896315"><ele>11.0</ele><time>2026-04-12T20:24:02.412Z</time></trkpt><trkpt lat="51.4569237" lon="-0.1894507"><ele>11.333333333333334</ele><time>2026-04-12T20:24:04.412Z</time></trkpt><trkpt lat="51.4569299" lon="-0.1893316"><ele>11.666666666666666</ele><time>2026-04-12T20:24:05.412Z</time></trkpt><trkpt lat="51.4569572" lon="-0.1892039"><ele>12.0</ele><time>2026-04-12T20:24:06.411Z</time></trkpt><trkpt lat="51.4569885" lon="-0.189076"><ele>13.0</ele><time>2026-04-12T20:24:07.412Z</time></trkpt><trkpt lat="51.4570163" lon="-0.1889397"><ele>14.0</ele><time>2026-04-12T20:24:08.411Z</time></trkpt><trkpt lat="51.4570438" lon="-0.188798"><ele>15.0</ele><time>2026-04-12T20:24:09.411Z</time></trkpt><trkpt lat="51.4570737" lon="-0.1886585"><ele>16.0</ele><time>2026-04-12T20:24:10.411Z</time></trkpt><trkpt lat="51.4571025" lon="-0.1885262"><ele>17.0</ele><time>2026-04-12T20:24:11.411Z</time></trkpt><trkpt lat="51.4571314" lon="-0.1883938"><ele>18.0</ele><time>2026-04-12T20:24:12.412Z</time></trkpt><trkpt lat="51.4571581" lon="-0.1882621"><ele>18.666666666666668</ele><time>2026-04-12T20:24:13.411Z</time></trkpt><trkpt lat="51.4571832" lon="-0.1881293"><ele>19.333333333333332</ele><time>2026-04-12T20:24:14.411Z</time></trkpt><trkpt lat="51.4572087" lon="-0.1879952"><ele>20.0</ele><time>2026-04-12T20:24:15.412Z</time></trkpt><trkpt lat="51.4572358" lon="-0.1878602"><ele>20.666666666666664</ele><time>2026-04-12T20:24:16.412Z</time></trkpt><trkpt lat="51.4572606" lon="-0.1877195"><ele>21.333333333333332</ele><time>2026-04-12T20:24:17.412Z</time></trkpt><trkpt lat="51.4572858" lon="-0.1875748"><ele>22.0</ele><time>2026-04-12T20:24:18.412Z</time></trkpt><trkpt lat="51.4573111" lon="-0.1874241"><ele>22.0</ele><time>2026-04-12T20:24:19.412Z</time></trkpt><trkpt lat="51.457338" lon="-0.1872764"><ele>22.0</ele><time>2026-04-12T20:24:20.411Z</time></trkpt><trkpt lat="51.4573637" lon="-0.18714"><ele>22.0</ele><time>2026-04-12T20:24:21.412Z</time></trkpt><trkpt lat="51.4573897" lon="-0.1870024"><ele>22.0</ele><time>2026-04-12T20:24:22.411Z</time></trkpt><trkpt lat="51.457417" lon="-0.1868616"><ele>22.0</ele><time>2026-04-12T20:24:23.411Z</time></trkpt><trkpt lat="51.4574447" lon="-0.1867175"><ele>22.0</ele><time>2026-04-12T20:24:24.412Z</time></trkpt><trkpt lat="51.457473" lon="-0.1865713"><ele>22.0</ele><time>2026-04-12T20:24:25.411Z</time></trkpt><trkpt lat="51.4575025" lon="-0.1864255"><ele>22.0</ele><time>2026-04-12T20:24:26.412Z</time></trkpt><trkpt lat="51.4575326" lon="-0.1862829"><ele>22.0</ele><time>2026-04-12T20:24:27.413Z</time></trkpt><trkpt lat="51.4575605" lon="-0.1861466"><ele>22.0</ele><time>2026-04-12T20:24:28.411Z</time></trkpt><trkpt lat="51.4575862" lon="-0.1860119"><ele>22.166666666666664</ele><time>2026-04-12T20:24:29.413Z</time></trkpt><trkpt lat="51.4576111" lon="-0.1858743"><ele>22.333333333333332</ele><time>2026-04-12T20:24:30.412Z</time></trkpt><trkpt lat="51.4576347" lon="-0.1857428"><ele>22.5</ele><time>2026-04-12T20:24:31.412Z</time></trkpt><trkpt lat="51.457659" lon="-0.1855978"><ele>22.666666666666668</ele><time>2026-04-12T20:24:32.413Z</time></trkpt><trkpt lat="51.4576827" lon="-0.1854605"><ele>22.833333333333336</ele><time>2026-04-12T20:24:33.412Z</time></trkpt><trkpt lat="51.4577069" lon="-0.1853214"><ele>23.0</ele><time>2026-04-12T20:24:34.412Z</time></trkpt><trkpt lat="51.4577332" lon="-0.1851808"><ele>22.799999999999997</ele><time>2026-04-12T20:24:35.413Z</time></trkpt><trkpt lat="51.457758" lon="-0.1850404"><ele>22.6</ele><time>2026-04-12T20:24:36.412Z</time></trkpt><trkpt lat="51.457804" lon="-0.1849205"><ele>22.4</ele><time>2026-04-12T20:24:37.412Z</time></trkpt><trkpt lat="51.4578596" lon="-0.1847989"><ele>22.200000000000003</ele><time>2026-04-12T20:24:38.413Z</time></trkpt><trkpt lat="51.4579136" lon="-0.1846817"><ele>22.0</ele><time>2026-04-12T20:24:39.412Z</time></trkpt><trkpt lat="51.4579663" lon="-0.1845691"><ele>22.0</ele><time>2026-04-12T20:24:40.413Z</time></trkpt><trkpt lat="51.4580205" lon="-0.1844509"><ele>22.0</ele><time>2026-04-12T20:24:41.412Z</time></trkpt><trkpt lat="51.4580738" lon="-0.1843278"><ele>22.0</ele><time>2026-04-12T20:24:42.412Z</time></trkpt><trkpt lat="51.4581284" lon="-0.1842017"><ele>22.0</ele><time>2026-04-12T20:24:43.413Z</time></trkpt><trkpt lat="51.4581804" lon="-0.1840762"><ele>22.0</ele><time>2026-04-12T20:24:44.412Z</time></trkpt><trkpt lat="51.4582299" lon="-0.1839579"><ele>22.166666666666664</ele><time>2026-04-12T20:24:45.413Z</time></trkpt><trkpt lat="51.458276" lon="-0.1838415"><ele>22.333333333333332</ele><time>2026-04-12T20:24:46.412Z</time></trkpt><trkpt lat="51.4583232" lon="-0.1837258"><ele>22.5</ele><time>2026-04-12T20:24:47.413Z</time></trkpt><trkpt lat="51.4583739" lon="-0.1836047"><ele>22.666666666666668</ele><time>2026-04-12T20:24:48.413Z</time></trkpt><trkpt lat="51.458423" lon="-0.1834898"><ele>22.833333333333336</ele><time>2026-04-12T20:24:49.412Z</time></trkpt><trkpt lat="51.4584698" lon="-0.1833774"><ele>23.0</ele><time>2026-04-12T20:24:50.412Z</time></trkpt><trkpt lat="51.4585161" lon="-0.1832679"><ele>23.166666666666668</ele><time>2026-04-12T20:24:51.412Z</time></trkpt><trkpt lat="51.4585651" lon="-0.1831508"><ele>23.333333333333336</ele><time>2026-04-12T20:24:52.413Z</time></trkpt><trkpt lat="51.4586133" lon="-0.1830333"><ele>23.5</ele><time>2026-04-12T20:24:53.413Z</time></trkpt><trkpt lat="51.4586641" lon="-0.182919"><ele>23.666666666666668</ele><time>2026-04-12T20:24:54.413Z</time></trkpt><trkpt lat="51.4587121" lon="-0.1828054"><ele>23.833333333333332</ele><time>2026-04-12T20:24:55.412Z</time></trkpt><trkpt lat="51.4587604" lon="-0.1826883"><ele>24.0</ele><time>2026-04-12T20:24:56.413Z</time></trkpt><trkpt lat="51.458808" lon="-0.1825667"><ele>23.2</ele><time>2026-04-12T20:24:57.413Z</time></trkpt><trkpt lat="51.4588587" lon="-0.1824418"><ele>22.4</ele><time>2026-04-12T20:24:58.413Z</time></trkpt><trkpt lat="51.4589066" lon="-0.1823167"><ele>21.6</ele><time>2026-04-12T20:24:59.413Z</time></trkpt><trkpt lat="51.458953" lon="-0.1821907"><ele>20.8</ele><time>2026-04-12T20:25:00.413Z</time></trkpt><trkpt lat="51.4589981" lon="-0.182068"><ele>20.0</ele><time>2026-04-12T20:25:01.413Z</time></trkpt><trkpt lat="51.4590424" lon="-0.1819452"><ele>20.0</ele><time>2026-04-12T20:25:02.412Z</time></trkpt><trkpt lat="51.4590833" lon="-0.1818196"><ele>20.0</ele><time>2026-04-12T20:25:03.412Z</time></trkpt><trkpt lat="51.4591217" lon="-0.1816968"><ele>20.0</ele><time>2026-04-12T20:25:04.413Z</time></trkpt><trkpt lat="51.4591626" lon="-0.1815685"><ele>20.0</ele><time>2026-04-12T20:25:05.413Z</time></trkpt><trkpt lat="51.4592028" lon="-0.1814331"><ele>20.0</ele><time>2026-04-12T20:25:06.413Z</time></trkpt><trkpt lat="51.4592441" lon="-0.1813042"><ele>20.0</ele><time>2026-04-12T20:25:07.413Z</time></trkpt><trkpt lat="51.4592842" lon="-0.1811685"><ele>20.0</ele><time>2026-04-12T20:25:08.412Z</time></trkpt><trkpt lat="51.4593226" lon="-0.1810373"><ele>20.0</ele><time>2026-04-12T20:25:09.412Z</time></trkpt><trkpt lat="51.459361" lon="-0.1809066"><ele>20.0</ele><time>2026-04-12T20:25:10.413Z</time></trkpt><trkpt lat="51.459393" lon="-0.1807826"><ele>20.0</ele><time>2026-04-12T20:25:11.412Z</time></trkpt><trkpt lat="51.4594229" lon="-0.1806656"><ele>20.0</ele><time>2026-04-12T20:25:12.412Z</time></trkpt><trkpt lat="51.4594471" lon="-0.1805609"><ele>20.0</ele><time>2026-04-12T20:25:13.412Z</time></trkpt><trkpt lat="51.4594707" lon="-0.18046"><ele>20.2</ele><time>2026-04-12T20:25:14.412Z</time></trkpt><trkpt lat="51.4594925" lon="-0.1803615"><ele>20.4</ele><time>2026-04-12T20:25:15.413Z</time></trkpt><trkpt lat="51.4595265" lon="-0.1801817"><ele>20.6</ele><time>2026-04-12T20:25:17.412Z</time></trkpt><trkpt lat="51.4595127" lon="-0.1799811"><ele>20.8</ele><time>2026-04-12T20:25:19.413Z</time></trkpt><trkpt lat="51.4594521" lon="-0.1798244"><ele>21.0</ele><time>2026-04-12T20:25:21.412Z</time></trkpt><trkpt lat="51.4593693" lon="-0.1797626"><ele>21.0</ele><time>2026-04-12T20:25:23.412Z</time></trkpt><trkpt lat="51.4593002" lon="-0.1797146"><ele>21.0</ele><time>2026-04-12T20:25:24.412Z</time></trkpt><trkpt lat="51.4592222" lon="-0.1796666"><ele>21.0</ele><time>2026-04-12T20:25:25.413Z</time></trkpt><trkpt lat="51.4591158" lon="-0.1796036"><ele>21.0</ele><time>2026-04-12T20:25:26.413Z</time></trkpt><trkpt lat="51.4590064" lon="-0.1795514"><ele>21.0</ele><time>2026-04-12T20:25:27.413Z</time></trkpt><trkpt lat="51.458907" lon="-0.1795147"><ele>21.0</ele><time>2026-04-12T20:25:28.413Z</time></trkpt><trkpt lat="51.4588162" lon="-0.1794826"><ele>21.0</ele><time>2026-04-12T20:25:29.413Z</time></trkpt><trkpt lat="51.4587272" lon="-0.179455"><ele>21.0</ele><time>2026-04-12T20:25:30.413Z</time></trkpt><trkpt lat="51.4586486" lon="-0.1794364"><ele>21.0</ele><time>2026-04-12T20:25:31.413Z</time></trkpt><trkpt lat="51.4585729" lon="-0.1794193"><ele>21.0</ele><time>2026-04-12T20:25:32.413Z</time></trkpt><trkpt lat="51.4585062" lon="-0.1794016"><ele>21.0</ele><time>2026-04-12T20:25:33.413Z</time></trkpt><trkpt lat="51.4584416" lon="-0.179379"><ele>21.0</ele><time>2026-04-12T20:25:34.414Z</time></trkpt><trkpt lat="51.4583446" lon="-0.1792654"><ele>21.0</ele><time>2026-04-12T20:25:36.414Z</time></trkpt><trkpt lat="51.4583198" lon="-0.1791646"><ele>21.0</ele><time>2026-04-12T20:25:37.414Z</time></trkpt><trkpt lat="51.4583047" lon="-0.1790588"><ele>21.0</ele><time>2026-04-12T20:25:38.414Z</time></trkpt><trkpt lat="51.4583123" lon="-0.1789316"><ele>21.0</ele><time>2026-04-12T20:25:39.414Z</time></trkpt><trkpt lat="51.4583216" lon="-0.1788066"><ele>21.0</ele><time>2026-04-12T20:25:40.414Z</time></trkpt><trkpt lat="51.4583283" lon="-0.1786785"><ele>21.0</ele><time>2026-04-12T20:25:41.413Z</time></trkpt><trkpt lat="51.4583383" lon="-0.1785483"><ele>21.0</ele><time>2026-04-12T20:25:42.414Z</time></trkpt><trkpt lat="51.4583479" lon="-0.1784198"><ele>21.0</ele><time>2026-04-12T20:25:43.413Z</time></trkpt><trkpt lat="51.4583557" lon="-0.1782926"><ele>21.0</ele><time>2026-04-12T20:25:44.414Z</time></trkpt><trkpt lat="51.4583647" lon="-0.1781715"><ele>21.0</ele><time>2026-04-12T20:25:45.413Z</time></trkpt><trkpt lat="51.458372" lon="-0.1780489"><ele>21.0</ele><time>2026-04-12T20:25:46.414Z</time></trkpt><trkpt lat="51.4583793" lon="-0.1779242"><ele>21.333333333333332</ele><time>2026-04-12T20:25:47.413Z</time></trkpt><trkpt lat="51.4583863" lon="-0.1778007"><ele>21.666666666666668</ele><time>2026-04-12T20:25:48.414Z</time></trkpt><trkpt lat="51.4583927" lon="-0.1776766"><ele>22.0</ele><time>2026-04-12T20:25:49.414Z</time></trkpt><trkpt lat="51.4583994" lon="-0.1775515"><ele>22.333333333333336</ele><time>2026-04-12T20:25:50.414Z</time></trkpt><trkpt lat="51.4584073" lon="-0.1774207"><ele>22.666666666666668</ele><time>2026-04-12T20:25:51.414Z</time></trkpt><trkpt lat="51.4584133" lon="-0.1772896"><ele>23.0</ele><time>2026-04-12T20:25:52.414Z</time></trkpt><trkpt lat="51.4584185" lon="-0.1771624"><ele>23.333333333333336</ele><time>2026-04-12T20:25:53.413Z</time></trkpt><trkpt lat="51.4584243" lon="-0.1770347"><ele>23.666666666666668</ele><time>2026-04-12T20:25:54.414Z</time></trkpt><trkpt lat="51.4584307" lon="-0.1769059"><ele>24.0</ele><time>2026-04-12T20:25:55.413Z</time></trkpt><trkpt lat="51.4584372" lon="-0.1767774"><ele>24.333333333333336</ele><time>2026-04-12T20:25:56.414Z</time></trkpt><trkpt lat="51.4584456" lon="-0.1766495"><ele>24.666666666666668</ele><time>2026-04-12T20:25:57.414Z</time></trkpt><trkpt lat="51.4584526" lon="-0.1765225"><ele>25.0</ele><time>2026-04-12T20:25:58.414Z</time></trkpt><trkpt lat="51.4584589" lon="-0.1763996"><ele>25.000000000000004</ele><time>2026-04-12T20:25:59.413Z</time></trkpt><trkpt lat="51.4584656" lon="-0.1762816"><ele>25.0</ele><time>2026-04-12T20:26:00.413Z</time></trkpt><trkpt lat="51.4584717" lon="-0.1761675"><ele>25.0</ele><time>2026-04-12T20:26:01.414Z</time></trkpt><trkpt lat="51.4584774" lon="-0.1760558"><ele>25.0</ele><time>2026-04-12T20:26:02.414Z</time></trkpt><trkpt lat="51.4584825" lon="-0.1759472"><ele>25.0</ele><time>2026-04-12T20:26:03.413Z</time></trkpt><trkpt lat="51.4584889" lon="-0.1758429"><ele>25.000000000000004</ele><time>2026-04-12T20:26:04.413Z</time></trkpt><trkpt lat="51.4584955" lon="-0.1757417"><ele>25.0</ele><time>2026-04-12T20:26:05.413Z</time></trkpt><trkpt lat="51.4585081" lon="-0.1755352"><ele>24.833333333333336</ele><time>2026-04-12T20:26:07.414Z</time></trkpt><trkpt lat="51.4585162" lon="-0.1754254"><ele>24.666666666666668</ele><time>2026-04-12T20:26:08.413Z</time></trkpt><trkpt lat="51.4585271" lon="-0.175316"><ele>24.5</ele><time>2026-04-12T20:26:09.414Z</time></trkpt><trkpt lat="51.4585397" lon="-0.1752128"><ele>24.333333333333336</ele><time>2026-04-12T20:26:10.413Z</time></trkpt><trkpt lat="51.4585568" lon="-0.1751126"><ele>24.166666666666668</ele><time>2026-04-12T20:26:11.414Z</time></trkpt><trkpt lat="51.4585789" lon="-0.1750145"><ele>24.0</ele><time>2026-04-12T20:26:12.413Z</time></trkpt><trkpt lat="51.4586313" lon="-0.1748319"><ele>23.6</ele><time>2026-04-12T20:26:14.414Z</time></trkpt><trkpt lat="51.4586847" lon="-0.1746627"><ele>23.2</ele><time>2026-04-12T20:26:16.414Z</time></trkpt><trkpt lat="51.4587333" lon="-0.1745154"><ele>22.8</ele><time>2026-04-12T20:26:18.413Z</time></trkpt><trkpt lat="51.4587897" lon="-0.1743493"><ele>22.400000000000002</ele><time>2026-04-12T20:26:20.414Z</time></trkpt><trkpt lat="51.4588233" lon="-0.1742565"><ele>22.0</ele><time>2026-04-12T20:26:21.414Z</time></trkpt><trkpt lat="51.4588557" lon="-0.1741656"><ele>22.0</ele><time>2026-04-12T20:26:22.414Z</time></trkpt><trkpt lat="51.4588902" lon="-0.174074"><ele>22.0</ele><time>2026-04-12T20:26:23.413Z</time></trkpt><trkpt lat="51.4589222" lon="-0.1739859"><ele>22.0</ele><time>2026-04-12T20:26:24.414Z</time></trkpt><trkpt lat="51.4589546" lon="-0.1738952"><ele>22.0</ele><time>2026-04-12T20:26:25.413Z</time></trkpt><trkpt lat="51.4590212" lon="-0.173717"><ele>22.0</ele><time>2026-04-12T20:26:27.414Z</time></trkpt><trkpt lat="51.4590537" lon="-0.1736273"><ele>22.0</ele><time>2026-04-12T20:26:28.414Z</time></trkpt><trkpt lat="51.4591106" lon="-0.1734578"><ele>21.666666666666664</ele><time>2026-04-12T20:26:30.414Z</time></trkpt><trkpt lat="51.4591706" lon="-0.1732876"><ele>21.333333333333332</ele><time>2026-04-12T20:26:32.414Z</time></trkpt><trkpt lat="51.4592018" lon="-0.1731995"><ele>21.0</ele><time>2026-04-12T20:26:33.413Z</time></trkpt><trkpt lat="51.4592351" lon="-0.1731088"><ele>20.666666666666668</ele><time>2026-04-12T20:26:34.413Z</time></trkpt><trkpt lat="51.4592681" lon="-0.1730136"><ele>20.333333333333336</ele><time>2026-04-12T20:26:35.414Z</time></trkpt><trkpt lat="51.4593014" lon="-0.1729232"><ele>20.0</ele><time>2026-04-12T20:26:36.414Z</time></trkpt><trkpt lat="51.459362" lon="-0.1727572"><ele>19.833333333333336</ele><time>2026-04-12T20:26:38.414Z</time></trkpt><trkpt lat="51.4594225" lon="-0.1725845"><ele>19.666666666666668</ele><time>2026-04-12T20:26:40.415Z</time></trkpt><trkpt lat="51.4594564" lon="-0.172491"><ele>19.5</ele><time>2026-04-12T20:26:41.415Z</time></trkpt><trkpt lat="51.4594901" lon="-0.1723927"><ele>19.333333333333332</ele><time>2026-04-12T20:26:42.414Z</time></trkpt><trkpt lat="51.4595233" lon="-0.172297"><ele>19.166666666666664</ele><time>2026-04-12T20:26:43.415Z</time></trkpt><trkpt lat="51.4595545" lon="-0.1722079"><ele>19.0</ele><time>2026-04-12T20:26:44.414Z</time></trkpt><trkpt lat="51.4596144" lon="-0.172041"><ele>19.333333333333332</ele><time>2026-04-12T20:26:46.415Z</time></trkpt><trkpt lat="51.4596483" lon="-0.1719538"><ele>19.666666666666664</ele><time>2026-04-12T20:26:47.415Z</time></trkpt><trkpt lat="51.4596842" lon="-0.1718621"><ele>20.0</ele><time>2026-04-12T20:26:48.414Z</time></trkpt><trkpt lat="51.4597162" lon="-0.17177"><ele>20.333333333333332</ele><time>2026-04-12T20:26:49.415Z</time></trkpt><trkpt lat="51.4597473" lon="-0.171682"><ele>20.666666666666668</ele><time>2026-04-12T20:26:50.415Z</time></trkpt><trkpt lat="51.4598069" lon="-0.1715175"><ele>21.0</ele><time>2026-04-12T20:26:52.415Z</time></trkpt><trkpt lat="51.4598443" lon="-0.1714048"><ele>21.0</ele><time>2026-04-12T20:26:53.415Z</time></trkpt><trkpt lat="51.4598871" lon="-0.1712722"><ele>21.0</ele><time>2026-04-12T20:26:54.415Z</time></trkpt><trkpt lat="51.4599306" lon="-0.1711447"><ele>21.0</ele><time>2026-04-12T20:26:55.415Z</time></trkpt><trkpt lat="51.459974" lon="-0.1710245"><ele>21.0</ele><time>2026-04-12T20:26:56.414Z</time></trkpt><trkpt lat="51.460015" lon="-0.1709086"><ele>21.0</ele><time>2026-04-12T20:26:57.415Z</time></trkpt><trkpt lat="51.4600551" lon="-0.1707943"><ele>21.0</ele><time>2026-04-12T20:26:58.415Z</time></trkpt><trkpt lat="51.4600943" lon="-0.1706798"><ele>21.0</ele><time>2026-04-12T20:26:59.414Z</time></trkpt><trkpt lat="51.4601313" lon="-0.1705733"><ele>21.0</ele><time>2026-04-12T20:27:00.415Z</time></trkpt><trkpt lat="51.4601681" lon="-0.1704631"><ele>21.0</ele><time>2026-04-12T20:27:01.415Z</time></trkpt><trkpt lat="51.4602071" lon="-0.1703506"><ele>21.0</ele><time>2026-04-12T20:27:02.414Z</time></trkpt><trkpt lat="51.460246" lon="-0.1702397"><ele>21.0</ele><time>2026-04-12T20:27:03.415Z</time></trkpt><trkpt lat="51.4602848" lon="-0.1701297"><ele>21.0</ele><time>2026-04-12T20:27:04.415Z</time></trkpt><trkpt lat="51.4603227" lon="-0.170021"><ele>21.0</ele><time>2026-04-12T20:27:05.415Z</time></trkpt><trkpt lat="51.4603608" lon="-0.1699115"><ele>21.0</ele><time>2026-04-12T20:27:06.415Z</time></trkpt><trkpt lat="51.4603971" lon="-0.1698004"><ele>21.0</ele><time>2026-04-12T20:27:07.414Z</time></trkpt><trkpt lat="51.4604313" lon="-0.1696869"><ele>21.0</ele><time>2026-04-12T20:27:08.415Z</time></trkpt><trkpt lat="51.4604643" lon="-0.1695738"><ele>21.0</ele><time>2026-04-12T20:27:09.415Z</time></trkpt><trkpt lat="51.4604956" lon="-0.1694591"><ele>21.0</ele><time>2026-04-12T20:27:10.415Z</time></trkpt><trkpt lat="51.4605245" lon="-0.1693413"><ele>20.166666666666668</ele><time>2026-04-12T20:27:11.415Z</time></trkpt><trkpt lat="51.460551" lon="-0.1692228"><ele>19.333333333333332</ele><time>2026-04-12T20:27:12.415Z</time></trkpt><trkpt lat="51.4605748" lon="-0.1691036"><ele>18.5</ele><time>2026-04-12T20:27:13.414Z</time></trkpt><trkpt lat="51.4605964" lon="-0.168983"><ele>17.666666666666664</ele><time>2026-04-12T20:27:14.414Z</time></trkpt><trkpt lat="51.460617" lon="-0.1688634"><ele>16.833333333333332</ele><time>2026-04-12T20:27:15.415Z</time></trkpt><trkpt lat="51.4606357" lon="-0.1687454"><ele>16.0</ele><time>2026-04-12T20:27:16.415Z</time></trkpt><trkpt lat="51.4606548" lon="-0.1686285"><ele>15.714285714285714</ele><time>2026-04-12T20:27:17.414Z</time></trkpt><trkpt lat="51.4606729" lon="-0.1685123"><ele>15.428571428571427</ele><time>2026-04-12T20:27:18.414Z</time></trkpt><trkpt lat="51.4606909" lon="-0.168396"><ele>15.142857142857142</ele><time>2026-04-12T20:27:19.415Z</time></trkpt><trkpt lat="51.4607077" lon="-0.1682791"><ele>14.857142857142858</ele><time>2026-04-12T20:27:20.414Z</time></trkpt><trkpt lat="51.4607222" lon="-0.1681654"><ele>14.571428571428571</ele><time>2026-04-12T20:27:21.414Z</time></trkpt><trkpt lat="51.4607367" lon="-0.1680621"><ele>14.285714285714285</ele><time>2026-04-12T20:27:22.415Z</time></trkpt><trkpt lat="51.4607511" lon="-0.16796"><ele>14.0</ele><time>2026-04-12T20:27:23.414Z</time></trkpt><trkpt lat="51.460776" lon="-0.1677761"><ele>14.0</ele><time>2026-04-12T20:27:25.415Z</time></trkpt><trkpt lat="51.4607995" lon="-0.167617"><ele>13.999999999999998</ele><time>2026-04-12T20:27:27.414Z</time></trkpt><trkpt lat="51.4608166" lon="-0.1674855"><ele>13.999999999999998</ele><time>2026-04-12T20:27:29.415Z</time></trkpt><trkpt lat="51.4608333" lon="-0.1673654"><ele>14.0</ele><time>2026-04-12T20:27:37.414Z</time></trkpt><trkpt lat="51.4608529" lon="-0.1671887"><ele>14.0</ele><time>2026-04-12T20:27:39.415Z</time></trkpt><trkpt lat="51.460853" lon="-0.1670601"><ele>14.0</ele><time>2026-04-12T20:27:40.414Z</time></trkpt><trkpt lat="51.4608467" lon="-0.1669085"><ele>13.999999999999998</ele><time>2026-04-12T20:27:41.416Z</time></trkpt><trkpt lat="51.4608416" lon="-0.1667441"><ele>13.999999999999998</ele><time>2026-04-12T20:27:42.415Z</time></trkpt><trkpt lat="51.4608427" lon="-0.1665741"><ele>14.0</ele><time>2026-04-12T20:27:43.415Z</time></trkpt><trkpt lat="51.4608469" lon="-0.1664196"><ele>14.0</ele><time>2026-04-12T20:27:44.416Z</time></trkpt><trkpt lat="51.4608514" lon="-0.166284"><ele>14.2</ele><time>2026-04-12T20:27:45.416Z</time></trkpt><trkpt lat="51.4608557" lon="-0.1661627"><ele>14.399999999999999</ele><time>2026-04-12T20:27:46.415Z</time></trkpt><trkpt lat="51.4608587" lon="-0.1660527"><ele>14.6</ele><time>2026-04-12T20:27:47.416Z</time></trkpt><trkpt lat="51.4608668" lon="-0.1658549"><ele>14.8</ele><time>2026-04-12T20:27:49.415Z</time></trkpt><trkpt lat="51.4608749" lon="-0.1657441"><ele>15.0</ele><time>2026-04-12T20:27:50.416Z</time></trkpt><trkpt lat="51.4608954" lon="-0.1655618"><ele>15.5</ele><time>2026-04-12T20:27:52.415Z</time></trkpt><trkpt lat="51.4609115" lon="-0.1653951"><ele>16.0</ele><time>2026-04-12T20:27:54.416Z</time></trkpt><trkpt lat="51.4609163" lon="-0.1652848"><ele>16.5</ele><time>2026-04-12T20:27:55.415Z</time></trkpt><trkpt lat="51.4609204" lon="-0.1651606"><ele>17.0</ele><time>2026-04-12T20:27:56.415Z</time></trkpt><trkpt lat="51.4609253" lon="-0.1650269"><ele>17.5</ele><time>2026-04-12T20:27:57.416Z</time></trkpt><trkpt lat="51.4609331" lon="-0.1648877"><ele>18.0</ele><time>2026-04-12T20:27:58.416Z</time></trkpt><trkpt lat="51.460942" lon="-0.1647448"><ele>18.333333333333332</ele><time>2026-04-12T20:27:59.416Z</time></trkpt><trkpt lat="51.4609497" lon="-0.1646117"><ele>18.666666666666668</ele><time>2026-04-12T20:28:00.416Z</time></trkpt><trkpt lat="51.4609547" lon="-0.1644956"><ele>19.0</ele><time>2026-04-12T20:28:01.416Z</time></trkpt><trkpt lat="51.4609595" lon="-0.1643912"><ele>19.333333333333336</ele><time>2026-04-12T20:28:02.416Z</time></trkpt><trkpt lat="51.4609689" lon="-0.1642041"><ele>19.666666666666668</ele><time>2026-04-12T20:28:04.415Z</time></trkpt><trkpt lat="51.4609723" lon="-0.1641029"><ele>20.0</ele><time>2026-04-12T20:28:05.416Z</time></trkpt><trkpt lat="51.4609748" lon="-0.1639928"><ele>20.142857142857142</ele><time>2026-04-12T20:28:06.416Z</time></trkpt><trkpt lat="51.4609788" lon="-0.163879"><ele>20.285714285714285</ele><time>2026-04-12T20:28:07.416Z</time></trkpt><trkpt lat="51.4609838" lon="-0.1637704"><ele>20.42857142857143</ele><time>2026-04-12T20:28:08.416Z</time></trkpt><trkpt lat="51.4609944" lon="-0.1636551"><ele>20.57142857142857</ele><time>2026-04-12T20:28:09.416Z</time></trkpt><trkpt lat="51.4610042" lon="-0.1635371"><ele>20.714285714285715</ele><time>2026-04-12T20:28:10.415Z</time></trkpt><trkpt lat="51.4610124" lon="-0.1634139"><ele>20.857142857142858</ele><time>2026-04-12T20:28:11.415Z</time></trkpt><trkpt lat="51.4610186" lon="-0.1632774"><ele>21.0</ele><time>2026-04-12T20:28:12.416Z</time></trkpt><trkpt lat="51.4610265" lon="-0.1631256"><ele>21.25</ele><time>2026-04-12T20:28:13.416Z</time></trkpt><trkpt lat="51.4610349" lon="-0.1629481"><ele>21.5</ele><time>2026-04-12T20:28:14.415Z</time></trkpt><trkpt lat="51.4610488" lon="-0.1627292"><ele>21.75</ele><time>2026-04-12T20:28:15.415Z</time></trkpt><trkpt lat="51.4610618" lon="-0.162508"><ele>22.0</ele><time>2026-04-12T20:28:16.415Z</time></trkpt><trkpt lat="51.461081" lon="-0.1622994"><ele>22.0</ele><time>2026-04-12T20:28:17.416Z</time></trkpt><trkpt lat="51.4610967" lon="-0.1620645"><ele>22.0</ele><time>2026-04-12T20:28:18.415Z</time></trkpt><trkpt lat="51.4611123" lon="-0.1618361"><ele>22.0</ele><time>2026-04-12T20:28:19.415Z</time></trkpt><trkpt lat="51.4611279" lon="-0.1616275"><ele>22.0</ele><time>2026-04-12T20:28:20.416Z</time></trkpt><trkpt lat="51.4611399" lon="-0.1614342"><ele>22.0</ele><time>2026-04-12T20:28:21.416Z</time></trkpt><trkpt lat="51.4611514" lon="-0.1612539"><ele>22.0</ele><time>2026-04-12T20:28:22.416Z</time></trkpt><trkpt lat="51.4611616" lon="-0.1610867"><ele>22.0</ele><time>2026-04-12T20:28:23.416Z</time></trkpt><trkpt lat="51.4611698" lon="-0.1609252"><ele>22.0</ele><time>2026-04-12T20:28:24.416Z</time></trkpt><trkpt lat="51.4611796" lon="-0.1607557"><ele>22.0</ele><time>2026-04-12T20:28:25.415Z</time></trkpt><trkpt lat="51.4611888" lon="-0.1605822"><ele>21.8</ele><time>2026-04-12T20:28:26.416Z</time></trkpt><trkpt lat="51.4611978" lon="-0.1604124"><ele>21.6</ele><time>2026-04-12T20:28:27.415Z</time></trkpt><trkpt lat="51.4612081" lon="-0.1602495"><ele>21.400000000000002</ele><time>2026-04-12T20:28:28.416Z</time></trkpt><trkpt lat="51.4612214" lon="-0.1600887"><ele>21.200000000000003</ele><time>2026-04-12T20:28:29.416Z</time></trkpt><trkpt lat="51.461235" lon="-0.1599299"><ele>21.0</ele><time>2026-04-12T20:28:30.416Z</time></trkpt><trkpt lat="51.4612507" lon="-0.1597699"><ele>21.0</ele><time>2026-04-12T20:28:31.416Z</time></trkpt><trkpt lat="51.4612697" lon="-0.1596109"><ele>21.0</ele><time>2026-04-12T20:28:32.416Z</time></trkpt><trkpt lat="51.4612877" lon="-0.1594497"><ele>21.0</ele><time>2026-04-12T20:28:33.415Z</time></trkpt><trkpt lat="51.4613019" lon="-0.159285"><ele>21.0</ele><time>2026-04-12T20:28:34.415Z</time></trkpt><trkpt lat="51.4613146" lon="-0.1591151"><ele>21.0</ele><time>2026-04-12T20:28:35.416Z</time></trkpt><trkpt lat="51.4613252" lon="-0.1589407"><ele>21.6</ele><time>2026-04-12T20:28:36.415Z</time></trkpt><trkpt lat="51.461332" lon="-0.1587697"><ele>22.200000000000003</ele><time>2026-04-12T20:28:37.415Z</time></trkpt><trkpt lat="51.4613336" lon="-0.1586012"><ele>22.799999999999997</ele><time>2026-04-12T20:28:38.416Z</time></trkpt><trkpt lat="51.4613329" lon="-0.1584395"><ele>23.4</ele><time>2026-04-12T20:28:39.416Z</time></trkpt><trkpt lat="51.4613335" lon="-0.1582875"><ele>24.0</ele><time>2026-04-12T20:28:40.416Z</time></trkpt><trkpt lat="51.4613348" lon="-0.1581423"><ele>24.0</ele><time>2026-04-12T20:28:41.416Z</time></trkpt><trkpt lat="51.4613348" lon="-0.1580018"><ele>24.0</ele><time>2026-04-12T20:28:42.416Z</time></trkpt><trkpt lat="51.4613356" lon="-0.1578642"><ele>24.0</ele><time>2026-04-12T20:28:43.415Z</time></trkpt><trkpt lat="51.4613361" lon="-0.1577313"><ele>24.0</ele><time>2026-04-12T20:28:44.416Z</time></trkpt><trkpt lat="51.4613347" lon="-0.1576049"><ele>24.0</ele><time>2026-04-12T20:28:45.416Z</time></trkpt><trkpt lat="51.4613328" lon="-0.1574813"><ele>24.0</ele><time>2026-04-12T20:28:46.416Z</time></trkpt><trkpt lat="51.4613308" lon="-0.1573537"><ele>24.166666666666668</ele><time>2026-04-12T20:28:47.416Z</time></trkpt><trkpt lat="51.4613297" lon="-0.1572284"><ele>24.333333333333336</ele><time>2026-04-12T20:28:48.415Z</time></trkpt><trkpt lat="51.4613295" lon="-0.1571054"><ele>24.5</ele><time>2026-04-12T20:28:49.416Z</time></trkpt><trkpt lat="51.4613294" lon="-0.1569887"><ele>24.666666666666668</ele><time>2026-04-12T20:28:50.416Z</time></trkpt><trkpt lat="51.4613302" lon="-0.1568798"><ele>24.833333333333336</ele><time>2026-04-12T20:28:51.415Z</time></trkpt><trkpt lat="51.461329" lon="-0.156773"><ele>25.0</ele><time>2026-04-12T20:28:52.417Z</time></trkpt><trkpt lat="51.4612941" lon="-0.156587"><ele>24.857142857142858</ele><time>2026-04-12T20:28:54.417Z</time></trkpt><trkpt lat="51.4612496" lon="-0.1565112"><ele>24.714285714285715</ele><time>2026-04-12T20:28:55.417Z</time></trkpt><trkpt lat="51.461191" lon="-0.1564671"><ele>24.57142857142857</ele><time>2026-04-12T20:28:56.417Z</time></trkpt><trkpt lat="51.461126" lon="-0.1564499"><ele>24.42857142857143</ele><time>2026-04-12T20:28:57.416Z</time></trkpt><trkpt lat="51.461057" lon="-0.1564354"><ele>24.285714285714285</ele><time>2026-04-12T20:28:58.416Z</time></trkpt><trkpt lat="51.4609861" lon="-0.1564227"><ele>24.142857142857142</ele><time>2026-04-12T20:28:59.416Z</time></trkpt><trkpt lat="51.460919" lon="-0.156417"><ele>24.0</ele><time>2026-04-12T20:29:00.417Z</time></trkpt><trkpt lat="51.4608529" lon="-0.1564148"><ele>23.999999999999996</ele><time>2026-04-12T20:29:01.417Z</time></trkpt><trkpt lat="51.4607845" lon="-0.1564123"><ele>24.0</ele><time>2026-04-12T20:29:02.416Z</time></trkpt><trkpt lat="51.4607163" lon="-0.1564142"><ele>24.0</ele><time>2026-04-12T20:29:03.417Z</time></trkpt><trkpt lat="51.46065" lon="-0.1564203"><ele>24.0</ele><time>2026-04-12T20:29:04.417Z</time></trkpt><trkpt lat="51.4605821" lon="-0.1564263"><ele>24.0</ele><time>2026-04-12T20:29:05.416Z</time></trkpt><trkpt lat="51.4605119" lon="-0.1564297"><ele>23.999999999999996</ele><time>2026-04-12T20:29:06.417Z</time></trkpt><trkpt lat="51.4604455" lon="-0.156436"><ele>24.0</ele><time>2026-04-12T20:29:07.417Z</time></trkpt><trkpt lat="51.4603775" lon="-0.1564459"><ele>23.857142857142854</ele><time>2026-04-12T20:29:08.416Z</time></trkpt><trkpt lat="51.4603087" lon="-0.1564569"><ele>23.714285714285715</ele><time>2026-04-12T20:29:09.416Z</time></trkpt><trkpt lat="51.4602426" lon="-0.1564665"><ele>23.57142857142857</ele><time>2026-04-12T20:29:10.417Z</time></trkpt><trkpt lat="51.4601751" lon="-0.1564759"><ele>23.428571428571427</ele><time>2026-04-12T20:29:11.416Z</time></trkpt><trkpt lat="51.4601089" lon="-0.1564846"><ele>23.285714285714285</ele><time>2026-04-12T20:29:12.417Z</time></trkpt><trkpt lat="51.4600452" lon="-0.1564914"><ele>23.142857142857142</ele><time>2026-04-12T20:29:13.417Z</time></trkpt><trkpt lat="51.4599812" lon="-0.1564968"><ele>23.0</ele><time>2026-04-12T20:29:14.416Z</time></trkpt><trkpt lat="51.4599145" lon="-0.1565005"><ele>23.0</ele><time>2026-04-12T20:29:15.416Z</time></trkpt><trkpt lat="51.4598507" lon="-0.1565057"><ele>23.0</ele><time>2026-04-12T20:29:16.417Z</time></trkpt><trkpt lat="51.4597838" lon="-0.1565037"><ele>23.0</ele><time>2026-04-12T20:29:17.417Z</time></trkpt><trkpt lat="51.4597147" lon="-0.1564897"><ele>23.0</ele><time>2026-04-12T20:29:18.417Z</time></trkpt><trkpt lat="51.4596442" lon="-0.156467"><ele>23.0</ele><time>2026-04-12T20:29:19.416Z</time></trkpt><trkpt lat="51.4595738" lon="-0.156434"><ele>23.0</ele><time>2026-04-12T20:29:20.417Z</time></trkpt><trkpt lat="51.4595045" lon="-0.1563999"><ele>23.0</ele><time>2026-04-12T20:29:21.417Z</time></trkpt><trkpt lat="51.459435" lon="-0.1563562"><ele>23.666666666666668</ele><time>2026-04-12T20:29:22.416Z</time></trkpt><trkpt lat="51.4593653" lon="-0.1563051"><ele>24.333333333333336</ele><time>2026-04-12T20:29:23.417Z</time></trkpt><trkpt lat="51.4592954" lon="-0.1562534"><ele>25.0</ele><time>2026-04-12T20:29:24.416Z</time></trkpt><trkpt lat="51.4592268" lon="-0.156204"><ele>25.666666666666668</ele><time>2026-04-12T20:29:25.416Z</time></trkpt><trkpt lat="51.4591642" lon="-0.1561491"><ele>26.333333333333332</ele><time>2026-04-12T20:29:26.416Z</time></trkpt><trkpt lat="51.4590969" lon="-0.1560898"><ele>27.0</ele><time>2026-04-12T20:29:27.417Z</time></trkpt><trkpt lat="51.4590305" lon="-0.1560361"><ele>27.0</ele><time>2026-04-12T20:29:28.417Z</time></trkpt><trkpt lat="51.4589656" lon="-0.155985"><ele>27.000000000000004</ele><time>2026-04-12T20:29:29.416Z</time></trkpt><trkpt lat="51.4588481" lon="-0.1558918"><ele>27.000000000000004</ele><time>2026-04-12T20:29:31.416Z</time></trkpt><trkpt lat="51.4587758" lon="-0.1558273"><ele>27.0</ele><time>2026-04-12T20:29:32.416Z</time></trkpt><trkpt lat="51.4587048" lon="-0.1557613"><ele>27.0</ele><time>2026-04-12T20:29:33.417Z</time></trkpt><trkpt lat="51.4586305" lon="-0.1557003"><ele>27.8</ele><time>2026-04-12T20:29:34.416Z</time></trkpt><trkpt lat="51.4585533" lon="-0.1556306"><ele>28.6</ele><time>2026-04-12T20:29:35.416Z</time></trkpt><trkpt lat="51.4584787" lon="-0.1555596"><ele>29.400000000000002</ele><time>2026-04-12T20:29:36.417Z</time></trkpt><trkpt lat="51.4583974" lon="-0.1554848"><ele>30.200000000000003</ele><time>2026-04-12T20:29:37.417Z</time></trkpt><trkpt lat="51.4583195" lon="-0.1554099"><ele>31.0</ele><time>2026-04-12T20:29:38.417Z</time></trkpt><trkpt lat="51.4582406" lon="-0.1553398"><ele>31.000000000000004</ele><time>2026-04-12T20:29:39.417Z</time></trkpt><trkpt lat="51.4581694" lon="-0.15527"><ele>31.0</ele><time>2026-04-12T20:29:40.417Z</time></trkpt><trkpt lat="51.4580989" lon="-0.1552036"><ele>31.0</ele><time>2026-04-12T20:29:41.417Z</time></trkpt><trkpt lat="51.4580311" lon="-0.1551294"><ele>31.0</ele><time>2026-04-12T20:29:42.416Z</time></trkpt><trkpt lat="51.4579634" lon="-0.15506"><ele>31.000000000000004</ele><time>2026-04-12T20:29:43.417Z</time></trkpt><trkpt lat="51.4578923" lon="-0.154996"><ele>31.0</ele><time>2026-04-12T20:29:44.417Z</time></trkpt><trkpt lat="51.4578208" lon="-0.1549249"><ele>31.166666666666668</ele><time>2026-04-12T20:29:45.417Z</time></trkpt><trkpt lat="51.4577481" lon="-0.1548558"><ele>31.333333333333336</ele><time>2026-04-12T20:29:46.416Z</time></trkpt><trkpt lat="51.4576716" lon="-0.154788"><ele>31.5</ele><time>2026-04-12T20:29:47.417Z</time></trkpt><trkpt lat="51.4576007" lon="-0.1547185"><ele>31.666666666666664</ele><time>2026-04-12T20:29:48.416Z</time></trkpt><trkpt lat="51.4575327" lon="-0.1546539"><ele>31.833333333333332</ele><time>2026-04-12T20:29:49.416Z</time></trkpt><trkpt lat="51.4574673" lon="-0.1545981"><ele>32.0</ele><time>2026-04-12T20:29:50.417Z</time></trkpt><trkpt lat="51.4574019" lon="-0.154534"><ele>32.0</ele><time>2026-04-12T20:29:51.417Z</time></trkpt><trkpt lat="51.4573358" lon="-0.1544705"><ele>31.999999999999996</ele><time>2026-04-12T20:29:52.417Z</time></trkpt><trkpt lat="51.4572672" lon="-0.1544074"><ele>32.0</ele><time>2026-04-12T20:29:53.417Z</time></trkpt><trkpt lat="51.4571996" lon="-0.1543371"><ele>32.0</ele><time>2026-04-12T20:29:54.416Z</time></trkpt><trkpt lat="51.4571387" lon="-0.1542661"><ele>31.999999999999996</ele><time>2026-04-12T20:29:55.417Z</time></trkpt><trkpt lat="51.4570897" lon="-0.154194"><ele>32.0</ele><time>2026-04-12T20:29:56.417Z</time></trkpt><trkpt lat="51.4570437" lon="-0.1541139"><ele>32.0</ele><time>2026-04-12T20:29:57.417Z</time></trkpt><trkpt lat="51.4569981" lon="-0.1540297"><ele>32.285714285714285</ele><time>2026-04-12T20:29:58.417Z</time></trkpt><trkpt lat="51.456956" lon="-0.1539446"><ele>32.57142857142857</ele><time>2026-04-12T20:29:59.416Z</time></trkpt><trkpt lat="51.4569143" lon="-0.1538535"><ele>32.857142857142854</ele><time>2026-04-12T20:30:00.416Z</time></trkpt><trkpt lat="51.4568751" lon="-0.1537663"><ele>33.14285714285714</ele><time>2026-04-12T20:30:01.416Z</time></trkpt><trkpt lat="51.4568302" lon="-0.1536761"><ele>33.42857142857143</ele><time>2026-04-12T20:30:02.417Z</time></trkpt><trkpt lat="51.4567832" lon="-0.1535861"><ele>33.71428571428571</ele><time>2026-04-12T20:30:03.417Z</time></trkpt><trkpt lat="51.4567346" lon="-0.153485"><ele>34.0</ele><time>2026-04-12T20:30:04.417Z</time></trkpt><trkpt lat="51.4566861" lon="-0.1533813"><ele>34.0</ele><time>2026-04-12T20:30:05.416Z</time></trkpt><trkpt lat="51.4566405" lon="-0.1532777"><ele>34.0</ele><time>2026-04-12T20:30:06.417Z</time></trkpt><trkpt lat="51.4565963" lon="-0.1531789"><ele>34.0</ele><time>2026-04-12T20:30:07.418Z</time></trkpt><trkpt lat="51.456553" lon="-0.1530814"><ele>34.0</ele><time>2026-04-12T20:30:08.418Z</time></trkpt><trkpt lat="51.45651" lon="-0.1529866"><ele>34.0</ele><time>2026-04-12T20:30:09.417Z</time></trkpt><trkpt lat="51.4564645" lon="-0.1528904"><ele>34.0</ele><time>2026-04-12T20:30:10.417Z</time></trkpt><trkpt lat="51.4564205" lon="-0.1527952"><ele>33.57142857142857</ele><time>2026-04-12T20:30:11.417Z</time></trkpt><trkpt lat="51.4563773" lon="-0.1526958"><ele>33.14285714285714</ele><time>2026-04-12T20:30:12.418Z</time></trkpt><trkpt lat="51.4563353" lon="-0.1526009"><ele>32.714285714285715</ele><time>2026-04-12T20:30:13.417Z</time></trkpt><trkpt lat="51.4562924" lon="-0.1525029"><ele>32.285714285714285</ele><time>2026-04-12T20:30:14.417Z</time></trkpt><trkpt lat="51.4562467" lon="-0.152404"><ele>31.85714285714286</ele><time>2026-04-12T20:30:15.417Z</time></trkpt><trkpt lat="51.4562022" lon="-0.1523075"><ele>31.42857142857143</ele><time>2026-04-12T20:30:16.418Z</time></trkpt><trkpt lat="51.4561574" lon="-0.1522107"><ele>31.0</ele><time>2026-04-12T20:30:17.417Z</time></trkpt><trkpt lat="51.4561139" lon="-0.152116"><ele>30.857142857142858</ele><time>2026-04-12T20:30:18.418Z</time></trkpt><trkpt lat="51.4560718" lon="-0.1520216"><ele>30.714285714285715</ele><time>2026-04-12T20:30:19.418Z</time></trkpt><trkpt lat="51.4560301" lon="-0.1519294"><ele>30.571428571428573</ele><time>2026-04-12T20:30:20.418Z</time></trkpt><trkpt lat="51.4559894" lon="-0.1518363"><ele>30.42857142857143</ele><time>2026-04-12T20:30:21.418Z</time></trkpt><trkpt lat="51.4559477" lon="-0.1517433"><ele>30.285714285714285</ele><time>2026-04-12T20:30:22.418Z</time></trkpt><trkpt lat="51.4559076" lon="-0.1516514"><ele>30.142857142857146</ele><time>2026-04-12T20:30:23.418Z</time></trkpt><trkpt lat="51.4558653" lon="-0.1515527"><ele>30.0</ele><time>2026-04-12T20:30:24.417Z</time></trkpt><trkpt lat="51.4558219" lon="-0.1514563"><ele>29.833333333333332</ele><time>2026-04-12T20:30:25.418Z</time></trkpt><trkpt lat="51.4557801" lon="-0.1513585"><ele>29.666666666666664</ele><time>2026-04-12T20:30:26.417Z</time></trkpt><trkpt lat="51.4557359" lon="-0.1512586"><ele>29.5</ele><time>2026-04-12T20:30:27.418Z</time></trkpt><trkpt lat="51.4556902" lon="-0.1511606"><ele>29.333333333333332</ele><time>2026-04-12T20:30:28.418Z</time></trkpt><trkpt lat="51.4556474" lon="-0.1510687"><ele>29.166666666666664</ele><time>2026-04-12T20:30:29.418Z</time></trkpt><trkpt lat="51.4556038" lon="-0.1509763"><ele>29.0</ele><time>2026-04-12T20:30:30.418Z</time></trkpt><trkpt lat="51.4555555" lon="-0.1508723"><ele>28.999999999999996</ele><time>2026-04-12T20:30:31.418Z</time></trkpt><trkpt lat="51.4555098" lon="-0.1507698"><ele>29.0</ele><time>2026-04-12T20:30:32.418Z</time></trkpt><trkpt lat="51.455462" lon="-0.1506622"><ele>29.0</ele><time>2026-04-12T20:30:33.417Z</time></trkpt><trkpt lat="51.455417" lon="-0.1505619"><ele>29.0</ele><time>2026-04-12T20:30:34.417Z</time></trkpt><trkpt lat="51.455368" lon="-0.1504539"><ele>28.999999999999996</ele><time>2026-04-12T20:30:35.417Z</time></trkpt><trkpt lat="51.455318" lon="-0.1503459"><ele>29.0</ele><time>2026-04-12T20:30:36.418Z</time></trkpt><trkpt lat="51.4552741" lon="-0.1502461"><ele>28.999999999999996</ele><time>2026-04-12T20:30:37.418Z</time></trkpt><trkpt lat="51.4552243" lon="-0.1501406"><ele>29.0</ele><time>2026-04-12T20:30:38.418Z</time></trkpt><trkpt lat="51.455171" lon="-0.1500323"><ele>29.0</ele><time>2026-04-12T20:30:39.418Z</time></trkpt><trkpt lat="51.4551203" lon="-0.1499243"><ele>29.0</ele><time>2026-04-12T20:30:40.418Z</time></trkpt><trkpt lat="51.4550699" lon="-0.1498163"><ele>28.999999999999996</ele><time>2026-04-12T20:30:41.418Z</time></trkpt><trkpt lat="51.4550187" lon="-0.1497078"><ele>29.0</ele><time>2026-04-12T20:30:42.418Z</time></trkpt><trkpt lat="51.4549689" lon="-0.1495967"><ele>28.999999999999996</ele><time>2026-04-12T20:30:43.417Z</time></trkpt><trkpt lat="51.4549219" lon="-0.1494895"><ele>29.0</ele><time>2026-04-12T20:30:44.418Z</time></trkpt><trkpt lat="51.4548765" lon="-0.1493875"><ele>29.0</ele><time>2026-04-12T20:30:45.418Z</time></trkpt><trkpt lat="51.4548281" lon="-0.1492767"><ele>29.0</ele><time>2026-04-12T20:30:46.418Z</time></trkpt><trkpt lat="51.4547769" lon="-0.149159"><ele>28.999999999999996</ele><time>2026-04-12T20:30:47.418Z</time></trkpt><trkpt lat="51.4547249" lon="-0.1490441"><ele>29.0</ele><time>2026-04-12T20:30:48.418Z</time></trkpt><trkpt lat="51.4546786" lon="-0.148929"><ele>29.333333333333332</ele><time>2026-04-12T20:30:49.418Z</time></trkpt><trkpt lat="51.4546305" lon="-0.14882"><ele>29.666666666666664</ele><time>2026-04-12T20:30:50.417Z</time></trkpt><trkpt lat="51.4545817" lon="-0.1487116"><ele>30.0</ele><time>2026-04-12T20:30:51.417Z</time></trkpt><trkpt lat="51.4545311" lon="-0.1485973"><ele>30.333333333333336</ele><time>2026-04-12T20:30:52.417Z</time></trkpt><trkpt lat="51.4544805" lon="-0.1484781"><ele>30.666666666666668</ele><time>2026-04-12T20:30:53.417Z</time></trkpt><trkpt lat="51.4544333" lon="-0.1483588"><ele>31.0</ele><time>2026-04-12T20:30:54.417Z</time></trkpt><trkpt lat="51.4543821" lon="-0.1482362"><ele>31.333333333333336</ele><time>2026-04-12T20:30:55.418Z</time></trkpt><trkpt lat="51.454334" lon="-0.1481216"><ele>31.666666666666668</ele><time>2026-04-12T20:30:56.417Z</time></trkpt><trkpt lat="51.4542897" lon="-0.1480117"><ele>32.0</ele><time>2026-04-12T20:30:57.417Z</time></trkpt><trkpt lat="51.4542416" lon="-0.1479076"><ele>32.333333333333336</ele><time>2026-04-12T20:30:58.418Z</time></trkpt><trkpt lat="51.4541963" lon="-0.1478129"><ele>32.666666666666664</ele><time>2026-04-12T20:30:59.418Z</time></trkpt><trkpt lat="51.4541569" lon="-0.1477277"><ele>33.0</ele><time>2026-04-12T20:31:00.418Z</time></trkpt><trkpt lat="51.4541201" lon="-0.1476361"><ele>33.0</ele><time>2026-04-12T20:31:01.417Z</time></trkpt><trkpt lat="51.4540853" lon="-0.1475495"><ele>33.0</ele><time>2026-04-12T20:31:02.417Z</time></trkpt><trkpt lat="51.4540571" lon="-0.1474525"><ele>33.0</ele><time>2026-04-12T20:31:03.417Z</time></trkpt><trkpt lat="51.4540372" lon="-0.1473455"><ele>33.0</ele><time>2026-04-12T20:31:04.417Z</time></trkpt><trkpt lat="51.4540285" lon="-0.1472413"><ele>33.0</ele><time>2026-04-12T20:31:05.418Z</time></trkpt><trkpt lat="51.4540238" lon="-0.1471375"><ele>33.0</ele><time>2026-04-12T20:31:06.418Z</time></trkpt><trkpt lat="51.4540278" lon="-0.1470115"><ele>33.0</ele><time>2026-04-12T20:31:08.417Z</time></trkpt><trkpt lat="51.4540305" lon="-0.1469062"><ele>32.5</ele><time>2026-04-12T20:31:10.417Z</time></trkpt><trkpt lat="51.4540336" lon="-0.1467783"><ele>32.0</ele><time>2026-04-12T20:31:12.418Z</time></trkpt><trkpt lat="51.4540443" lon="-0.146676"><ele>31.5</ele><time>2026-04-12T20:31:15.418Z</time></trkpt><trkpt lat="51.4540518" lon="-0.1465732"><ele>31.0</ele><time>2026-04-12T20:31:34.418Z</time></trkpt><trkpt lat="51.4540873" lon="-0.1464177"><ele>30.5</ele><time>2026-04-12T20:31:36.419Z</time></trkpt><trkpt lat="51.4541198" lon="-0.1462154"><ele>30.0</ele><time>2026-04-12T20:31:38.419Z</time></trkpt><trkpt lat="51.4541112" lon="-0.1460957"><ele>29.833333333333332</ele><time>2026-04-12T20:31:39.418Z</time></trkpt><trkpt lat="51.4540836" lon="-0.1459768"><ele>29.666666666666664</ele><time>2026-04-12T20:31:40.419Z</time></trkpt><trkpt lat="51.4540532" lon="-0.145867"><ele>29.5</ele><time>2026-04-12T20:31:41.419Z</time></trkpt><trkpt lat="51.4540035" lon="-0.1457466"><ele>29.333333333333332</ele><time>2026-04-12T20:31:42.419Z</time></trkpt><trkpt lat="51.4539532" lon="-0.1456182"><ele>29.166666666666664</ele><time>2026-04-12T20:31:43.419Z</time></trkpt><trkpt lat="51.4539009" lon="-0.1454852"><ele>29.0</ele><time>2026-04-12T20:31:44.418Z</time></trkpt><trkpt lat="51.4538459" lon="-0.1453509"><ele>29.0</ele><time>2026-04-12T20:31:45.418Z</time></trkpt><trkpt lat="51.4537922" lon="-0.1452156"><ele>29.0</ele><time>2026-04-12T20:31:46.419Z</time></trkpt><trkpt lat="51.4537368" lon="-0.1450754"><ele>29.0</ele><time>2026-04-12T20:31:47.419Z</time></trkpt><trkpt lat="51.4536819" lon="-0.1449344"><ele>29.0</ele><time>2026-04-12T20:31:48.419Z</time></trkpt><trkpt lat="51.4536255" lon="-0.1447926"><ele>29.0</ele><time>2026-04-12T20:31:49.418Z</time></trkpt><trkpt lat="51.4535676" lon="-0.1446519"><ele>28.6</ele><time>2026-04-12T20:31:50.418Z</time></trkpt><trkpt lat="51.4535123" lon="-0.1445087"><ele>28.2</ele><time>2026-04-12T20:31:51.419Z</time></trkpt><trkpt lat="51.4534566" lon="-0.1443605"><ele>27.800000000000004</ele><time>2026-04-12T20:31:52.419Z</time></trkpt><trkpt lat="51.4533994" lon="-0.1442139"><ele>27.400000000000002</ele><time>2026-04-12T20:31:53.418Z</time></trkpt><trkpt lat="51.4533417" lon="-0.1440668"><ele>27.0</ele><time>2026-04-12T20:31:54.419Z</time></trkpt><trkpt lat="51.4532846" lon="-0.1439217"><ele>26.8</ele><time>2026-04-12T20:31:55.419Z</time></trkpt><trkpt lat="51.453227" lon="-0.1437776"><ele>26.6</ele><time>2026-04-12T20:31:56.418Z</time></trkpt><trkpt lat="51.4531689" lon="-0.1436317"><ele>26.400000000000002</ele><time>2026-04-12T20:31:57.419Z</time></trkpt><trkpt lat="51.4531115" lon="-0.1434893"><ele>26.200000000000003</ele><time>2026-04-12T20:31:58.418Z</time></trkpt><trkpt lat="51.4530532" lon="-0.1433477"><ele>26.0</ele><time>2026-04-12T20:31:59.419Z</time></trkpt><trkpt lat="51.4529953" lon="-0.1432088"><ele>26.6</ele><time>2026-04-12T20:32:00.419Z</time></trkpt><trkpt lat="51.4529369" lon="-0.1430698"><ele>27.200000000000003</ele><time>2026-04-12T20:32:01.419Z</time></trkpt><trkpt lat="51.4528767" lon="-0.1429308"><ele>27.799999999999997</ele><time>2026-04-12T20:32:02.419Z</time></trkpt><trkpt lat="51.4528122" lon="-0.1427971"><ele>28.4</ele><time>2026-04-12T20:32:03.419Z</time></trkpt><trkpt lat="51.4527415" lon="-0.1426707"><ele>29.0</ele><time>2026-04-12T20:32:04.419Z</time></trkpt><trkpt lat="51.452665" lon="-0.1425512"><ele>29.0</ele><time>2026-04-12T20:32:05.419Z</time></trkpt><trkpt lat="51.4525829" lon="-0.1424387"><ele>29.0</ele><time>2026-04-12T20:32:06.419Z</time></trkpt><trkpt lat="51.4524965" lon="-0.1423366"><ele>29.0</ele><time>2026-04-12T20:32:07.419Z</time></trkpt><trkpt lat="51.4524059" lon="-0.1422462"><ele>29.0</ele><time>2026-04-12T20:32:08.418Z</time></trkpt><trkpt lat="51.4523117" lon="-0.1421726"><ele>29.0</ele><time>2026-04-12T20:32:09.418Z</time></trkpt><trkpt lat="51.4522142" lon="-0.1421199"><ele>29.0</ele><time>2026-04-12T20:32:10.418Z</time></trkpt><trkpt lat="51.452114" lon="-0.1420932"><ele>29.0</ele><time>2026-04-12T20:32:11.419Z</time></trkpt><trkpt lat="51.4520142" lon="-0.1420794"><ele>29.0</ele><time>2026-04-12T20:32:12.419Z</time></trkpt><trkpt lat="51.4519113" lon="-0.1420811"><ele>29.0</ele><time>2026-04-12T20:32:13.419Z</time></trkpt><trkpt lat="51.45181" lon="-0.142087"><ele>29.0</ele><time>2026-04-12T20:32:14.418Z</time></trkpt><trkpt lat="51.4517115" lon="-0.1420949"><ele>29.0</ele><time>2026-04-12T20:32:15.419Z</time></trkpt><trkpt lat="51.451616" lon="-0.142108"><ele>29.0</ele><time>2026-04-12T20:32:16.418Z</time></trkpt><trkpt lat="51.4515205" lon="-0.1421144"><ele>29.0</ele><time>2026-04-12T20:32:17.419Z</time></trkpt><trkpt lat="51.451424" lon="-0.1421133"><ele>29.0</ele><time>2026-04-12T20:32:18.419Z</time></trkpt><trkpt lat="51.4513262" lon="-0.1421042"><ele>29.0</ele><time>2026-04-12T20:32:19.419Z</time></trkpt><trkpt lat="51.451229" lon="-0.1420662"><ele>29.2</ele><time>2026-04-12T20:32:20.419Z</time></trkpt><trkpt lat="51.451139" lon="-0.142013"><ele>29.4</ele><time>2026-04-12T20:32:21.419Z</time></trkpt><trkpt lat="51.4510584" lon="-0.1419424"><ele>29.6</ele><time>2026-04-12T20:32:22.418Z</time></trkpt><trkpt lat="51.4509883" lon="-0.1418434"><ele>29.8</ele><time>2026-04-12T20:32:23.419Z</time></trkpt><trkpt lat="51.4509283" lon="-0.1417198"><ele>30.0</ele><time>2026-04-12T20:32:24.419Z</time></trkpt><trkpt lat="51.4508704" lon="-0.1415857"><ele>30.2</ele><time>2026-04-12T20:32:25.419Z</time></trkpt><trkpt lat="51.4508246" lon="-0.1414463"><ele>30.4</ele><time>2026-04-12T20:32:26.419Z</time></trkpt><trkpt lat="51.4507815" lon="-0.1412998"><ele>30.6</ele><time>2026-04-12T20:32:27.419Z</time></trkpt><trkpt lat="51.4507411" lon="-0.1411516"><ele>30.8</ele><time>2026-04-12T20:32:28.418Z</time></trkpt><trkpt lat="51.4507012" lon="-0.1410029"><ele>31.0</ele><time>2026-04-12T20:32:29.418Z</time></trkpt><trkpt lat="51.4506615" lon="-0.1408538"><ele>31.200000000000003</ele><time>2026-04-12T20:32:30.419Z</time></trkpt><trkpt lat="51.4506217" lon="-0.1407028"><ele>31.400000000000002</ele><time>2026-04-12T20:32:31.419Z</time></trkpt><trkpt lat="51.4505828" lon="-0.1405487"><ele>31.6</ele><time>2026-04-12T20:32:32.419Z</time></trkpt><trkpt lat="51.450545" lon="-0.1403974"><ele>31.8</ele><time>2026-04-12T20:32:33.419Z</time></trkpt><trkpt lat="51.4505075" lon="-0.1402492"><ele>32.0</ele><time>2026-04-12T20:32:34.418Z</time></trkpt><trkpt lat="51.4504699" lon="-0.1401034"><ele>32.0</ele><time>2026-04-12T20:32:35.419Z</time></trkpt><trkpt lat="51.4504306" lon="-0.1399551"><ele>32.0</ele><time>2026-04-12T20:32:36.418Z</time></trkpt><trkpt lat="51.450381" lon="-0.1397707"><ele>32.0</ele><time>2026-04-12T20:32:37.419Z</time></trkpt><trkpt lat="51.4503262" lon="-0.1395647"><ele>32.0</ele><time>2026-04-12T20:32:38.419Z</time></trkpt><trkpt lat="51.4502749" lon="-0.139373"><ele>32.0</ele><time>2026-04-12T20:32:39.42Z</time></trkpt><trkpt lat="51.4502291" lon="-0.139205"><ele>32.0</ele><time>2026-04-12T20:32:40.419Z</time></trkpt><trkpt lat="51.450191" lon="-0.1390636"><ele>32.0</ele><time>2026-04-12T20:32:41.42Z</time></trkpt><trkpt lat="51.4501571" lon="-0.1389386"><ele>32.0</ele><time>2026-04-12T20:32:42.42Z</time></trkpt><trkpt lat="51.4501285" lon="-0.138832"><ele>32.0</ele><time>2026-04-12T20:32:43.42Z</time></trkpt><trkpt lat="51.4500897" lon="-0.1386844"><ele>31.6</ele><time>2026-04-12T20:32:45.42Z</time></trkpt><trkpt lat="51.4500547" lon="-0.1385543"><ele>31.200000000000003</ele><time>2026-04-12T20:32:48.42Z</time></trkpt><trkpt lat="51.4500139" lon="-0.1384296"><ele>30.8</ele><time>2026-04-12T20:32:50.42Z</time></trkpt><trkpt lat="51.449952" lon="-0.1382415"><ele>30.4</ele><time>2026-04-12T20:32:52.42Z</time></trkpt><trkpt lat="51.4499175" lon="-0.1381234"><ele>30.0</ele><time>2026-04-12T20:32:53.42Z</time></trkpt><trkpt lat="51.4498816" lon="-0.1379956"><ele>30.0</ele><time>2026-04-12T20:32:54.42Z</time></trkpt><trkpt lat="51.4498458" lon="-0.1378713"><ele>30.0</ele><time>2026-04-12T20:32:55.419Z</time></trkpt><trkpt lat="51.4498117" lon="-0.1377522"><ele>30.0</ele><time>2026-04-12T20:32:56.42Z</time></trkpt><trkpt lat="51.4497802" lon="-0.1376427"><ele>30.0</ele><time>2026-04-12T20:32:57.419Z</time></trkpt><trkpt lat="51.4497511" lon="-0.1375443"><ele>30.0</ele><time>2026-04-12T20:32:58.42Z</time></trkpt><trkpt lat="51.4497052" lon="-0.1373764"><ele>30.0</ele><time>2026-04-12T20:33:00.42Z</time></trkpt><trkpt lat="51.4496724" lon="-0.1372532"><ele>30.0</ele><time>2026-04-12T20:33:02.42Z</time></trkpt><trkpt lat="51.4496433" lon="-0.1371377"><ele>30.0</ele><time>2026-04-12T20:33:05.42Z</time></trkpt><trkpt lat="51.4496097" lon="-0.137048"><ele>30.0</ele><time>2026-04-12T20:33:09.42Z</time></trkpt><trkpt lat="51.4495184" lon="-0.1369986"><ele>30.0</ele><time>2026-04-12T20:33:14.419Z</time></trkpt><trkpt lat="51.4494357" lon="-0.1370349"><ele>30.0</ele><time>2026-04-12T20:33:15.42Z</time></trkpt><trkpt lat="51.4493464" lon="-0.1370929"><ele>30.0</ele><time>2026-04-12T20:33:16.42Z</time></trkpt><trkpt lat="51.4492531" lon="-0.1371537"><ele>30.0</ele><time>2026-04-12T20:33:17.42Z</time></trkpt><trkpt lat="51.4491565" lon="-0.1372202"><ele>30.0</ele><time>2026-04-12T20:33:18.42Z</time></trkpt><trkpt lat="51.4490537" lon="-0.1372825"><ele>30.0</ele><time>2026-04-12T20:33:19.42Z</time></trkpt><trkpt lat="51.4489438" lon="-0.1373419"><ele>30.0</ele><time>2026-04-12T20:33:20.42Z</time></trkpt><trkpt lat="51.4488264" lon="-0.1374023"><ele>29.25</ele><time>2026-04-12T20:33:21.42Z</time></trkpt><trkpt lat="51.4487035" lon="-0.1374617"><ele>28.5</ele><time>2026-04-12T20:33:22.42Z</time></trkpt><trkpt lat="51.4485831" lon="-0.1375147"><ele>27.75</ele><time>2026-04-12T20:33:23.419Z</time></trkpt><trkpt lat="51.4484738" lon="-0.1375593"><ele>27.0</ele><time>2026-04-12T20:33:24.419Z</time></trkpt><trkpt lat="51.4483692" lon="-0.1375961"><ele>27.0</ele><time>2026-04-12T20:33:25.419Z</time></trkpt><trkpt lat="51.4482812" lon="-0.1376201"><ele>27.0</ele><time>2026-04-12T20:33:26.419Z</time></trkpt><trkpt lat="51.4482004" lon="-0.1376173"><ele>27.0</ele><time>2026-04-12T20:33:27.42Z</time></trkpt><trkpt lat="51.4481197" lon="-0.1375836"><ele>27.0</ele><time>2026-04-12T20:33:28.42Z</time></trkpt><trkpt lat="51.4480348" lon="-0.13753"><ele>27.0</ele><time>2026-04-12T20:33:29.42Z</time></trkpt><trkpt lat="51.4479507" lon="-0.1374834"><ele>27.0</ele><time>2026-04-12T20:33:30.42Z</time></trkpt><trkpt lat="51.4478545" lon="-0.1374603"><ele>26.8</ele><time>2026-04-12T20:33:31.419Z</time></trkpt><trkpt lat="51.4477506" lon="-0.1374194"><ele>26.6</ele><time>2026-04-12T20:33:32.419Z</time></trkpt><trkpt lat="51.4476518" lon="-0.1373589"><ele>26.400000000000002</ele><time>2026-04-12T20:33:33.42Z</time></trkpt><trkpt lat="51.4475726" lon="-0.1372825"><ele>26.200000000000003</ele><time>2026-04-12T20:33:34.42Z</time></trkpt><trkpt lat="51.4474901" lon="-0.1372023"><ele>26.0</ele><time>2026-04-12T20:33:35.42Z</time></trkpt><trkpt lat="51.4474047" lon="-0.1371087"><ele>26.4</ele><time>2026-04-12T20:33:36.42Z</time></trkpt><trkpt lat="51.4473205" lon="-0.1370096"><ele>26.8</ele><time>2026-04-12T20:33:37.419Z</time></trkpt><trkpt lat="51.4472364" lon="-0.1369097"><ele>27.199999999999996</ele><time>2026-04-12T20:33:38.42Z</time></trkpt><trkpt lat="51.4471521" lon="-0.1368087"><ele>27.599999999999998</ele><time>2026-04-12T20:33:39.419Z</time></trkpt><trkpt lat="51.4470668" lon="-0.1367114"><ele>28.0</ele><time>2026-04-12T20:33:40.419Z</time></trkpt><trkpt lat="51.4469844" lon="-0.1366114"><ele>28.4</ele><time>2026-04-12T20:33:41.42Z</time></trkpt><trkpt lat="51.4469063" lon="-0.1365145"><ele>28.799999999999997</ele><time>2026-04-12T20:33:42.419Z</time></trkpt><trkpt lat="51.446831" lon="-0.1364227"><ele>29.2</ele><time>2026-04-12T20:33:43.419Z</time></trkpt><trkpt lat="51.4467463" lon="-0.1363263"><ele>29.6</ele><time>2026-04-12T20:33:44.419Z</time></trkpt><trkpt lat="51.4466532" lon="-0.1362242"><ele>30.0</ele><time>2026-04-12T20:33:45.419Z</time></trkpt><trkpt lat="51.4465631" lon="-0.1361174"><ele>30.0</ele><time>2026-04-12T20:33:46.42Z</time></trkpt><trkpt lat="51.4464755" lon="-0.1360043"><ele>30.0</ele><time>2026-04-12T20:33:47.42Z</time></trkpt><trkpt lat="51.4463868" lon="-0.13589"><ele>30.0</ele><time>2026-04-12T20:33:48.419Z</time></trkpt><trkpt lat="51.4462974" lon="-0.1357837"><ele>30.0</ele><time>2026-04-12T20:33:49.419Z</time></trkpt><trkpt lat="51.4462071" lon="-0.1356884"><ele>30.0</ele><time>2026-04-12T20:33:50.42Z</time></trkpt><trkpt lat="51.4461142" lon="-0.1356054"><ele>30.6</ele><time>2026-04-12T20:33:51.42Z</time></trkpt><trkpt lat="51.4460219" lon="-0.135516"><ele>31.2</ele><time>2026-04-12T20:33:52.419Z</time></trkpt><trkpt lat="51.4459312" lon="-0.1354297"><ele>31.799999999999997</ele><time>2026-04-12T20:33:53.42Z</time></trkpt><trkpt lat="51.4458445" lon="-0.1353433"><ele>32.4</ele><time>2026-04-12T20:33:54.421Z</time></trkpt><trkpt lat="51.4457612" lon="-0.1352634"><ele>33.0</ele><time>2026-04-12T20:33:55.42Z</time></trkpt><trkpt lat="51.4456837" lon="-0.1351911"><ele>33.0</ele><time>2026-04-12T20:33:56.421Z</time></trkpt><trkpt lat="51.4456075" lon="-0.1351188"><ele>33.0</ele><time>2026-04-12T20:33:57.421Z</time></trkpt><trkpt lat="51.4455245" lon="-0.1350329"><ele>33.0</ele><time>2026-04-12T20:33:58.42Z</time></trkpt><trkpt lat="51.4454398" lon="-0.1349515"><ele>33.0</ele><time>2026-04-12T20:33:59.421Z</time></trkpt><trkpt lat="51.4453533" lon="-0.1348671"><ele>33.0</ele><time>2026-04-12T20:34:00.421Z</time></trkpt><trkpt lat="51.4452655" lon="-0.1347873"><ele>33.4</ele><time>2026-04-12T20:34:01.421Z</time></trkpt><trkpt lat="51.4451779" lon="-0.1347086"><ele>33.8</ele><time>2026-04-12T20:34:02.421Z</time></trkpt><trkpt lat="51.4450955" lon="-0.1346324"><ele>34.2</ele><time>2026-04-12T20:34:03.421Z</time></trkpt><trkpt lat="51.4450171" lon="-0.1345622"><ele>34.6</ele><time>2026-04-12T20:34:04.42Z</time></trkpt><trkpt lat="51.4449377" lon="-0.1344952"><ele>35.0</ele><time>2026-04-12T20:34:05.421Z</time></trkpt><trkpt lat="51.4448661" lon="-0.1344252"><ele>35.0</ele><time>2026-04-12T20:34:06.421Z</time></trkpt><trkpt lat="51.4447926" lon="-0.1343541"><ele>35.0</ele><time>2026-04-12T20:34:07.42Z</time></trkpt><trkpt lat="51.4447068" lon="-0.1342779"><ele>35.0</ele><time>2026-04-12T20:34:08.42Z</time></trkpt><trkpt lat="51.4446238" lon="-0.1342046"><ele>35.0</ele><time>2026-04-12T20:34:09.42Z</time></trkpt><trkpt lat="51.444547" lon="-0.1341347"><ele>35.0</ele><time>2026-04-12T20:34:10.421Z</time></trkpt><trkpt lat="51.4444723" lon="-0.1340729"><ele>35.33333333333333</ele><time>2026-04-12T20:34:11.421Z</time></trkpt><trkpt lat="51.4444031" lon="-0.1340151"><ele>35.666666666666664</ele><time>2026-04-12T20:34:12.42Z</time></trkpt><trkpt lat="51.4443388" lon="-0.1339531"><ele>36.0</ele><time>2026-04-12T20:34:13.421Z</time></trkpt><trkpt lat="51.4442846" lon="-0.1338813"><ele>36.333333333333336</ele><time>2026-04-12T20:34:14.421Z</time></trkpt><trkpt lat="51.4442389" lon="-0.1338093"><ele>36.66666666666667</ele><time>2026-04-12T20:34:15.421Z</time></trkpt><trkpt lat="51.4441473" lon="-0.1336851"><ele>37.0</ele><time>2026-04-12T20:34:17.421Z</time></trkpt><trkpt lat="51.4440765" lon="-0.1336358"><ele>37.0</ele><time>2026-04-12T20:34:18.421Z</time></trkpt><trkpt lat="51.4439945" lon="-0.1335962"><ele>37.0</ele><time>2026-04-12T20:34:19.42Z</time></trkpt><trkpt lat="51.4439077" lon="-0.1335449"><ele>37.0</ele><time>2026-04-12T20:34:20.421Z</time></trkpt><trkpt lat="51.4438179" lon="-0.1334805"><ele>37.0</ele><time>2026-04-12T20:34:21.421Z</time></trkpt><trkpt lat="51.4437319" lon="-0.1334117"><ele>37.0</ele><time>2026-04-12T20:34:22.42Z</time></trkpt><trkpt lat="51.4436488" lon="-0.1333462"><ele>37.16666666666667</ele><time>2026-04-12T20:34:23.421Z</time></trkpt><trkpt lat="51.4435674" lon="-0.1332752"><ele>37.333333333333336</ele><time>2026-04-12T20:34:24.421Z</time></trkpt><trkpt lat="51.443487" lon="-0.1332048"><ele>37.5</ele><time>2026-04-12T20:34:25.42Z</time></trkpt><trkpt lat="51.4434141" lon="-0.1331403"><ele>37.666666666666664</ele><time>2026-04-12T20:34:26.42Z</time></trkpt><trkpt lat="51.4433468" lon="-0.1330809"><ele>37.83333333333333</ele><time>2026-04-12T20:34:27.42Z</time></trkpt><trkpt lat="51.4432879" lon="-0.133027"><ele>38.0</ele><time>2026-04-12T20:34:28.421Z</time></trkpt><trkpt lat="51.4431951" lon="-0.1329444"><ele>38.166666666666664</ele><time>2026-04-12T20:34:30.421Z</time></trkpt><trkpt lat="51.4431355" lon="-0.1328955"><ele>38.33333333333333</ele><time>2026-04-12T20:34:32.42Z</time></trkpt><trkpt lat="51.4430474" lon="-0.1328125"><ele>38.5</ele><time>2026-04-12T20:34:34.421Z</time></trkpt><trkpt lat="51.4429879" lon="-0.1327583"><ele>38.666666666666664</ele><time>2026-04-12T20:34:35.421Z</time></trkpt><trkpt lat="51.4429206" lon="-0.1326961"><ele>38.833333333333336</ele><time>2026-04-12T20:34:36.42Z</time></trkpt><trkpt lat="51.4428445" lon="-0.1326323"><ele>39.0</ele><time>2026-04-12T20:34:37.42Z</time></trkpt><trkpt lat="51.4427632" lon="-0.132566"><ele>39.0</ele><time>2026-04-12T20:34:38.421Z</time></trkpt><trkpt lat="51.44268" lon="-0.1324923"><ele>39.0</ele><time>2026-04-12T20:34:39.421Z</time></trkpt><trkpt lat="51.4425979" lon="-0.1324199"><ele>39.0</ele><time>2026-04-12T20:34:40.421Z</time></trkpt><trkpt lat="51.442519" lon="-0.1323495"><ele>39.0</ele><time>2026-04-12T20:34:41.42Z</time></trkpt><trkpt lat="51.4424419" lon="-0.1322789"><ele>39.0</ele><time>2026-04-12T20:34:42.421Z</time></trkpt><trkpt lat="51.4423695" lon="-0.1322133"><ele>39.0</ele><time>2026-04-12T20:34:43.42Z</time></trkpt><trkpt lat="51.4423005" lon="-0.1321535"><ele>39.0</ele><time>2026-04-12T20:34:44.421Z</time></trkpt><trkpt lat="51.4422344" lon="-0.1320959"><ele>39.0</ele><time>2026-04-12T20:34:45.42Z</time></trkpt><trkpt lat="51.4421673" lon="-0.1320413"><ele>39.0</ele><time>2026-04-12T20:34:46.421Z</time></trkpt><trkpt lat="51.4421084" lon="-0.1319972"><ele>39.0</ele><time>2026-04-12T20:34:47.421Z</time></trkpt><trkpt lat="51.4419972" lon="-0.1319409"><ele>39.0</ele><time>2026-04-12T20:34:49.42Z</time></trkpt><trkpt lat="51.4419276" lon="-0.1319452"><ele>39.0</ele><time>2026-04-12T20:34:50.421Z</time></trkpt><trkpt lat="51.4418533" lon="-0.1319778"><ele>39.0</ele><time>2026-04-12T20:34:51.421Z</time></trkpt><trkpt lat="51.4417774" lon="-0.1320328"><ele>39.0</ele><time>2026-04-12T20:34:52.421Z</time></trkpt><trkpt lat="51.4416991" lon="-0.1320834"><ele>39.0</ele><time>2026-04-12T20:34:53.421Z</time></trkpt><trkpt lat="51.4416114" lon="-0.1321225"><ele>39.0</ele><time>2026-04-12T20:34:54.421Z</time></trkpt><trkpt lat="51.4415155" lon="-0.1321461"><ele>39.0</ele><time>2026-04-12T20:34:55.421Z</time></trkpt><trkpt lat="51.441415" lon="-0.1321563"><ele>39.0</ele><time>2026-04-12T20:34:56.42Z</time></trkpt><trkpt lat="51.4413088" lon="-0.1321531"><ele>39.0</ele><time>2026-04-12T20:34:57.421Z</time></trkpt><trkpt lat="51.441197" lon="-0.1321433"><ele>39.0</ele><time>2026-04-12T20:34:58.42Z</time></trkpt><trkpt lat="51.4410839" lon="-0.1321253"><ele>39.0</ele><time>2026-04-12T20:34:59.421Z</time></trkpt><trkpt lat="51.4409762" lon="-0.1320961"><ele>39.0</ele><time>2026-04-12T20:35:00.421Z</time></trkpt><trkpt lat="51.4408711" lon="-0.1320629"><ele>39.4</ele><time>2026-04-12T20:35:01.42Z</time></trkpt><trkpt lat="51.4407671" lon="-0.1320275"><ele>39.8</ele><time>2026-04-12T20:35:02.421Z</time></trkpt><trkpt lat="51.4406636" lon="-0.1319853"><ele>40.199999999999996</ele><time>2026-04-12T20:35:03.421Z</time></trkpt><trkpt lat="51.4405601" lon="-0.1319353"><ele>40.599999999999994</ele><time>2026-04-12T20:35:04.42Z</time></trkpt><trkpt lat="51.4404508" lon="-0.1318818"><ele>41.0</ele><time>2026-04-12T20:35:05.421Z</time></trkpt><trkpt lat="51.4403366" lon="-0.1318211"><ele>41.25</ele><time>2026-04-12T20:35:06.421Z</time></trkpt><trkpt lat="51.4402226" lon="-0.1317599"><ele>41.5</ele><time>2026-04-12T20:35:07.42Z</time></trkpt><trkpt lat="51.4401133" lon="-0.1316953"><ele>41.75</ele><time>2026-04-12T20:35:08.421Z</time></trkpt><trkpt lat="51.4400033" lon="-0.1316295"><ele>42.0</ele><time>2026-04-12T20:35:09.422Z</time></trkpt><trkpt lat="51.4398941" lon="-0.1315624"><ele>42.0</ele><time>2026-04-12T20:35:10.422Z</time></trkpt><trkpt lat="51.4397984" lon="-0.1314976"><ele>42.0</ele><time>2026-04-12T20:35:11.422Z</time></trkpt><trkpt lat="51.4397148" lon="-0.1314271"><ele>42.0</ele><time>2026-04-12T20:35:12.422Z</time></trkpt><trkpt lat="51.4396446" lon="-0.1313241"><ele>42.0</ele><time>2026-04-12T20:35:13.421Z</time></trkpt><trkpt lat="51.4395891" lon="-0.1311807"><ele>42.0</ele><time>2026-04-12T20:35:14.421Z</time></trkpt><trkpt lat="51.4395357" lon="-0.1310094"><ele>42.5</ele><time>2026-04-12T20:35:15.421Z</time></trkpt><trkpt lat="51.4395039" lon="-0.130814"><ele>43.0</ele><time>2026-04-12T20:35:16.421Z</time></trkpt><trkpt lat="51.4394748" lon="-0.1306177"><ele>43.5</ele><time>2026-04-12T20:35:17.422Z</time></trkpt><trkpt lat="51.4394433" lon="-0.1304309"><ele>44.0</ele><time>2026-04-12T20:35:18.422Z</time></trkpt><trkpt lat="51.4394124" lon="-0.1302483"><ele>44.400000000000006</ele><time>2026-04-12T20:35:19.421Z</time></trkpt><trkpt lat="51.4393815" lon="-0.1300759"><ele>44.8</ele><time>2026-04-12T20:35:20.421Z</time></trkpt><trkpt lat="51.4393537" lon="-0.1299122"><ele>45.2</ele><time>2026-04-12T20:35:21.422Z</time></trkpt><trkpt lat="51.4393139" lon="-0.1297535"><ele>45.599999999999994</ele><time>2026-04-12T20:35:22.421Z</time></trkpt><trkpt lat="51.4392676" lon="-0.1296076"><ele>46.0</ele><time>2026-04-12T20:35:23.421Z</time></trkpt><trkpt lat="51.4392218" lon="-0.1294738"><ele>46.5</ele><time>2026-04-12T20:35:24.422Z</time></trkpt><trkpt lat="51.4391799" lon="-0.1293473"><ele>47.0</ele><time>2026-04-12T20:35:25.422Z</time></trkpt><trkpt lat="51.4391364" lon="-0.1292211"><ele>47.5</ele><time>2026-04-12T20:35:26.422Z</time></trkpt><trkpt lat="51.4390931" lon="-0.1291006"><ele>48.0</ele><time>2026-04-12T20:35:27.421Z</time></trkpt><trkpt lat="51.4390526" lon="-0.1289871"><ele>48.49999999999999</ele><time>2026-04-12T20:35:28.421Z</time></trkpt><trkpt lat="51.4390152" lon="-0.1288791"><ele>49.0</ele><time>2026-04-12T20:35:29.422Z</time></trkpt><trkpt lat="51.4389772" lon="-0.1287736"><ele>49.33333333333333</ele><time>2026-04-12T20:35:30.422Z</time></trkpt><trkpt lat="51.4389397" lon="-0.1286682"><ele>49.666666666666664</ele><time>2026-04-12T20:35:31.421Z</time></trkpt><trkpt lat="51.4389069" lon="-0.1285696"><ele>50.0</ele><time>2026-04-12T20:35:32.422Z</time></trkpt><trkpt lat="51.4388569" lon="-0.128428"><ele>50.33333333333333</ele><time>2026-04-12T20:35:34.422Z</time></trkpt><trkpt lat="51.4388095" lon="-0.1283222"><ele>50.666666666666664</ele><time>2026-04-12T20:35:36.422Z</time></trkpt><trkpt lat="51.4387515" lon="-0.1281943"><ele>51.0</ele><time>2026-04-12T20:35:38.422Z</time></trkpt><trkpt lat="51.4386902" lon="-0.1280528"><ele>51.166666666666664</ele><time>2026-04-12T20:35:40.422Z</time></trkpt><trkpt lat="51.4386421" lon="-0.127917"><ele>51.33333333333333</ele><time>2026-04-12T20:35:42.421Z</time></trkpt><trkpt lat="51.4386048" lon="-0.1277999"><ele>51.5</ele><time>2026-04-12T20:35:44.422Z</time></trkpt><trkpt lat="51.43861" lon="-0.1276727"><ele>51.666666666666664</ele><time>2026-04-12T20:35:47.421Z</time></trkpt><trkpt lat="51.4385843" lon="-0.1275732"><ele>51.83333333333333</ele><time>2026-04-12T20:35:49.421Z</time></trkpt><trkpt lat="51.4385415" lon="-0.1274935"><ele>52.0</ele><time>2026-04-12T20:35:51.421Z</time></trkpt><trkpt lat="51.4384783" lon="-0.1273812"><ele>52.400000000000006</ele><time>2026-04-12T20:36:41.423Z</time></trkpt><trkpt lat="51.4384378" lon="-0.1272411"><ele>52.800000000000004</ele><time>2026-04-12T20:36:43.423Z</time></trkpt><trkpt lat="51.4384004" lon="-0.1271209"><ele>53.2</ele><time>2026-04-12T20:36:45.422Z</time></trkpt><trkpt lat="51.4383623" lon="-0.1269821"><ele>53.6</ele><time>2026-04-12T20:36:47.422Z</time></trkpt><trkpt lat="51.438297" lon="-0.126865"><ele>54.0</ele><time>2026-04-12T20:36:49.423Z</time></trkpt><trkpt lat="51.4381905" lon="-0.126789"><ele>54.0</ele><time>2026-04-12T20:36:51.422Z</time></trkpt><trkpt lat="51.4381136" lon="-0.1267449"><ele>54.0</ele><time>2026-04-12T20:36:52.423Z</time></trkpt><trkpt lat="51.4380292" lon="-0.126689"><ele>54.0</ele><time>2026-04-12T20:36:53.422Z</time></trkpt><trkpt lat="51.4379455" lon="-0.1266268"><ele>54.0</ele><time>2026-04-12T20:36:54.422Z</time></trkpt><trkpt lat="51.4378658" lon="-0.1265658"><ele>54.0</ele><time>2026-04-12T20:36:55.423Z</time></trkpt><trkpt lat="51.4377841" lon="-0.1265058"><ele>54.0</ele><time>2026-04-12T20:36:56.422Z</time></trkpt><trkpt lat="51.4377057" lon="-0.1264482"><ele>54.800000000000004</ele><time>2026-04-12T20:36:57.423Z</time></trkpt><trkpt lat="51.4376235" lon="-0.1263767"><ele>55.60000000000001</ele><time>2026-04-12T20:36:58.422Z</time></trkpt><trkpt lat="51.4375331" lon="-0.1262967"><ele>56.4</ele><time>2026-04-12T20:36:59.423Z</time></trkpt><trkpt lat="51.4374246" lon="-0.1262122"><ele>57.2</ele><time>2026-04-12T20:37:00.422Z</time></trkpt><trkpt lat="51.4373115" lon="-0.1261156"><ele>58.0</ele><time>2026-04-12T20:37:01.423Z</time></trkpt><trkpt lat="51.4372096" lon="-0.1260179"><ele>58.33333333333333</ele><time>2026-04-12T20:37:02.422Z</time></trkpt><trkpt lat="51.4371197" lon="-0.1259252"><ele>58.666666666666664</ele><time>2026-04-12T20:37:03.423Z</time></trkpt><trkpt lat="51.4370426" lon="-0.125847"><ele>59.0</ele><time>2026-04-12T20:37:04.422Z</time></trkpt><trkpt lat="51.4369728" lon="-0.125777"><ele>59.33333333333333</ele><time>2026-04-12T20:37:05.423Z</time></trkpt><trkpt lat="51.436907" lon="-0.125708"><ele>59.666666666666664</ele><time>2026-04-12T20:37:06.423Z</time></trkpt><trkpt lat="51.4368397" lon="-0.1256426"><ele>60.0</ele><time>2026-04-12T20:37:07.423Z</time></trkpt><trkpt lat="51.436772" lon="-0.1255722"><ele>60.166666666666664</ele><time>2026-04-12T20:37:08.423Z</time></trkpt><trkpt lat="51.4367041" lon="-0.1254997"><ele>60.33333333333333</ele><time>2026-04-12T20:37:09.423Z</time></trkpt><trkpt lat="51.4366366" lon="-0.1254255"><ele>60.5</ele><time>2026-04-12T20:37:10.423Z</time></trkpt><trkpt lat="51.436567" lon="-0.1253478"><ele>60.666666666666664</ele><time>2026-04-12T20:37:11.423Z</time></trkpt><trkpt lat="51.4364936" lon="-0.1252657"><ele>60.83333333333333</ele><time>2026-04-12T20:37:12.423Z</time></trkpt><trkpt lat="51.4364189" lon="-0.1251776"><ele>61.0</ele><time>2026-04-12T20:37:13.423Z</time></trkpt><trkpt lat="51.436348" lon="-0.1250955"><ele>61.166666666666664</ele><time>2026-04-12T20:37:14.423Z</time></trkpt><trkpt lat="51.4362799" lon="-0.1250179"><ele>61.33333333333333</ele><time>2026-04-12T20:37:15.423Z</time></trkpt><trkpt lat="51.4362152" lon="-0.1249451"><ele>61.5</ele><time>2026-04-12T20:37:16.422Z</time></trkpt><trkpt lat="51.4361526" lon="-0.124879"><ele>61.66666666666667</ele><time>2026-04-12T20:37:17.422Z</time></trkpt><trkpt lat="51.4360952" lon="-0.1248114"><ele>61.833333333333336</ele><time>2026-04-12T20:37:18.423Z</time></trkpt><trkpt lat="51.4360398" lon="-0.1247452"><ele>62.0</ele><time>2026-04-12T20:37:19.422Z</time></trkpt><trkpt lat="51.4359817" lon="-0.1246709"><ele>62.16666666666667</ele><time>2026-04-12T20:37:20.423Z</time></trkpt><trkpt lat="51.4359195" lon="-0.1245952"><ele>62.333333333333336</ele><time>2026-04-12T20:37:21.423Z</time></trkpt><trkpt lat="51.4358587" lon="-0.1245146"><ele>62.5</ele><time>2026-04-12T20:37:22.422Z</time></trkpt><trkpt lat="51.4357939" lon="-0.124434"><ele>62.66666666666667</ele><time>2026-04-12T20:37:23.422Z</time></trkpt><trkpt lat="51.4357213" lon="-0.1243573"><ele>62.833333333333336</ele><time>2026-04-12T20:37:24.423Z</time></trkpt><trkpt lat="51.4356476" lon="-0.1242727"><ele>63.0</ele><time>2026-04-12T20:37:25.422Z</time></trkpt><trkpt lat="51.4355742" lon="-0.1241808"><ele>63.0</ele><time>2026-04-12T20:37:26.422Z</time></trkpt><trkpt lat="51.4355037" lon="-0.1240968"><ele>63.0</ele><time>2026-04-12T20:37:27.423Z</time></trkpt><trkpt lat="51.4354384" lon="-0.1240199"><ele>63.0</ele><time>2026-04-12T20:37:28.423Z</time></trkpt><trkpt lat="51.4353753" lon="-0.1239366"><ele>63.0</ele><time>2026-04-12T20:37:29.422Z</time></trkpt><trkpt lat="51.4353144" lon="-0.123855"><ele>63.0</ele><time>2026-04-12T20:37:30.422Z</time></trkpt><trkpt lat="51.435257" lon="-0.1237801"><ele>63.0</ele><time>2026-04-12T20:37:31.422Z</time></trkpt><trkpt lat="51.4352023" lon="-0.1237076"><ele>63.666666666666664</ele><time>2026-04-12T20:37:32.422Z</time></trkpt><trkpt lat="51.4351447" lon="-0.1236299"><ele>64.33333333333333</ele><time>2026-04-12T20:37:33.423Z</time></trkpt><trkpt lat="51.4350834" lon="-0.1235503"><ele>65.0</ele><time>2026-04-12T20:37:34.422Z</time></trkpt><trkpt lat="51.4350232" lon="-0.1234743"><ele>65.66666666666666</ele><time>2026-04-12T20:37:35.422Z</time></trkpt><trkpt lat="51.4349589" lon="-0.1233878"><ele>66.33333333333333</ele><time>2026-04-12T20:37:36.422Z</time></trkpt><trkpt lat="51.4348974" lon="-0.1233045"><ele>67.0</ele><time>2026-04-12T20:37:37.423Z</time></trkpt><trkpt lat="51.4348386" lon="-0.1232238"><ele>67.0</ele><time>2026-04-12T20:37:38.423Z</time></trkpt><trkpt lat="51.4347793" lon="-0.1231461"><ele>67.0</ele><time>2026-04-12T20:37:39.422Z</time></trkpt><trkpt lat="51.4347176" lon="-0.1230677"><ele>67.0</ele><time>2026-04-12T20:37:40.424Z</time></trkpt><trkpt lat="51.4346569" lon="-0.122987"><ele>67.0</ele><time>2026-04-12T20:37:41.423Z</time></trkpt><trkpt lat="51.4346026" lon="-0.1229097"><ele>67.0</ele><time>2026-04-12T20:37:42.424Z</time></trkpt><trkpt lat="51.4345476" lon="-0.1228313"><ele>67.0</ele><time>2026-04-12T20:37:43.424Z</time></trkpt><trkpt lat="51.434491" lon="-0.1227518"><ele>67.0</ele><time>2026-04-12T20:37:44.424Z</time></trkpt><trkpt lat="51.4344353" lon="-0.122672"><ele>67.0</ele><time>2026-04-12T20:37:45.423Z</time></trkpt><trkpt lat="51.4343874" lon="-0.1225953"><ele>67.0</ele><time>2026-04-12T20:37:46.424Z</time></trkpt><trkpt lat="51.4343018" lon="-0.1224368"><ele>67.0</ele><time>2026-04-12T20:37:48.424Z</time></trkpt><trkpt lat="51.4342555" lon="-0.1223445"><ele>67.0</ele><time>2026-04-12T20:37:49.424Z</time></trkpt><trkpt lat="51.4342064" lon="-0.122245"><ele>67.0</ele><time>2026-04-12T20:37:50.424Z</time></trkpt><trkpt lat="51.4341533" lon="-0.1221402"><ele>67.16666666666666</ele><time>2026-04-12T20:37:51.423Z</time></trkpt><trkpt lat="51.434101" lon="-0.1220397"><ele>67.33333333333333</ele><time>2026-04-12T20:37:52.424Z</time></trkpt><trkpt lat="51.4340523" lon="-0.1219401"><ele>67.5</ele><time>2026-04-12T20:37:53.423Z</time></trkpt><trkpt lat="51.4340076" lon="-0.1218429"><ele>67.66666666666667</ele><time>2026-04-12T20:37:54.424Z</time></trkpt><trkpt lat="51.4339642" lon="-0.1217423"><ele>67.83333333333334</ele><time>2026-04-12T20:37:55.423Z</time></trkpt><trkpt lat="51.4339214" lon="-0.1216379"><ele>68.0</ele><time>2026-04-12T20:37:56.424Z</time></trkpt><trkpt lat="51.4338786" lon="-0.1215288"><ele>68.0</ele><time>2026-04-12T20:37:57.424Z</time></trkpt><trkpt lat="51.4338411" lon="-0.1214193"><ele>68.0</ele><time>2026-04-12T20:37:58.423Z</time></trkpt><trkpt lat="51.4338077" lon="-0.1213099"><ele>68.0</ele><time>2026-04-12T20:37:59.423Z</time></trkpt><trkpt lat="51.4337746" lon="-0.1212012"><ele>68.0</ele><time>2026-04-12T20:38:00.424Z</time></trkpt><trkpt lat="51.4337411" lon="-0.121092"><ele>68.0</ele><time>2026-04-12T20:38:01.424Z</time></trkpt><trkpt lat="51.4337077" lon="-0.120977"><ele>68.0</ele><time>2026-04-12T20:38:02.423Z</time></trkpt><trkpt lat="51.433678" lon="-0.1208685"><ele>67.99999999999999</ele><time>2026-04-12T20:38:03.424Z</time></trkpt><trkpt lat="51.4336436" lon="-0.1207493"><ele>68.0</ele><time>2026-04-12T20:38:04.424Z</time></trkpt><trkpt lat="51.4336137" lon="-0.1206358"><ele>68.0</ele><time>2026-04-12T20:38:05.424Z</time></trkpt><trkpt lat="51.4335842" lon="-0.1205195"><ele>68.0</ele><time>2026-04-12T20:38:06.424Z</time></trkpt><trkpt lat="51.433558" lon="-0.1204117"><ele>68.0</ele><time>2026-04-12T20:38:07.424Z</time></trkpt><trkpt lat="51.433534" lon="-0.120309"><ele>67.99999999999999</ele><time>2026-04-12T20:38:08.424Z</time></trkpt><trkpt lat="51.4335112" lon="-0.1202123"><ele>68.0</ele><time>2026-04-12T20:38:09.424Z</time></trkpt><trkpt lat="51.4334894" lon="-0.1201163"><ele>68.0</ele><time>2026-04-12T20:38:10.424Z</time></trkpt><trkpt lat="51.4334654" lon="-0.1200105"><ele>68.0</ele><time>2026-04-12T20:38:11.424Z</time></trkpt><trkpt lat="51.4334407" lon="-0.119887"><ele>68.0</ele><time>2026-04-12T20:38:12.424Z</time></trkpt><trkpt lat="51.4334116" lon="-0.1197453"><ele>68.0</ele><time>2026-04-12T20:38:13.424Z</time></trkpt><trkpt lat="51.4333803" lon="-0.1196012"><ele>68.0</ele><time>2026-04-12T20:38:14.424Z</time></trkpt><trkpt lat="51.4333499" lon="-0.1194525"><ele>68.0</ele><time>2026-04-12T20:38:15.424Z</time></trkpt><trkpt lat="51.4333198" lon="-0.1193007"><ele>67.66666666666667</ele><time>2026-04-12T20:38:16.423Z</time></trkpt><trkpt lat="51.4332917" lon="-0.119156"><ele>67.33333333333334</ele><time>2026-04-12T20:38:17.424Z</time></trkpt><trkpt lat="51.4332669" lon="-0.1190194"><ele>67.0</ele><time>2026-04-12T20:38:18.424Z</time></trkpt><trkpt lat="51.4332424" lon="-0.1188911"><ele>66.66666666666667</ele><time>2026-04-12T20:38:19.423Z</time></trkpt><trkpt lat="51.4332192" lon="-0.1187686"><ele>66.33333333333333</ele><time>2026-04-12T20:38:20.423Z</time></trkpt><trkpt lat="51.4331968" lon="-0.1186478"><ele>66.0</ele><time>2026-04-12T20:38:21.424Z</time></trkpt><trkpt lat="51.4331766" lon="-0.1185293"><ele>65.83333333333333</ele><time>2026-04-12T20:38:22.424Z</time></trkpt><trkpt lat="51.4331568" lon="-0.1184154"><ele>65.66666666666667</ele><time>2026-04-12T20:38:23.423Z</time></trkpt><trkpt lat="51.433139" lon="-0.1183061"><ele>65.5</ele><time>2026-04-12T20:38:24.424Z</time></trkpt><trkpt lat="51.4331206" lon="-0.1182044"><ele>65.33333333333334</ele><time>2026-04-12T20:38:25.423Z</time></trkpt><trkpt lat="51.4331015" lon="-0.1180901"><ele>65.16666666666667</ele><time>2026-04-12T20:38:26.423Z</time></trkpt><trkpt lat="51.4330803" lon="-0.1179643"><ele>65.0</ele><time>2026-04-12T20:38:27.423Z</time></trkpt><trkpt lat="51.433058" lon="-0.1178273"><ele>65.0</ele><time>2026-04-12T20:38:28.423Z</time></trkpt><trkpt lat="51.4330319" lon="-0.1176854"><ele>65.0</ele><time>2026-04-12T20:38:29.424Z</time></trkpt><trkpt lat="51.4330069" lon="-0.1175513"><ele>65.0</ele><time>2026-04-12T20:38:30.424Z</time></trkpt><trkpt lat="51.4329666" lon="-0.1174098"><ele>65.0</ele><time>2026-04-12T20:38:31.423Z</time></trkpt><trkpt lat="51.4329226" lon="-0.1172625"><ele>65.0</ele><time>2026-04-12T20:38:32.424Z</time></trkpt><trkpt lat="51.4328742" lon="-0.1171112"><ele>66.25</ele><time>2026-04-12T20:38:33.423Z</time></trkpt><trkpt lat="51.43282" lon="-0.1169554"><ele>67.5</ele><time>2026-04-12T20:38:34.423Z</time></trkpt><trkpt lat="51.4327617" lon="-0.1168001"><ele>68.75</ele><time>2026-04-12T20:38:35.423Z</time></trkpt><trkpt lat="51.4326988" lon="-0.1166451"><ele>70.0</ele><time>2026-04-12T20:38:36.424Z</time></trkpt><trkpt lat="51.4326335" lon="-0.1164917"><ele>71.25</ele><time>2026-04-12T20:38:37.424Z</time></trkpt><trkpt lat="51.4325635" lon="-0.1163404"><ele>72.5</ele><time>2026-04-12T20:38:38.423Z</time></trkpt><trkpt lat="51.4324931" lon="-0.1161983"><ele>73.75</ele><time>2026-04-12T20:38:39.424Z</time></trkpt><trkpt lat="51.4324084" lon="-0.1160611"><ele>75.0</ele><time>2026-04-12T20:38:40.423Z</time></trkpt><trkpt lat="51.4323192" lon="-0.1159299"><ele>75.0</ele><time>2026-04-12T20:38:41.423Z</time></trkpt><trkpt lat="51.4322246" lon="-0.1158"><ele>75.0</ele><time>2026-04-12T20:38:42.424Z</time></trkpt><trkpt lat="51.4321277" lon="-0.1156704"><ele>75.0</ele><time>2026-04-12T20:38:43.424Z</time></trkpt><trkpt lat="51.4320329" lon="-0.1155495"><ele>75.0</ele><time>2026-04-12T20:38:44.424Z</time></trkpt><trkpt lat="51.4319402" lon="-0.1154302"><ele>75.8</ele><time>2026-04-12T20:38:45.424Z</time></trkpt><trkpt lat="51.4318518" lon="-0.1153134"><ele>76.6</ele><time>2026-04-12T20:38:46.424Z</time></trkpt><trkpt lat="51.4317688" lon="-0.1151977"><ele>77.4</ele><time>2026-04-12T20:38:47.424Z</time></trkpt><trkpt lat="51.4316948" lon="-0.1150787"><ele>78.2</ele><time>2026-04-12T20:38:48.423Z</time></trkpt><trkpt lat="51.4316236" lon="-0.1149676"><ele>79.0</ele><time>2026-04-12T20:38:49.424Z</time></trkpt><trkpt lat="51.4315474" lon="-0.1148634"><ele>80.0</ele><time>2026-04-12T20:38:50.423Z</time></trkpt><trkpt lat="51.4314687" lon="-0.1147653"><ele>81.0</ele><time>2026-04-12T20:38:51.424Z</time></trkpt><trkpt lat="51.4313892" lon="-0.1146745"><ele>82.0</ele><time>2026-04-12T20:38:52.423Z</time></trkpt><trkpt lat="51.4313003" lon="-0.1145899"><ele>83.0</ele><time>2026-04-12T20:38:53.424Z</time></trkpt><trkpt lat="51.4312034" lon="-0.1145197"><ele>84.0</ele><time>2026-04-12T20:38:54.424Z</time></trkpt><trkpt lat="51.4310992" lon="-0.114463"><ele>84.0</ele><time>2026-04-12T20:38:55.423Z</time></trkpt><trkpt lat="51.4309968" lon="-0.1144264"><ele>84.0</ele><time>2026-04-12T20:38:56.424Z</time></trkpt><trkpt lat="51.4309101" lon="-0.1144061"><ele>84.0</ele><time>2026-04-12T20:38:57.424Z</time></trkpt><trkpt lat="51.4308169" lon="-0.1143819"><ele>84.0</ele><time>2026-04-12T20:38:58.425Z</time></trkpt><trkpt lat="51.4307096" lon="-0.1143445"><ele>84.0</ele><time>2026-04-12T20:38:59.424Z</time></trkpt><trkpt lat="51.4305958" lon="-0.1143178"><ele>84.0</ele><time>2026-04-12T20:39:00.424Z</time></trkpt><trkpt lat="51.4304801" lon="-0.1142955"><ele>84.0</ele><time>2026-04-12T20:39:01.425Z</time></trkpt><trkpt lat="51.4303612" lon="-0.1142822"><ele>84.0</ele><time>2026-04-12T20:39:02.424Z</time></trkpt><trkpt lat="51.4302392" lon="-0.114281"><ele>84.0</ele><time>2026-04-12T20:39:03.424Z</time></trkpt><trkpt lat="51.4301099" lon="-0.1142778"><ele>84.0</ele><time>2026-04-12T20:39:04.425Z</time></trkpt><trkpt lat="51.4299646" lon="-0.1142767"><ele>84.0</ele><time>2026-04-12T20:39:05.425Z</time></trkpt><trkpt lat="51.4298135" lon="-0.114284"><ele>84.0</ele><time>2026-04-12T20:39:06.424Z</time></trkpt><trkpt lat="51.4296681" lon="-0.1142901"><ele>84.0</ele><time>2026-04-12T20:39:07.425Z</time></trkpt><trkpt lat="51.4295277" lon="-0.1142981"><ele>85.0</ele><time>2026-04-12T20:39:08.424Z</time></trkpt><trkpt lat="51.4293754" lon="-0.1143132"><ele>86.0</ele><time>2026-04-12T20:39:09.425Z</time></trkpt><trkpt lat="51.4292147" lon="-0.1143296"><ele>87.0</ele><time>2026-04-12T20:39:10.424Z</time></trkpt><trkpt lat="51.4290395" lon="-0.1143599"><ele>87.0</ele><time>2026-04-12T20:39:11.425Z</time></trkpt><trkpt lat="51.4288797" lon="-0.1143951"><ele>87.0</ele><time>2026-04-12T20:39:12.425Z</time></trkpt><trkpt lat="51.4287304" lon="-0.1144239"><ele>87.0</ele><time>2026-04-12T20:39:13.425Z</time></trkpt><trkpt lat="51.4285868" lon="-0.1144482"><ele>87.25</ele><time>2026-04-12T20:39:14.424Z</time></trkpt><trkpt lat="51.4284457" lon="-0.1144718"><ele>87.5</ele><time>2026-04-12T20:39:15.424Z</time></trkpt><trkpt lat="51.4283093" lon="-0.1144899"><ele>87.75</ele><time>2026-04-12T20:39:16.424Z</time></trkpt><trkpt lat="51.4281751" lon="-0.1145016"><ele>88.0</ele><time>2026-04-12T20:39:17.424Z</time></trkpt><trkpt lat="51.4280419" lon="-0.1145084"><ele>88.5</ele><time>2026-04-12T20:39:18.425Z</time></trkpt><trkpt lat="51.4279091" lon="-0.1145154"><ele>89.0</ele><time>2026-04-12T20:39:19.425Z</time></trkpt><trkpt lat="51.4277798" lon="-0.1145215"><ele>89.5</ele><time>2026-04-12T20:39:20.424Z</time></trkpt><trkpt lat="51.4276609" lon="-0.1145216"><ele>90.0</ele><time>2026-04-12T20:39:21.424Z</time></trkpt><trkpt lat="51.4275474" lon="-0.1145184"><ele>90.0</ele><time>2026-04-12T20:39:22.425Z</time></trkpt><trkpt lat="51.427442" lon="-0.1145026"><ele>90.0</ele><time>2026-04-12T20:39:23.424Z</time></trkpt><trkpt lat="51.4273419" lon="-0.1144799"><ele>90.0</ele><time>2026-04-12T20:39:24.424Z</time></trkpt><trkpt lat="51.4272526" lon="-0.1144496"><ele>90.0</ele><time>2026-04-12T20:39:25.424Z</time></trkpt><trkpt lat="51.4271609" lon="-0.1144274"><ele>90.0</ele><time>2026-04-12T20:39:26.425Z</time></trkpt><trkpt lat="51.4270474" lon="-0.1143934"><ele>90.0</ele><time>2026-04-12T20:39:27.425Z</time></trkpt><trkpt lat="51.4269264" lon="-0.1143445"><ele>90.0</ele><time>2026-04-12T20:39:28.425Z</time></trkpt><trkpt lat="51.4267861" lon="-0.1142796"><ele>90.0</ele><time>2026-04-12T20:39:29.424Z</time></trkpt><trkpt lat="51.4266366" lon="-0.1141923"><ele>90.0</ele><time>2026-04-12T20:39:30.424Z</time></trkpt><trkpt lat="51.4264865" lon="-0.1141138"><ele>89.75</ele><time>2026-04-12T20:39:31.425Z</time></trkpt><trkpt lat="51.4263417" lon="-0.1140648"><ele>89.5</ele><time>2026-04-12T20:39:32.425Z</time></trkpt><trkpt lat="51.4262059" lon="-0.1140228"><ele>89.25</ele><time>2026-04-12T20:39:33.424Z</time></trkpt><trkpt lat="51.4260756" lon="-0.1139908"><ele>89.0</ele><time>2026-04-12T20:39:34.425Z</time></trkpt><trkpt lat="51.4259503" lon="-0.1139598"><ele>89.25</ele><time>2026-04-12T20:39:35.424Z</time></trkpt><trkpt lat="51.4258244" lon="-0.1139385"><ele>89.5</ele><time>2026-04-12T20:39:36.425Z</time></trkpt><trkpt lat="51.4256987" lon="-0.113922"><ele>89.75</ele><time>2026-04-12T20:39:37.424Z</time></trkpt><trkpt lat="51.4255752" lon="-0.1139139"><ele>90.0</ele><time>2026-04-12T20:39:38.425Z</time></trkpt><trkpt lat="51.4254496" lon="-0.1139113"><ele>90.0</ele><time>2026-04-12T20:39:39.425Z</time></trkpt><trkpt lat="51.4253255" lon="-0.1139178"><ele>90.0</ele><time>2026-04-12T20:39:40.425Z</time></trkpt><trkpt lat="51.4252024" lon="-0.1139323"><ele>90.0</ele><time>2026-04-12T20:39:41.425Z</time></trkpt><trkpt lat="51.425078" lon="-0.1139478"><ele>90.0</ele><time>2026-04-12T20:39:42.424Z</time></trkpt><trkpt lat="51.4249513" lon="-0.1139815"><ele>90.0</ele><time>2026-04-12T20:39:43.425Z</time></trkpt><trkpt lat="51.4248233" lon="-0.1140282"><ele>90.0</ele><time>2026-04-12T20:39:44.424Z</time></trkpt><trkpt lat="51.4246938" lon="-0.1140709"><ele>90.0</ele><time>2026-04-12T20:39:45.424Z</time></trkpt><trkpt lat="51.4245664" lon="-0.1141056"><ele>90.0</ele><time>2026-04-12T20:39:46.424Z</time></trkpt><trkpt lat="51.4244457" lon="-0.114134"><ele>90.2</ele><time>2026-04-12T20:39:47.424Z</time></trkpt><trkpt lat="51.4243311" lon="-0.1141659"><ele>90.4</ele><time>2026-04-12T20:39:48.425Z</time></trkpt><trkpt lat="51.4242169" lon="-0.1142014"><ele>90.6</ele><time>2026-04-12T20:39:49.425Z</time></trkpt><trkpt lat="51.4241139" lon="-0.114238"><ele>90.8</ele><time>2026-04-12T20:39:50.425Z</time></trkpt><trkpt lat="51.4240153" lon="-0.114274"><ele>91.0</ele><time>2026-04-12T20:39:51.424Z</time></trkpt><trkpt lat="51.4239215" lon="-0.1143085"><ele>91.0</ele><time>2026-04-12T20:39:52.425Z</time></trkpt><trkpt lat="51.4238289" lon="-0.1143412"><ele>91.0</ele><time>2026-04-12T20:39:53.424Z</time></trkpt><trkpt lat="51.4237416" lon="-0.1143783"><ele>91.0</ele><time>2026-04-12T20:39:54.424Z</time></trkpt><trkpt lat="51.4236616" lon="-0.114414"><ele>91.0</ele><time>2026-04-12T20:39:55.425Z</time></trkpt><trkpt lat="51.4235974" lon="-0.1144324"><ele>91.0</ele><time>2026-04-12T20:39:56.425Z</time></trkpt><trkpt lat="51.4234957" lon="-0.1143657"><ele>91.0</ele><time>2026-04-12T20:39:58.424Z</time></trkpt><trkpt lat="51.4234506" lon="-0.1142823"><ele>91.0</ele><time>2026-04-12T20:39:59.424Z</time></trkpt><trkpt lat="51.4234205" lon="-0.1141427"><ele>91.0</ele><time>2026-04-12T20:40:00.424Z</time></trkpt><trkpt lat="51.4233993" lon="-0.1139594"><ele>91.0</ele><time>2026-04-12T20:40:01.424Z</time></trkpt><trkpt lat="51.423373" lon="-0.1137714"><ele>91.0</ele><time>2026-04-12T20:40:02.425Z</time></trkpt><trkpt lat="51.4233466" lon="-0.1135792"><ele>90.75</ele><time>2026-04-12T20:40:03.425Z</time></trkpt><trkpt lat="51.4233239" lon="-0.1133892"><ele>90.5</ele><time>2026-04-12T20:40:04.425Z</time></trkpt><trkpt lat="51.4233032" lon="-0.1132023"><ele>90.25</ele><time>2026-04-12T20:40:05.424Z</time></trkpt><trkpt lat="51.4232872" lon="-0.1130275"><ele>90.0</ele><time>2026-04-12T20:40:06.425Z</time></trkpt><trkpt lat="51.4232736" lon="-0.1128596"><ele>90.8</ele><time>2026-04-12T20:40:07.425Z</time></trkpt><trkpt lat="51.4232636" lon="-0.1127041"><ele>91.6</ele><time>2026-04-12T20:40:08.424Z</time></trkpt><trkpt lat="51.4232542" lon="-0.1125501"><ele>92.4</ele><time>2026-04-12T20:40:09.425Z</time></trkpt><trkpt lat="51.4232459" lon="-0.1123961"><ele>93.2</ele><time>2026-04-12T20:40:10.425Z</time></trkpt><trkpt lat="51.4232425" lon="-0.1122407"><ele>94.0</ele><time>2026-04-12T20:40:11.424Z</time></trkpt><trkpt lat="51.4232336" lon="-0.112089"><ele>94.0</ele><time>2026-04-12T20:40:12.424Z</time></trkpt><trkpt lat="51.4232253" lon="-0.1119389"><ele>94.0</ele><time>2026-04-12T20:40:13.424Z</time></trkpt><trkpt lat="51.4232171" lon="-0.1117884"><ele>94.0</ele><time>2026-04-12T20:40:14.426Z</time></trkpt><trkpt lat="51.4232064" lon="-0.1116453"><ele>94.0</ele><time>2026-04-12T20:40:15.426Z</time></trkpt><trkpt lat="51.4231979" lon="-0.1114989"><ele>94.0</ele><time>2026-04-12T20:40:16.426Z</time></trkpt><trkpt lat="51.4231896" lon="-0.111348"><ele>94.0</ele><time>2026-04-12T20:40:17.425Z</time></trkpt><trkpt lat="51.423181" lon="-0.1112022"><ele>94.0</ele><time>2026-04-12T20:40:18.425Z</time></trkpt><trkpt lat="51.4231726" lon="-0.1110591"><ele>94.0</ele><time>2026-04-12T20:40:19.426Z</time></trkpt><trkpt lat="51.423166" lon="-0.1109147"><ele>94.0</ele><time>2026-04-12T20:40:20.425Z</time></trkpt><trkpt lat="51.4231609" lon="-0.1107702"><ele>94.0</ele><time>2026-04-12T20:40:21.426Z</time></trkpt><trkpt lat="51.4231576" lon="-0.1106227"><ele>93.80000000000001</ele><time>2026-04-12T20:40:22.426Z</time></trkpt><trkpt lat="51.4231556" lon="-0.1104739"><ele>93.60000000000001</ele><time>2026-04-12T20:40:23.426Z</time></trkpt><trkpt lat="51.4231565" lon="-0.1103219"><ele>93.4</ele><time>2026-04-12T20:40:24.426Z</time></trkpt><trkpt lat="51.4231617" lon="-0.110168"><ele>93.2</ele><time>2026-04-12T20:40:25.425Z</time></trkpt><trkpt lat="51.4231691" lon="-0.1100168"><ele>93.0</ele><time>2026-04-12T20:40:26.426Z</time></trkpt><trkpt lat="51.4231773" lon="-0.1098718"><ele>92.83333333333333</ele><time>2026-04-12T20:40:27.425Z</time></trkpt><trkpt lat="51.423187" lon="-0.109729"><ele>92.66666666666667</ele><time>2026-04-12T20:40:28.426Z</time></trkpt><trkpt lat="51.4231943" lon="-0.109582"><ele>92.5</ele><time>2026-04-12T20:40:29.425Z</time></trkpt><trkpt lat="51.4231946" lon="-0.1094335"><ele>92.33333333333334</ele><time>2026-04-12T20:40:30.426Z</time></trkpt><trkpt lat="51.4231879" lon="-0.1092916"><ele>92.16666666666667</ele><time>2026-04-12T20:40:31.426Z</time></trkpt><trkpt lat="51.423172" lon="-0.1091592"><ele>92.0</ele><time>2026-04-12T20:40:32.426Z</time></trkpt><trkpt lat="51.4231513" lon="-0.1090353"><ele>92.33333333333334</ele><time>2026-04-12T20:40:33.426Z</time></trkpt><trkpt lat="51.423128" lon="-0.1089156"><ele>92.66666666666667</ele><time>2026-04-12T20:40:34.426Z</time></trkpt><trkpt lat="51.4231025" lon="-0.1087928"><ele>93.0</ele><time>2026-04-12T20:40:35.425Z</time></trkpt><trkpt lat="51.4230753" lon="-0.1086651"><ele>93.33333333333333</ele><time>2026-04-12T20:40:36.426Z</time></trkpt><trkpt lat="51.4230454" lon="-0.1085392"><ele>93.66666666666666</ele><time>2026-04-12T20:40:37.426Z</time></trkpt><trkpt lat="51.4230163" lon="-0.1084171"><ele>94.0</ele><time>2026-04-12T20:40:38.426Z</time></trkpt><trkpt lat="51.4229878" lon="-0.1082954"><ele>94.0</ele><time>2026-04-12T20:40:39.425Z</time></trkpt><trkpt lat="51.4229597" lon="-0.1081707"><ele>94.0</ele><time>2026-04-12T20:40:40.426Z</time></trkpt><trkpt lat="51.4229282" lon="-0.108042"><ele>94.0</ele><time>2026-04-12T20:40:41.426Z</time></trkpt><trkpt lat="51.4228971" lon="-0.1079182"><ele>94.0</ele><time>2026-04-12T20:40:42.425Z</time></trkpt><trkpt lat="51.422871" lon="-0.1078025"><ele>94.0</ele><time>2026-04-12T20:40:43.426Z</time></trkpt><trkpt lat="51.4228463" lon="-0.1076899"><ele>94.0</ele><time>2026-04-12T20:40:44.426Z</time></trkpt><trkpt lat="51.4228196" lon="-0.1075685"><ele>94.0</ele><time>2026-04-12T20:40:45.426Z</time></trkpt><trkpt lat="51.4227912" lon="-0.1074247"><ele>94.0</ele><time>2026-04-12T20:40:46.425Z</time></trkpt><trkpt lat="51.4227649" lon="-0.1072687"><ele>94.0</ele><time>2026-04-12T20:40:47.426Z</time></trkpt><trkpt lat="51.422742" lon="-0.1071219"><ele>94.0</ele><time>2026-04-12T20:40:48.425Z</time></trkpt><trkpt lat="51.4227201" lon="-0.1069853"><ele>94.0</ele><time>2026-04-12T20:40:49.426Z</time></trkpt><trkpt lat="51.4227002" lon="-0.1068643"><ele>93.80000000000001</ele><time>2026-04-12T20:40:50.425Z</time></trkpt><trkpt lat="51.4226817" lon="-0.1067451"><ele>93.60000000000001</ele><time>2026-04-12T20:40:51.425Z</time></trkpt><trkpt lat="51.4226655" lon="-0.1066357"><ele>93.4</ele><time>2026-04-12T20:40:52.426Z</time></trkpt><trkpt lat="51.4226468" lon="-0.1064442"><ele>93.2</ele><time>2026-04-12T20:40:54.425Z</time></trkpt><trkpt lat="51.4226286" lon="-0.1062539"><ele>93.0</ele><time>2026-04-12T20:40:56.426Z</time></trkpt><trkpt lat="51.422619" lon="-0.1060673"><ele>93.0</ele><time>2026-04-12T20:40:58.426Z</time></trkpt><trkpt lat="51.4226123" lon="-0.1058657"><ele>93.0</ele><time>2026-04-12T20:41:00.426Z</time></trkpt><trkpt lat="51.4226099" lon="-0.1057426"><ele>93.0</ele><time>2026-04-12T20:41:01.426Z</time></trkpt><trkpt lat="51.4226067" lon="-0.1056138"><ele>93.0</ele><time>2026-04-12T20:41:02.426Z</time></trkpt><trkpt lat="51.422606" lon="-0.1054851"><ele>93.0</ele><time>2026-04-12T20:41:03.426Z</time></trkpt><trkpt lat="51.4226114" lon="-0.105352"><ele>93.0</ele><time>2026-04-12T20:41:04.425Z</time></trkpt><trkpt lat="51.4226202" lon="-0.1052285"><ele>92.85714285714286</ele><time>2026-04-12T20:41:05.426Z</time></trkpt><trkpt lat="51.42263" lon="-0.1051104"><ele>92.71428571428572</ele><time>2026-04-12T20:41:06.426Z</time></trkpt><trkpt lat="51.4226391" lon="-0.1049966"><ele>92.57142857142858</ele><time>2026-04-12T20:41:07.426Z</time></trkpt><trkpt lat="51.4226474" lon="-0.1048785"><ele>92.42857142857143</ele><time>2026-04-12T20:41:08.425Z</time></trkpt><trkpt lat="51.4226546" lon="-0.1047583"><ele>92.28571428571428</ele><time>2026-04-12T20:41:09.426Z</time></trkpt><trkpt lat="51.4226609" lon="-0.1046372"><ele>92.14285714285715</ele><time>2026-04-12T20:41:10.425Z</time></trkpt><trkpt lat="51.4226659" lon="-0.1045206"><ele>92.0</ele><time>2026-04-12T20:41:11.425Z</time></trkpt><trkpt lat="51.4226712" lon="-0.104403"><ele>91.0</ele><time>2026-04-12T20:41:12.426Z</time></trkpt><trkpt lat="51.4226736" lon="-0.104281"><ele>90.0</ele><time>2026-04-12T20:41:13.426Z</time></trkpt><trkpt lat="51.4226737" lon="-0.1041547"><ele>89.0</ele><time>2026-04-12T20:41:14.426Z</time></trkpt><trkpt lat="51.4226731" lon="-0.1040246"><ele>88.0</ele><time>2026-04-12T20:41:15.426Z</time></trkpt><trkpt lat="51.4226726" lon="-0.1038932"><ele>87.0</ele><time>2026-04-12T20:41:16.425Z</time></trkpt><trkpt lat="51.4226716" lon="-0.1037723"><ele>86.0</ele><time>2026-04-12T20:41:17.425Z</time></trkpt><trkpt lat="51.4226689" lon="-0.1036521"><ele>85.33333333333334</ele><time>2026-04-12T20:41:18.425Z</time></trkpt><trkpt lat="51.422666" lon="-0.1035295"><ele>84.66666666666667</ele><time>2026-04-12T20:41:19.426Z</time></trkpt><trkpt lat="51.4226645" lon="-0.1034025"><ele>84.0</ele><time>2026-04-12T20:41:20.425Z</time></trkpt><trkpt lat="51.4226621" lon="-0.1032699"><ele>83.33333333333333</ele><time>2026-04-12T20:41:21.425Z</time></trkpt><trkpt lat="51.4226596" lon="-0.1031289"><ele>82.66666666666666</ele><time>2026-04-12T20:41:22.426Z</time></trkpt><trkpt lat="51.4226558" lon="-0.1029867"><ele>82.0</ele><time>2026-04-12T20:41:23.426Z</time></trkpt><trkpt lat="51.4226535" lon="-0.1028452"><ele>81.33333333333333</ele><time>2026-04-12T20:41:24.425Z</time></trkpt><trkpt lat="51.422652" lon="-0.1027019"><ele>80.66666666666666</ele><time>2026-04-12T20:41:25.426Z</time></trkpt><trkpt lat="51.4226491" lon="-0.1025574"><ele>80.0</ele><time>2026-04-12T20:41:26.426Z</time></trkpt><trkpt lat="51.422647" lon="-0.1024175"><ele>79.33333333333333</ele><time>2026-04-12T20:41:27.427Z</time></trkpt><trkpt lat="51.4226458" lon="-0.102283"><ele>78.66666666666667</ele><time>2026-04-12T20:41:28.426Z</time></trkpt><trkpt lat="51.4226431" lon="-0.1021532"><ele>78.0</ele><time>2026-04-12T20:41:29.427Z</time></trkpt><trkpt lat="51.4226411" lon="-0.1020278"><ele>77.5</ele><time>2026-04-12T20:41:30.426Z</time></trkpt><trkpt lat="51.4226397" lon="-0.1019187"><ele>77.0</ele><time>2026-04-12T20:41:31.427Z</time></trkpt><trkpt lat="51.4226379" lon="-0.1018061"><ele>76.5</ele><time>2026-04-12T20:41:32.427Z</time></trkpt><trkpt lat="51.4226238" lon="-0.101629"><ele>76.0</ele><time>2026-04-12T20:41:34.427Z</time></trkpt><trkpt lat="51.4225366" lon="-0.1015162"><ele>75.5</ele><time>2026-04-12T20:41:36.427Z</time></trkpt><trkpt lat="51.4224659" lon="-0.1014889"><ele>75.0</ele><time>2026-04-12T20:41:37.427Z</time></trkpt><trkpt lat="51.4223699" lon="-0.1014651"><ele>74.4</ele><time>2026-04-12T20:41:38.426Z</time></trkpt><trkpt lat="51.4222616" lon="-0.1014412"><ele>73.8</ele><time>2026-04-12T20:41:39.427Z</time></trkpt><trkpt lat="51.4221523" lon="-0.1014186"><ele>73.2</ele><time>2026-04-12T20:41:40.427Z</time></trkpt><trkpt lat="51.4220524" lon="-0.1014045"><ele>72.6</ele><time>2026-04-12T20:41:41.427Z</time></trkpt><trkpt lat="51.4219554" lon="-0.1013804"><ele>72.0</ele><time>2026-04-12T20:41:42.427Z</time></trkpt><trkpt lat="51.4218576" lon="-0.1013519"><ele>72.0</ele><time>2026-04-12T20:41:43.426Z</time></trkpt><trkpt lat="51.4217482" lon="-0.1013324"><ele>72.0</ele><time>2026-04-12T20:41:44.427Z</time></trkpt><trkpt lat="51.4216397" lon="-0.1013122"><ele>72.0</ele><time>2026-04-12T20:41:45.426Z</time></trkpt><trkpt lat="51.4215301" lon="-0.1012837"><ele>72.0</ele><time>2026-04-12T20:41:46.427Z</time></trkpt><trkpt lat="51.4214213" lon="-0.1012611"><ele>72.0</ele><time>2026-04-12T20:41:47.427Z</time></trkpt><trkpt lat="51.4213029" lon="-0.1012405"><ele>73.25</ele><time>2026-04-12T20:41:48.427Z</time></trkpt><trkpt lat="51.4211694" lon="-0.1012168"><ele>74.5</ele><time>2026-04-12T20:41:49.426Z</time></trkpt><trkpt lat="51.4210241" lon="-0.1011865"><ele>75.75</ele><time>2026-04-12T20:41:50.426Z</time></trkpt><trkpt lat="51.4208822" lon="-0.1011543"><ele>77.0</ele><time>2026-04-12T20:41:51.427Z</time></trkpt><trkpt lat="51.4207367" lon="-0.101122"><ele>77.0</ele><time>2026-04-12T20:41:52.426Z</time></trkpt><trkpt lat="51.4205865" lon="-0.1010941"><ele>77.0</ele><time>2026-04-12T20:41:53.427Z</time></trkpt><trkpt lat="51.4204309" lon="-0.1010624"><ele>77.0</ele><time>2026-04-12T20:41:54.426Z</time></trkpt><trkpt lat="51.4202749" lon="-0.1010305"><ele>78.75</ele><time>2026-04-12T20:41:55.427Z</time></trkpt><trkpt lat="51.4201222" lon="-0.1010008"><ele>80.5</ele><time>2026-04-12T20:41:56.427Z</time></trkpt><trkpt lat="51.4199775" lon="-0.1009728"><ele>82.25</ele><time>2026-04-12T20:41:57.426Z</time></trkpt><trkpt lat="51.4198573" lon="-0.1009421"><ele>84.0</ele><time>2026-04-12T20:41:58.426Z</time></trkpt><trkpt lat="51.4197599" lon="-0.1009177"><ele>84.0</ele><time>2026-04-12T20:41:59.427Z</time></trkpt><trkpt lat="51.4196827" lon="-0.1008997"><ele>84.0</ele><time>2026-04-12T20:42:00.426Z</time></trkpt><trkpt lat="51.4195976" lon="-0.1008527"><ele>84.0</ele><time>2026-04-12T20:42:02.427Z</time></trkpt><trkpt lat="51.4195649" lon="-0.1007221"><ele>84.0</ele><time>2026-04-12T20:42:04.427Z</time></trkpt><trkpt lat="51.4195658" lon="-0.1006057"><ele>84.0</ele><time>2026-04-12T20:42:05.426Z</time></trkpt><trkpt lat="51.419582" lon="-0.1004509"><ele>84.0</ele><time>2026-04-12T20:42:06.426Z</time></trkpt><trkpt lat="51.4195968" lon="-0.1002853"><ele>84.2</ele><time>2026-04-12T20:42:07.426Z</time></trkpt><trkpt lat="51.4196089" lon="-0.1001441"><ele>84.4</ele><time>2026-04-12T20:42:08.427Z</time></trkpt><trkpt lat="51.4196192" lon="-0.1000324"><ele>84.6</ele><time>2026-04-12T20:42:09.426Z</time></trkpt><trkpt lat="51.4196547" lon="-0.099896"><ele>84.8</ele><time>2026-04-12T20:42:11.427Z</time></trkpt><trkpt lat="51.4197694" lon="-0.0997803"><ele>85.0</ele><time>2026-04-12T20:42:13.426Z</time></trkpt><trkpt lat="51.4198514" lon="-0.0997283"><ele>85.0</ele><time>2026-04-12T20:42:14.427Z</time></trkpt><trkpt lat="51.4199238" lon="-0.0996781"><ele>85.0</ele><time>2026-04-12T20:42:15.427Z</time></trkpt><trkpt lat="51.4199806" lon="-0.0996338"><ele>85.0</ele><time>2026-04-12T20:42:16.426Z</time></trkpt><trkpt lat="51.4200542" lon="-0.099512"><ele>85.0</ele><time>2026-04-12T20:42:18.426Z</time></trkpt><trkpt lat="51.4200638" lon="-0.0993001"><ele>85.0</ele><time>2026-04-12T20:42:20.427Z</time></trkpt><trkpt lat="51.4200314" lon="-0.0991566"><ele>85.25</ele><time>2026-04-12T20:42:21.426Z</time></trkpt><trkpt lat="51.4199795" lon="-0.099001"><ele>85.5</ele><time>2026-04-12T20:42:22.426Z</time></trkpt><trkpt lat="51.4199078" lon="-0.0988348"><ele>85.75</ele><time>2026-04-12T20:42:23.426Z</time></trkpt><trkpt lat="51.4198382" lon="-0.0986726"><ele>86.0</ele><time>2026-04-12T20:42:24.427Z</time></trkpt><trkpt lat="51.419771" lon="-0.0985169"><ele>86.0</ele><time>2026-04-12T20:42:25.427Z</time></trkpt><trkpt lat="51.4197156" lon="-0.0983659"><ele>86.0</ele><time>2026-04-12T20:42:26.426Z</time></trkpt><trkpt lat="51.4196616" lon="-0.0982139"><ele>86.0</ele><time>2026-04-12T20:42:27.426Z</time></trkpt><trkpt lat="51.4196074" lon="-0.0980581"><ele>86.0</ele><time>2026-04-12T20:42:28.427Z</time></trkpt><trkpt lat="51.4195516" lon="-0.0978985"><ele>86.0</ele><time>2026-04-12T20:42:29.427Z</time></trkpt><trkpt lat="51.4194953" lon="-0.0977353"><ele>86.19999999999999</ele><time>2026-04-12T20:42:30.427Z</time></trkpt><trkpt lat="51.4194466" lon="-0.0975888"><ele>86.39999999999999</ele><time>2026-04-12T20:42:31.427Z</time></trkpt><trkpt lat="51.4194033" lon="-0.097452"><ele>86.6</ele><time>2026-04-12T20:42:32.426Z</time></trkpt><trkpt lat="51.4193509" lon="-0.0973171"><ele>86.8</ele><time>2026-04-12T20:42:33.427Z</time></trkpt><trkpt lat="51.4192957" lon="-0.0971766"><ele>87.0</ele><time>2026-04-12T20:42:34.427Z</time></trkpt><trkpt lat="51.4192422" lon="-0.0970295"><ele>86.39999999999999</ele><time>2026-04-12T20:42:35.427Z</time></trkpt><trkpt lat="51.4191907" lon="-0.0968861"><ele>85.8</ele><time>2026-04-12T20:42:36.426Z</time></trkpt><trkpt lat="51.4191439" lon="-0.0967467"><ele>85.2</ele><time>2026-04-12T20:42:37.427Z</time></trkpt><trkpt lat="51.4191019" lon="-0.0966124"><ele>84.6</ele><time>2026-04-12T20:42:38.427Z</time></trkpt><trkpt lat="51.4190589" lon="-0.0964864"><ele>84.0</ele><time>2026-04-12T20:42:39.426Z</time></trkpt><trkpt lat="51.4190171" lon="-0.0963702"><ele>83.66666666666667</ele><time>2026-04-12T20:42:40.426Z</time></trkpt><trkpt lat="51.4189767" lon="-0.096261"><ele>83.33333333333333</ele><time>2026-04-12T20:42:41.427Z</time></trkpt><trkpt lat="51.418942" lon="-0.0961572"><ele>83.0</ele><time>2026-04-12T20:42:42.426Z</time></trkpt><trkpt lat="51.4189073" lon="-0.0960575"><ele>82.66666666666666</ele><time>2026-04-12T20:42:43.426Z</time></trkpt><trkpt lat="51.4188517" lon="-0.0958998"><ele>82.33333333333333</ele><time>2026-04-12T20:42:45.428Z</time></trkpt><trkpt lat="51.4188093" lon="-0.095789"><ele>82.0</ele><time>2026-04-12T20:42:47.428Z</time></trkpt><trkpt lat="51.4187738" lon="-0.0956845"><ele>79.0</ele><time>2026-04-12T20:42:49.428Z</time></trkpt><trkpt lat="51.4187712" lon="-0.0955833"><ele>79.0</ele><time>2026-04-12T20:42:51.428Z</time></trkpt><trkpt lat="51.4188567" lon="-0.0954761"><ele>76.0</ele><time>2026-04-12T20:42:53.428Z</time></trkpt></trkseg></trk></gpx>